<?xml version="1.0" encoding="UTF-8" standalone="no" ?>
<gpx xmlns="http://www.topografix.com/GPX/1/1" xmlns:xsi="http://www.w3.org/2001/XMLSchema-instance" xsi:schemaLocation="http://www.topografix.com/GPX/1/1 http://www.topografix.com/GPX/1/1/gpx.xsd" version="1.1" creator="VisuGPX - https://www.visugpx.com">
  <metadata>
    <name>SortieVTT20220805</name>
  </metadata>
  <trk>
    <name><![CDATA[SortieVTT20220805_1]]></name>
    <trkseg>
      <trkpt lat="44.92562" lon="6.60362">
        <ele>1331.1</ele>
        <time>2022-08-05T06:57:32+0200</time>
      </trkpt>
      <trkpt lat="44.9256" lon="6.60356">
        <ele>1330.7</ele>
        <time>2022-08-05T06:57:33+0200</time>
      </trkpt>
      <trkpt lat="44.92557" lon="6.60351">
        <ele>1330.2</ele>
        <time>2022-08-05T06:57:34+0200</time>
      </trkpt>
      <trkpt lat="44.92553" lon="6.60347">
        <ele>1329.7</ele>
        <time>2022-08-05T06:57:35+0200</time>
      </trkpt>
      <trkpt lat="44.92548" lon="6.60341">
        <ele>1328.9</ele>
        <time>2022-08-05T06:57:36+0200</time>
      </trkpt>
      <trkpt lat="44.92544" lon="6.60335">
        <ele>1328.3</ele>
        <time>2022-08-05T06:57:37+0200</time>
      </trkpt>
      <trkpt lat="44.92539" lon="6.60329">
        <ele>1327.5</ele>
        <time>2022-08-05T06:57:38+0200</time>
      </trkpt>
      <trkpt lat="44.92534" lon="6.60322">
        <ele>1326.9</ele>
        <time>2022-08-05T06:57:39+0200</time>
      </trkpt>
      <trkpt lat="44.92528" lon="6.60319">
        <ele>1326</ele>
        <time>2022-08-05T06:57:40+0200</time>
      </trkpt>
      <trkpt lat="44.92522" lon="6.60313">
        <ele>1325.5</ele>
        <time>2022-08-05T06:57:41+0200</time>
      </trkpt>
      <trkpt lat="44.92516" lon="6.60306">
        <ele>1324.7</ele>
        <time>2022-08-05T06:57:42+0200</time>
      </trkpt>
      <trkpt lat="44.92511" lon="6.60297">
        <ele>1323.9</ele>
        <time>2022-08-05T06:57:43+0200</time>
      </trkpt>
      <trkpt lat="44.92507" lon="6.60287">
        <ele>1323.1</ele>
        <time>2022-08-05T06:57:44+0200</time>
      </trkpt>
      <trkpt lat="44.92504" lon="6.60278">
        <ele>1322.4</ele>
        <time>2022-08-05T06:57:45+0200</time>
      </trkpt>
      <trkpt lat="44.925" lon="6.60269">
        <ele>1321.7</ele>
        <time>2022-08-05T06:57:46+0200</time>
      </trkpt>
      <trkpt lat="44.92496" lon="6.6026">
        <ele>1320.9</ele>
        <time>2022-08-05T06:57:47+0200</time>
      </trkpt>
      <trkpt lat="44.92493" lon="6.60249">
        <ele>1320.2</ele>
        <time>2022-08-05T06:57:48+0200</time>
      </trkpt>
      <trkpt lat="44.92495" lon="6.60238">
        <ele>1320</ele>
        <time>2022-08-05T06:57:49+0200</time>
      </trkpt>
      <trkpt lat="44.92497" lon="6.60232">
        <ele>1320</ele>
        <time>2022-08-05T06:57:50+0200</time>
      </trkpt>
      <trkpt lat="44.925" lon="6.60219">
        <ele>1319.8</ele>
        <time>2022-08-05T06:57:52+0200</time>
      </trkpt>
      <trkpt lat="44.92502" lon="6.60208">
        <ele>1319.7</ele>
        <time>2022-08-05T06:57:53+0200</time>
      </trkpt>
      <trkpt lat="44.92504" lon="6.60199">
        <ele>1319.5</ele>
        <time>2022-08-05T06:57:54+0200</time>
      </trkpt>
      <trkpt lat="44.92505" lon="6.60187">
        <ele>1319</ele>
        <time>2022-08-05T06:57:56+0200</time>
      </trkpt>
      <trkpt lat="44.92503" lon="6.60179">
        <ele>1318.2</ele>
        <time>2022-08-05T06:57:58+0200</time>
      </trkpt>
      <trkpt lat="44.92501" lon="6.60172">
        <ele>1317.5</ele>
        <time>2022-08-05T06:57:59+0200</time>
      </trkpt>
      <trkpt lat="44.92498" lon="6.60164">
        <ele>1316.8</ele>
        <time>2022-08-05T06:58:00+0200</time>
      </trkpt>
      <trkpt lat="44.92497" lon="6.60158">
        <ele>1316.7</ele>
        <time>2022-08-05T06:58:01+0200</time>
      </trkpt>
      <trkpt lat="44.92497" lon="6.60148">
        <ele>1316.7</ele>
        <time>2022-08-05T06:58:03+0200</time>
      </trkpt>
      <trkpt lat="44.92497" lon="6.6014">
        <ele>1316.6</ele>
        <time>2022-08-05T06:58:13+0200</time>
      </trkpt>
      <trkpt lat="44.92498" lon="6.60134">
        <ele>1316.9</ele>
        <time>2022-08-05T06:58:22+0200</time>
      </trkpt>
      <trkpt lat="44.92495" lon="6.60126">
        <ele>1316.9</ele>
        <time>2022-08-05T06:59:54+0200</time>
      </trkpt>
      <trkpt lat="44.92489" lon="6.60118">
        <ele>1316.2</ele>
        <time>2022-08-05T06:59:56+0200</time>
      </trkpt>
      <trkpt lat="44.92485" lon="6.60114">
        <ele>1315.7</ele>
        <time>2022-08-05T06:59:57+0200</time>
      </trkpt>
      <trkpt lat="44.9248" lon="6.60111">
        <ele>1315.1</ele>
        <time>2022-08-05T06:59:58+0200</time>
      </trkpt>
      <trkpt lat="44.92476" lon="6.60109">
        <ele>1314.5</ele>
        <time>2022-08-05T06:59:59+0200</time>
      </trkpt>
      <trkpt lat="44.92469" lon="6.60103">
        <ele>1314.1</ele>
        <time>2022-08-05T07:00:01+0200</time>
      </trkpt>
      <trkpt lat="44.92465" lon="6.60099">
        <ele>1314.2</ele>
        <time>2022-08-05T07:00:02+0200</time>
      </trkpt>
      <trkpt lat="44.9246" lon="6.6009">
        <ele>1314.7</ele>
        <time>2022-08-05T07:00:04+0200</time>
      </trkpt>
      <trkpt lat="44.92456" lon="6.60084">
        <ele>1315.1</ele>
        <time>2022-08-05T07:00:06+0200</time>
      </trkpt>
      <trkpt lat="44.92452" lon="6.60086">
        <ele>1315.3</ele>
        <time>2022-08-05T07:00:10+0200</time>
      </trkpt>
      <trkpt lat="44.92455" lon="6.60093">
        <ele>1314.8</ele>
        <time>2022-08-05T07:00:12+0200</time>
      </trkpt>
      <trkpt lat="44.92458" lon="6.60098">
        <ele>1314.5</ele>
        <time>2022-08-05T07:00:14+0200</time>
      </trkpt>
      <trkpt lat="44.92461" lon="6.60106">
        <ele>1314.1</ele>
        <time>2022-08-05T07:00:17+0200</time>
      </trkpt>
      <trkpt lat="44.92467" lon="6.60108">
        <ele>1314</ele>
        <time>2022-08-05T07:00:19+0200</time>
      </trkpt>
      <trkpt lat="44.92474" lon="6.60113">
        <ele>1314.2</ele>
        <time>2022-08-05T07:00:21+0200</time>
      </trkpt>
      <trkpt lat="44.92479" lon="6.60117">
        <ele>1314.9</ele>
        <time>2022-08-05T07:00:23+0200</time>
      </trkpt>
      <trkpt lat="44.92485" lon="6.60122">
        <ele>1315.6</ele>
        <time>2022-08-05T07:00:26+0200</time>
      </trkpt>
      <trkpt lat="44.92486" lon="6.60129">
        <ele>1315.6</ele>
        <time>2022-08-05T07:00:31+0200</time>
      </trkpt>
      <trkpt lat="44.92488" lon="6.60137">
        <ele>1315.7</ele>
        <time>2022-08-05T07:00:36+0200</time>
      </trkpt>
      <trkpt lat="44.92492" lon="6.60137">
        <ele>1316.2</ele>
        <time>2022-08-05T07:00:45+0200</time>
      </trkpt>
      <trkpt lat="44.92493" lon="6.60145">
        <ele>1316.3</ele>
        <time>2022-08-05T07:00:54+0200</time>
      </trkpt>
      <trkpt lat="44.92495" lon="6.60151">
        <ele>1316.6</ele>
        <time>2022-08-05T07:00:59+0200</time>
      </trkpt>
      <trkpt lat="44.92495" lon="6.60143">
        <ele>1316.5</ele>
        <time>2022-08-05T07:01:18+0200</time>
      </trkpt>
      <trkpt lat="44.92492" lon="6.60134">
        <ele>1316.3</ele>
        <time>2022-08-05T07:01:20+0200</time>
      </trkpt>
      <trkpt lat="44.92489" lon="6.60125">
        <ele>1316</ele>
        <time>2022-08-05T07:01:21+0200</time>
      </trkpt>
      <trkpt lat="44.92485" lon="6.6012">
        <ele>1315.6</ele>
        <time>2022-08-05T07:01:22+0200</time>
      </trkpt>
      <trkpt lat="44.92479" lon="6.60116">
        <ele>1314.9</ele>
        <time>2022-08-05T07:01:23+0200</time>
      </trkpt>
      <trkpt lat="44.92473" lon="6.60113">
        <ele>1314.2</ele>
        <time>2022-08-05T07:01:24+0200</time>
      </trkpt>
      <trkpt lat="44.92469" lon="6.60107">
        <ele>1314</ele>
        <time>2022-08-05T07:01:26+0200</time>
      </trkpt>
      <trkpt lat="44.92461" lon="6.60101">
        <ele>1314.3</ele>
        <time>2022-08-05T07:01:28+0200</time>
      </trkpt>
      <trkpt lat="44.92457" lon="6.60098">
        <ele>1314.5</ele>
        <time>2022-08-05T07:01:29+0200</time>
      </trkpt>
      <trkpt lat="44.92453" lon="6.60092">
        <ele>1314.9</ele>
        <time>2022-08-05T07:01:30+0200</time>
      </trkpt>
      <trkpt lat="44.92451" lon="6.60086">
        <ele>1315.4</ele>
        <time>2022-08-05T07:01:32+0200</time>
      </trkpt>
      <trkpt lat="44.92448" lon="6.60077">
        <ele>1316.1</ele>
        <time>2022-08-05T07:01:34+0200</time>
      </trkpt>
      <trkpt lat="44.92447" lon="6.60066">
        <ele>1317</ele>
        <time>2022-08-05T07:01:35+0200</time>
      </trkpt>
      <trkpt lat="44.92448" lon="6.60056">
        <ele>1317.5</ele>
        <time>2022-08-05T07:01:37+0200</time>
      </trkpt>
      <trkpt lat="44.92449" lon="6.60046">
        <ele>1318</ele>
        <time>2022-08-05T07:01:39+0200</time>
      </trkpt>
      <trkpt lat="44.92451" lon="6.60037">
        <ele>1318.4</ele>
        <time>2022-08-05T07:01:41+0200</time>
      </trkpt>
      <trkpt lat="44.92453" lon="6.60024">
        <ele>1319</ele>
        <time>2022-08-05T07:01:43+0200</time>
      </trkpt>
      <trkpt lat="44.92455" lon="6.60018">
        <ele>1319.3</ele>
        <time>2022-08-05T07:01:44+0200</time>
      </trkpt>
      <trkpt lat="44.92457" lon="6.60007">
        <ele>1319.8</ele>
        <time>2022-08-05T07:01:46+0200</time>
      </trkpt>
      <trkpt lat="44.92459" lon="6.59998">
        <ele>1320.1</ele>
        <time>2022-08-05T07:01:48+0200</time>
      </trkpt>
      <trkpt lat="44.92461" lon="6.59989">
        <ele>1320.3</ele>
        <time>2022-08-05T07:01:50+0200</time>
      </trkpt>
      <trkpt lat="44.92464" lon="6.59974">
        <ele>1320.6</ele>
        <time>2022-08-05T07:01:51+0200</time>
      </trkpt>
      <trkpt lat="44.92466" lon="6.59967">
        <ele>1320.7</ele>
        <time>2022-08-05T07:01:52+0200</time>
      </trkpt>
      <trkpt lat="44.92467" lon="6.59961">
        <ele>1320.9</ele>
        <time>2022-08-05T07:01:53+0200</time>
      </trkpt>
      <trkpt lat="44.9247" lon="6.59952">
        <ele>1321.1</ele>
        <time>2022-08-05T07:01:55+0200</time>
      </trkpt>
      <trkpt lat="44.92473" lon="6.59943">
        <ele>1321.1</ele>
        <time>2022-08-05T07:01:57+0200</time>
      </trkpt>
      <trkpt lat="44.92474" lon="6.59937">
        <ele>1321.5</ele>
        <time>2022-08-05T07:01:58+0200</time>
      </trkpt>
      <trkpt lat="44.92476" lon="6.59925">
        <ele>1322.4</ele>
        <time>2022-08-05T07:02:00+0200</time>
      </trkpt>
      <trkpt lat="44.92477" lon="6.59919">
        <ele>1322.7</ele>
        <time>2022-08-05T07:02:01+0200</time>
      </trkpt>
      <trkpt lat="44.92479" lon="6.59911">
        <ele>1323.3</ele>
        <time>2022-08-05T07:02:02+0200</time>
      </trkpt>
      <trkpt lat="44.92481" lon="6.59904">
        <ele>1323.7</ele>
        <time>2022-08-05T07:02:03+0200</time>
      </trkpt>
      <trkpt lat="44.92485" lon="6.59899">
        <ele>1322.9</ele>
        <time>2022-08-05T07:02:04+0200</time>
      </trkpt>
      <trkpt lat="44.92488" lon="6.59892">
        <ele>1322.6</ele>
        <time>2022-08-05T07:02:05+0200</time>
      </trkpt>
      <trkpt lat="44.92489" lon="6.59885">
        <ele>1323.1</ele>
        <time>2022-08-05T07:02:06+0200</time>
      </trkpt>
      <trkpt lat="44.92492" lon="6.59878">
        <ele>1323.5</ele>
        <time>2022-08-05T07:02:07+0200</time>
      </trkpt>
      <trkpt lat="44.92495" lon="6.59872">
        <ele>1323.2</ele>
        <time>2022-08-05T07:02:08+0200</time>
      </trkpt>
      <trkpt lat="44.925" lon="6.59865">
        <ele>1322.6</ele>
        <time>2022-08-05T07:02:09+0200</time>
      </trkpt>
      <trkpt lat="44.92502" lon="6.59858">
        <ele>1323.3</ele>
        <time>2022-08-05T07:02:10+0200</time>
      </trkpt>
      <trkpt lat="44.92504" lon="6.59853">
        <ele>1323.8</ele>
        <time>2022-08-05T07:02:11+0200</time>
      </trkpt>
      <trkpt lat="44.9251" lon="6.59845">
        <ele>1323.7</ele>
        <time>2022-08-05T07:02:13+0200</time>
      </trkpt>
      <trkpt lat="44.92513" lon="6.59841">
        <ele>1323.2</ele>
        <time>2022-08-05T07:02:14+0200</time>
      </trkpt>
      <trkpt lat="44.92518" lon="6.59836">
        <ele>1322.4</ele>
        <time>2022-08-05T07:02:15+0200</time>
      </trkpt>
      <trkpt lat="44.92523" lon="6.59827">
        <ele>1322.1</ele>
        <time>2022-08-05T07:02:17+0200</time>
      </trkpt>
      <trkpt lat="44.92527" lon="6.59824">
        <ele>1321</ele>
        <time>2022-08-05T07:02:18+0200</time>
      </trkpt>
      <trkpt lat="44.92531" lon="6.59819">
        <ele>1321.2</ele>
        <time>2022-08-05T07:02:19+0200</time>
      </trkpt>
      <trkpt lat="44.92536" lon="6.59811">
        <ele>1321.6</ele>
        <time>2022-08-05T07:02:21+0200</time>
      </trkpt>
      <trkpt lat="44.92539" lon="6.59806">
        <ele>1321.5</ele>
        <time>2022-08-05T07:02:22+0200</time>
      </trkpt>
      <trkpt lat="44.92544" lon="6.59798">
        <ele>1321.8</ele>
        <time>2022-08-05T07:02:24+0200</time>
      </trkpt>
      <trkpt lat="44.92547" lon="6.5979">
        <ele>1322.5</ele>
        <time>2022-08-05T07:02:26+0200</time>
      </trkpt>
      <trkpt lat="44.92552" lon="6.59782">
        <ele>1321.9</ele>
        <time>2022-08-05T07:02:29+0200</time>
      </trkpt>
      <trkpt lat="44.92555" lon="6.59777">
        <ele>1321.4</ele>
        <time>2022-08-05T07:02:30+0200</time>
      </trkpt>
      <trkpt lat="44.9256" lon="6.5977">
        <ele>1322.3</ele>
        <time>2022-08-05T07:02:32+0200</time>
      </trkpt>
      <trkpt lat="44.92563" lon="6.59762">
        <ele>1323.6</ele>
        <time>2022-08-05T07:02:34+0200</time>
      </trkpt>
      <trkpt lat="44.92568" lon="6.59754">
        <ele>1324</ele>
        <time>2022-08-05T07:02:36+0200</time>
      </trkpt>
      <trkpt lat="44.92573" lon="6.59747">
        <ele>1324.3</ele>
        <time>2022-08-05T07:02:38+0200</time>
      </trkpt>
      <trkpt lat="44.92576" lon="6.59738">
        <ele>1325.1</ele>
        <time>2022-08-05T07:02:40+0200</time>
      </trkpt>
      <trkpt lat="44.92581" lon="6.59735">
        <ele>1324.3</ele>
        <time>2022-08-05T07:02:42+0200</time>
      </trkpt>
      <trkpt lat="44.92584" lon="6.5973">
        <ele>1324.6</ele>
        <time>2022-08-05T07:02:44+0200</time>
      </trkpt>
      <trkpt lat="44.92586" lon="6.5972">
        <ele>1326</ele>
        <time>2022-08-05T07:02:46+0200</time>
      </trkpt>
      <trkpt lat="44.9259" lon="6.59711">
        <ele>1326.6</ele>
        <time>2022-08-05T07:02:48+0200</time>
      </trkpt>
      <trkpt lat="44.92593" lon="6.59704">
        <ele>1327.1</ele>
        <time>2022-08-05T07:02:50+0200</time>
      </trkpt>
      <trkpt lat="44.92596" lon="6.59696">
        <ele>1327.7</ele>
        <time>2022-08-05T07:02:52+0200</time>
      </trkpt>
      <trkpt lat="44.92599" lon="6.59689">
        <ele>1327.9</ele>
        <time>2022-08-05T07:02:54+0200</time>
      </trkpt>
      <trkpt lat="44.92601" lon="6.5968">
        <ele>1328.5</ele>
        <time>2022-08-05T07:02:56+0200</time>
      </trkpt>
      <trkpt lat="44.92603" lon="6.59672">
        <ele>1328.9</ele>
        <time>2022-08-05T07:02:58+0200</time>
      </trkpt>
      <trkpt lat="44.92608" lon="6.59666">
        <ele>1328.3</ele>
        <time>2022-08-05T07:03:00+0200</time>
      </trkpt>
      <trkpt lat="44.92609" lon="6.59657">
        <ele>1329.6</ele>
        <time>2022-08-05T07:03:02+0200</time>
      </trkpt>
      <trkpt lat="44.9261" lon="6.59647">
        <ele>1330.8</ele>
        <time>2022-08-05T07:03:04+0200</time>
      </trkpt>
      <trkpt lat="44.92614" lon="6.59639">
        <ele>1331.5</ele>
        <time>2022-08-05T07:03:06+0200</time>
      </trkpt>
      <trkpt lat="44.92617" lon="6.59628">
        <ele>1332.4</ele>
        <time>2022-08-05T07:03:08+0200</time>
      </trkpt>
      <trkpt lat="44.9262" lon="6.59619">
        <ele>1333.2</ele>
        <time>2022-08-05T07:03:10+0200</time>
      </trkpt>
      <trkpt lat="44.92623" lon="6.5961">
        <ele>1333.7</ele>
        <time>2022-08-05T07:03:12+0200</time>
      </trkpt>
      <trkpt lat="44.92628" lon="6.59606">
        <ele>1332.9</ele>
        <time>2022-08-05T07:03:14+0200</time>
      </trkpt>
      <trkpt lat="44.92631" lon="6.59599">
        <ele>1333.1</ele>
        <time>2022-08-05T07:03:16+0200</time>
      </trkpt>
      <trkpt lat="44.92634" lon="6.59592">
        <ele>1333.3</ele>
        <time>2022-08-05T07:03:18+0200</time>
      </trkpt>
      <trkpt lat="44.92639" lon="6.59588">
        <ele>1332.2</ele>
        <time>2022-08-05T07:03:20+0200</time>
      </trkpt>
      <trkpt lat="44.92643" lon="6.59583">
        <ele>1332.1</ele>
        <time>2022-08-05T07:03:22+0200</time>
      </trkpt>
      <trkpt lat="44.92645" lon="6.59574">
        <ele>1333.2</ele>
        <time>2022-08-05T07:03:24+0200</time>
      </trkpt>
      <trkpt lat="44.92648" lon="6.5957">
        <ele>1333.3</ele>
        <time>2022-08-05T07:03:26+0200</time>
      </trkpt>
      <trkpt lat="44.92653" lon="6.59564">
        <ele>1332.8</ele>
        <time>2022-08-05T07:03:28+0200</time>
      </trkpt>
      <trkpt lat="44.92655" lon="6.59558">
        <ele>1333</ele>
        <time>2022-08-05T07:03:31+0200</time>
      </trkpt>
      <trkpt lat="44.9266" lon="6.5955">
        <ele>1332.9</ele>
        <time>2022-08-05T07:03:34+0200</time>
      </trkpt>
      <trkpt lat="44.92664" lon="6.59545">
        <ele>1332.5</ele>
        <time>2022-08-05T07:03:36+0200</time>
      </trkpt>
      <trkpt lat="44.92669" lon="6.5954">
        <ele>1331.9</ele>
        <time>2022-08-05T07:03:38+0200</time>
      </trkpt>
      <trkpt lat="44.9267" lon="6.59533">
        <ele>1332.5</ele>
        <time>2022-08-05T07:03:39+0200</time>
      </trkpt>
      <trkpt lat="44.92673" lon="6.59525">
        <ele>1333.2</ele>
        <time>2022-08-05T07:03:41+0200</time>
      </trkpt>
      <trkpt lat="44.92675" lon="6.59517">
        <ele>1334</ele>
        <time>2022-08-05T07:03:43+0200</time>
      </trkpt>
      <trkpt lat="44.9268" lon="6.59512">
        <ele>1333.7</ele>
        <time>2022-08-05T07:03:45+0200</time>
      </trkpt>
      <trkpt lat="44.92682" lon="6.59506">
        <ele>1334.2</ele>
        <time>2022-08-05T07:03:48+0200</time>
      </trkpt>
      <trkpt lat="44.92686" lon="6.59502">
        <ele>1333.8</ele>
        <time>2022-08-05T07:03:51+0200</time>
      </trkpt>
      <trkpt lat="44.92691" lon="6.59499">
        <ele>1333.1</ele>
        <time>2022-08-05T07:03:53+0200</time>
      </trkpt>
      <trkpt lat="44.92693" lon="6.59491">
        <ele>1333.7</ele>
        <time>2022-08-05T07:03:56+0200</time>
      </trkpt>
      <trkpt lat="44.92695" lon="6.59485">
        <ele>1334</ele>
        <time>2022-08-05T07:03:58+0200</time>
      </trkpt>
      <trkpt lat="44.92699" lon="6.5948">
        <ele>1334.1</ele>
        <time>2022-08-05T07:04:01+0200</time>
      </trkpt>
      <trkpt lat="44.92704" lon="6.59476">
        <ele>1333.9</ele>
        <time>2022-08-05T07:04:03+0200</time>
      </trkpt>
      <trkpt lat="44.92706" lon="6.5947">
        <ele>1334.3</ele>
        <time>2022-08-05T07:04:05+0200</time>
      </trkpt>
      <trkpt lat="44.92709" lon="6.59464">
        <ele>1334.6</ele>
        <time>2022-08-05T07:04:07+0200</time>
      </trkpt>
      <trkpt lat="44.92712" lon="6.59456">
        <ele>1335</ele>
        <time>2022-08-05T07:04:10+0200</time>
      </trkpt>
      <trkpt lat="44.92715" lon="6.5945">
        <ele>1335.1</ele>
        <time>2022-08-05T07:04:12+0200</time>
      </trkpt>
      <trkpt lat="44.92718" lon="6.5944">
        <ele>1335.9</ele>
        <time>2022-08-05T07:04:15+0200</time>
      </trkpt>
      <trkpt lat="44.92721" lon="6.59434">
        <ele>1336.3</ele>
        <time>2022-08-05T07:04:17+0200</time>
      </trkpt>
      <trkpt lat="44.92723" lon="6.59427">
        <ele>1337</ele>
        <time>2022-08-05T07:04:19+0200</time>
      </trkpt>
      <trkpt lat="44.92727" lon="6.59422">
        <ele>1337.2</ele>
        <time>2022-08-05T07:04:21+0200</time>
      </trkpt>
      <trkpt lat="44.92729" lon="6.59414">
        <ele>1338.3</ele>
        <time>2022-08-05T07:04:23+0200</time>
      </trkpt>
      <trkpt lat="44.92733" lon="6.59407">
        <ele>1338.7</ele>
        <time>2022-08-05T07:04:25+0200</time>
      </trkpt>
      <trkpt lat="44.92737" lon="6.59402">
        <ele>1339</ele>
        <time>2022-08-05T07:04:27+0200</time>
      </trkpt>
      <trkpt lat="44.92741" lon="6.59396">
        <ele>1339.1</ele>
        <time>2022-08-05T07:04:29+0200</time>
      </trkpt>
      <trkpt lat="44.92745" lon="6.5939">
        <ele>1339.3</ele>
        <time>2022-08-05T07:04:31+0200</time>
      </trkpt>
      <trkpt lat="44.9275" lon="6.59383">
        <ele>1339.2</ele>
        <time>2022-08-05T07:04:34+0200</time>
      </trkpt>
      <trkpt lat="44.92755" lon="6.59378">
        <ele>1338.9</ele>
        <time>2022-08-05T07:04:37+0200</time>
      </trkpt>
      <trkpt lat="44.92757" lon="6.59372">
        <ele>1339.3</ele>
        <time>2022-08-05T07:04:40+0200</time>
      </trkpt>
      <trkpt lat="44.92761" lon="6.59367">
        <ele>1338.8</ele>
        <time>2022-08-05T07:04:43+0200</time>
      </trkpt>
      <trkpt lat="44.92765" lon="6.59363">
        <ele>1338.5</ele>
        <time>2022-08-05T07:04:46+0200</time>
      </trkpt>
      <trkpt lat="44.92763" lon="6.59354">
        <ele>1341.2</ele>
        <time>2022-08-05T07:04:48+0200</time>
      </trkpt>
      <trkpt lat="44.92759" lon="6.5935">
        <ele>1343.4</ele>
        <time>2022-08-05T07:04:52+0200</time>
      </trkpt>
      <trkpt lat="44.92753" lon="6.59353">
        <ele>1344.4</ele>
        <time>2022-08-05T07:04:57+0200</time>
      </trkpt>
      <trkpt lat="44.92747" lon="6.59352">
        <ele>1346.6</ele>
        <time>2022-08-05T07:05:00+0200</time>
      </trkpt>
      <trkpt lat="44.92743" lon="6.59356">
        <ele>1347</ele>
        <time>2022-08-05T07:05:02+0200</time>
      </trkpt>
      <trkpt lat="44.92738" lon="6.59358">
        <ele>1348.2</ele>
        <time>2022-08-05T07:05:05+0200</time>
      </trkpt>
      <trkpt lat="44.92734" lon="6.59362">
        <ele>1348.7</ele>
        <time>2022-08-05T07:05:10+0200</time>
      </trkpt>
      <trkpt lat="44.92731" lon="6.59369">
        <ele>1348.1</ele>
        <time>2022-08-05T07:05:13+0200</time>
      </trkpt>
      <trkpt lat="44.92727" lon="6.5937">
        <ele>1349.3</ele>
        <time>2022-08-05T07:05:15+0200</time>
      </trkpt>
      <trkpt lat="44.92722" lon="6.59375">
        <ele>1349.6</ele>
        <time>2022-08-05T07:05:18+0200</time>
      </trkpt>
      <trkpt lat="44.92717" lon="6.59377">
        <ele>1350.9</ele>
        <time>2022-08-05T07:05:21+0200</time>
      </trkpt>
      <trkpt lat="44.92711" lon="6.59378">
        <ele>1352.8</ele>
        <time>2022-08-05T07:05:24+0200</time>
      </trkpt>
      <trkpt lat="44.92708" lon="6.59382">
        <ele>1352.9</ele>
        <time>2022-08-05T07:05:27+0200</time>
      </trkpt>
      <trkpt lat="44.92704" lon="6.59387">
        <ele>1353.3</ele>
        <time>2022-08-05T07:05:30+0200</time>
      </trkpt>
      <trkpt lat="44.92702" lon="6.59394">
        <ele>1352.1</ele>
        <time>2022-08-05T07:05:33+0200</time>
      </trkpt>
      <trkpt lat="44.92697" lon="6.59399">
        <ele>1352.4</ele>
        <time>2022-08-05T07:05:37+0200</time>
      </trkpt>
      <trkpt lat="44.92692" lon="6.59405">
        <ele>1352.1</ele>
        <time>2022-08-05T07:05:40+0200</time>
      </trkpt>
      <trkpt lat="44.92691" lon="6.59413">
        <ele>1350.5</ele>
        <time>2022-08-05T07:05:43+0200</time>
      </trkpt>
      <trkpt lat="44.92689" lon="6.59419">
        <ele>1349.2</ele>
        <time>2022-08-05T07:05:45+0200</time>
      </trkpt>
      <trkpt lat="44.92685" lon="6.59423">
        <ele>1349.7</ele>
        <time>2022-08-05T07:05:47+0200</time>
      </trkpt>
      <trkpt lat="44.9268" lon="6.59428">
        <ele>1350.6</ele>
        <time>2022-08-05T07:05:50+0200</time>
      </trkpt>
      <trkpt lat="44.92675" lon="6.59428">
        <ele>1352.2</ele>
        <time>2022-08-05T07:05:52+0200</time>
      </trkpt>
      <trkpt lat="44.9267" lon="6.59434">
        <ele>1352.4</ele>
        <time>2022-08-05T07:05:55+0200</time>
      </trkpt>
      <trkpt lat="44.92666" lon="6.59441">
        <ele>1352.2</ele>
        <time>2022-08-05T07:05:58+0200</time>
      </trkpt>
      <trkpt lat="44.92661" lon="6.59444">
        <ele>1353.6</ele>
        <time>2022-08-05T07:06:00+0200</time>
      </trkpt>
      <trkpt lat="44.92657" lon="6.59448">
        <ele>1354.1</ele>
        <time>2022-08-05T07:06:04+0200</time>
      </trkpt>
      <trkpt lat="44.92654" lon="6.59453">
        <ele>1354</ele>
        <time>2022-08-05T07:06:07+0200</time>
      </trkpt>
      <trkpt lat="44.9265" lon="6.59459">
        <ele>1354.5</ele>
        <time>2022-08-05T07:06:10+0200</time>
      </trkpt>
      <trkpt lat="44.92647" lon="6.59464">
        <ele>1354.6</ele>
        <time>2022-08-05T07:06:13+0200</time>
      </trkpt>
      <trkpt lat="44.92641" lon="6.59466">
        <ele>1356.4</ele>
        <time>2022-08-05T07:06:16+0200</time>
      </trkpt>
      <trkpt lat="44.92637" lon="6.59471">
        <ele>1357</ele>
        <time>2022-08-05T07:06:20+0200</time>
      </trkpt>
      <trkpt lat="44.92634" lon="6.59475">
        <ele>1357.5</ele>
        <time>2022-08-05T07:06:23+0200</time>
      </trkpt>
      <trkpt lat="44.9263" lon="6.59481">
        <ele>1357.7</ele>
        <time>2022-08-05T07:06:26+0200</time>
      </trkpt>
      <trkpt lat="44.92626" lon="6.59485">
        <ele>1358.5</ele>
        <time>2022-08-05T07:06:28+0200</time>
      </trkpt>
      <trkpt lat="44.92619" lon="6.59487">
        <ele>1360.5</ele>
        <time>2022-08-05T07:06:31+0200</time>
      </trkpt>
      <trkpt lat="44.92616" lon="6.59491">
        <ele>1361</ele>
        <time>2022-08-05T07:06:33+0200</time>
      </trkpt>
      <trkpt lat="44.9261" lon="6.59493">
        <ele>1362.7</ele>
        <time>2022-08-05T07:06:36+0200</time>
      </trkpt>
      <trkpt lat="44.92606" lon="6.59496">
        <ele>1363.5</ele>
        <time>2022-08-05T07:06:39+0200</time>
      </trkpt>
      <trkpt lat="44.92603" lon="6.595">
        <ele>1364</ele>
        <time>2022-08-05T07:06:43+0200</time>
      </trkpt>
      <trkpt lat="44.92599" lon="6.59506">
        <ele>1364.4</ele>
        <time>2022-08-05T07:06:46+0200</time>
      </trkpt>
      <trkpt lat="44.92593" lon="6.59508">
        <ele>1365.9</ele>
        <time>2022-08-05T07:06:49+0200</time>
      </trkpt>
      <trkpt lat="44.92589" lon="6.5951">
        <ele>1367.1</ele>
        <time>2022-08-05T07:06:52+0200</time>
      </trkpt>
      <trkpt lat="44.92584" lon="6.59512">
        <ele>1368.5</ele>
        <time>2022-08-05T07:06:55+0200</time>
      </trkpt>
      <trkpt lat="44.92579" lon="6.59512">
        <ele>1370.2</ele>
        <time>2022-08-05T07:06:57+0200</time>
      </trkpt>
      <trkpt lat="44.92575" lon="6.59515">
        <ele>1371.2</ele>
        <time>2022-08-05T07:07:00+0200</time>
      </trkpt>
      <trkpt lat="44.9257" lon="6.59518">
        <ele>1372.4</ele>
        <time>2022-08-05T07:07:06+0200</time>
      </trkpt>
      <trkpt lat="44.92566" lon="6.59523">
        <ele>1373.2</ele>
        <time>2022-08-05T07:07:09+0200</time>
      </trkpt>
      <trkpt lat="44.92562" lon="6.59528">
        <ele>1373.8</ele>
        <time>2022-08-05T07:07:11+0200</time>
      </trkpt>
      <trkpt lat="44.92556" lon="6.59532">
        <ele>1375</ele>
        <time>2022-08-05T07:07:13+0200</time>
      </trkpt>
      <trkpt lat="44.92551" lon="6.59539">
        <ele>1375.4</ele>
        <time>2022-08-05T07:07:15+0200</time>
      </trkpt>
      <trkpt lat="44.92546" lon="6.5954">
        <ele>1376.8</ele>
        <time>2022-08-05T07:07:17+0200</time>
      </trkpt>
      <trkpt lat="44.92542" lon="6.59545">
        <ele>1377</ele>
        <time>2022-08-05T07:07:23+0200</time>
      </trkpt>
      <trkpt lat="44.92537" lon="6.5955">
        <ele>1377.3</ele>
        <time>2022-08-05T07:07:26+0200</time>
      </trkpt>
      <trkpt lat="44.92532" lon="6.59555">
        <ele>1378</ele>
        <time>2022-08-05T07:07:29+0200</time>
      </trkpt>
      <trkpt lat="44.92525" lon="6.59555">
        <ele>1380</ele>
        <time>2022-08-05T07:07:32+0200</time>
      </trkpt>
      <trkpt lat="44.92519" lon="6.59557">
        <ele>1381.3</ele>
        <time>2022-08-05T07:07:35+0200</time>
      </trkpt>
      <trkpt lat="44.92513" lon="6.5956">
        <ele>1382.6</ele>
        <time>2022-08-05T07:07:37+0200</time>
      </trkpt>
      <trkpt lat="44.92508" lon="6.59564">
        <ele>1383.1</ele>
        <time>2022-08-05T07:07:40+0200</time>
      </trkpt>
      <trkpt lat="44.92504" lon="6.5957">
        <ele>1383.3</ele>
        <time>2022-08-05T07:07:44+0200</time>
      </trkpt>
      <trkpt lat="44.925" lon="6.59573">
        <ele>1384</ele>
        <time>2022-08-05T07:07:46+0200</time>
      </trkpt>
      <trkpt lat="44.92495" lon="6.59577">
        <ele>1384.5</ele>
        <time>2022-08-05T07:07:49+0200</time>
      </trkpt>
      <trkpt lat="44.92492" lon="6.59583">
        <ele>1384.2</ele>
        <time>2022-08-05T07:07:51+0200</time>
      </trkpt>
      <trkpt lat="44.92486" lon="6.59584">
        <ele>1385.3</ele>
        <time>2022-08-05T07:07:55+0200</time>
      </trkpt>
      <trkpt lat="44.92482" lon="6.59592">
        <ele>1385</ele>
        <time>2022-08-05T07:07:58+0200</time>
      </trkpt>
      <trkpt lat="44.9248" lon="6.59598">
        <ele>1384.5</ele>
        <time>2022-08-05T07:08:00+0200</time>
      </trkpt>
      <trkpt lat="44.92474" lon="6.59603">
        <ele>1385</ele>
        <time>2022-08-05T07:08:03+0200</time>
      </trkpt>
      <trkpt lat="44.92471" lon="6.59608">
        <ele>1385.1</ele>
        <time>2022-08-05T07:08:06+0200</time>
      </trkpt>
      <trkpt lat="44.92467" lon="6.59611">
        <ele>1385.3</ele>
        <time>2022-08-05T07:08:09+0200</time>
      </trkpt>
      <trkpt lat="44.92462" lon="6.59615">
        <ele>1386</ele>
        <time>2022-08-05T07:08:11+0200</time>
      </trkpt>
      <trkpt lat="44.9246" lon="6.59621">
        <ele>1385.7</ele>
        <time>2022-08-05T07:08:13+0200</time>
      </trkpt>
      <trkpt lat="44.92456" lon="6.59627">
        <ele>1385.9</ele>
        <time>2022-08-05T07:08:16+0200</time>
      </trkpt>
      <trkpt lat="44.92453" lon="6.59633">
        <ele>1385.8</ele>
        <time>2022-08-05T07:08:20+0200</time>
      </trkpt>
      <trkpt lat="44.92448" lon="6.59636">
        <ele>1386.5</ele>
        <time>2022-08-05T07:08:23+0200</time>
      </trkpt>
      <trkpt lat="44.92443" lon="6.59632">
        <ele>1388.3</ele>
        <time>2022-08-05T07:08:25+0200</time>
      </trkpt>
      <trkpt lat="44.9244" lon="6.5964">
        <ele>1388.2</ele>
        <time>2022-08-05T07:08:28+0200</time>
      </trkpt>
      <trkpt lat="44.92437" lon="6.59645">
        <ele>1388.7</ele>
        <time>2022-08-05T07:08:31+0200</time>
      </trkpt>
      <trkpt lat="44.92436" lon="6.59654">
        <ele>1388.3</ele>
        <time>2022-08-05T07:08:33+0200</time>
      </trkpt>
      <trkpt lat="44.9243" lon="6.59657">
        <ele>1389.8</ele>
        <time>2022-08-05T07:08:36+0200</time>
      </trkpt>
      <trkpt lat="44.92426" lon="6.5966">
        <ele>1390.7</ele>
        <time>2022-08-05T07:08:40+0200</time>
      </trkpt>
      <trkpt lat="44.92421" lon="6.59664">
        <ele>1392</ele>
        <time>2022-08-05T07:08:43+0200</time>
      </trkpt>
      <trkpt lat="44.92417" lon="6.5967">
        <ele>1392.7</ele>
        <time>2022-08-05T07:08:46+0200</time>
      </trkpt>
      <trkpt lat="44.92412" lon="6.59673">
        <ele>1394.3</ele>
        <time>2022-08-05T07:08:48+0200</time>
      </trkpt>
      <trkpt lat="44.92411" lon="6.5968">
        <ele>1394.2</ele>
        <time>2022-08-05T07:08:51+0200</time>
      </trkpt>
      <trkpt lat="44.92407" lon="6.5969">
        <ele>1394.9</ele>
        <time>2022-08-05T07:08:54+0200</time>
      </trkpt>
      <trkpt lat="44.92404" lon="6.59698">
        <ele>1395.2</ele>
        <time>2022-08-05T07:08:57+0200</time>
      </trkpt>
      <trkpt lat="44.92403" lon="6.59707">
        <ele>1395.1</ele>
        <time>2022-08-05T07:08:59+0200</time>
      </trkpt>
      <trkpt lat="44.92399" lon="6.59716">
        <ele>1395.7</ele>
        <time>2022-08-05T07:09:01+0200</time>
      </trkpt>
      <trkpt lat="44.92396" lon="6.59723">
        <ele>1396.2</ele>
        <time>2022-08-05T07:09:03+0200</time>
      </trkpt>
      <trkpt lat="44.92393" lon="6.59731">
        <ele>1396.9</ele>
        <time>2022-08-05T07:09:05+0200</time>
      </trkpt>
      <trkpt lat="44.92391" lon="6.59738">
        <ele>1397.2</ele>
        <time>2022-08-05T07:09:07+0200</time>
      </trkpt>
      <trkpt lat="44.92388" lon="6.59744">
        <ele>1397.7</ele>
        <time>2022-08-05T07:09:09+0200</time>
      </trkpt>
      <trkpt lat="44.92387" lon="6.59751">
        <ele>1397.5</ele>
        <time>2022-08-05T07:09:11+0200</time>
      </trkpt>
      <trkpt lat="44.92385" lon="6.5976">
        <ele>1397.3</ele>
        <time>2022-08-05T07:09:14+0200</time>
      </trkpt>
      <trkpt lat="44.92382" lon="6.59765">
        <ele>1397.8</ele>
        <time>2022-08-05T07:09:16+0200</time>
      </trkpt>
      <trkpt lat="44.92379" lon="6.59774">
        <ele>1398</ele>
        <time>2022-08-05T07:09:19+0200</time>
      </trkpt>
      <trkpt lat="44.92375" lon="6.5978">
        <ele>1399</ele>
        <time>2022-08-05T07:09:22+0200</time>
      </trkpt>
      <trkpt lat="44.92373" lon="6.59786">
        <ele>1398.8</ele>
        <time>2022-08-05T07:09:24+0200</time>
      </trkpt>
      <trkpt lat="44.92373" lon="6.59794">
        <ele>1398.2</ele>
        <time>2022-08-05T07:09:26+0200</time>
      </trkpt>
      <trkpt lat="44.9237" lon="6.59803">
        <ele>1397.9</ele>
        <time>2022-08-05T07:09:29+0200</time>
      </trkpt>
      <trkpt lat="44.92366" lon="6.5981">
        <ele>1398.7</ele>
        <time>2022-08-05T07:09:32+0200</time>
      </trkpt>
      <trkpt lat="44.92361" lon="6.59814">
        <ele>1399.9</ele>
        <time>2022-08-05T07:09:35+0200</time>
      </trkpt>
      <trkpt lat="44.92356" lon="6.59815">
        <ele>1401.2</ele>
        <time>2022-08-05T07:09:38+0200</time>
      </trkpt>
      <trkpt lat="44.92351" lon="6.59818">
        <ele>1402.1</ele>
        <time>2022-08-05T07:09:41+0200</time>
      </trkpt>
      <trkpt lat="44.92347" lon="6.59824">
        <ele>1402.2</ele>
        <time>2022-08-05T07:09:44+0200</time>
      </trkpt>
      <trkpt lat="44.92344" lon="6.59829">
        <ele>1402.6</ele>
        <time>2022-08-05T07:09:47+0200</time>
      </trkpt>
      <trkpt lat="44.92339" lon="6.59832">
        <ele>1403.6</ele>
        <time>2022-08-05T07:09:49+0200</time>
      </trkpt>
      <trkpt lat="44.92335" lon="6.59836">
        <ele>1404.2</ele>
        <time>2022-08-05T07:09:52+0200</time>
      </trkpt>
      <trkpt lat="44.92328" lon="6.59837">
        <ele>1405.6</ele>
        <time>2022-08-05T07:09:55+0200</time>
      </trkpt>
      <trkpt lat="44.92321" lon="6.59839">
        <ele>1407.1</ele>
        <time>2022-08-05T07:09:58+0200</time>
      </trkpt>
      <trkpt lat="44.92317" lon="6.59841">
        <ele>1407.8</ele>
        <time>2022-08-05T07:10:01+0200</time>
      </trkpt>
      <trkpt lat="44.92311" lon="6.59844">
        <ele>1408.7</ele>
        <time>2022-08-05T07:10:04+0200</time>
      </trkpt>
      <trkpt lat="44.92306" lon="6.59847">
        <ele>1409.5</ele>
        <time>2022-08-05T07:10:06+0200</time>
      </trkpt>
      <trkpt lat="44.92301" lon="6.59848">
        <ele>1410.5</ele>
        <time>2022-08-05T07:10:10+0200</time>
      </trkpt>
      <trkpt lat="44.92295" lon="6.59849">
        <ele>1411.5</ele>
        <time>2022-08-05T07:10:13+0200</time>
      </trkpt>
      <trkpt lat="44.92288" lon="6.5985">
        <ele>1412.8</ele>
        <time>2022-08-05T07:10:16+0200</time>
      </trkpt>
      <trkpt lat="44.92283" lon="6.5985">
        <ele>1413.9</ele>
        <time>2022-08-05T07:10:18+0200</time>
      </trkpt>
      <trkpt lat="44.92277" lon="6.59851">
        <ele>1415.1</ele>
        <time>2022-08-05T07:10:20+0200</time>
      </trkpt>
      <trkpt lat="44.92272" lon="6.59852">
        <ele>1415.9</ele>
        <time>2022-08-05T07:10:22+0200</time>
      </trkpt>
      <trkpt lat="44.92267" lon="6.59855">
        <ele>1416.6</ele>
        <time>2022-08-05T07:10:25+0200</time>
      </trkpt>
      <trkpt lat="44.92261" lon="6.59857">
        <ele>1417.3</ele>
        <time>2022-08-05T07:10:29+0200</time>
      </trkpt>
      <trkpt lat="44.92256" lon="6.59856">
        <ele>1418.7</ele>
        <time>2022-08-05T07:10:32+0200</time>
      </trkpt>
      <trkpt lat="44.92252" lon="6.59861">
        <ele>1418.7</ele>
        <time>2022-08-05T07:10:36+0200</time>
      </trkpt>
      <trkpt lat="44.92249" lon="6.59867">
        <ele>1418</ele>
        <time>2022-08-05T07:10:39+0200</time>
      </trkpt>
      <trkpt lat="44.92244" lon="6.59873">
        <ele>1417.8</ele>
        <time>2022-08-05T07:10:41+0200</time>
      </trkpt>
      <trkpt lat="44.92238" lon="6.59877">
        <ele>1418.7</ele>
        <time>2022-08-05T07:10:44+0200</time>
      </trkpt>
      <trkpt lat="44.92231" lon="6.59876">
        <ele>1420.7</ele>
        <time>2022-08-05T07:10:46+0200</time>
      </trkpt>
      <trkpt lat="44.92228" lon="6.59882">
        <ele>1420.1</ele>
        <time>2022-08-05T07:10:48+0200</time>
      </trkpt>
      <trkpt lat="44.92223" lon="6.59884">
        <ele>1420.9</ele>
        <time>2022-08-05T07:10:51+0200</time>
      </trkpt>
      <trkpt lat="44.92221" lon="6.59892">
        <ele>1419.8</ele>
        <time>2022-08-05T07:10:53+0200</time>
      </trkpt>
      <trkpt lat="44.92218" lon="6.59897">
        <ele>1419.7</ele>
        <time>2022-08-05T07:10:55+0200</time>
      </trkpt>
      <trkpt lat="44.92213" lon="6.599">
        <ele>1420.6</ele>
        <time>2022-08-05T07:10:57+0200</time>
      </trkpt>
      <trkpt lat="44.92208" lon="6.59903">
        <ele>1421.5</ele>
        <time>2022-08-05T07:11:00+0200</time>
      </trkpt>
      <trkpt lat="44.92203" lon="6.59907">
        <ele>1422.4</ele>
        <time>2022-08-05T07:11:03+0200</time>
      </trkpt>
      <trkpt lat="44.92199" lon="6.59914">
        <ele>1422.1</ele>
        <time>2022-08-05T07:11:06+0200</time>
      </trkpt>
      <trkpt lat="44.92196" lon="6.59919">
        <ele>1422.3</ele>
        <time>2022-08-05T07:11:08+0200</time>
      </trkpt>
      <trkpt lat="44.92191" lon="6.59927">
        <ele>1422.4</ele>
        <time>2022-08-05T07:11:10+0200</time>
      </trkpt>
      <trkpt lat="44.92186" lon="6.59937">
        <ele>1422.3</ele>
        <time>2022-08-05T07:11:12+0200</time>
      </trkpt>
      <trkpt lat="44.92185" lon="6.59945">
        <ele>1421.4</ele>
        <time>2022-08-05T07:11:14+0200</time>
      </trkpt>
      <trkpt lat="44.92182" lon="6.5995">
        <ele>1421.6</ele>
        <time>2022-08-05T07:11:16+0200</time>
      </trkpt>
      <trkpt lat="44.92176" lon="6.59955">
        <ele>1422.6</ele>
        <time>2022-08-05T07:11:18+0200</time>
      </trkpt>
      <trkpt lat="44.92171" lon="6.59957">
        <ele>1423.5</ele>
        <time>2022-08-05T07:11:20+0200</time>
      </trkpt>
      <trkpt lat="44.92167" lon="6.59961">
        <ele>1424</ele>
        <time>2022-08-05T07:11:22+0200</time>
      </trkpt>
      <trkpt lat="44.92166" lon="6.59968">
        <ele>1423.5</ele>
        <time>2022-08-05T07:11:24+0200</time>
      </trkpt>
      <trkpt lat="44.92167" lon="6.59976">
        <ele>1422.8</ele>
        <time>2022-08-05T07:11:26+0200</time>
      </trkpt>
      <trkpt lat="44.92164" lon="6.59982">
        <ele>1423.2</ele>
        <time>2022-08-05T07:11:28+0200</time>
      </trkpt>
      <trkpt lat="44.92163" lon="6.59989">
        <ele>1423.2</ele>
        <time>2022-08-05T07:11:32+0200</time>
      </trkpt>
      <trkpt lat="44.92161" lon="6.59996">
        <ele>1423.5</ele>
        <time>2022-08-05T07:11:35+0200</time>
      </trkpt>
      <trkpt lat="44.92159" lon="6.60004">
        <ele>1423.6</ele>
        <time>2022-08-05T07:11:39+0200</time>
      </trkpt>
      <trkpt lat="44.92161" lon="6.60012">
        <ele>1423.3</ele>
        <time>2022-08-05T07:11:42+0200</time>
      </trkpt>
      <trkpt lat="44.92163" lon="6.6002">
        <ele>1422.8</ele>
        <time>2022-08-05T07:11:44+0200</time>
      </trkpt>
      <trkpt lat="44.92165" lon="6.60029">
        <ele>1422.5</ele>
        <time>2022-08-05T07:11:46+0200</time>
      </trkpt>
      <trkpt lat="44.92166" lon="6.60038">
        <ele>1422.2</ele>
        <time>2022-08-05T07:11:48+0200</time>
      </trkpt>
      <trkpt lat="44.92166" lon="6.60047">
        <ele>1422.1</ele>
        <time>2022-08-05T07:11:50+0200</time>
      </trkpt>
      <trkpt lat="44.92167" lon="6.60054">
        <ele>1421.9</ele>
        <time>2022-08-05T07:11:51+0200</time>
      </trkpt>
      <trkpt lat="44.9217" lon="6.60063">
        <ele>1421.5</ele>
        <time>2022-08-05T07:11:54+0200</time>
      </trkpt>
      <trkpt lat="44.92168" lon="6.6007">
        <ele>1422.2</ele>
        <time>2022-08-05T07:11:59+0200</time>
      </trkpt>
      <trkpt lat="44.92166" lon="6.60078">
        <ele>1423</ele>
        <time>2022-08-05T07:12:02+0200</time>
      </trkpt>
      <trkpt lat="44.92163" lon="6.60086">
        <ele>1424</ele>
        <time>2022-08-05T07:12:05+0200</time>
      </trkpt>
      <trkpt lat="44.92161" lon="6.60094">
        <ele>1424.8</ele>
        <time>2022-08-05T07:12:09+0200</time>
      </trkpt>
      <trkpt lat="44.92159" lon="6.601">
        <ele>1425.4</ele>
        <time>2022-08-05T07:12:12+0200</time>
      </trkpt>
      <trkpt lat="44.92156" lon="6.60107">
        <ele>1426.4</ele>
        <time>2022-08-05T07:12:15+0200</time>
      </trkpt>
      <trkpt lat="44.92153" lon="6.60114">
        <ele>1427.1</ele>
        <time>2022-08-05T07:12:18+0200</time>
      </trkpt>
      <trkpt lat="44.92149" lon="6.60118">
        <ele>1428.3</ele>
        <time>2022-08-05T07:12:21+0200</time>
      </trkpt>
      <trkpt lat="44.92142" lon="6.60122">
        <ele>1430.1</ele>
        <time>2022-08-05T07:12:24+0200</time>
      </trkpt>
      <trkpt lat="44.92138" lon="6.60129">
        <ele>1430.9</ele>
        <time>2022-08-05T07:12:27+0200</time>
      </trkpt>
      <trkpt lat="44.92135" lon="6.60134">
        <ele>1431.4</ele>
        <time>2022-08-05T07:12:30+0200</time>
      </trkpt>
      <trkpt lat="44.9213" lon="6.60138">
        <ele>1432.3</ele>
        <time>2022-08-05T07:12:34+0200</time>
      </trkpt>
      <trkpt lat="44.92127" lon="6.60144">
        <ele>1432.6</ele>
        <time>2022-08-05T07:12:37+0200</time>
      </trkpt>
      <trkpt lat="44.92122" lon="6.60147">
        <ele>1433.4</ele>
        <time>2022-08-05T07:12:39+0200</time>
      </trkpt>
      <trkpt lat="44.92119" lon="6.60152">
        <ele>1434.1</ele>
        <time>2022-08-05T07:12:44+0200</time>
      </trkpt>
      <trkpt lat="44.9212" lon="6.60144">
        <ele>1434.3</ele>
        <time>2022-08-05T07:12:54+0200</time>
      </trkpt>
      <trkpt lat="44.92123" lon="6.60137">
        <ele>1434.1</ele>
        <time>2022-08-05T07:12:58+0200</time>
      </trkpt>
      <trkpt lat="44.92124" lon="6.6013">
        <ele>1434.2</ele>
        <time>2022-08-05T07:13:00+0200</time>
      </trkpt>
      <trkpt lat="44.92123" lon="6.60122">
        <ele>1434.9</ele>
        <time>2022-08-05T07:13:03+0200</time>
      </trkpt>
      <trkpt lat="44.92121" lon="6.60115">
        <ele>1435.7</ele>
        <time>2022-08-05T07:13:05+0200</time>
      </trkpt>
      <trkpt lat="44.92118" lon="6.60107">
        <ele>1436.2</ele>
        <time>2022-08-05T07:13:08+0200</time>
      </trkpt>
      <trkpt lat="44.92116" lon="6.601">
        <ele>1436.3</ele>
        <time>2022-08-05T07:13:11+0200</time>
      </trkpt>
      <trkpt lat="44.92112" lon="6.60094">
        <ele>1436.5</ele>
        <time>2022-08-05T07:13:13+0200</time>
      </trkpt>
      <trkpt lat="44.92108" lon="6.60091">
        <ele>1437.1</ele>
        <time>2022-08-05T07:13:15+0200</time>
      </trkpt>
      <trkpt lat="44.92102" lon="6.60083">
        <ele>1437.6</ele>
        <time>2022-08-05T07:13:17+0200</time>
      </trkpt>
      <trkpt lat="44.92099" lon="6.60075">
        <ele>1437.7</ele>
        <time>2022-08-05T07:13:19+0200</time>
      </trkpt>
      <trkpt lat="44.92096" lon="6.60069">
        <ele>1438</ele>
        <time>2022-08-05T07:13:21+0200</time>
      </trkpt>
      <trkpt lat="44.92094" lon="6.60063">
        <ele>1438.1</ele>
        <time>2022-08-05T07:13:23+0200</time>
      </trkpt>
      <trkpt lat="44.92093" lon="6.60055">
        <ele>1438</ele>
        <time>2022-08-05T07:13:25+0200</time>
      </trkpt>
      <trkpt lat="44.9209" lon="6.60048">
        <ele>1438.7</ele>
        <time>2022-08-05T07:13:28+0200</time>
      </trkpt>
      <trkpt lat="44.92087" lon="6.60042">
        <ele>1439.3</ele>
        <time>2022-08-05T07:13:30+0200</time>
      </trkpt>
      <trkpt lat="44.92083" lon="6.60036">
        <ele>1440</ele>
        <time>2022-08-05T07:13:33+0200</time>
      </trkpt>
      <trkpt lat="44.92082" lon="6.60029">
        <ele>1440.4</ele>
        <time>2022-08-05T07:13:35+0200</time>
      </trkpt>
      <trkpt lat="44.92081" lon="6.6002">
        <ele>1440.8</ele>
        <time>2022-08-05T07:13:38+0200</time>
      </trkpt>
      <trkpt lat="44.92081" lon="6.60013">
        <ele>1441.3</ele>
        <time>2022-08-05T07:13:41+0200</time>
      </trkpt>
      <trkpt lat="44.92081" lon="6.60006">
        <ele>1441.5</ele>
        <time>2022-08-05T07:13:45+0200</time>
      </trkpt>
      <trkpt lat="44.9208" lon="6.59998">
        <ele>1442.2</ele>
        <time>2022-08-05T07:13:48+0200</time>
      </trkpt>
      <trkpt lat="44.9208" lon="6.59991">
        <ele>1443.1</ele>
        <time>2022-08-05T07:13:50+0200</time>
      </trkpt>
      <trkpt lat="44.92079" lon="6.59983">
        <ele>1444</ele>
        <time>2022-08-05T07:13:53+0200</time>
      </trkpt>
      <trkpt lat="44.92082" lon="6.59977">
        <ele>1444</ele>
        <time>2022-08-05T07:13:55+0200</time>
      </trkpt>
      <trkpt lat="44.92082" lon="6.5997">
        <ele>1444.8</ele>
        <time>2022-08-05T07:13:58+0200</time>
      </trkpt>
      <trkpt lat="44.92084" lon="6.59961">
        <ele>1445.8</ele>
        <time>2022-08-05T07:14:03+0200</time>
      </trkpt>
      <trkpt lat="44.92085" lon="6.59953">
        <ele>1446.9</ele>
        <time>2022-08-05T07:14:05+0200</time>
      </trkpt>
      <trkpt lat="44.92088" lon="6.59944">
        <ele>1447.6</ele>
        <time>2022-08-05T07:14:07+0200</time>
      </trkpt>
      <trkpt lat="44.92091" lon="6.59939">
        <ele>1447.9</ele>
        <time>2022-08-05T07:14:10+0200</time>
      </trkpt>
      <trkpt lat="44.92095" lon="6.59933">
        <ele>1448</ele>
        <time>2022-08-05T07:14:12+0200</time>
      </trkpt>
      <trkpt lat="44.92099" lon="6.59927">
        <ele>1447.9</ele>
        <time>2022-08-05T07:14:15+0200</time>
      </trkpt>
      <trkpt lat="44.92103" lon="6.59925">
        <ele>1447</ele>
        <time>2022-08-05T07:14:17+0200</time>
      </trkpt>
      <trkpt lat="44.92108" lon="6.5992">
        <ele>1446.3</ele>
        <time>2022-08-05T07:14:20+0200</time>
      </trkpt>
      <trkpt lat="44.92114" lon="6.59914">
        <ele>1446</ele>
        <time>2022-08-05T07:14:23+0200</time>
      </trkpt>
      <trkpt lat="44.92116" lon="6.59907">
        <ele>1447.2</ele>
        <time>2022-08-05T07:14:26+0200</time>
      </trkpt>
      <trkpt lat="44.9212" lon="6.59902">
        <ele>1447.2</ele>
        <time>2022-08-05T07:14:28+0200</time>
      </trkpt>
      <trkpt lat="44.92123" lon="6.59898">
        <ele>1447.2</ele>
        <time>2022-08-05T07:14:31+0200</time>
      </trkpt>
      <trkpt lat="44.92126" lon="6.59893">
        <ele>1447.6</ele>
        <time>2022-08-05T07:14:33+0200</time>
      </trkpt>
      <trkpt lat="44.92132" lon="6.59888">
        <ele>1447.1</ele>
        <time>2022-08-05T07:14:36+0200</time>
      </trkpt>
      <trkpt lat="44.92138" lon="6.59887">
        <ele>1445.9</ele>
        <time>2022-08-05T07:14:38+0200</time>
      </trkpt>
      <trkpt lat="44.92141" lon="6.59881">
        <ele>1446</ele>
        <time>2022-08-05T07:14:41+0200</time>
      </trkpt>
      <trkpt lat="44.92145" lon="6.59876">
        <ele>1445.9</ele>
        <time>2022-08-05T07:14:43+0200</time>
      </trkpt>
      <trkpt lat="44.92147" lon="6.59869">
        <ele>1446.5</ele>
        <time>2022-08-05T07:14:45+0200</time>
      </trkpt>
      <trkpt lat="44.9215" lon="6.59863">
        <ele>1447</ele>
        <time>2022-08-05T07:14:47+0200</time>
      </trkpt>
      <trkpt lat="44.92152" lon="6.59855">
        <ele>1448.3</ele>
        <time>2022-08-05T07:14:51+0200</time>
      </trkpt>
      <trkpt lat="44.92154" lon="6.59849">
        <ele>1449</ele>
        <time>2022-08-05T07:14:53+0200</time>
      </trkpt>
      <trkpt lat="44.92156" lon="6.59843">
        <ele>1450.1</ele>
        <time>2022-08-05T07:14:58+0200</time>
      </trkpt>
      <trkpt lat="44.92158" lon="6.59835">
        <ele>1451.2</ele>
        <time>2022-08-05T07:15:01+0200</time>
      </trkpt>
      <trkpt lat="44.9216" lon="6.59829">
        <ele>1452.2</ele>
        <time>2022-08-05T07:15:03+0200</time>
      </trkpt>
      <trkpt lat="44.9216" lon="6.59822">
        <ele>1454</ele>
        <time>2022-08-05T07:15:06+0200</time>
      </trkpt>
      <trkpt lat="44.92162" lon="6.59816">
        <ele>1455.1</ele>
        <time>2022-08-05T07:15:10+0200</time>
      </trkpt>
      <trkpt lat="44.92163" lon="6.59809">
        <ele>1456.4</ele>
        <time>2022-08-05T07:15:12+0200</time>
      </trkpt>
      <trkpt lat="44.92162" lon="6.59802">
        <ele>1458.2</ele>
        <time>2022-08-05T07:15:14+0200</time>
      </trkpt>
      <trkpt lat="44.92165" lon="6.59793">
        <ele>1459.4</ele>
        <time>2022-08-05T07:15:17+0200</time>
      </trkpt>
      <trkpt lat="44.92166" lon="6.59784">
        <ele>1461.1</ele>
        <time>2022-08-05T07:15:19+0200</time>
      </trkpt>
      <trkpt lat="44.92168" lon="6.59779">
        <ele>1461.4</ele>
        <time>2022-08-05T07:15:22+0200</time>
      </trkpt>
      <trkpt lat="44.92173" lon="6.59771">
        <ele>1461.9</ele>
        <time>2022-08-05T07:15:25+0200</time>
      </trkpt>
      <trkpt lat="44.92175" lon="6.59762">
        <ele>1463.5</ele>
        <time>2022-08-05T07:15:28+0200</time>
      </trkpt>
      <trkpt lat="44.9218" lon="6.59756">
        <ele>1463.5</ele>
        <time>2022-08-05T07:15:32+0200</time>
      </trkpt>
      <trkpt lat="44.92183" lon="6.59749">
        <ele>1464</ele>
        <time>2022-08-05T07:15:34+0200</time>
      </trkpt>
      <trkpt lat="44.92186" lon="6.59742">
        <ele>1464.4</ele>
        <time>2022-08-05T07:15:37+0200</time>
      </trkpt>
      <trkpt lat="44.9219" lon="6.59737">
        <ele>1464.2</ele>
        <time>2022-08-05T07:15:40+0200</time>
      </trkpt>
      <trkpt lat="44.92189" lon="6.5973">
        <ele>1466</ele>
        <time>2022-08-05T07:15:42+0200</time>
      </trkpt>
      <trkpt lat="44.92192" lon="6.59725">
        <ele>1466.2</ele>
        <time>2022-08-05T07:15:44+0200</time>
      </trkpt>
      <trkpt lat="44.92197" lon="6.5972">
        <ele>1465.6</ele>
        <time>2022-08-05T07:15:47+0200</time>
      </trkpt>
      <trkpt lat="44.922" lon="6.59713">
        <ele>1466.3</ele>
        <time>2022-08-05T07:15:51+0200</time>
      </trkpt>
      <trkpt lat="44.92205" lon="6.59707">
        <ele>1465.9</ele>
        <time>2022-08-05T07:15:54+0200</time>
      </trkpt>
      <trkpt lat="44.9221" lon="6.59702">
        <ele>1465.1</ele>
        <time>2022-08-05T07:15:57+0200</time>
      </trkpt>
      <trkpt lat="44.92214" lon="6.59697">
        <ele>1464.5</ele>
        <time>2022-08-05T07:15:59+0200</time>
      </trkpt>
      <trkpt lat="44.92218" lon="6.59689">
        <ele>1465.1</ele>
        <time>2022-08-05T07:16:02+0200</time>
      </trkpt>
      <trkpt lat="44.92222" lon="6.59683">
        <ele>1465.5</ele>
        <time>2022-08-05T07:16:06+0200</time>
      </trkpt>
      <trkpt lat="44.92225" lon="6.59677">
        <ele>1465.7</ele>
        <time>2022-08-05T07:16:08+0200</time>
      </trkpt>
      <trkpt lat="44.9223" lon="6.59672">
        <ele>1465.5</ele>
        <time>2022-08-05T07:16:11+0200</time>
      </trkpt>
      <trkpt lat="44.92234" lon="6.59666">
        <ele>1465.6</ele>
        <time>2022-08-05T07:16:14+0200</time>
      </trkpt>
      <trkpt lat="44.92237" lon="6.59659">
        <ele>1466.2</ele>
        <time>2022-08-05T07:16:17+0200</time>
      </trkpt>
      <trkpt lat="44.92238" lon="6.59653">
        <ele>1467.3</ele>
        <time>2022-08-05T07:16:19+0200</time>
      </trkpt>
      <trkpt lat="44.92237" lon="6.59646">
        <ele>1469.6</ele>
        <time>2022-08-05T07:16:22+0200</time>
      </trkpt>
      <trkpt lat="44.92236" lon="6.59637">
        <ele>1472.5</ele>
        <time>2022-08-05T07:16:24+0200</time>
      </trkpt>
      <trkpt lat="44.92234" lon="6.59631">
        <ele>1474.8</ele>
        <time>2022-08-05T07:16:26+0200</time>
      </trkpt>
      <trkpt lat="44.9223" lon="6.59634">
        <ele>1476</ele>
        <time>2022-08-05T07:16:30+0200</time>
      </trkpt>
      <trkpt lat="44.92224" lon="6.59637">
        <ele>1477.7</ele>
        <time>2022-08-05T07:16:34+0200</time>
      </trkpt>
      <trkpt lat="44.92221" lon="6.59643">
        <ele>1477.4</ele>
        <time>2022-08-05T07:16:38+0200</time>
      </trkpt>
      <trkpt lat="44.92217" lon="6.59647">
        <ele>1477.7</ele>
        <time>2022-08-05T07:16:41+0200</time>
      </trkpt>
      <trkpt lat="44.92213" lon="6.59651">
        <ele>1478.2</ele>
        <time>2022-08-05T07:16:44+0200</time>
      </trkpt>
      <trkpt lat="44.92209" lon="6.59656">
        <ele>1478.2</ele>
        <time>2022-08-05T07:16:46+0200</time>
      </trkpt>
      <trkpt lat="44.92205" lon="6.59659">
        <ele>1478.9</ele>
        <time>2022-08-05T07:16:49+0200</time>
      </trkpt>
      <trkpt lat="44.922" lon="6.59662">
        <ele>1480.2</ele>
        <time>2022-08-05T07:16:53+0200</time>
      </trkpt>
      <trkpt lat="44.92193" lon="6.59664">
        <ele>1482.3</ele>
        <time>2022-08-05T07:16:56+0200</time>
      </trkpt>
      <trkpt lat="44.92187" lon="6.59667">
        <ele>1484.2</ele>
        <time>2022-08-05T07:16:59+0200</time>
      </trkpt>
      <trkpt lat="44.9218" lon="6.59665">
        <ele>1487.8</ele>
        <time>2022-08-05T07:17:02+0200</time>
      </trkpt>
      <trkpt lat="44.92175" lon="6.59667">
        <ele>1489.1</ele>
        <time>2022-08-05T07:17:05+0200</time>
      </trkpt>
      <trkpt lat="44.9217" lon="6.59674">
        <ele>1489.4</ele>
        <time>2022-08-05T07:17:08+0200</time>
      </trkpt>
      <trkpt lat="44.92167" lon="6.59679">
        <ele>1489.2</ele>
        <time>2022-08-05T07:17:10+0200</time>
      </trkpt>
      <trkpt lat="44.92161" lon="6.59683">
        <ele>1490.7</ele>
        <time>2022-08-05T07:17:13+0200</time>
      </trkpt>
      <trkpt lat="44.92157" lon="6.59689">
        <ele>1490.7</ele>
        <time>2022-08-05T07:17:16+0200</time>
      </trkpt>
      <trkpt lat="44.92153" lon="6.59693">
        <ele>1491.1</ele>
        <time>2022-08-05T07:17:18+0200</time>
      </trkpt>
      <trkpt lat="44.92148" lon="6.59695">
        <ele>1492.5</ele>
        <time>2022-08-05T07:17:20+0200</time>
      </trkpt>
      <trkpt lat="44.92144" lon="6.59699">
        <ele>1492.6</ele>
        <time>2022-08-05T07:17:22+0200</time>
      </trkpt>
      <trkpt lat="44.92139" lon="6.59701">
        <ele>1493.9</ele>
        <time>2022-08-05T07:17:24+0200</time>
      </trkpt>
      <trkpt lat="44.92134" lon="6.59703">
        <ele>1495.7</ele>
        <time>2022-08-05T07:17:29+0200</time>
      </trkpt>
      <trkpt lat="44.9213" lon="6.59709">
        <ele>1495.7</ele>
        <time>2022-08-05T07:17:32+0200</time>
      </trkpt>
      <trkpt lat="44.92125" lon="6.59715">
        <ele>1495.6</ele>
        <time>2022-08-05T07:17:34+0200</time>
      </trkpt>
      <trkpt lat="44.9212" lon="6.59719">
        <ele>1496.3</ele>
        <time>2022-08-05T07:17:36+0200</time>
      </trkpt>
      <trkpt lat="44.92118" lon="6.59726">
        <ele>1495.2</ele>
        <time>2022-08-05T07:17:38+0200</time>
      </trkpt>
      <trkpt lat="44.92111" lon="6.59732">
        <ele>1496.1</ele>
        <time>2022-08-05T07:17:42+0200</time>
      </trkpt>
      <trkpt lat="44.92107" lon="6.59737">
        <ele>1496.1</ele>
        <time>2022-08-05T07:17:44+0200</time>
      </trkpt>
      <trkpt lat="44.92103" lon="6.59741">
        <ele>1495.8</ele>
        <time>2022-08-05T07:17:46+0200</time>
      </trkpt>
      <trkpt lat="44.921" lon="6.59745">
        <ele>1496.2</ele>
        <time>2022-08-05T07:17:49+0200</time>
      </trkpt>
      <trkpt lat="44.92095" lon="6.59747">
        <ele>1497.3</ele>
        <time>2022-08-05T07:17:51+0200</time>
      </trkpt>
      <trkpt lat="44.92091" lon="6.59753">
        <ele>1497.1</ele>
        <time>2022-08-05T07:17:54+0200</time>
      </trkpt>
      <trkpt lat="44.92087" lon="6.59756">
        <ele>1497.9</ele>
        <time>2022-08-05T07:17:57+0200</time>
      </trkpt>
      <trkpt lat="44.92081" lon="6.59756">
        <ele>1499.8</ele>
        <time>2022-08-05T07:18:00+0200</time>
      </trkpt>
      <trkpt lat="44.92076" lon="6.59756">
        <ele>1501.8</ele>
        <time>2022-08-05T07:18:03+0200</time>
      </trkpt>
      <trkpt lat="44.92073" lon="6.59761">
        <ele>1501.2</ele>
        <time>2022-08-05T07:18:06+0200</time>
      </trkpt>
      <trkpt lat="44.92068" lon="6.59766">
        <ele>1501.5</ele>
        <time>2022-08-05T07:18:09+0200</time>
      </trkpt>
      <trkpt lat="44.92064" lon="6.59768">
        <ele>1502.1</ele>
        <time>2022-08-05T07:18:14+0200</time>
      </trkpt>
      <trkpt lat="44.92059" lon="6.59773">
        <ele>1502.2</ele>
        <time>2022-08-05T07:18:16+0200</time>
      </trkpt>
      <trkpt lat="44.92056" lon="6.5978">
        <ele>1501.5</ele>
        <time>2022-08-05T07:18:18+0200</time>
      </trkpt>
      <trkpt lat="44.92052" lon="6.59784">
        <ele>1501.3</ele>
        <time>2022-08-05T07:18:21+0200</time>
      </trkpt>
      <trkpt lat="44.92046" lon="6.59787">
        <ele>1502.8</ele>
        <time>2022-08-05T07:18:24+0200</time>
      </trkpt>
      <trkpt lat="44.92041" lon="6.59789">
        <ele>1504.2</ele>
        <time>2022-08-05T07:18:26+0200</time>
      </trkpt>
      <trkpt lat="44.92036" lon="6.59791">
        <ele>1505.4</ele>
        <time>2022-08-05T07:18:28+0200</time>
      </trkpt>
      <trkpt lat="44.9203" lon="6.59794">
        <ele>1506.7</ele>
        <time>2022-08-05T07:18:30+0200</time>
      </trkpt>
      <trkpt lat="44.92025" lon="6.59793">
        <ele>1508.3</ele>
        <time>2022-08-05T07:18:32+0200</time>
      </trkpt>
      <trkpt lat="44.92019" lon="6.59795">
        <ele>1510.1</ele>
        <time>2022-08-05T07:18:35+0200</time>
      </trkpt>
      <trkpt lat="44.92014" lon="6.59798">
        <ele>1510.8</ele>
        <time>2022-08-05T07:18:37+0200</time>
      </trkpt>
      <trkpt lat="44.92009" lon="6.598">
        <ele>1511.7</ele>
        <time>2022-08-05T07:18:40+0200</time>
      </trkpt>
      <trkpt lat="44.92005" lon="6.59807">
        <ele>1511</ele>
        <time>2022-08-05T07:18:44+0200</time>
      </trkpt>
      <trkpt lat="44.92003" lon="6.59815">
        <ele>1509.7</ele>
        <time>2022-08-05T07:18:47+0200</time>
      </trkpt>
      <trkpt lat="44.91999" lon="6.59821">
        <ele>1509.5</ele>
        <time>2022-08-05T07:18:50+0200</time>
      </trkpt>
      <trkpt lat="44.91995" lon="6.59827">
        <ele>1509.5</ele>
        <time>2022-08-05T07:18:53+0200</time>
      </trkpt>
      <trkpt lat="44.91989" lon="6.59834">
        <ele>1509.5</ele>
        <time>2022-08-05T07:18:56+0200</time>
      </trkpt>
      <trkpt lat="44.91985" lon="6.59839">
        <ele>1509.5</ele>
        <time>2022-08-05T07:18:58+0200</time>
      </trkpt>
      <trkpt lat="44.9198" lon="6.59841">
        <ele>1510.7</ele>
        <time>2022-08-05T07:19:00+0200</time>
      </trkpt>
      <trkpt lat="44.91976" lon="6.59843">
        <ele>1511.8</ele>
        <time>2022-08-05T07:19:02+0200</time>
      </trkpt>
      <trkpt lat="44.91972" lon="6.59847">
        <ele>1512.3</ele>
        <time>2022-08-05T07:19:05+0200</time>
      </trkpt>
      <trkpt lat="44.91967" lon="6.59849">
        <ele>1513.4</ele>
        <time>2022-08-05T07:19:07+0200</time>
      </trkpt>
      <trkpt lat="44.91962" lon="6.59854">
        <ele>1514.2</ele>
        <time>2022-08-05T07:19:10+0200</time>
      </trkpt>
      <trkpt lat="44.91958" lon="6.59858">
        <ele>1514.6</ele>
        <time>2022-08-05T07:19:13+0200</time>
      </trkpt>
      <trkpt lat="44.91955" lon="6.59864">
        <ele>1514.8</ele>
        <time>2022-08-05T07:19:16+0200</time>
      </trkpt>
      <trkpt lat="44.91953" lon="6.59871">
        <ele>1513.6</ele>
        <time>2022-08-05T07:19:19+0200</time>
      </trkpt>
      <trkpt lat="44.91952" lon="6.59878">
        <ele>1512.6</ele>
        <time>2022-08-05T07:19:21+0200</time>
      </trkpt>
      <trkpt lat="44.91947" lon="6.59882">
        <ele>1513.4</ele>
        <time>2022-08-05T07:19:24+0200</time>
      </trkpt>
      <trkpt lat="44.91942" lon="6.59885">
        <ele>1514.6</ele>
        <time>2022-08-05T07:19:27+0200</time>
      </trkpt>
      <trkpt lat="44.91938" lon="6.59893">
        <ele>1514</ele>
        <time>2022-08-05T07:19:31+0200</time>
      </trkpt>
      <trkpt lat="44.91935" lon="6.59898">
        <ele>1513.4</ele>
        <time>2022-08-05T07:19:33+0200</time>
      </trkpt>
      <trkpt lat="44.91932" lon="6.59903">
        <ele>1513.1</ele>
        <time>2022-08-05T07:19:36+0200</time>
      </trkpt>
      <trkpt lat="44.91927" lon="6.59906">
        <ele>1513.7</ele>
        <time>2022-08-05T07:19:40+0200</time>
      </trkpt>
      <trkpt lat="44.91923" lon="6.59909">
        <ele>1514.3</ele>
        <time>2022-08-05T07:19:46+0200</time>
      </trkpt>
      <trkpt lat="44.91918" lon="6.59909">
        <ele>1515.9</ele>
        <time>2022-08-05T07:19:48+0200</time>
      </trkpt>
      <trkpt lat="44.91914" lon="6.59912">
        <ele>1516.4</ele>
        <time>2022-08-05T07:19:52+0200</time>
      </trkpt>
      <trkpt lat="44.91909" lon="6.59911">
        <ele>1518</ele>
        <time>2022-08-05T07:19:55+0200</time>
      </trkpt>
      <trkpt lat="44.91904" lon="6.59914">
        <ele>1518.9</ele>
        <time>2022-08-05T07:19:58+0200</time>
      </trkpt>
      <trkpt lat="44.91897" lon="6.59916">
        <ele>1520.6</ele>
        <time>2022-08-05T07:20:01+0200</time>
      </trkpt>
      <trkpt lat="44.91891" lon="6.59923">
        <ele>1520.8</ele>
        <time>2022-08-05T07:20:04+0200</time>
      </trkpt>
      <trkpt lat="44.91887" lon="6.59927">
        <ele>1521.1</ele>
        <time>2022-08-05T07:20:06+0200</time>
      </trkpt>
      <trkpt lat="44.91881" lon="6.5993">
        <ele>1521.9</ele>
        <time>2022-08-05T07:20:09+0200</time>
      </trkpt>
      <trkpt lat="44.91876" lon="6.59933">
        <ele>1522.6</ele>
        <time>2022-08-05T07:20:12+0200</time>
      </trkpt>
      <trkpt lat="44.91872" lon="6.59939">
        <ele>1522.3</ele>
        <time>2022-08-05T07:20:15+0200</time>
      </trkpt>
      <trkpt lat="44.91871" lon="6.59947">
        <ele>1520.4</ele>
        <time>2022-08-05T07:20:18+0200</time>
      </trkpt>
      <trkpt lat="44.91867" lon="6.59949">
        <ele>1521.3</ele>
        <time>2022-08-05T07:20:21+0200</time>
      </trkpt>
      <trkpt lat="44.91863" lon="6.59954">
        <ele>1521</ele>
        <time>2022-08-05T07:20:24+0200</time>
      </trkpt>
      <trkpt lat="44.91858" lon="6.59956">
        <ele>1522</ele>
        <time>2022-08-05T07:20:27+0200</time>
      </trkpt>
      <trkpt lat="44.91852" lon="6.59958">
        <ele>1523</ele>
        <time>2022-08-05T07:20:30+0200</time>
      </trkpt>
      <trkpt lat="44.91848" lon="6.59961">
        <ele>1523.7</ele>
        <time>2022-08-05T07:20:33+0200</time>
      </trkpt>
      <trkpt lat="44.91842" lon="6.59961">
        <ele>1525.4</ele>
        <time>2022-08-05T07:20:36+0200</time>
      </trkpt>
      <trkpt lat="44.91837" lon="6.5996">
        <ele>1527</ele>
        <time>2022-08-05T07:20:40+0200</time>
      </trkpt>
      <trkpt lat="44.91831" lon="6.59962">
        <ele>1528.2</ele>
        <time>2022-08-05T07:20:43+0200</time>
      </trkpt>
      <trkpt lat="44.91827" lon="6.59965">
        <ele>1528.8</ele>
        <time>2022-08-05T07:20:47+0200</time>
      </trkpt>
      <trkpt lat="44.91821" lon="6.59964">
        <ele>1530.7</ele>
        <time>2022-08-05T07:20:49+0200</time>
      </trkpt>
      <trkpt lat="44.91814" lon="6.59965">
        <ele>1532.2</ele>
        <time>2022-08-05T07:20:52+0200</time>
      </trkpt>
      <trkpt lat="44.91808" lon="6.59964">
        <ele>1534.1</ele>
        <time>2022-08-05T07:20:56+0200</time>
      </trkpt>
      <trkpt lat="44.91806" lon="6.59959">
        <ele>1535.9</ele>
        <time>2022-08-05T07:20:59+0200</time>
      </trkpt>
      <trkpt lat="44.9181" lon="6.59961">
        <ele>1534.2</ele>
        <time>2022-08-05T07:21:09+0200</time>
      </trkpt>
      <trkpt lat="44.91814" lon="6.59957">
        <ele>1534.2</ele>
        <time>2022-08-05T07:21:13+0200</time>
      </trkpt>
      <trkpt lat="44.91819" lon="6.59953">
        <ele>1533.8</ele>
        <time>2022-08-05T07:21:16+0200</time>
      </trkpt>
      <trkpt lat="44.91823" lon="6.5995">
        <ele>1533.4</ele>
        <time>2022-08-05T07:21:21+0200</time>
      </trkpt>
      <trkpt lat="44.91827" lon="6.59946">
        <ele>1533.3</ele>
        <time>2022-08-05T07:21:24+0200</time>
      </trkpt>
      <trkpt lat="44.9183" lon="6.5994">
        <ele>1533.8</ele>
        <time>2022-08-05T07:21:27+0200</time>
      </trkpt>
      <trkpt lat="44.91833" lon="6.59933">
        <ele>1534.5</ele>
        <time>2022-08-05T07:21:29+0200</time>
      </trkpt>
      <trkpt lat="44.91837" lon="6.59925">
        <ele>1535.1</ele>
        <time>2022-08-05T07:21:32+0200</time>
      </trkpt>
      <trkpt lat="44.91842" lon="6.59919">
        <ele>1535.3</ele>
        <time>2022-08-05T07:21:36+0200</time>
      </trkpt>
      <trkpt lat="44.91845" lon="6.59911">
        <ele>1536.7</ele>
        <time>2022-08-05T07:21:39+0200</time>
      </trkpt>
      <trkpt lat="44.9185" lon="6.59905">
        <ele>1536.8</ele>
        <time>2022-08-05T07:21:44+0200</time>
      </trkpt>
      <trkpt lat="44.91853" lon="6.59898">
        <ele>1537.7</ele>
        <time>2022-08-05T07:21:49+0200</time>
      </trkpt>
      <trkpt lat="44.91856" lon="6.59893">
        <ele>1538.2</ele>
        <time>2022-08-05T07:21:52+0200</time>
      </trkpt>
      <trkpt lat="44.91859" lon="6.59885">
        <ele>1539.3</ele>
        <time>2022-08-05T07:21:54+0200</time>
      </trkpt>
      <trkpt lat="44.9186" lon="6.59876">
        <ele>1541.1</ele>
        <time>2022-08-05T07:21:56+0200</time>
      </trkpt>
      <trkpt lat="44.91856" lon="6.59873">
        <ele>1543</ele>
        <time>2022-08-05T07:22:01+0200</time>
      </trkpt>
      <trkpt lat="44.91852" lon="6.59869">
        <ele>1544.9</ele>
        <time>2022-08-05T07:22:05+0200</time>
      </trkpt>
      <trkpt lat="44.91846" lon="6.59868">
        <ele>1546.8</ele>
        <time>2022-08-05T07:22:11+0200</time>
      </trkpt>
      <trkpt lat="44.91841" lon="6.59869">
        <ele>1547.8</ele>
        <time>2022-08-05T07:22:14+0200</time>
      </trkpt>
      <trkpt lat="44.91837" lon="6.59871">
        <ele>1548.7</ele>
        <time>2022-08-05T07:22:17+0200</time>
      </trkpt>
      <trkpt lat="44.91832" lon="6.59875">
        <ele>1548.8</ele>
        <time>2022-08-05T07:22:23+0200</time>
      </trkpt>
      <trkpt lat="44.91827" lon="6.59879">
        <ele>1549.1</ele>
        <time>2022-08-05T07:22:28+0200</time>
      </trkpt>
      <trkpt lat="44.9182" lon="6.59882">
        <ele>1550.1</ele>
        <time>2022-08-05T07:22:31+0200</time>
      </trkpt>
      <trkpt lat="44.91816" lon="6.59883">
        <ele>1550.9</ele>
        <time>2022-08-05T07:22:33+0200</time>
      </trkpt>
      <trkpt lat="44.91811" lon="6.59886">
        <ele>1551.3</ele>
        <time>2022-08-05T07:22:36+0200</time>
      </trkpt>
      <trkpt lat="44.91806" lon="6.59889">
        <ele>1551.7</ele>
        <time>2022-08-05T07:22:39+0200</time>
      </trkpt>
      <trkpt lat="44.91802" lon="6.59892">
        <ele>1552.4</ele>
        <time>2022-08-05T07:22:41+0200</time>
      </trkpt>
      <trkpt lat="44.91795" lon="6.59893">
        <ele>1553.8</ele>
        <time>2022-08-05T07:22:45+0200</time>
      </trkpt>
      <trkpt lat="44.91791" lon="6.59896">
        <ele>1554.4</ele>
        <time>2022-08-05T07:22:47+0200</time>
      </trkpt>
      <trkpt lat="44.91786" lon="6.59899">
        <ele>1554.9</ele>
        <time>2022-08-05T07:22:49+0200</time>
      </trkpt>
      <trkpt lat="44.9178" lon="6.59902">
        <ele>1556.1</ele>
        <time>2022-08-05T07:22:52+0200</time>
      </trkpt>
      <trkpt lat="44.91775" lon="6.59906">
        <ele>1556.8</ele>
        <time>2022-08-05T07:22:55+0200</time>
      </trkpt>
      <trkpt lat="44.91769" lon="6.59906">
        <ele>1558.6</ele>
        <time>2022-08-05T07:22:58+0200</time>
      </trkpt>
      <trkpt lat="44.91764" lon="6.59909">
        <ele>1559.7</ele>
        <time>2022-08-05T07:23:01+0200</time>
      </trkpt>
      <trkpt lat="44.9176" lon="6.59913">
        <ele>1560.2</ele>
        <time>2022-08-05T07:23:04+0200</time>
      </trkpt>
      <trkpt lat="44.91757" lon="6.5992">
        <ele>1559.8</ele>
        <time>2022-08-05T07:23:07+0200</time>
      </trkpt>
      <trkpt lat="44.91752" lon="6.59926">
        <ele>1560.5</ele>
        <time>2022-08-05T07:23:10+0200</time>
      </trkpt>
      <trkpt lat="44.91746" lon="6.59931">
        <ele>1561.4</ele>
        <time>2022-08-05T07:23:13+0200</time>
      </trkpt>
      <trkpt lat="44.91742" lon="6.59935">
        <ele>1562.2</ele>
        <time>2022-08-05T07:23:16+0200</time>
      </trkpt>
      <trkpt lat="44.91739" lon="6.59942">
        <ele>1562.1</ele>
        <time>2022-08-05T07:23:19+0200</time>
      </trkpt>
      <trkpt lat="44.91735" lon="6.59947">
        <ele>1562.4</ele>
        <time>2022-08-05T07:23:21+0200</time>
      </trkpt>
      <trkpt lat="44.91733" lon="6.59953">
        <ele>1562.3</ele>
        <time>2022-08-05T07:23:23+0200</time>
      </trkpt>
      <trkpt lat="44.9173" lon="6.59958">
        <ele>1562.1</ele>
        <time>2022-08-05T07:23:25+0200</time>
      </trkpt>
      <trkpt lat="44.91727" lon="6.59966">
        <ele>1561.7</ele>
        <time>2022-08-05T07:23:28+0200</time>
      </trkpt>
      <trkpt lat="44.91722" lon="6.59971">
        <ele>1562.2</ele>
        <time>2022-08-05T07:23:31+0200</time>
      </trkpt>
      <trkpt lat="44.91722" lon="6.5998">
        <ele>1560.7</ele>
        <time>2022-08-05T07:23:33+0200</time>
      </trkpt>
      <trkpt lat="44.9172" lon="6.59989">
        <ele>1559.9</ele>
        <time>2022-08-05T07:23:36+0200</time>
      </trkpt>
      <trkpt lat="44.91717" lon="6.59995">
        <ele>1559.7</ele>
        <time>2022-08-05T07:23:39+0200</time>
      </trkpt>
      <trkpt lat="44.91712" lon="6.60001">
        <ele>1560.5</ele>
        <time>2022-08-05T07:23:43+0200</time>
      </trkpt>
      <trkpt lat="44.91708" lon="6.60003">
        <ele>1561.7</ele>
        <time>2022-08-05T07:23:46+0200</time>
      </trkpt>
      <trkpt lat="44.91705" lon="6.6001">
        <ele>1561.5</ele>
        <time>2022-08-05T07:23:49+0200</time>
      </trkpt>
      <trkpt lat="44.917" lon="6.60012">
        <ele>1562.8</ele>
        <time>2022-08-05T07:23:52+0200</time>
      </trkpt>
      <trkpt lat="44.91695" lon="6.60011">
        <ele>1564.9</ele>
        <time>2022-08-05T07:23:55+0200</time>
      </trkpt>
      <trkpt lat="44.91691" lon="6.60018">
        <ele>1564.7</ele>
        <time>2022-08-05T07:23:59+0200</time>
      </trkpt>
      <trkpt lat="44.91686" lon="6.60022">
        <ele>1565.5</ele>
        <time>2022-08-05T07:24:02+0200</time>
      </trkpt>
      <trkpt lat="44.91682" lon="6.60027">
        <ele>1565.8</ele>
        <time>2022-08-05T07:24:05+0200</time>
      </trkpt>
      <trkpt lat="44.91677" lon="6.60031">
        <ele>1566.4</ele>
        <time>2022-08-05T07:24:09+0200</time>
      </trkpt>
      <trkpt lat="44.91674" lon="6.60038">
        <ele>1566.4</ele>
        <time>2022-08-05T07:24:12+0200</time>
      </trkpt>
      <trkpt lat="44.91669" lon="6.60041">
        <ele>1567.1</ele>
        <time>2022-08-05T07:24:15+0200</time>
      </trkpt>
      <trkpt lat="44.91663" lon="6.6004">
        <ele>1568.7</ele>
        <time>2022-08-05T07:24:19+0200</time>
      </trkpt>
      <trkpt lat="44.91658" lon="6.60033">
        <ele>1571.1</ele>
        <time>2022-08-05T07:24:24+0200</time>
      </trkpt>
      <trkpt lat="44.91658" lon="6.60027">
        <ele>1572.4</ele>
        <time>2022-08-05T07:24:28+0200</time>
      </trkpt>
      <trkpt lat="44.91662" lon="6.60022">
        <ele>1572.1</ele>
        <time>2022-08-05T07:24:32+0200</time>
      </trkpt>
      <trkpt lat="44.91665" lon="6.60016">
        <ele>1572.1</ele>
        <time>2022-08-05T07:24:37+0200</time>
      </trkpt>
      <trkpt lat="44.91666" lon="6.6001">
        <ele>1572.7</ele>
        <time>2022-08-05T07:24:42+0200</time>
      </trkpt>
      <trkpt lat="44.9167" lon="6.60004">
        <ele>1572.5</ele>
        <time>2022-08-05T07:24:45+0200</time>
      </trkpt>
      <trkpt lat="44.91675" lon="6.59999">
        <ele>1572.2</ele>
        <time>2022-08-05T07:24:50+0200</time>
      </trkpt>
      <trkpt lat="44.91679" lon="6.59994">
        <ele>1572.1</ele>
        <time>2022-08-05T07:24:53+0200</time>
      </trkpt>
      <trkpt lat="44.91682" lon="6.59989">
        <ele>1572.3</ele>
        <time>2022-08-05T07:24:55+0200</time>
      </trkpt>
      <trkpt lat="44.91686" lon="6.59983">
        <ele>1572.2</ele>
        <time>2022-08-05T07:24:59+0200</time>
      </trkpt>
      <trkpt lat="44.9169" lon="6.59978">
        <ele>1572.2</ele>
        <time>2022-08-05T07:25:03+0200</time>
      </trkpt>
      <trkpt lat="44.91693" lon="6.59973">
        <ele>1572.2</ele>
        <time>2022-08-05T07:25:07+0200</time>
      </trkpt>
      <trkpt lat="44.91695" lon="6.59966">
        <ele>1573.1</ele>
        <time>2022-08-05T07:25:10+0200</time>
      </trkpt>
      <trkpt lat="44.91696" lon="6.59958">
        <ele>1574</ele>
        <time>2022-08-05T07:25:12+0200</time>
      </trkpt>
      <trkpt lat="44.91698" lon="6.59952">
        <ele>1574.3</ele>
        <time>2022-08-05T07:25:15+0200</time>
      </trkpt>
      <trkpt lat="44.91702" lon="6.59944">
        <ele>1574.7</ele>
        <time>2022-08-05T07:25:18+0200</time>
      </trkpt>
      <trkpt lat="44.91705" lon="6.59935">
        <ele>1575.6</ele>
        <time>2022-08-05T07:25:21+0200</time>
      </trkpt>
      <trkpt lat="44.91708" lon="6.59929">
        <ele>1575.8</ele>
        <time>2022-08-05T07:25:24+0200</time>
      </trkpt>
      <trkpt lat="44.91711" lon="6.59923">
        <ele>1576.2</ele>
        <time>2022-08-05T07:25:27+0200</time>
      </trkpt>
      <trkpt lat="44.91712" lon="6.59913">
        <ele>1578.2</ele>
        <time>2022-08-05T07:25:30+0200</time>
      </trkpt>
      <trkpt lat="44.91713" lon="6.59904">
        <ele>1579.7</ele>
        <time>2022-08-05T07:25:32+0200</time>
      </trkpt>
      <trkpt lat="44.91715" lon="6.59898">
        <ele>1580.6</ele>
        <time>2022-08-05T07:25:34+0200</time>
      </trkpt>
      <trkpt lat="44.91717" lon="6.5989">
        <ele>1581.6</ele>
        <time>2022-08-05T07:25:37+0200</time>
      </trkpt>
      <trkpt lat="44.9172" lon="6.59881">
        <ele>1582.9</ele>
        <time>2022-08-05T07:25:40+0200</time>
      </trkpt>
      <trkpt lat="44.91721" lon="6.59874">
        <ele>1583.6</ele>
        <time>2022-08-05T07:25:43+0200</time>
      </trkpt>
      <trkpt lat="44.91723" lon="6.59867">
        <ele>1584.2</ele>
        <time>2022-08-05T07:25:48+0200</time>
      </trkpt>
      <trkpt lat="44.91725" lon="6.5986">
        <ele>1585.1</ele>
        <time>2022-08-05T07:25:51+0200</time>
      </trkpt>
      <trkpt lat="44.91727" lon="6.59852">
        <ele>1586</ele>
        <time>2022-08-05T07:25:54+0200</time>
      </trkpt>
      <trkpt lat="44.91729" lon="6.59846">
        <ele>1586.4</ele>
        <time>2022-08-05T07:25:58+0200</time>
      </trkpt>
      <trkpt lat="44.9173" lon="6.5984">
        <ele>1587.7</ele>
        <time>2022-08-05T07:26:01+0200</time>
      </trkpt>
      <trkpt lat="44.91733" lon="6.59835">
        <ele>1587.6</ele>
        <time>2022-08-05T07:26:03+0200</time>
      </trkpt>
      <trkpt lat="44.91736" lon="6.5983">
        <ele>1587.1</ele>
        <time>2022-08-05T07:26:07+0200</time>
      </trkpt>
      <trkpt lat="44.91738" lon="6.59823">
        <ele>1587.6</ele>
        <time>2022-08-05T07:26:10+0200</time>
      </trkpt>
      <trkpt lat="44.9174" lon="6.59815">
        <ele>1588.5</ele>
        <time>2022-08-05T07:26:13+0200</time>
      </trkpt>
      <trkpt lat="44.91741" lon="6.59809">
        <ele>1589.3</ele>
        <time>2022-08-05T07:26:15+0200</time>
      </trkpt>
      <trkpt lat="44.91743" lon="6.59802">
        <ele>1590</ele>
        <time>2022-08-05T07:26:17+0200</time>
      </trkpt>
      <trkpt lat="44.91745" lon="6.59794">
        <ele>1590.8</ele>
        <time>2022-08-05T07:26:20+0200</time>
      </trkpt>
      <trkpt lat="44.91748" lon="6.59788">
        <ele>1590.8</ele>
        <time>2022-08-05T07:26:23+0200</time>
      </trkpt>
      <trkpt lat="44.91749" lon="6.5978">
        <ele>1591.8</ele>
        <time>2022-08-05T07:26:26+0200</time>
      </trkpt>
      <trkpt lat="44.91753" lon="6.59775">
        <ele>1591.9</ele>
        <time>2022-08-05T07:26:29+0200</time>
      </trkpt>
      <trkpt lat="44.91756" lon="6.59767">
        <ele>1593.2</ele>
        <time>2022-08-05T07:26:32+0200</time>
      </trkpt>
      <trkpt lat="44.91759" lon="6.5976">
        <ele>1594.2</ele>
        <time>2022-08-05T07:26:36+0200</time>
      </trkpt>
      <trkpt lat="44.91762" lon="6.59754">
        <ele>1595.2</ele>
        <time>2022-08-05T07:26:40+0200</time>
      </trkpt>
      <trkpt lat="44.91765" lon="6.59747">
        <ele>1596.2</ele>
        <time>2022-08-05T07:26:43+0200</time>
      </trkpt>
      <trkpt lat="44.91769" lon="6.59744">
        <ele>1596.3</ele>
        <time>2022-08-05T07:26:47+0200</time>
      </trkpt>
      <trkpt lat="44.91773" lon="6.59739">
        <ele>1596.6</ele>
        <time>2022-08-05T07:26:52+0200</time>
      </trkpt>
      <trkpt lat="44.91777" lon="6.59734">
        <ele>1597</ele>
        <time>2022-08-05T07:26:54+0200</time>
      </trkpt>
      <trkpt lat="44.91781" lon="6.59729">
        <ele>1597.8</ele>
        <time>2022-08-05T07:26:57+0200</time>
      </trkpt>
      <trkpt lat="44.91786" lon="6.59727">
        <ele>1597.1</ele>
        <time>2022-08-05T07:27:01+0200</time>
      </trkpt>
      <trkpt lat="44.9179" lon="6.59721">
        <ele>1598.6</ele>
        <time>2022-08-05T07:27:05+0200</time>
      </trkpt>
      <trkpt lat="44.91795" lon="6.59717">
        <ele>1599</ele>
        <time>2022-08-05T07:27:08+0200</time>
      </trkpt>
      <trkpt lat="44.91799" lon="6.59711">
        <ele>1600.3</ele>
        <time>2022-08-05T07:27:10+0200</time>
      </trkpt>
      <trkpt lat="44.91802" lon="6.59704">
        <ele>1602.2</ele>
        <time>2022-08-05T07:27:13+0200</time>
      </trkpt>
      <trkpt lat="44.91801" lon="6.59696">
        <ele>1605.6</ele>
        <time>2022-08-05T07:27:17+0200</time>
      </trkpt>
      <trkpt lat="44.91797" lon="6.59692">
        <ele>1609.2</ele>
        <time>2022-08-05T07:27:24+0200</time>
      </trkpt>
      <trkpt lat="44.91791" lon="6.59691">
        <ele>1611.1</ele>
        <time>2022-08-05T07:27:29+0200</time>
      </trkpt>
      <trkpt lat="44.91785" lon="6.59694">
        <ele>1611.9</ele>
        <time>2022-08-05T07:27:33+0200</time>
      </trkpt>
      <trkpt lat="44.9178" lon="6.59696">
        <ele>1612.7</ele>
        <time>2022-08-05T07:27:37+0200</time>
      </trkpt>
      <trkpt lat="44.91773" lon="6.597">
        <ele>1613.1</ele>
        <time>2022-08-05T07:27:40+0200</time>
      </trkpt>
      <trkpt lat="44.91768" lon="6.59702">
        <ele>1614.1</ele>
        <time>2022-08-05T07:27:44+0200</time>
      </trkpt>
      <trkpt lat="44.91764" lon="6.59703">
        <ele>1615.2</ele>
        <time>2022-08-05T07:27:49+0200</time>
      </trkpt>
      <trkpt lat="44.91758" lon="6.59704">
        <ele>1616.6</ele>
        <time>2022-08-05T07:27:52+0200</time>
      </trkpt>
      <trkpt lat="44.91755" lon="6.59708">
        <ele>1616</ele>
        <time>2022-08-05T07:27:55+0200</time>
      </trkpt>
      <trkpt lat="44.91749" lon="6.5971">
        <ele>1617.1</ele>
        <time>2022-08-05T07:27:58+0200</time>
      </trkpt>
      <trkpt lat="44.91742" lon="6.59713">
        <ele>1618.3</ele>
        <time>2022-08-05T07:28:01+0200</time>
      </trkpt>
      <trkpt lat="44.91737" lon="6.59715">
        <ele>1619.5</ele>
        <time>2022-08-05T07:28:04+0200</time>
      </trkpt>
      <trkpt lat="44.91733" lon="6.59719">
        <ele>1618.9</ele>
        <time>2022-08-05T07:28:08+0200</time>
      </trkpt>
      <trkpt lat="44.91727" lon="6.59723">
        <ele>1620.2</ele>
        <time>2022-08-05T07:28:11+0200</time>
      </trkpt>
      <trkpt lat="44.91724" lon="6.59729">
        <ele>1618.9</ele>
        <time>2022-08-05T07:28:13+0200</time>
      </trkpt>
      <trkpt lat="44.91721" lon="6.59733">
        <ele>1619.1</ele>
        <time>2022-08-05T07:28:15+0200</time>
      </trkpt>
      <trkpt lat="44.91718" lon="6.59739">
        <ele>1618.1</ele>
        <time>2022-08-05T07:28:17+0200</time>
      </trkpt>
      <trkpt lat="44.91714" lon="6.59744">
        <ele>1618.3</ele>
        <time>2022-08-05T07:28:22+0200</time>
      </trkpt>
      <trkpt lat="44.91713" lon="6.59752">
        <ele>1616.1</ele>
        <time>2022-08-05T07:28:24+0200</time>
      </trkpt>
      <trkpt lat="44.91709" lon="6.59759">
        <ele>1616.2</ele>
        <time>2022-08-05T07:28:27+0200</time>
      </trkpt>
      <trkpt lat="44.91705" lon="6.5976">
        <ele>1618.1</ele>
        <time>2022-08-05T07:28:29+0200</time>
      </trkpt>
      <trkpt lat="44.91702" lon="6.59764">
        <ele>1618.7</ele>
        <time>2022-08-05T07:28:31+0200</time>
      </trkpt>
      <trkpt lat="44.91698" lon="6.59771">
        <ele>1618.9</ele>
        <time>2022-08-05T07:28:34+0200</time>
      </trkpt>
      <trkpt lat="44.91698" lon="6.5978">
        <ele>1616.8</ele>
        <time>2022-08-05T07:28:37+0200</time>
      </trkpt>
      <trkpt lat="44.91695" lon="6.59786">
        <ele>1616.9</ele>
        <time>2022-08-05T07:28:40+0200</time>
      </trkpt>
      <trkpt lat="44.9169" lon="6.5979">
        <ele>1618.3</ele>
        <time>2022-08-05T07:28:43+0200</time>
      </trkpt>
      <trkpt lat="44.91683" lon="6.59795">
        <ele>1620.1</ele>
        <time>2022-08-05T07:28:46+0200</time>
      </trkpt>
      <trkpt lat="44.91678" lon="6.59801">
        <ele>1620.9</ele>
        <time>2022-08-05T07:28:49+0200</time>
      </trkpt>
      <trkpt lat="44.91673" lon="6.59804">
        <ele>1622.7</ele>
        <time>2022-08-05T07:28:52+0200</time>
      </trkpt>
      <trkpt lat="44.9167" lon="6.5981">
        <ele>1622.2</ele>
        <time>2022-08-05T07:28:56+0200</time>
      </trkpt>
      <trkpt lat="44.91666" lon="6.59814">
        <ele>1622.6</ele>
        <time>2022-08-05T07:28:59+0200</time>
      </trkpt>
      <trkpt lat="44.9166" lon="6.59816">
        <ele>1624.4</ele>
        <time>2022-08-05T07:29:02+0200</time>
      </trkpt>
      <trkpt lat="44.91654" lon="6.5982">
        <ele>1625.2</ele>
        <time>2022-08-05T07:29:05+0200</time>
      </trkpt>
      <trkpt lat="44.9165" lon="6.59824">
        <ele>1625.1</ele>
        <time>2022-08-05T07:29:08+0200</time>
      </trkpt>
      <trkpt lat="44.91645" lon="6.59827">
        <ele>1626</ele>
        <time>2022-08-05T07:29:12+0200</time>
      </trkpt>
      <trkpt lat="44.9164" lon="6.59829">
        <ele>1627.1</ele>
        <time>2022-08-05T07:29:15+0200</time>
      </trkpt>
      <trkpt lat="44.91635" lon="6.59831">
        <ele>1628.2</ele>
        <time>2022-08-05T07:29:19+0200</time>
      </trkpt>
      <trkpt lat="44.9163" lon="6.59834">
        <ele>1628.5</ele>
        <time>2022-08-05T07:29:26+0200</time>
      </trkpt>
      <trkpt lat="44.91626" lon="6.5984">
        <ele>1628.1</ele>
        <time>2022-08-05T07:29:30+0200</time>
      </trkpt>
      <trkpt lat="44.9162" lon="6.59842">
        <ele>1629.4</ele>
        <time>2022-08-05T07:29:33+0200</time>
      </trkpt>
      <trkpt lat="44.91615" lon="6.59847">
        <ele>1629.4</ele>
        <time>2022-08-05T07:29:36+0200</time>
      </trkpt>
      <trkpt lat="44.91609" lon="6.59852">
        <ele>1629.8</ele>
        <time>2022-08-05T07:29:39+0200</time>
      </trkpt>
      <trkpt lat="44.91605" lon="6.59857">
        <ele>1629.8</ele>
        <time>2022-08-05T07:29:41+0200</time>
      </trkpt>
      <trkpt lat="44.916" lon="6.5986">
        <ele>1630.7</ele>
        <time>2022-08-05T07:29:43+0200</time>
      </trkpt>
      <trkpt lat="44.91595" lon="6.59863">
        <ele>1632</ele>
        <time>2022-08-05T07:29:45+0200</time>
      </trkpt>
      <trkpt lat="44.9159" lon="6.59867">
        <ele>1632.5</ele>
        <time>2022-08-05T07:29:48+0200</time>
      </trkpt>
      <trkpt lat="44.91585" lon="6.59872">
        <ele>1632.9</ele>
        <time>2022-08-05T07:29:51+0200</time>
      </trkpt>
      <trkpt lat="44.91581" lon="6.59876">
        <ele>1633</ele>
        <time>2022-08-05T07:29:53+0200</time>
      </trkpt>
      <trkpt lat="44.91575" lon="6.59878">
        <ele>1634.9</ele>
        <time>2022-08-05T07:29:55+0200</time>
      </trkpt>
      <trkpt lat="44.91572" lon="6.59885">
        <ele>1634.2</ele>
        <time>2022-08-05T07:29:58+0200</time>
      </trkpt>
      <trkpt lat="44.91568" lon="6.59887">
        <ele>1635.3</ele>
        <time>2022-08-05T07:30:00+0200</time>
      </trkpt>
      <trkpt lat="44.91562" lon="6.59889">
        <ele>1637.1</ele>
        <time>2022-08-05T07:30:03+0200</time>
      </trkpt>
      <trkpt lat="44.91559" lon="6.59895">
        <ele>1636.5</ele>
        <time>2022-08-05T07:30:06+0200</time>
      </trkpt>
      <trkpt lat="44.91556" lon="6.599">
        <ele>1636.5</ele>
        <time>2022-08-05T07:30:08+0200</time>
      </trkpt>
      <trkpt lat="44.91552" lon="6.59903">
        <ele>1636.7</ele>
        <time>2022-08-05T07:30:10+0200</time>
      </trkpt>
      <trkpt lat="44.91548" lon="6.59908">
        <ele>1636.5</ele>
        <time>2022-08-05T07:30:13+0200</time>
      </trkpt>
      <trkpt lat="44.91543" lon="6.59913">
        <ele>1636.7</ele>
        <time>2022-08-05T07:30:17+0200</time>
      </trkpt>
      <trkpt lat="44.91538" lon="6.59918">
        <ele>1637.1</ele>
        <time>2022-08-05T07:30:20+0200</time>
      </trkpt>
      <trkpt lat="44.91532" lon="6.5992">
        <ele>1638.2</ele>
        <time>2022-08-05T07:30:23+0200</time>
      </trkpt>
      <trkpt lat="44.91527" lon="6.59925">
        <ele>1638.5</ele>
        <time>2022-08-05T07:30:26+0200</time>
      </trkpt>
      <trkpt lat="44.91522" lon="6.59931">
        <ele>1638.2</ele>
        <time>2022-08-05T07:30:29+0200</time>
      </trkpt>
      <trkpt lat="44.91517" lon="6.59931">
        <ele>1639.6</ele>
        <time>2022-08-05T07:30:32+0200</time>
      </trkpt>
      <trkpt lat="44.91511" lon="6.59931">
        <ele>1641.4</ele>
        <time>2022-08-05T07:30:37+0200</time>
      </trkpt>
      <trkpt lat="44.91514" lon="6.59925">
        <ele>1642.7</ele>
        <time>2022-08-05T07:30:46+0200</time>
      </trkpt>
      <trkpt lat="44.91516" lon="6.59919">
        <ele>1644</ele>
        <time>2022-08-05T07:30:49+0200</time>
      </trkpt>
      <trkpt lat="44.91519" lon="6.59912">
        <ele>1645.5</ele>
        <time>2022-08-05T07:30:52+0200</time>
      </trkpt>
      <trkpt lat="44.91523" lon="6.59906">
        <ele>1645.9</ele>
        <time>2022-08-05T07:30:55+0200</time>
      </trkpt>
      <trkpt lat="44.91527" lon="6.599">
        <ele>1646.8</ele>
        <time>2022-08-05T07:30:58+0200</time>
      </trkpt>
      <trkpt lat="44.91531" lon="6.59896">
        <ele>1646.4</ele>
        <time>2022-08-05T07:31:01+0200</time>
      </trkpt>
      <trkpt lat="44.91537" lon="6.59894">
        <ele>1645.2</ele>
        <time>2022-08-05T07:31:04+0200</time>
      </trkpt>
      <trkpt lat="44.91541" lon="6.5989">
        <ele>1644.7</ele>
        <time>2022-08-05T07:31:07+0200</time>
      </trkpt>
      <trkpt lat="44.91544" lon="6.59885">
        <ele>1645.5</ele>
        <time>2022-08-05T07:31:10+0200</time>
      </trkpt>
      <trkpt lat="44.91547" lon="6.59878">
        <ele>1646.8</ele>
        <time>2022-08-05T07:31:12+0200</time>
      </trkpt>
      <trkpt lat="44.9155" lon="6.59872">
        <ele>1647.5</ele>
        <time>2022-08-05T07:31:14+0200</time>
      </trkpt>
      <trkpt lat="44.91554" lon="6.59866">
        <ele>1648.2</ele>
        <time>2022-08-05T07:31:17+0200</time>
      </trkpt>
      <trkpt lat="44.91556" lon="6.59859">
        <ele>1649.6</ele>
        <time>2022-08-05T07:31:19+0200</time>
      </trkpt>
      <trkpt lat="44.91559" lon="6.59852">
        <ele>1650.6</ele>
        <time>2022-08-05T07:31:21+0200</time>
      </trkpt>
      <trkpt lat="44.91562" lon="6.59845">
        <ele>1651.6</ele>
        <time>2022-08-05T07:31:24+0200</time>
      </trkpt>
      <trkpt lat="44.91564" lon="6.59837">
        <ele>1653.4</ele>
        <time>2022-08-05T07:31:27+0200</time>
      </trkpt>
      <trkpt lat="44.91567" lon="6.59832">
        <ele>1653.4</ele>
        <time>2022-08-05T07:31:30+0200</time>
      </trkpt>
      <trkpt lat="44.91571" lon="6.59826">
        <ele>1654.4</ele>
        <time>2022-08-05T07:31:33+0200</time>
      </trkpt>
      <trkpt lat="44.91575" lon="6.59821">
        <ele>1654.5</ele>
        <time>2022-08-05T07:31:37+0200</time>
      </trkpt>
      <trkpt lat="44.91578" lon="6.59816">
        <ele>1654.9</ele>
        <time>2022-08-05T07:31:39+0200</time>
      </trkpt>
      <trkpt lat="44.91582" lon="6.59811">
        <ele>1654.4</ele>
        <time>2022-08-05T07:31:42+0200</time>
      </trkpt>
      <trkpt lat="44.91586" lon="6.59807">
        <ele>1654.5</ele>
        <time>2022-08-05T07:31:46+0200</time>
      </trkpt>
      <trkpt lat="44.9159" lon="6.59802">
        <ele>1654.8</ele>
        <time>2022-08-05T07:31:49+0200</time>
      </trkpt>
      <trkpt lat="44.91596" lon="6.59798">
        <ele>1654.4</ele>
        <time>2022-08-05T07:31:52+0200</time>
      </trkpt>
      <trkpt lat="44.91601" lon="6.59794">
        <ele>1653.7</ele>
        <time>2022-08-05T07:31:55+0200</time>
      </trkpt>
      <trkpt lat="44.91607" lon="6.5979">
        <ele>1652.9</ele>
        <time>2022-08-05T07:31:59+0200</time>
      </trkpt>
      <trkpt lat="44.91612" lon="6.59785">
        <ele>1652.9</ele>
        <time>2022-08-05T07:32:01+0200</time>
      </trkpt>
      <trkpt lat="44.91615" lon="6.59781">
        <ele>1653.2</ele>
        <time>2022-08-05T07:32:03+0200</time>
      </trkpt>
      <trkpt lat="44.91619" lon="6.59776">
        <ele>1653.8</ele>
        <time>2022-08-05T07:32:05+0200</time>
      </trkpt>
      <trkpt lat="44.91623" lon="6.59772">
        <ele>1653.7</ele>
        <time>2022-08-05T07:32:07+0200</time>
      </trkpt>
      <trkpt lat="44.91627" lon="6.59768">
        <ele>1653.2</ele>
        <time>2022-08-05T07:32:09+0200</time>
      </trkpt>
      <trkpt lat="44.91632" lon="6.59765">
        <ele>1652.6</ele>
        <time>2022-08-05T07:32:11+0200</time>
      </trkpt>
      <trkpt lat="44.91636" lon="6.59757">
        <ele>1652.9</ele>
        <time>2022-08-05T07:32:14+0200</time>
      </trkpt>
      <trkpt lat="44.9164" lon="6.5975">
        <ele>1653.5</ele>
        <time>2022-08-05T07:32:17+0200</time>
      </trkpt>
      <trkpt lat="44.91642" lon="6.59744">
        <ele>1654.6</ele>
        <time>2022-08-05T07:32:19+0200</time>
      </trkpt>
      <trkpt lat="44.91644" lon="6.59737">
        <ele>1655.9</ele>
        <time>2022-08-05T07:32:21+0200</time>
      </trkpt>
      <trkpt lat="44.91649" lon="6.59733">
        <ele>1654.8</ele>
        <time>2022-08-05T07:32:24+0200</time>
      </trkpt>
      <trkpt lat="44.91651" lon="6.59725">
        <ele>1656</ele>
        <time>2022-08-05T07:32:27+0200</time>
      </trkpt>
      <trkpt lat="44.91654" lon="6.59719">
        <ele>1656.6</ele>
        <time>2022-08-05T07:32:30+0200</time>
      </trkpt>
      <trkpt lat="44.91655" lon="6.59712">
        <ele>1657.6</ele>
        <time>2022-08-05T07:32:33+0200</time>
      </trkpt>
      <trkpt lat="44.91656" lon="6.59705">
        <ele>1658.7</ele>
        <time>2022-08-05T07:32:36+0200</time>
      </trkpt>
      <trkpt lat="44.91656" lon="6.59697">
        <ele>1660.7</ele>
        <time>2022-08-05T07:32:39+0200</time>
      </trkpt>
      <trkpt lat="44.91657" lon="6.59688">
        <ele>1662.9</ele>
        <time>2022-08-05T07:32:42+0200</time>
      </trkpt>
      <trkpt lat="44.91657" lon="6.59679">
        <ele>1665.8</ele>
        <time>2022-08-05T07:32:45+0200</time>
      </trkpt>
      <trkpt lat="44.91655" lon="6.59671">
        <ele>1668.8</ele>
        <time>2022-08-05T07:32:48+0200</time>
      </trkpt>
      <trkpt lat="44.91655" lon="6.59663">
        <ele>1671.2</ele>
        <time>2022-08-05T07:32:52+0200</time>
      </trkpt>
      <trkpt lat="44.91656" lon="6.59657">
        <ele>1672.4</ele>
        <time>2022-08-05T07:32:57+0200</time>
      </trkpt>
      <trkpt lat="44.91658" lon="6.5965">
        <ele>1672.3</ele>
        <time>2022-08-05T07:33:02+0200</time>
      </trkpt>
      <trkpt lat="44.91663" lon="6.59647">
        <ele>1670.1</ele>
        <time>2022-08-05T07:33:07+0200</time>
      </trkpt>
      <trkpt lat="44.91669" lon="6.59644">
        <ele>1668</ele>
        <time>2022-08-05T07:33:10+0200</time>
      </trkpt>
      <trkpt lat="44.91673" lon="6.59644">
        <ele>1666.5</ele>
        <time>2022-08-05T07:33:12+0200</time>
      </trkpt>
      <trkpt lat="44.91678" lon="6.59642">
        <ele>1665.6</ele>
        <time>2022-08-05T07:33:15+0200</time>
      </trkpt>
      <trkpt lat="44.91683" lon="6.59641">
        <ele>1664.1</ele>
        <time>2022-08-05T07:33:17+0200</time>
      </trkpt>
      <trkpt lat="44.91687" lon="6.59637">
        <ele>1664.2</ele>
        <time>2022-08-05T07:33:19+0200</time>
      </trkpt>
      <trkpt lat="44.91692" lon="6.59632">
        <ele>1664.7</ele>
        <time>2022-08-05T07:33:21+0200</time>
      </trkpt>
      <trkpt lat="44.91698" lon="6.59624">
        <ele>1666.5</ele>
        <time>2022-08-05T07:33:23+0200</time>
      </trkpt>
      <trkpt lat="44.91702" lon="6.59619">
        <ele>1667.7</ele>
        <time>2022-08-05T07:33:25+0200</time>
      </trkpt>
      <trkpt lat="44.91705" lon="6.59615">
        <ele>1668.7</ele>
        <time>2022-08-05T07:33:27+0200</time>
      </trkpt>
      <trkpt lat="44.91709" lon="6.5961">
        <ele>1669.7</ele>
        <time>2022-08-05T07:33:29+0200</time>
      </trkpt>
      <trkpt lat="44.91712" lon="6.59605">
        <ele>1671.2</ele>
        <time>2022-08-05T07:33:31+0200</time>
      </trkpt>
      <trkpt lat="44.91716" lon="6.59599">
        <ele>1672.4</ele>
        <time>2022-08-05T07:33:33+0200</time>
      </trkpt>
      <trkpt lat="44.9172" lon="6.59592">
        <ele>1674.3</ele>
        <time>2022-08-05T07:33:36+0200</time>
      </trkpt>
      <trkpt lat="44.91723" lon="6.59587">
        <ele>1675.2</ele>
        <time>2022-08-05T07:33:38+0200</time>
      </trkpt>
      <trkpt lat="44.91729" lon="6.59581">
        <ele>1675.4</ele>
        <time>2022-08-05T07:33:41+0200</time>
      </trkpt>
      <trkpt lat="44.91733" lon="6.59575">
        <ele>1676.4</ele>
        <time>2022-08-05T07:33:44+0200</time>
      </trkpt>
      <trkpt lat="44.91739" lon="6.59568">
        <ele>1677.1</ele>
        <time>2022-08-05T07:33:47+0200</time>
      </trkpt>
      <trkpt lat="44.91742" lon="6.59562">
        <ele>1678.4</ele>
        <time>2022-08-05T07:33:49+0200</time>
      </trkpt>
      <trkpt lat="44.91744" lon="6.59555">
        <ele>1680.6</ele>
        <time>2022-08-05T07:33:51+0200</time>
      </trkpt>
      <trkpt lat="44.91747" lon="6.5955">
        <ele>1681.6</ele>
        <time>2022-08-05T07:33:53+0200</time>
      </trkpt>
      <trkpt lat="44.91751" lon="6.59542">
        <ele>1683.6</ele>
        <time>2022-08-05T07:33:56+0200</time>
      </trkpt>
      <trkpt lat="44.91756" lon="6.59537">
        <ele>1684.6</ele>
        <time>2022-08-05T07:33:59+0200</time>
      </trkpt>
      <trkpt lat="44.91759" lon="6.59531">
        <ele>1686.1</ele>
        <time>2022-08-05T07:34:02+0200</time>
      </trkpt>
      <trkpt lat="44.91765" lon="6.59529">
        <ele>1685.7</ele>
        <time>2022-08-05T07:34:05+0200</time>
      </trkpt>
      <trkpt lat="44.9177" lon="6.59528">
        <ele>1684.7</ele>
        <time>2022-08-05T07:34:08+0200</time>
      </trkpt>
      <trkpt lat="44.91775" lon="6.59524">
        <ele>1685.6</ele>
        <time>2022-08-05T07:34:12+0200</time>
      </trkpt>
      <trkpt lat="44.9178" lon="6.59523">
        <ele>1684.9</ele>
        <time>2022-08-05T07:34:14+0200</time>
      </trkpt>
      <trkpt lat="44.91784" lon="6.59519">
        <ele>1686</ele>
        <time>2022-08-05T07:34:16+0200</time>
      </trkpt>
      <trkpt lat="44.91789" lon="6.59517">
        <ele>1686.4</ele>
        <time>2022-08-05T07:34:18+0200</time>
      </trkpt>
      <trkpt lat="44.91795" lon="6.59513">
        <ele>1687</ele>
        <time>2022-08-05T07:34:21+0200</time>
      </trkpt>
      <trkpt lat="44.91799" lon="6.59508">
        <ele>1688</ele>
        <time>2022-08-05T07:34:23+0200</time>
      </trkpt>
      <trkpt lat="44.91805" lon="6.59504">
        <ele>1688.6</ele>
        <time>2022-08-05T07:34:26+0200</time>
      </trkpt>
      <trkpt lat="44.91809" lon="6.595">
        <ele>1689.3</ele>
        <time>2022-08-05T07:34:29+0200</time>
      </trkpt>
      <trkpt lat="44.91814" lon="6.59494">
        <ele>1690</ele>
        <time>2022-08-05T07:34:32+0200</time>
      </trkpt>
      <trkpt lat="44.91818" lon="6.5949">
        <ele>1690.4</ele>
        <time>2022-08-05T07:34:35+0200</time>
      </trkpt>
      <trkpt lat="44.91821" lon="6.59485">
        <ele>1691</ele>
        <time>2022-08-05T07:34:37+0200</time>
      </trkpt>
      <trkpt lat="44.91827" lon="6.5948">
        <ele>1690.9</ele>
        <time>2022-08-05T07:34:40+0200</time>
      </trkpt>
      <trkpt lat="44.91832" lon="6.59475">
        <ele>1690.7</ele>
        <time>2022-08-05T07:34:43+0200</time>
      </trkpt>
      <trkpt lat="44.91837" lon="6.5947">
        <ele>1690.2</ele>
        <time>2022-08-05T07:34:46+0200</time>
      </trkpt>
      <trkpt lat="44.91843" lon="6.59465">
        <ele>1689.4</ele>
        <time>2022-08-05T07:34:49+0200</time>
      </trkpt>
      <trkpt lat="44.91847" lon="6.5946">
        <ele>1689.4</ele>
        <time>2022-08-05T07:34:51+0200</time>
      </trkpt>
      <trkpt lat="44.91851" lon="6.59453">
        <ele>1689.5</ele>
        <time>2022-08-05T07:34:54+0200</time>
      </trkpt>
      <trkpt lat="44.91855" lon="6.59447">
        <ele>1689.4</ele>
        <time>2022-08-05T07:34:57+0200</time>
      </trkpt>
      <trkpt lat="44.9186" lon="6.59444">
        <ele>1688.4</ele>
        <time>2022-08-05T07:35:00+0200</time>
      </trkpt>
      <trkpt lat="44.91864" lon="6.59438">
        <ele>1688.2</ele>
        <time>2022-08-05T07:35:03+0200</time>
      </trkpt>
      <trkpt lat="44.91866" lon="6.59431">
        <ele>1688.9</ele>
        <time>2022-08-05T07:35:06+0200</time>
      </trkpt>
      <trkpt lat="44.91867" lon="6.59424">
        <ele>1689.9</ele>
        <time>2022-08-05T07:35:08+0200</time>
      </trkpt>
      <trkpt lat="44.91869" lon="6.59415">
        <ele>1691</ele>
        <time>2022-08-05T07:35:10+0200</time>
      </trkpt>
      <trkpt lat="44.9187" lon="6.59407">
        <ele>1692.3</ele>
        <time>2022-08-05T07:35:12+0200</time>
      </trkpt>
      <trkpt lat="44.91871" lon="6.594">
        <ele>1693.4</ele>
        <time>2022-08-05T07:35:14+0200</time>
      </trkpt>
      <trkpt lat="44.91873" lon="6.59393">
        <ele>1694.4</ele>
        <time>2022-08-05T07:35:16+0200</time>
      </trkpt>
      <trkpt lat="44.91875" lon="6.59385">
        <ele>1695.5</ele>
        <time>2022-08-05T07:35:18+0200</time>
      </trkpt>
      <trkpt lat="44.91878" lon="6.59379">
        <ele>1696</ele>
        <time>2022-08-05T07:35:22+0200</time>
      </trkpt>
      <trkpt lat="44.91879" lon="6.59369">
        <ele>1697.8</ele>
        <time>2022-08-05T07:35:26+0200</time>
      </trkpt>
      <trkpt lat="44.91881" lon="6.59363">
        <ele>1698.9</ele>
        <time>2022-08-05T07:35:28+0200</time>
      </trkpt>
      <trkpt lat="44.91881" lon="6.59356">
        <ele>1700.5</ele>
        <time>2022-08-05T07:35:30+0200</time>
      </trkpt>
      <trkpt lat="44.91883" lon="6.59349">
        <ele>1701.3</ele>
        <time>2022-08-05T07:35:33+0200</time>
      </trkpt>
      <trkpt lat="44.91884" lon="6.59343">
        <ele>1702.3</ele>
        <time>2022-08-05T07:35:36+0200</time>
      </trkpt>
      <trkpt lat="44.91888" lon="6.59336">
        <ele>1702.8</ele>
        <time>2022-08-05T07:35:39+0200</time>
      </trkpt>
      <trkpt lat="44.9189" lon="6.5933">
        <ele>1703.5</ele>
        <time>2022-08-05T07:35:42+0200</time>
      </trkpt>
      <trkpt lat="44.91894" lon="6.59324">
        <ele>1703.9</ele>
        <time>2022-08-05T07:35:46+0200</time>
      </trkpt>
      <trkpt lat="44.91896" lon="6.59318">
        <ele>1704.9</ele>
        <time>2022-08-05T07:35:48+0200</time>
      </trkpt>
      <trkpt lat="44.91897" lon="6.59311">
        <ele>1706</ele>
        <time>2022-08-05T07:35:50+0200</time>
      </trkpt>
      <trkpt lat="44.91896" lon="6.59304">
        <ele>1707.7</ele>
        <time>2022-08-05T07:35:54+0200</time>
      </trkpt>
      <trkpt lat="44.91891" lon="6.59304">
        <ele>1709</ele>
        <time>2022-08-05T07:35:59+0200</time>
      </trkpt>
      <trkpt lat="44.91887" lon="6.59301">
        <ele>1710.7</ele>
        <time>2022-08-05T07:36:03+0200</time>
      </trkpt>
      <trkpt lat="44.91882" lon="6.59304">
        <ele>1711.6</ele>
        <time>2022-08-05T07:36:07+0200</time>
      </trkpt>
      <trkpt lat="44.91879" lon="6.59311">
        <ele>1711</ele>
        <time>2022-08-05T07:36:10+0200</time>
      </trkpt>
      <trkpt lat="44.91874" lon="6.59313">
        <ele>1712.1</ele>
        <time>2022-08-05T07:36:12+0200</time>
      </trkpt>
      <trkpt lat="44.91869" lon="6.59318">
        <ele>1712.3</ele>
        <time>2022-08-05T07:36:16+0200</time>
      </trkpt>
      <trkpt lat="44.91864" lon="6.59321">
        <ele>1713</ele>
        <time>2022-08-05T07:36:18+0200</time>
      </trkpt>
      <trkpt lat="44.9186" lon="6.59324">
        <ele>1713.9</ele>
        <time>2022-08-05T07:36:21+0200</time>
      </trkpt>
      <trkpt lat="44.91856" lon="6.59328">
        <ele>1714.3</ele>
        <time>2022-08-05T07:36:23+0200</time>
      </trkpt>
      <trkpt lat="44.91851" lon="6.59333">
        <ele>1714.9</ele>
        <time>2022-08-05T07:36:26+0200</time>
      </trkpt>
      <trkpt lat="44.91846" lon="6.59334">
        <ele>1716.1</ele>
        <time>2022-08-05T07:36:29+0200</time>
      </trkpt>
      <trkpt lat="44.91843" lon="6.5934">
        <ele>1716</ele>
        <time>2022-08-05T07:36:31+0200</time>
      </trkpt>
      <trkpt lat="44.91837" lon="6.59343">
        <ele>1717.2</ele>
        <time>2022-08-05T07:36:34+0200</time>
      </trkpt>
      <trkpt lat="44.91833" lon="6.59348">
        <ele>1717.3</ele>
        <time>2022-08-05T07:36:37+0200</time>
      </trkpt>
      <trkpt lat="44.91827" lon="6.59352">
        <ele>1718.7</ele>
        <time>2022-08-05T07:36:40+0200</time>
      </trkpt>
      <trkpt lat="44.91822" lon="6.59354">
        <ele>1720.1</ele>
        <time>2022-08-05T07:36:43+0200</time>
      </trkpt>
      <trkpt lat="44.91819" lon="6.5936">
        <ele>1719.9</ele>
        <time>2022-08-05T07:36:46+0200</time>
      </trkpt>
      <trkpt lat="44.91815" lon="6.5936">
        <ele>1721.6</ele>
        <time>2022-08-05T07:36:49+0200</time>
      </trkpt>
      <trkpt lat="44.9181" lon="6.59362">
        <ele>1722.9</ele>
        <time>2022-08-05T07:36:52+0200</time>
      </trkpt>
      <trkpt lat="44.91806" lon="6.59363">
        <ele>1724.6</ele>
        <time>2022-08-05T07:36:55+0200</time>
      </trkpt>
      <trkpt lat="44.918" lon="6.59363">
        <ele>1726.9</ele>
        <time>2022-08-05T07:36:58+0200</time>
      </trkpt>
      <trkpt lat="44.91793" lon="6.59366">
        <ele>1728.8</ele>
        <time>2022-08-05T07:37:01+0200</time>
      </trkpt>
      <trkpt lat="44.91788" lon="6.59368">
        <ele>1730.2</ele>
        <time>2022-08-05T07:37:04+0200</time>
      </trkpt>
      <trkpt lat="44.91783" lon="6.59371">
        <ele>1731.3</ele>
        <time>2022-08-05T07:37:08+0200</time>
      </trkpt>
      <trkpt lat="44.91779" lon="6.59378">
        <ele>1731.3</ele>
        <time>2022-08-05T07:37:11+0200</time>
      </trkpt>
      <trkpt lat="44.91777" lon="6.59385">
        <ele>1730.2</ele>
        <time>2022-08-05T07:37:14+0200</time>
      </trkpt>
      <trkpt lat="44.91772" lon="6.59386">
        <ele>1732</ele>
        <time>2022-08-05T07:37:16+0200</time>
      </trkpt>
      <trkpt lat="44.91768" lon="6.5939">
        <ele>1732.6</ele>
        <time>2022-08-05T07:37:20+0200</time>
      </trkpt>
      <trkpt lat="44.91763" lon="6.59394">
        <ele>1733.6</ele>
        <time>2022-08-05T07:37:23+0200</time>
      </trkpt>
      <trkpt lat="44.91758" lon="6.59402">
        <ele>1733.2</ele>
        <time>2022-08-05T07:37:26+0200</time>
      </trkpt>
      <trkpt lat="44.91753" lon="6.59405">
        <ele>1734.6</ele>
        <time>2022-08-05T07:37:29+0200</time>
      </trkpt>
      <trkpt lat="44.91749" lon="6.59408">
        <ele>1735</ele>
        <time>2022-08-05T07:37:32+0200</time>
      </trkpt>
      <trkpt lat="44.91747" lon="6.59414">
        <ele>1734.2</ele>
        <time>2022-08-05T07:37:36+0200</time>
      </trkpt>
      <trkpt lat="44.91749" lon="6.59408">
        <ele>1734.9</ele>
        <time>2022-08-05T07:37:47+0200</time>
      </trkpt>
      <trkpt lat="44.91754" lon="6.59402">
        <ele>1734.6</ele>
        <time>2022-08-05T07:37:52+0200</time>
      </trkpt>
      <trkpt lat="44.91759" lon="6.59396">
        <ele>1734.6</ele>
        <time>2022-08-05T07:37:55+0200</time>
      </trkpt>
      <trkpt lat="44.91762" lon="6.5939">
        <ele>1734.8</ele>
        <time>2022-08-05T07:37:58+0200</time>
      </trkpt>
      <trkpt lat="44.91765" lon="6.59382">
        <ele>1735.9</ele>
        <time>2022-08-05T07:38:01+0200</time>
      </trkpt>
      <trkpt lat="44.91768" lon="6.59373">
        <ele>1737</ele>
        <time>2022-08-05T07:38:04+0200</time>
      </trkpt>
      <trkpt lat="44.91771" lon="6.59367">
        <ele>1737.6</ele>
        <time>2022-08-05T07:38:08+0200</time>
      </trkpt>
      <trkpt lat="44.91773" lon="6.5936">
        <ele>1738.6</ele>
        <time>2022-08-05T07:38:11+0200</time>
      </trkpt>
      <trkpt lat="44.91776" lon="6.59353">
        <ele>1739.2</ele>
        <time>2022-08-05T07:38:14+0200</time>
      </trkpt>
      <trkpt lat="44.9178" lon="6.59347">
        <ele>1739.4</ele>
        <time>2022-08-05T07:38:18+0200</time>
      </trkpt>
      <trkpt lat="44.91781" lon="6.59339">
        <ele>1740.8</ele>
        <time>2022-08-05T07:38:21+0200</time>
      </trkpt>
      <trkpt lat="44.91785" lon="6.59331">
        <ele>1741.6</ele>
        <time>2022-08-05T07:38:24+0200</time>
      </trkpt>
      <trkpt lat="44.91788" lon="6.59324">
        <ele>1742.4</ele>
        <time>2022-08-05T07:38:27+0200</time>
      </trkpt>
      <trkpt lat="44.91792" lon="6.59319">
        <ele>1742</ele>
        <time>2022-08-05T07:38:30+0200</time>
      </trkpt>
      <trkpt lat="44.91796" lon="6.59314">
        <ele>1741.7</ele>
        <time>2022-08-05T07:38:33+0200</time>
      </trkpt>
      <trkpt lat="44.918" lon="6.59308">
        <ele>1741.5</ele>
        <time>2022-08-05T07:38:37+0200</time>
      </trkpt>
      <trkpt lat="44.91804" lon="6.59303">
        <ele>1741.1</ele>
        <time>2022-08-05T07:38:40+0200</time>
      </trkpt>
      <trkpt lat="44.91809" lon="6.59297">
        <ele>1740.8</ele>
        <time>2022-08-05T07:38:43+0200</time>
      </trkpt>
      <trkpt lat="44.91811" lon="6.5929">
        <ele>1741.9</ele>
        <time>2022-08-05T07:38:47+0200</time>
      </trkpt>
      <trkpt lat="44.91815" lon="6.59283">
        <ele>1742</ele>
        <time>2022-08-05T07:38:50+0200</time>
      </trkpt>
      <trkpt lat="44.91817" lon="6.59276">
        <ele>1742.8</ele>
        <time>2022-08-05T07:38:52+0200</time>
      </trkpt>
      <trkpt lat="44.9182" lon="6.59267">
        <ele>1743.9</ele>
        <time>2022-08-05T07:38:55+0200</time>
      </trkpt>
      <trkpt lat="44.91823" lon="6.59263">
        <ele>1743.5</ele>
        <time>2022-08-05T07:38:58+0200</time>
      </trkpt>
      <trkpt lat="44.91825" lon="6.59256">
        <ele>1744.3</ele>
        <time>2022-08-05T07:39:03+0200</time>
      </trkpt>
      <trkpt lat="44.91826" lon="6.5925">
        <ele>1745.1</ele>
        <time>2022-08-05T07:39:05+0200</time>
      </trkpt>
      <trkpt lat="44.91829" lon="6.59243">
        <ele>1745.4</ele>
        <time>2022-08-05T07:39:09+0200</time>
      </trkpt>
      <trkpt lat="44.9183" lon="6.59235">
        <ele>1746.5</ele>
        <time>2022-08-05T07:39:12+0200</time>
      </trkpt>
      <trkpt lat="44.91833" lon="6.59227">
        <ele>1747.2</ele>
        <time>2022-08-05T07:39:15+0200</time>
      </trkpt>
      <trkpt lat="44.91836" lon="6.5922">
        <ele>1747.5</ele>
        <time>2022-08-05T07:39:19+0200</time>
      </trkpt>
      <trkpt lat="44.91837" lon="6.59213">
        <ele>1748.4</ele>
        <time>2022-08-05T07:39:21+0200</time>
      </trkpt>
      <trkpt lat="44.9184" lon="6.59207">
        <ele>1748.7</ele>
        <time>2022-08-05T07:39:24+0200</time>
      </trkpt>
      <trkpt lat="44.91843" lon="6.59201">
        <ele>1748.9</ele>
        <time>2022-08-05T07:39:27+0200</time>
      </trkpt>
      <trkpt lat="44.91845" lon="6.59194">
        <ele>1749.4</ele>
        <time>2022-08-05T07:39:30+0200</time>
      </trkpt>
      <trkpt lat="44.91847" lon="6.59188">
        <ele>1750.1</ele>
        <time>2022-08-05T07:39:33+0200</time>
      </trkpt>
      <trkpt lat="44.91849" lon="6.5918">
        <ele>1751.1</ele>
        <time>2022-08-05T07:39:36+0200</time>
      </trkpt>
      <trkpt lat="44.91852" lon="6.59172">
        <ele>1752.2</ele>
        <time>2022-08-05T07:39:38+0200</time>
      </trkpt>
      <trkpt lat="44.91855" lon="6.59167">
        <ele>1752.2</ele>
        <time>2022-08-05T07:39:40+0200</time>
      </trkpt>
      <trkpt lat="44.91857" lon="6.59161">
        <ele>1752.5</ele>
        <time>2022-08-05T07:39:42+0200</time>
      </trkpt>
      <trkpt lat="44.91862" lon="6.59157">
        <ele>1751.9</ele>
        <time>2022-08-05T07:39:46+0200</time>
      </trkpt>
      <trkpt lat="44.91865" lon="6.59151">
        <ele>1752</ele>
        <time>2022-08-05T07:39:49+0200</time>
      </trkpt>
      <trkpt lat="44.91868" lon="6.59144">
        <ele>1752.8</ele>
        <time>2022-08-05T07:39:52+0200</time>
      </trkpt>
      <trkpt lat="44.91864" lon="6.59141">
        <ele>1754.8</ele>
        <time>2022-08-05T07:39:55+0200</time>
      </trkpt>
      <trkpt lat="44.91859" lon="6.59139">
        <ele>1756.6</ele>
        <time>2022-08-05T07:40:00+0200</time>
      </trkpt>
      <trkpt lat="44.91853" lon="6.59138">
        <ele>1758.7</ele>
        <time>2022-08-05T07:40:03+0200</time>
      </trkpt>
      <trkpt lat="44.91847" lon="6.59139">
        <ele>1760.5</ele>
        <time>2022-08-05T07:40:07+0200</time>
      </trkpt>
      <trkpt lat="44.91843" lon="6.59146">
        <ele>1760.5</ele>
        <time>2022-08-05T07:40:10+0200</time>
      </trkpt>
      <trkpt lat="44.91837" lon="6.5915">
        <ele>1761.6</ele>
        <time>2022-08-05T07:40:13+0200</time>
      </trkpt>
      <trkpt lat="44.91833" lon="6.59154">
        <ele>1762.4</ele>
        <time>2022-08-05T07:40:16+0200</time>
      </trkpt>
      <trkpt lat="44.9183" lon="6.5916">
        <ele>1762.3</ele>
        <time>2022-08-05T07:40:19+0200</time>
      </trkpt>
      <trkpt lat="44.91826" lon="6.59165">
        <ele>1763</ele>
        <time>2022-08-05T07:40:22+0200</time>
      </trkpt>
      <trkpt lat="44.91822" lon="6.59172">
        <ele>1762.9</ele>
        <time>2022-08-05T07:40:25+0200</time>
      </trkpt>
      <trkpt lat="44.91819" lon="6.59177">
        <ele>1763</ele>
        <time>2022-08-05T07:40:28+0200</time>
      </trkpt>
      <trkpt lat="44.91816" lon="6.59184">
        <ele>1762.6</ele>
        <time>2022-08-05T07:40:31+0200</time>
      </trkpt>
      <trkpt lat="44.91811" lon="6.59185">
        <ele>1764.3</ele>
        <time>2022-08-05T07:40:33+0200</time>
      </trkpt>
      <trkpt lat="44.91806" lon="6.5919">
        <ele>1764.9</ele>
        <time>2022-08-05T07:40:36+0200</time>
      </trkpt>
      <trkpt lat="44.91803" lon="6.59195">
        <ele>1764.9</ele>
        <time>2022-08-05T07:40:39+0200</time>
      </trkpt>
      <trkpt lat="44.91797" lon="6.592">
        <ele>1766.1</ele>
        <time>2022-08-05T07:40:42+0200</time>
      </trkpt>
      <trkpt lat="44.91794" lon="6.59205">
        <ele>1766.3</ele>
        <time>2022-08-05T07:40:44+0200</time>
      </trkpt>
      <trkpt lat="44.9179" lon="6.59209">
        <ele>1767.1</ele>
        <time>2022-08-05T07:40:46+0200</time>
      </trkpt>
      <trkpt lat="44.91784" lon="6.5921">
        <ele>1768.9</ele>
        <time>2022-08-05T07:40:49+0200</time>
      </trkpt>
      <trkpt lat="44.91779" lon="6.59213">
        <ele>1770.3</ele>
        <time>2022-08-05T07:40:52+0200</time>
      </trkpt>
      <trkpt lat="44.91775" lon="6.59218">
        <ele>1770.5</ele>
        <time>2022-08-05T07:40:54+0200</time>
      </trkpt>
      <trkpt lat="44.9177" lon="6.59224">
        <ele>1771</ele>
        <time>2022-08-05T07:40:57+0200</time>
      </trkpt>
      <trkpt lat="44.91764" lon="6.59226">
        <ele>1772.4</ele>
        <time>2022-08-05T07:41:00+0200</time>
      </trkpt>
      <trkpt lat="44.91761" lon="6.59231">
        <ele>1772.5</ele>
        <time>2022-08-05T07:41:03+0200</time>
      </trkpt>
      <trkpt lat="44.91754" lon="6.59236">
        <ele>1773.7</ele>
        <time>2022-08-05T07:41:06+0200</time>
      </trkpt>
      <trkpt lat="44.91749" lon="6.59241">
        <ele>1774.5</ele>
        <time>2022-08-05T07:41:09+0200</time>
      </trkpt>
      <trkpt lat="44.91745" lon="6.59246">
        <ele>1775.1</ele>
        <time>2022-08-05T07:41:11+0200</time>
      </trkpt>
      <trkpt lat="44.9174" lon="6.5925">
        <ele>1776</ele>
        <time>2022-08-05T07:41:13+0200</time>
      </trkpt>
      <trkpt lat="44.91737" lon="6.59255">
        <ele>1775.9</ele>
        <time>2022-08-05T07:41:15+0200</time>
      </trkpt>
      <trkpt lat="44.91731" lon="6.59259">
        <ele>1776.9</ele>
        <time>2022-08-05T07:41:18+0200</time>
      </trkpt>
      <trkpt lat="44.91727" lon="6.59263">
        <ele>1777.2</ele>
        <time>2022-08-05T07:41:20+0200</time>
      </trkpt>
      <trkpt lat="44.91722" lon="6.59266">
        <ele>1778.4</ele>
        <time>2022-08-05T07:41:24+0200</time>
      </trkpt>
      <trkpt lat="44.91719" lon="6.5926">
        <ele>1780.3</ele>
        <time>2022-08-05T07:41:31+0200</time>
      </trkpt>
      <trkpt lat="44.91722" lon="6.59254">
        <ele>1780.2</ele>
        <time>2022-08-05T07:41:35+0200</time>
      </trkpt>
      <trkpt lat="44.91727" lon="6.59252">
        <ele>1779.3</ele>
        <time>2022-08-05T07:41:39+0200</time>
      </trkpt>
      <trkpt lat="44.91731" lon="6.59245">
        <ele>1779.3</ele>
        <time>2022-08-05T07:41:42+0200</time>
      </trkpt>
      <trkpt lat="44.91735" lon="6.59241">
        <ele>1778.7</ele>
        <time>2022-08-05T07:41:44+0200</time>
      </trkpt>
      <trkpt lat="44.91738" lon="6.59237">
        <ele>1778.3</ele>
        <time>2022-08-05T07:41:46+0200</time>
      </trkpt>
      <trkpt lat="44.91742" lon="6.59229">
        <ele>1778.2</ele>
        <time>2022-08-05T07:41:49+0200</time>
      </trkpt>
      <trkpt lat="44.91745" lon="6.59224">
        <ele>1778.2</ele>
        <time>2022-08-05T07:41:51+0200</time>
      </trkpt>
      <trkpt lat="44.91748" lon="6.59216">
        <ele>1778.7</ele>
        <time>2022-08-05T07:41:54+0200</time>
      </trkpt>
      <trkpt lat="44.9175" lon="6.59208">
        <ele>1779.7</ele>
        <time>2022-08-05T07:41:58+0200</time>
      </trkpt>
      <trkpt lat="44.91751" lon="6.592">
        <ele>1780.7</ele>
        <time>2022-08-05T07:42:00+0200</time>
      </trkpt>
      <trkpt lat="44.91754" lon="6.59195">
        <ele>1780.7</ele>
        <time>2022-08-05T07:42:02+0200</time>
      </trkpt>
      <trkpt lat="44.9176" lon="6.59195">
        <ele>1779.2</ele>
        <time>2022-08-05T07:42:06+0200</time>
      </trkpt>
      <trkpt lat="44.91764" lon="6.59193">
        <ele>1778.1</ele>
        <time>2022-08-05T07:42:09+0200</time>
      </trkpt>
      <trkpt lat="44.91769" lon="6.59189">
        <ele>1777.8</ele>
        <time>2022-08-05T07:42:11+0200</time>
      </trkpt>
      <trkpt lat="44.91773" lon="6.59181">
        <ele>1778.4</ele>
        <time>2022-08-05T07:42:14+0200</time>
      </trkpt>
      <trkpt lat="44.91776" lon="6.59175">
        <ele>1778.7</ele>
        <time>2022-08-05T07:42:16+0200</time>
      </trkpt>
      <trkpt lat="44.91779" lon="6.59169">
        <ele>1779.2</ele>
        <time>2022-08-05T07:42:18+0200</time>
      </trkpt>
      <trkpt lat="44.91783" lon="6.59163">
        <ele>1778.8</ele>
        <time>2022-08-05T07:42:21+0200</time>
      </trkpt>
      <trkpt lat="44.91785" lon="6.59156">
        <ele>1779.5</ele>
        <time>2022-08-05T07:42:23+0200</time>
      </trkpt>
      <trkpt lat="44.91787" lon="6.59148">
        <ele>1780</ele>
        <time>2022-08-05T07:42:26+0200</time>
      </trkpt>
      <trkpt lat="44.91788" lon="6.5914">
        <ele>1781.3</ele>
        <time>2022-08-05T07:42:28+0200</time>
      </trkpt>
      <trkpt lat="44.91787" lon="6.59133">
        <ele>1782.7</ele>
        <time>2022-08-05T07:42:31+0200</time>
      </trkpt>
      <trkpt lat="44.91788" lon="6.59125">
        <ele>1783.8</ele>
        <time>2022-08-05T07:42:33+0200</time>
      </trkpt>
      <trkpt lat="44.91788" lon="6.59115">
        <ele>1785.9</ele>
        <time>2022-08-05T07:42:36+0200</time>
      </trkpt>
      <trkpt lat="44.9179" lon="6.59109">
        <ele>1786</ele>
        <time>2022-08-05T07:42:38+0200</time>
      </trkpt>
      <trkpt lat="44.91792" lon="6.591">
        <ele>1787</ele>
        <time>2022-08-05T07:42:41+0200</time>
      </trkpt>
      <trkpt lat="44.91794" lon="6.59091">
        <ele>1788</ele>
        <time>2022-08-05T07:42:44+0200</time>
      </trkpt>
      <trkpt lat="44.91795" lon="6.59083">
        <ele>1788.9</ele>
        <time>2022-08-05T07:42:46+0200</time>
      </trkpt>
      <trkpt lat="44.91797" lon="6.59075">
        <ele>1789.3</ele>
        <time>2022-08-05T07:42:48+0200</time>
      </trkpt>
      <trkpt lat="44.91799" lon="6.59065">
        <ele>1790.1</ele>
        <time>2022-08-05T07:42:50+0200</time>
      </trkpt>
      <trkpt lat="44.918" lon="6.59057">
        <ele>1790.7</ele>
        <time>2022-08-05T07:42:52+0200</time>
      </trkpt>
      <trkpt lat="44.91803" lon="6.59049">
        <ele>1790.9</ele>
        <time>2022-08-05T07:42:54+0200</time>
      </trkpt>
      <trkpt lat="44.91808" lon="6.59042">
        <ele>1790</ele>
        <time>2022-08-05T07:42:56+0200</time>
      </trkpt>
      <trkpt lat="44.91812" lon="6.59034">
        <ele>1789.5</ele>
        <time>2022-08-05T07:42:58+0200</time>
      </trkpt>
      <trkpt lat="44.91816" lon="6.59027">
        <ele>1789.1</ele>
        <time>2022-08-05T07:43:00+0200</time>
      </trkpt>
      <trkpt lat="44.91819" lon="6.5902">
        <ele>1789.1</ele>
        <time>2022-08-05T07:43:02+0200</time>
      </trkpt>
      <trkpt lat="44.91822" lon="6.59009">
        <ele>1789.4</ele>
        <time>2022-08-05T07:43:05+0200</time>
      </trkpt>
      <trkpt lat="44.91825" lon="6.59001">
        <ele>1789.7</ele>
        <time>2022-08-05T07:43:07+0200</time>
      </trkpt>
      <trkpt lat="44.91826" lon="6.58994">
        <ele>1790</ele>
        <time>2022-08-05T07:43:08+0200</time>
      </trkpt>
      <trkpt lat="44.91829" lon="6.58986">
        <ele>1789.9</ele>
        <time>2022-08-05T07:43:10+0200</time>
      </trkpt>
      <trkpt lat="44.91832" lon="6.58977">
        <ele>1789.7</ele>
        <time>2022-08-05T07:43:12+0200</time>
      </trkpt>
      <trkpt lat="44.91835" lon="6.58971">
        <ele>1789.6</ele>
        <time>2022-08-05T07:43:14+0200</time>
      </trkpt>
      <trkpt lat="44.91837" lon="6.58964">
        <ele>1789.5</ele>
        <time>2022-08-05T07:43:16+0200</time>
      </trkpt>
      <trkpt lat="44.91841" lon="6.58957">
        <ele>1789.2</ele>
        <time>2022-08-05T07:43:18+0200</time>
      </trkpt>
      <trkpt lat="44.9184" lon="6.58949">
        <ele>1790.5</ele>
        <time>2022-08-05T07:43:21+0200</time>
      </trkpt>
      <trkpt lat="44.91843" lon="6.58942">
        <ele>1790.1</ele>
        <time>2022-08-05T07:43:23+0200</time>
      </trkpt>
      <trkpt lat="44.91844" lon="6.58935">
        <ele>1790.6</ele>
        <time>2022-08-05T07:43:25+0200</time>
      </trkpt>
      <trkpt lat="44.91848" lon="6.58926">
        <ele>1790.4</ele>
        <time>2022-08-05T07:43:27+0200</time>
      </trkpt>
      <trkpt lat="44.91851" lon="6.58919">
        <ele>1790</ele>
        <time>2022-08-05T07:43:29+0200</time>
      </trkpt>
      <trkpt lat="44.91854" lon="6.58909">
        <ele>1790</ele>
        <time>2022-08-05T07:43:32+0200</time>
      </trkpt>
      <trkpt lat="44.91858" lon="6.58904">
        <ele>1789.5</ele>
        <time>2022-08-05T07:43:34+0200</time>
      </trkpt>
      <trkpt lat="44.91859" lon="6.58895">
        <ele>1790</ele>
        <time>2022-08-05T07:43:36+0200</time>
      </trkpt>
      <trkpt lat="44.9186" lon="6.58886">
        <ele>1791</ele>
        <time>2022-08-05T07:43:38+0200</time>
      </trkpt>
      <trkpt lat="44.9186" lon="6.58877">
        <ele>1791.7</ele>
        <time>2022-08-05T07:43:41+0200</time>
      </trkpt>
      <trkpt lat="44.91862" lon="6.58869">
        <ele>1791.9</ele>
        <time>2022-08-05T07:43:43+0200</time>
      </trkpt>
      <trkpt lat="44.91864" lon="6.58863">
        <ele>1791.9</ele>
        <time>2022-08-05T07:43:45+0200</time>
      </trkpt>
      <trkpt lat="44.91865" lon="6.58853">
        <ele>1793.1</ele>
        <time>2022-08-05T07:43:47+0200</time>
      </trkpt>
      <trkpt lat="44.91868" lon="6.58844">
        <ele>1793.4</ele>
        <time>2022-08-05T07:43:49+0200</time>
      </trkpt>
      <trkpt lat="44.91869" lon="6.58837">
        <ele>1794</ele>
        <time>2022-08-05T07:43:51+0200</time>
      </trkpt>
      <trkpt lat="44.91871" lon="6.5883">
        <ele>1794.2</ele>
        <time>2022-08-05T07:43:54+0200</time>
      </trkpt>
      <trkpt lat="44.91873" lon="6.58823">
        <ele>1794.2</ele>
        <time>2022-08-05T07:43:56+0200</time>
      </trkpt>
      <trkpt lat="44.91874" lon="6.58813">
        <ele>1794.7</ele>
        <time>2022-08-05T07:43:58+0200</time>
      </trkpt>
      <trkpt lat="44.91876" lon="6.58806">
        <ele>1794.5</ele>
        <time>2022-08-05T07:44:00+0200</time>
      </trkpt>
      <trkpt lat="44.91877" lon="6.58799">
        <ele>1794.9</ele>
        <time>2022-08-05T07:44:02+0200</time>
      </trkpt>
      <trkpt lat="44.9188" lon="6.58792">
        <ele>1794.4</ele>
        <time>2022-08-05T07:44:05+0200</time>
      </trkpt>
      <trkpt lat="44.91881" lon="6.58785">
        <ele>1794.6</ele>
        <time>2022-08-05T07:44:07+0200</time>
      </trkpt>
      <trkpt lat="44.91882" lon="6.58778">
        <ele>1794.6</ele>
        <time>2022-08-05T07:44:09+0200</time>
      </trkpt>
      <trkpt lat="44.91886" lon="6.5877">
        <ele>1794.1</ele>
        <time>2022-08-05T07:44:11+0200</time>
      </trkpt>
      <trkpt lat="44.91888" lon="6.58761">
        <ele>1794</ele>
        <time>2022-08-05T07:44:13+0200</time>
      </trkpt>
      <trkpt lat="44.91889" lon="6.58752">
        <ele>1794.9</ele>
        <time>2022-08-05T07:44:15+0200</time>
      </trkpt>
      <trkpt lat="44.91888" lon="6.58746">
        <ele>1796</ele>
        <time>2022-08-05T07:44:17+0200</time>
      </trkpt>
      <trkpt lat="44.91888" lon="6.58738">
        <ele>1796.6</ele>
        <time>2022-08-05T07:44:19+0200</time>
      </trkpt>
      <trkpt lat="44.91888" lon="6.5873">
        <ele>1797.7</ele>
        <time>2022-08-05T07:44:21+0200</time>
      </trkpt>
      <trkpt lat="44.91886" lon="6.58722">
        <ele>1799.2</ele>
        <time>2022-08-05T07:44:23+0200</time>
      </trkpt>
      <trkpt lat="44.91885" lon="6.58714">
        <ele>1800.1</ele>
        <time>2022-08-05T07:44:25+0200</time>
      </trkpt>
      <trkpt lat="44.91885" lon="6.58705">
        <ele>1800.7</ele>
        <time>2022-08-05T07:44:27+0200</time>
      </trkpt>
      <trkpt lat="44.91886" lon="6.58698">
        <ele>1801.2</ele>
        <time>2022-08-05T07:44:29+0200</time>
      </trkpt>
      <trkpt lat="44.91886" lon="6.5869">
        <ele>1801.8</ele>
        <time>2022-08-05T07:44:31+0200</time>
      </trkpt>
      <trkpt lat="44.91886" lon="6.58683">
        <ele>1802.1</ele>
        <time>2022-08-05T07:44:33+0200</time>
      </trkpt>
      <trkpt lat="44.91886" lon="6.58674">
        <ele>1802.7</ele>
        <time>2022-08-05T07:44:35+0200</time>
      </trkpt>
      <trkpt lat="44.91887" lon="6.58667">
        <ele>1802.8</ele>
        <time>2022-08-05T07:44:37+0200</time>
      </trkpt>
      <trkpt lat="44.91888" lon="6.58659">
        <ele>1803.1</ele>
        <time>2022-08-05T07:44:40+0200</time>
      </trkpt>
      <trkpt lat="44.91889" lon="6.58652">
        <ele>1803.5</ele>
        <time>2022-08-05T07:44:42+0200</time>
      </trkpt>
      <trkpt lat="44.91891" lon="6.58645">
        <ele>1803.9</ele>
        <time>2022-08-05T07:44:45+0200</time>
      </trkpt>
      <trkpt lat="44.91892" lon="6.58638">
        <ele>1804.3</ele>
        <time>2022-08-05T07:44:48+0200</time>
      </trkpt>
      <trkpt lat="44.91893" lon="6.5863">
        <ele>1804.8</ele>
        <time>2022-08-05T07:44:50+0200</time>
      </trkpt>
      <trkpt lat="44.91893" lon="6.58622">
        <ele>1805.8</ele>
        <time>2022-08-05T07:44:53+0200</time>
      </trkpt>
      <trkpt lat="44.91893" lon="6.58615">
        <ele>1806.4</ele>
        <time>2022-08-05T07:44:56+0200</time>
      </trkpt>
      <trkpt lat="44.91894" lon="6.58607">
        <ele>1806.9</ele>
        <time>2022-08-05T07:44:58+0200</time>
      </trkpt>
      <trkpt lat="44.91897" lon="6.58601">
        <ele>1806.9</ele>
        <time>2022-08-05T07:45:00+0200</time>
      </trkpt>
      <trkpt lat="44.91898" lon="6.58591">
        <ele>1807.5</ele>
        <time>2022-08-05T07:45:03+0200</time>
      </trkpt>
      <trkpt lat="44.919" lon="6.58583">
        <ele>1808</ele>
        <time>2022-08-05T07:45:07+0200</time>
      </trkpt>
      <trkpt lat="44.91901" lon="6.58575">
        <ele>1808.4</ele>
        <time>2022-08-05T07:45:10+0200</time>
      </trkpt>
      <trkpt lat="44.91903" lon="6.58568">
        <ele>1808.6</ele>
        <time>2022-08-05T07:45:12+0200</time>
      </trkpt>
      <trkpt lat="44.91905" lon="6.5856">
        <ele>1808.9</ele>
        <time>2022-08-05T07:45:15+0200</time>
      </trkpt>
      <trkpt lat="44.91906" lon="6.58552">
        <ele>1809.5</ele>
        <time>2022-08-05T07:45:18+0200</time>
      </trkpt>
      <trkpt lat="44.91908" lon="6.58545">
        <ele>1809.9</ele>
        <time>2022-08-05T07:45:21+0200</time>
      </trkpt>
      <trkpt lat="44.91905" lon="6.58538">
        <ele>1811.5</ele>
        <time>2022-08-05T07:45:23+0200</time>
      </trkpt>
      <trkpt lat="44.91906" lon="6.58527">
        <ele>1812.6</ele>
        <time>2022-08-05T07:45:26+0200</time>
      </trkpt>
      <trkpt lat="44.91907" lon="6.58519">
        <ele>1813</ele>
        <time>2022-08-05T07:45:28+0200</time>
      </trkpt>
      <trkpt lat="44.9191" lon="6.58511">
        <ele>1813</ele>
        <time>2022-08-05T07:45:30+0200</time>
      </trkpt>
      <trkpt lat="44.91909" lon="6.58502">
        <ele>1814.3</ele>
        <time>2022-08-05T07:45:32+0200</time>
      </trkpt>
      <trkpt lat="44.9191" lon="6.58494">
        <ele>1814.9</ele>
        <time>2022-08-05T07:45:34+0200</time>
      </trkpt>
      <trkpt lat="44.91912" lon="6.58486">
        <ele>1815.5</ele>
        <time>2022-08-05T07:45:36+0200</time>
      </trkpt>
      <trkpt lat="44.91914" lon="6.5848">
        <ele>1815.7</ele>
        <time>2022-08-05T07:45:38+0200</time>
      </trkpt>
      <trkpt lat="44.91916" lon="6.58471">
        <ele>1816.4</ele>
        <time>2022-08-05T07:45:41+0200</time>
      </trkpt>
      <trkpt lat="44.91918" lon="6.58465">
        <ele>1816.9</ele>
        <time>2022-08-05T07:45:43+0200</time>
      </trkpt>
      <trkpt lat="44.91921" lon="6.58458">
        <ele>1817.6</ele>
        <time>2022-08-05T07:45:46+0200</time>
      </trkpt>
      <trkpt lat="44.91924" lon="6.58452">
        <ele>1818</ele>
        <time>2022-08-05T07:45:49+0200</time>
      </trkpt>
      <trkpt lat="44.91926" lon="6.58444">
        <ele>1818.7</ele>
        <time>2022-08-05T07:45:52+0200</time>
      </trkpt>
      <trkpt lat="44.9193" lon="6.58436">
        <ele>1818.8</ele>
        <time>2022-08-05T07:45:55+0200</time>
      </trkpt>
      <trkpt lat="44.91933" lon="6.58429">
        <ele>1819</ele>
        <time>2022-08-05T07:45:57+0200</time>
      </trkpt>
      <trkpt lat="44.91936" lon="6.58423">
        <ele>1819.4</ele>
        <time>2022-08-05T07:45:59+0200</time>
      </trkpt>
      <trkpt lat="44.91937" lon="6.58416">
        <ele>1819.9</ele>
        <time>2022-08-05T07:46:01+0200</time>
      </trkpt>
      <trkpt lat="44.91939" lon="6.5841">
        <ele>1819.9</ele>
        <time>2022-08-05T07:46:03+0200</time>
      </trkpt>
      <trkpt lat="44.91942" lon="6.58403">
        <ele>1819.7</ele>
        <time>2022-08-05T07:46:06+0200</time>
      </trkpt>
      <trkpt lat="44.91945" lon="6.58397">
        <ele>1819.4</ele>
        <time>2022-08-05T07:46:08+0200</time>
      </trkpt>
      <trkpt lat="44.91947" lon="6.5839">
        <ele>1818.8</ele>
        <time>2022-08-05T07:46:11+0200</time>
      </trkpt>
      <trkpt lat="44.91949" lon="6.58384">
        <ele>1818.6</ele>
        <time>2022-08-05T07:46:13+0200</time>
      </trkpt>
      <trkpt lat="44.91952" lon="6.58378">
        <ele>1817.9</ele>
        <time>2022-08-05T07:46:15+0200</time>
      </trkpt>
      <trkpt lat="44.91954" lon="6.58372">
        <ele>1817.6</ele>
        <time>2022-08-05T07:46:17+0200</time>
      </trkpt>
      <trkpt lat="44.91956" lon="6.58364">
        <ele>1817.1</ele>
        <time>2022-08-05T07:46:20+0200</time>
      </trkpt>
      <trkpt lat="44.91957" lon="6.58358">
        <ele>1817.4</ele>
        <time>2022-08-05T07:46:22+0200</time>
      </trkpt>
      <trkpt lat="44.91959" lon="6.58351">
        <ele>1817</ele>
        <time>2022-08-05T07:46:25+0200</time>
      </trkpt>
      <trkpt lat="44.91962" lon="6.58344">
        <ele>1816.5</ele>
        <time>2022-08-05T07:46:28+0200</time>
      </trkpt>
      <trkpt lat="44.91963" lon="6.58336">
        <ele>1816.7</ele>
        <time>2022-08-05T07:46:31+0200</time>
      </trkpt>
      <trkpt lat="44.91962" lon="6.58329">
        <ele>1817.5</ele>
        <time>2022-08-05T07:46:33+0200</time>
      </trkpt>
      <trkpt lat="44.91963" lon="6.58321">
        <ele>1817.7</ele>
        <time>2022-08-05T07:46:35+0200</time>
      </trkpt>
      <trkpt lat="44.91962" lon="6.58313">
        <ele>1818.3</ele>
        <time>2022-08-05T07:46:37+0200</time>
      </trkpt>
      <trkpt lat="44.91964" lon="6.58305">
        <ele>1818.1</ele>
        <time>2022-08-05T07:46:40+0200</time>
      </trkpt>
      <trkpt lat="44.91963" lon="6.58295">
        <ele>1818.8</ele>
        <time>2022-08-05T07:46:43+0200</time>
      </trkpt>
      <trkpt lat="44.91962" lon="6.58286">
        <ele>1820</ele>
        <time>2022-08-05T07:46:46+0200</time>
      </trkpt>
      <trkpt lat="44.91959" lon="6.58279">
        <ele>1821.8</ele>
        <time>2022-08-05T07:46:48+0200</time>
      </trkpt>
      <trkpt lat="44.91955" lon="6.58275">
        <ele>1823.3</ele>
        <time>2022-08-05T07:46:50+0200</time>
      </trkpt>
      <trkpt lat="44.91953" lon="6.58269">
        <ele>1824.5</ele>
        <time>2022-08-05T07:46:53+0200</time>
      </trkpt>
      <trkpt lat="44.91949" lon="6.58265">
        <ele>1826.2</ele>
        <time>2022-08-05T07:46:56+0200</time>
      </trkpt>
      <trkpt lat="44.91945" lon="6.58258">
        <ele>1827.8</ele>
        <time>2022-08-05T07:46:59+0200</time>
      </trkpt>
      <trkpt lat="44.91944" lon="6.58252">
        <ele>1828.3</ele>
        <time>2022-08-05T07:47:02+0200</time>
      </trkpt>
      <trkpt lat="44.91944" lon="6.58244">
        <ele>1828.4</ele>
        <time>2022-08-05T07:47:05+0200</time>
      </trkpt>
      <trkpt lat="44.91943" lon="6.58235">
        <ele>1828.6</ele>
        <time>2022-08-05T07:47:08+0200</time>
      </trkpt>
      <trkpt lat="44.91942" lon="6.58229">
        <ele>1828.8</ele>
        <time>2022-08-05T07:47:11+0200</time>
      </trkpt>
      <trkpt lat="44.91942" lon="6.58222">
        <ele>1829.1</ele>
        <time>2022-08-05T07:47:13+0200</time>
      </trkpt>
      <trkpt lat="44.91942" lon="6.58214">
        <ele>1829.2</ele>
        <time>2022-08-05T07:47:16+0200</time>
      </trkpt>
      <trkpt lat="44.9194" lon="6.58206">
        <ele>1830.3</ele>
        <time>2022-08-05T07:47:19+0200</time>
      </trkpt>
      <trkpt lat="44.9194" lon="6.58199">
        <ele>1830.7</ele>
        <time>2022-08-05T07:47:21+0200</time>
      </trkpt>
      <trkpt lat="44.91938" lon="6.58193">
        <ele>1831.5</ele>
        <time>2022-08-05T07:47:23+0200</time>
      </trkpt>
      <trkpt lat="44.91938" lon="6.58186">
        <ele>1832.4</ele>
        <time>2022-08-05T07:47:26+0200</time>
      </trkpt>
      <trkpt lat="44.91938" lon="6.58179">
        <ele>1833.1</ele>
        <time>2022-08-05T07:47:28+0200</time>
      </trkpt>
      <trkpt lat="44.91938" lon="6.58169">
        <ele>1833.9</ele>
        <time>2022-08-05T07:47:32+0200</time>
      </trkpt>
      <trkpt lat="44.91939" lon="6.58162">
        <ele>1834.4</ele>
        <time>2022-08-05T07:47:35+0200</time>
      </trkpt>
      <trkpt lat="44.91941" lon="6.58155">
        <ele>1834.5</ele>
        <time>2022-08-05T07:47:38+0200</time>
      </trkpt>
      <trkpt lat="44.91944" lon="6.58149">
        <ele>1834.1</ele>
        <time>2022-08-05T07:47:40+0200</time>
      </trkpt>
      <trkpt lat="44.91947" lon="6.58142">
        <ele>1833.9</ele>
        <time>2022-08-05T07:47:43+0200</time>
      </trkpt>
      <trkpt lat="44.91949" lon="6.58136">
        <ele>1834.4</ele>
        <time>2022-08-05T07:47:45+0200</time>
      </trkpt>
      <trkpt lat="44.91951" lon="6.5813">
        <ele>1835.1</ele>
        <time>2022-08-05T07:47:48+0200</time>
      </trkpt>
      <trkpt lat="44.91955" lon="6.58122">
        <ele>1835.6</ele>
        <time>2022-08-05T07:47:52+0200</time>
      </trkpt>
      <trkpt lat="44.91958" lon="6.58116">
        <ele>1836.2</ele>
        <time>2022-08-05T07:47:54+0200</time>
      </trkpt>
      <trkpt lat="44.91961" lon="6.5811">
        <ele>1836.6</ele>
        <time>2022-08-05T07:47:56+0200</time>
      </trkpt>
      <trkpt lat="44.91963" lon="6.58103">
        <ele>1837.1</ele>
        <time>2022-08-05T07:47:58+0200</time>
      </trkpt>
      <trkpt lat="44.91966" lon="6.58094">
        <ele>1837.8</ele>
        <time>2022-08-05T07:48:02+0200</time>
      </trkpt>
      <trkpt lat="44.91966" lon="6.58087">
        <ele>1839.1</ele>
        <time>2022-08-05T07:48:04+0200</time>
      </trkpt>
      <trkpt lat="44.91966" lon="6.5808">
        <ele>1839.9</ele>
        <time>2022-08-05T07:48:07+0200</time>
      </trkpt>
      <trkpt lat="44.91968" lon="6.58071">
        <ele>1840.5</ele>
        <time>2022-08-05T07:48:10+0200</time>
      </trkpt>
      <trkpt lat="44.91967" lon="6.58063">
        <ele>1841.5</ele>
        <time>2022-08-05T07:48:12+0200</time>
      </trkpt>
      <trkpt lat="44.91968" lon="6.58054">
        <ele>1842.2</ele>
        <time>2022-08-05T07:48:14+0200</time>
      </trkpt>
      <trkpt lat="44.91969" lon="6.58046">
        <ele>1843</ele>
        <time>2022-08-05T07:48:16+0200</time>
      </trkpt>
      <trkpt lat="44.91969" lon="6.58038">
        <ele>1843.7</ele>
        <time>2022-08-05T07:48:18+0200</time>
      </trkpt>
      <trkpt lat="44.91969" lon="6.5803">
        <ele>1844.5</ele>
        <time>2022-08-05T07:48:20+0200</time>
      </trkpt>
      <trkpt lat="44.91969" lon="6.58022">
        <ele>1845</ele>
        <time>2022-08-05T07:48:22+0200</time>
      </trkpt>
      <trkpt lat="44.91967" lon="6.58013">
        <ele>1845.6</ele>
        <time>2022-08-05T07:48:25+0200</time>
      </trkpt>
      <trkpt lat="44.91965" lon="6.58006">
        <ele>1846.3</ele>
        <time>2022-08-05T07:48:28+0200</time>
      </trkpt>
      <trkpt lat="44.91964" lon="6.57995">
        <ele>1847.1</ele>
        <time>2022-08-05T07:48:31+0200</time>
      </trkpt>
      <trkpt lat="44.91963" lon="6.57986">
        <ele>1847.8</ele>
        <time>2022-08-05T07:48:33+0200</time>
      </trkpt>
      <trkpt lat="44.91961" lon="6.57977">
        <ele>1848.7</ele>
        <time>2022-08-05T07:48:35+0200</time>
      </trkpt>
      <trkpt lat="44.9196" lon="6.57969">
        <ele>1849.3</ele>
        <time>2022-08-05T07:48:37+0200</time>
      </trkpt>
      <trkpt lat="44.9196" lon="6.57962">
        <ele>1849.5</ele>
        <time>2022-08-05T07:48:39+0200</time>
      </trkpt>
      <trkpt lat="44.91962" lon="6.57955">
        <ele>1849.5</ele>
        <time>2022-08-05T07:48:41+0200</time>
      </trkpt>
      <trkpt lat="44.91962" lon="6.57948">
        <ele>1849.7</ele>
        <time>2022-08-05T07:48:43+0200</time>
      </trkpt>
      <trkpt lat="44.91962" lon="6.57941">
        <ele>1850</ele>
        <time>2022-08-05T07:48:45+0200</time>
      </trkpt>
      <trkpt lat="44.91962" lon="6.57934">
        <ele>1850.1</ele>
        <time>2022-08-05T07:48:48+0200</time>
      </trkpt>
      <trkpt lat="44.91959" lon="6.57925">
        <ele>1850.8</ele>
        <time>2022-08-05T07:48:51+0200</time>
      </trkpt>
      <trkpt lat="44.91956" lon="6.57919">
        <ele>1851.4</ele>
        <time>2022-08-05T07:48:53+0200</time>
      </trkpt>
      <trkpt lat="44.9195" lon="6.57916">
        <ele>1852.2</ele>
        <time>2022-08-05T07:48:56+0200</time>
      </trkpt>
      <trkpt lat="44.91945" lon="6.57918">
        <ele>1852.9</ele>
        <time>2022-08-05T07:48:58+0200</time>
      </trkpt>
      <trkpt lat="44.91941" lon="6.57926">
        <ele>1853.4</ele>
        <time>2022-08-05T07:49:02+0200</time>
      </trkpt>
      <trkpt lat="44.91939" lon="6.57934">
        <ele>1853.6</ele>
        <time>2022-08-05T07:49:05+0200</time>
      </trkpt>
      <trkpt lat="44.91936" lon="6.57943">
        <ele>1853.9</ele>
        <time>2022-08-05T07:49:08+0200</time>
      </trkpt>
      <trkpt lat="44.91934" lon="6.57949">
        <ele>1854.1</ele>
        <time>2022-08-05T07:49:10+0200</time>
      </trkpt>
      <trkpt lat="44.91929" lon="6.57955">
        <ele>1854.5</ele>
        <time>2022-08-05T07:49:12+0200</time>
      </trkpt>
      <trkpt lat="44.91926" lon="6.57961">
        <ele>1854.9</ele>
        <time>2022-08-05T07:49:14+0200</time>
      </trkpt>
      <trkpt lat="44.91921" lon="6.57968">
        <ele>1855.5</ele>
        <time>2022-08-05T07:49:17+0200</time>
      </trkpt>
      <trkpt lat="44.91917" lon="6.57973">
        <ele>1855.9</ele>
        <time>2022-08-05T07:49:19+0200</time>
      </trkpt>
      <trkpt lat="44.91913" lon="6.5798">
        <ele>1856.3</ele>
        <time>2022-08-05T07:49:22+0200</time>
      </trkpt>
      <trkpt lat="44.9191" lon="6.57984">
        <ele>1856.6</ele>
        <time>2022-08-05T07:49:24+0200</time>
      </trkpt>
      <trkpt lat="44.91908" lon="6.5799">
        <ele>1856.8</ele>
        <time>2022-08-05T07:49:26+0200</time>
      </trkpt>
      <trkpt lat="44.91905" lon="6.57995">
        <ele>1857.2</ele>
        <time>2022-08-05T07:49:28+0200</time>
      </trkpt>
      <trkpt lat="44.91903" lon="6.58003">
        <ele>1857.4</ele>
        <time>2022-08-05T07:49:30+0200</time>
      </trkpt>
      <trkpt lat="44.91901" lon="6.58008">
        <ele>1857.6</ele>
        <time>2022-08-05T07:49:32+0200</time>
      </trkpt>
      <trkpt lat="44.91897" lon="6.58014">
        <ele>1858</ele>
        <time>2022-08-05T07:49:35+0200</time>
      </trkpt>
      <trkpt lat="44.91894" lon="6.58021">
        <ele>1858.3</ele>
        <time>2022-08-05T07:49:38+0200</time>
      </trkpt>
      <trkpt lat="44.91892" lon="6.5803">
        <ele>1858.6</ele>
        <time>2022-08-05T07:49:41+0200</time>
      </trkpt>
      <trkpt lat="44.91888" lon="6.58038">
        <ele>1858.7</ele>
        <time>2022-08-05T07:49:44+0200</time>
      </trkpt>
      <trkpt lat="44.91885" lon="6.58044">
        <ele>1859</ele>
        <time>2022-08-05T07:49:46+0200</time>
      </trkpt>
      <trkpt lat="44.91881" lon="6.58053">
        <ele>1859.2</ele>
        <time>2022-08-05T07:49:49+0200</time>
      </trkpt>
      <trkpt lat="44.91878" lon="6.58061">
        <ele>1859.4</ele>
        <time>2022-08-05T07:49:52+0200</time>
      </trkpt>
      <trkpt lat="44.91875" lon="6.58068">
        <ele>1859.7</ele>
        <time>2022-08-05T07:49:55+0200</time>
      </trkpt>
      <trkpt lat="44.91871" lon="6.58071">
        <ele>1860.6</ele>
        <time>2022-08-05T07:49:57+0200</time>
      </trkpt>
      <trkpt lat="44.91866" lon="6.58071">
        <ele>1861.6</ele>
        <time>2022-08-05T07:50:00+0200</time>
      </trkpt>
      <trkpt lat="44.91859" lon="6.58072">
        <ele>1863.4</ele>
        <time>2022-08-05T07:50:03+0200</time>
      </trkpt>
      <trkpt lat="44.91855" lon="6.58068">
        <ele>1864.7</ele>
        <time>2022-08-05T07:50:07+0200</time>
      </trkpt>
      <trkpt lat="44.91852" lon="6.58061">
        <ele>1865.5</ele>
        <time>2022-08-05T07:50:11+0200</time>
      </trkpt>
      <trkpt lat="44.91854" lon="6.58053">
        <ele>1864.6</ele>
        <time>2022-08-05T07:50:14+0200</time>
      </trkpt>
      <trkpt lat="44.91851" lon="6.58047">
        <ele>1866.1</ele>
        <time>2022-08-05T07:50:17+0200</time>
      </trkpt>
      <trkpt lat="44.9185" lon="6.5804">
        <ele>1866.7</ele>
        <time>2022-08-05T07:50:20+0200</time>
      </trkpt>
      <trkpt lat="44.9185" lon="6.58031">
        <ele>1867.1</ele>
        <time>2022-08-05T07:50:24+0200</time>
      </trkpt>
      <trkpt lat="44.91849" lon="6.58023">
        <ele>1868</ele>
        <time>2022-08-05T07:50:27+0200</time>
      </trkpt>
      <trkpt lat="44.91849" lon="6.58015">
        <ele>1868.9</ele>
        <time>2022-08-05T07:50:30+0200</time>
      </trkpt>
      <trkpt lat="44.91848" lon="6.58008">
        <ele>1869.7</ele>
        <time>2022-08-05T07:50:33+0200</time>
      </trkpt>
      <trkpt lat="44.91847" lon="6.58001">
        <ele>1870.4</ele>
        <time>2022-08-05T07:50:36+0200</time>
      </trkpt>
      <trkpt lat="44.91849" lon="6.57995">
        <ele>1869.5</ele>
        <time>2022-08-05T07:50:38+0200</time>
      </trkpt>
      <trkpt lat="44.91849" lon="6.57988">
        <ele>1869.9</ele>
        <time>2022-08-05T07:50:42+0200</time>
      </trkpt>
      <trkpt lat="44.91848" lon="6.57981">
        <ele>1870.2</ele>
        <time>2022-08-05T07:50:44+0200</time>
      </trkpt>
      <trkpt lat="44.91845" lon="6.57976">
        <ele>1871.5</ele>
        <time>2022-08-05T07:50:46+0200</time>
      </trkpt>
      <trkpt lat="44.91842" lon="6.5797">
        <ele>1872.8</ele>
        <time>2022-08-05T07:50:48+0200</time>
      </trkpt>
      <trkpt lat="44.9184" lon="6.57962">
        <ele>1873.5</ele>
        <time>2022-08-05T07:50:51+0200</time>
      </trkpt>
      <trkpt lat="44.91839" lon="6.57955">
        <ele>1874.1</ele>
        <time>2022-08-05T07:50:53+0200</time>
      </trkpt>
      <trkpt lat="44.91836" lon="6.57949">
        <ele>1875</ele>
        <time>2022-08-05T07:50:55+0200</time>
      </trkpt>
      <trkpt lat="44.91833" lon="6.57941">
        <ele>1876</ele>
        <time>2022-08-05T07:50:57+0200</time>
      </trkpt>
      <trkpt lat="44.91833" lon="6.57934">
        <ele>1876.1</ele>
        <time>2022-08-05T07:50:59+0200</time>
      </trkpt>
      <trkpt lat="44.91831" lon="6.57928">
        <ele>1877</ele>
        <time>2022-08-05T07:51:01+0200</time>
      </trkpt>
      <trkpt lat="44.91831" lon="6.57921">
        <ele>1877.1</ele>
        <time>2022-08-05T07:51:03+0200</time>
      </trkpt>
      <trkpt lat="44.91831" lon="6.57913">
        <ele>1877.1</ele>
        <time>2022-08-05T07:51:05+0200</time>
      </trkpt>
      <trkpt lat="44.91832" lon="6.57907">
        <ele>1876.5</ele>
        <time>2022-08-05T07:51:07+0200</time>
      </trkpt>
      <trkpt lat="44.91832" lon="6.57897">
        <ele>1876.6</ele>
        <time>2022-08-05T07:51:10+0200</time>
      </trkpt>
      <trkpt lat="44.91833" lon="6.57889">
        <ele>1876.5</ele>
        <time>2022-08-05T07:51:13+0200</time>
      </trkpt>
      <trkpt lat="44.91835" lon="6.57881">
        <ele>1876.2</ele>
        <time>2022-08-05T07:51:16+0200</time>
      </trkpt>
      <trkpt lat="44.91834" lon="6.57874">
        <ele>1876.7</ele>
        <time>2022-08-05T07:51:19+0200</time>
      </trkpt>
      <trkpt lat="44.91835" lon="6.57867">
        <ele>1876.8</ele>
        <time>2022-08-05T07:51:22+0200</time>
      </trkpt>
      <trkpt lat="44.91835" lon="6.57858">
        <ele>1877.7</ele>
        <time>2022-08-05T07:51:28+0200</time>
      </trkpt>
      <trkpt lat="44.91838" lon="6.57851">
        <ele>1876.8</ele>
        <time>2022-08-05T07:51:31+0200</time>
      </trkpt>
      <trkpt lat="44.9184" lon="6.57841">
        <ele>1876.9</ele>
        <time>2022-08-05T07:51:34+0200</time>
      </trkpt>
      <trkpt lat="44.91838" lon="6.57834">
        <ele>1878.3</ele>
        <time>2022-08-05T07:51:37+0200</time>
      </trkpt>
      <trkpt lat="44.91836" lon="6.57825">
        <ele>1880.1</ele>
        <time>2022-08-05T07:51:40+0200</time>
      </trkpt>
      <trkpt lat="44.91836" lon="6.57818">
        <ele>1881</ele>
        <time>2022-08-05T07:51:42+0200</time>
      </trkpt>
      <trkpt lat="44.91839" lon="6.57813">
        <ele>1880.5</ele>
        <time>2022-08-05T07:51:44+0200</time>
      </trkpt>
      <trkpt lat="44.9184" lon="6.57806">
        <ele>1881.2</ele>
        <time>2022-08-05T07:51:47+0200</time>
      </trkpt>
      <trkpt lat="44.91841" lon="6.57799">
        <ele>1881.5</ele>
        <time>2022-08-05T07:51:50+0200</time>
      </trkpt>
      <trkpt lat="44.9184" lon="6.5779">
        <ele>1882.6</ele>
        <time>2022-08-05T07:51:53+0200</time>
      </trkpt>
      <trkpt lat="44.9184" lon="6.57782">
        <ele>1883.5</ele>
        <time>2022-08-05T07:51:56+0200</time>
      </trkpt>
      <trkpt lat="44.91843" lon="6.57774">
        <ele>1883.1</ele>
        <time>2022-08-05T07:52:00+0200</time>
      </trkpt>
      <trkpt lat="44.91842" lon="6.57766">
        <ele>1884.1</ele>
        <time>2022-08-05T07:52:04+0200</time>
      </trkpt>
      <trkpt lat="44.91843" lon="6.57759">
        <ele>1884.3</ele>
        <time>2022-08-05T07:52:07+0200</time>
      </trkpt>
      <trkpt lat="44.91845" lon="6.57751">
        <ele>1884.4</ele>
        <time>2022-08-05T07:52:10+0200</time>
      </trkpt>
      <trkpt lat="44.91844" lon="6.57743">
        <ele>1885</ele>
        <time>2022-08-05T07:52:14+0200</time>
      </trkpt>
      <trkpt lat="44.91843" lon="6.57735">
        <ele>1885.7</ele>
        <time>2022-08-05T07:52:16+0200</time>
      </trkpt>
      <trkpt lat="44.91841" lon="6.57728">
        <ele>1886.9</ele>
        <time>2022-08-05T07:52:19+0200</time>
      </trkpt>
      <trkpt lat="44.9184" lon="6.57721">
        <ele>1887.8</ele>
        <time>2022-08-05T07:52:23+0200</time>
      </trkpt>
      <trkpt lat="44.91837" lon="6.57714">
        <ele>1889.2</ele>
        <time>2022-08-05T07:52:26+0200</time>
      </trkpt>
      <trkpt lat="44.91835" lon="6.57708">
        <ele>1889.9</ele>
        <time>2022-08-05T07:52:29+0200</time>
      </trkpt>
      <trkpt lat="44.91836" lon="6.577">
        <ele>1889.9</ele>
        <time>2022-08-05T07:52:32+0200</time>
      </trkpt>
      <trkpt lat="44.91834" lon="6.57694">
        <ele>1890.6</ele>
        <time>2022-08-05T07:52:35+0200</time>
      </trkpt>
      <trkpt lat="44.91832" lon="6.57688">
        <ele>1891.7</ele>
        <time>2022-08-05T07:52:39+0200</time>
      </trkpt>
      <trkpt lat="44.91831" lon="6.57679">
        <ele>1892</ele>
        <time>2022-08-05T07:52:43+0200</time>
      </trkpt>
      <trkpt lat="44.9183" lon="6.57672">
        <ele>1892.2</ele>
        <time>2022-08-05T07:52:46+0200</time>
      </trkpt>
      <trkpt lat="44.91828" lon="6.57663">
        <ele>1892.9</ele>
        <time>2022-08-05T07:52:49+0200</time>
      </trkpt>
      <trkpt lat="44.91825" lon="6.57656">
        <ele>1894</ele>
        <time>2022-08-05T07:52:52+0200</time>
      </trkpt>
      <trkpt lat="44.91825" lon="6.57648">
        <ele>1894.1</ele>
        <time>2022-08-05T07:52:55+0200</time>
      </trkpt>
      <trkpt lat="44.91825" lon="6.57638">
        <ele>1894.3</ele>
        <time>2022-08-05T07:53:00+0200</time>
      </trkpt>
      <trkpt lat="44.91824" lon="6.57631">
        <ele>1894.3</ele>
        <time>2022-08-05T07:53:02+0200</time>
      </trkpt>
      <trkpt lat="44.91825" lon="6.57624">
        <ele>1894.1</ele>
        <time>2022-08-05T07:53:05+0200</time>
      </trkpt>
      <trkpt lat="44.91822" lon="6.57618">
        <ele>1895</ele>
        <time>2022-08-05T07:53:07+0200</time>
      </trkpt>
      <trkpt lat="44.9182" lon="6.5761">
        <ele>1895.7</ele>
        <time>2022-08-05T07:53:09+0200</time>
      </trkpt>
      <trkpt lat="44.91819" lon="6.57604">
        <ele>1895.9</ele>
        <time>2022-08-05T07:53:12+0200</time>
      </trkpt>
      <trkpt lat="44.91816" lon="6.57598">
        <ele>1896.8</ele>
        <time>2022-08-05T07:53:14+0200</time>
      </trkpt>
      <trkpt lat="44.91815" lon="6.57591">
        <ele>1896.9</ele>
        <time>2022-08-05T07:53:18+0200</time>
      </trkpt>
      <trkpt lat="44.91812" lon="6.57582">
        <ele>1897.8</ele>
        <time>2022-08-05T07:53:21+0200</time>
      </trkpt>
      <trkpt lat="44.91812" lon="6.57575">
        <ele>1898.1</ele>
        <time>2022-08-05T07:53:24+0200</time>
      </trkpt>
      <trkpt lat="44.9181" lon="6.57568">
        <ele>1899.1</ele>
        <time>2022-08-05T07:53:28+0200</time>
      </trkpt>
      <trkpt lat="44.91806" lon="6.57561">
        <ele>1900.7</ele>
        <time>2022-08-05T07:53:31+0200</time>
      </trkpt>
      <trkpt lat="44.91804" lon="6.57555">
        <ele>1901.6</ele>
        <time>2022-08-05T07:53:34+0200</time>
      </trkpt>
      <trkpt lat="44.91802" lon="6.57548">
        <ele>1903.2</ele>
        <time>2022-08-05T07:53:37+0200</time>
      </trkpt>
      <trkpt lat="44.91799" lon="6.57542">
        <ele>1904.9</ele>
        <time>2022-08-05T07:53:39+0200</time>
      </trkpt>
      <trkpt lat="44.91795" lon="6.57538">
        <ele>1907</ele>
        <time>2022-08-05T07:53:41+0200</time>
      </trkpt>
      <trkpt lat="44.91793" lon="6.57529">
        <ele>1908.5</ele>
        <time>2022-08-05T07:53:44+0200</time>
      </trkpt>
      <trkpt lat="44.91794" lon="6.57522">
        <ele>1908.1</ele>
        <time>2022-08-05T07:53:47+0200</time>
      </trkpt>
      <trkpt lat="44.91796" lon="6.57513">
        <ele>1907.5</ele>
        <time>2022-08-05T07:53:50+0200</time>
      </trkpt>
      <trkpt lat="44.91799" lon="6.57506">
        <ele>1906.1</ele>
        <time>2022-08-05T07:53:53+0200</time>
      </trkpt>
      <trkpt lat="44.91802" lon="6.575">
        <ele>1904.9</ele>
        <time>2022-08-05T07:53:57+0200</time>
      </trkpt>
      <trkpt lat="44.91801" lon="6.57492">
        <ele>1906.3</ele>
        <time>2022-08-05T07:54:00+0200</time>
      </trkpt>
      <trkpt lat="44.918" lon="6.57485">
        <ele>1907.3</ele>
        <time>2022-08-05T07:54:03+0200</time>
      </trkpt>
      <trkpt lat="44.91798" lon="6.57478">
        <ele>1908.8</ele>
        <time>2022-08-05T07:54:07+0200</time>
      </trkpt>
      <trkpt lat="44.91799" lon="6.57472">
        <ele>1908.6</ele>
        <time>2022-08-05T07:54:11+0200</time>
      </trkpt>
      <trkpt lat="44.91799" lon="6.57464">
        <ele>1908.6</ele>
        <time>2022-08-05T07:54:16+0200</time>
      </trkpt>
      <trkpt lat="44.91799" lon="6.57454">
        <ele>1908.4</ele>
        <time>2022-08-05T07:54:19+0200</time>
      </trkpt>
      <trkpt lat="44.91799" lon="6.57446">
        <ele>1908.3</ele>
        <time>2022-08-05T07:54:21+0200</time>
      </trkpt>
      <trkpt lat="44.91797" lon="6.57438">
        <ele>1909.2</ele>
        <time>2022-08-05T07:54:24+0200</time>
      </trkpt>
      <trkpt lat="44.91795" lon="6.57432">
        <ele>1909.9</ele>
        <time>2022-08-05T07:54:26+0200</time>
      </trkpt>
      <trkpt lat="44.91796" lon="6.57426">
        <ele>1908.3</ele>
        <time>2022-08-05T07:54:28+0200</time>
      </trkpt>
      <trkpt lat="44.91793" lon="6.57419">
        <ele>1909.6</ele>
        <time>2022-08-05T07:54:31+0200</time>
      </trkpt>
      <trkpt lat="44.91791" lon="6.5741">
        <ele>1910.1</ele>
        <time>2022-08-05T07:54:34+0200</time>
      </trkpt>
      <trkpt lat="44.91789" lon="6.57402">
        <ele>1910.9</ele>
        <time>2022-08-05T07:54:38+0200</time>
      </trkpt>
      <trkpt lat="44.91786" lon="6.57393">
        <ele>1912</ele>
        <time>2022-08-05T07:54:41+0200</time>
      </trkpt>
      <trkpt lat="44.91783" lon="6.57388">
        <ele>1913.1</ele>
        <time>2022-08-05T07:54:43+0200</time>
      </trkpt>
      <trkpt lat="44.91781" lon="6.57382">
        <ele>1913.5</ele>
        <time>2022-08-05T07:54:45+0200</time>
      </trkpt>
      <trkpt lat="44.91779" lon="6.57371">
        <ele>1913</ele>
        <time>2022-08-05T07:54:48+0200</time>
      </trkpt>
      <trkpt lat="44.91776" lon="6.57365">
        <ele>1913.4</ele>
        <time>2022-08-05T07:54:51+0200</time>
      </trkpt>
      <trkpt lat="44.91772" lon="6.57358">
        <ele>1914.5</ele>
        <time>2022-08-05T07:54:54+0200</time>
      </trkpt>
      <trkpt lat="44.91768" lon="6.57355">
        <ele>1916.3</ele>
        <time>2022-08-05T07:54:56+0200</time>
      </trkpt>
      <trkpt lat="44.91764" lon="6.57352">
        <ele>1918.2</ele>
        <time>2022-08-05T07:54:58+0200</time>
      </trkpt>
      <trkpt lat="44.91761" lon="6.57345">
        <ele>1918.9</ele>
        <time>2022-08-05T07:55:01+0200</time>
      </trkpt>
      <trkpt lat="44.91758" lon="6.5734">
        <ele>1919.7</ele>
        <time>2022-08-05T07:55:04+0200</time>
      </trkpt>
      <trkpt lat="44.91757" lon="6.57333">
        <ele>1919.2</ele>
        <time>2022-08-05T07:55:07+0200</time>
      </trkpt>
      <trkpt lat="44.91754" lon="6.57326">
        <ele>1920.2</ele>
        <time>2022-08-05T07:55:10+0200</time>
      </trkpt>
      <trkpt lat="44.91751" lon="6.57318">
        <ele>1920.7</ele>
        <time>2022-08-05T07:55:14+0200</time>
      </trkpt>
      <trkpt lat="44.91749" lon="6.57311">
        <ele>1921</ele>
        <time>2022-08-05T07:55:18+0200</time>
      </trkpt>
      <trkpt lat="44.91748" lon="6.57305">
        <ele>1920.8</ele>
        <time>2022-08-05T07:55:21+0200</time>
      </trkpt>
      <trkpt lat="44.91743" lon="6.57298">
        <ele>1922.4</ele>
        <time>2022-08-05T07:55:25+0200</time>
      </trkpt>
      <trkpt lat="44.91742" lon="6.57292">
        <ele>1922.8</ele>
        <time>2022-08-05T07:55:28+0200</time>
      </trkpt>
      <trkpt lat="44.91741" lon="6.57283">
        <ele>1922.9</ele>
        <time>2022-08-05T07:55:32+0200</time>
      </trkpt>
      <trkpt lat="44.91736" lon="6.57277">
        <ele>1924.1</ele>
        <time>2022-08-05T07:55:36+0200</time>
      </trkpt>
      <trkpt lat="44.91732" lon="6.57272">
        <ele>1925.3</ele>
        <time>2022-08-05T07:55:39+0200</time>
      </trkpt>
      <trkpt lat="44.91729" lon="6.57265">
        <ele>1925.9</ele>
        <time>2022-08-05T07:55:43+0200</time>
      </trkpt>
      <trkpt lat="44.91724" lon="6.57265">
        <ele>1927</ele>
        <time>2022-08-05T07:55:53+0200</time>
      </trkpt>
      <trkpt lat="44.9172" lon="6.57267">
        <ele>1928.5</ele>
        <time>2022-08-05T07:55:59+0200</time>
      </trkpt>
      <trkpt lat="44.91718" lon="6.57273">
        <ele>1929.6</ele>
        <time>2022-08-05T07:56:03+0200</time>
      </trkpt>
      <trkpt lat="44.91717" lon="6.5728">
        <ele>1930.5</ele>
        <time>2022-08-05T07:56:06+0200</time>
      </trkpt>
      <trkpt lat="44.91714" lon="6.57285">
        <ele>1932.3</ele>
        <time>2022-08-05T07:56:09+0200</time>
      </trkpt>
      <trkpt lat="44.91715" lon="6.57293">
        <ele>1932.7</ele>
        <time>2022-08-05T07:56:13+0200</time>
      </trkpt>
      <trkpt lat="44.91715" lon="6.57301">
        <ele>1933.4</ele>
        <time>2022-08-05T07:56:16+0200</time>
      </trkpt>
      <trkpt lat="44.91716" lon="6.57308">
        <ele>1934.1</ele>
        <time>2022-08-05T07:56:19+0200</time>
      </trkpt>
      <trkpt lat="44.91717" lon="6.57316">
        <ele>1934.9</ele>
        <time>2022-08-05T07:56:23+0200</time>
      </trkpt>
      <trkpt lat="44.91717" lon="6.57323">
        <ele>1936.3</ele>
        <time>2022-08-05T07:56:25+0200</time>
      </trkpt>
      <trkpt lat="44.91719" lon="6.5733">
        <ele>1936</ele>
        <time>2022-08-05T07:56:30+0200</time>
      </trkpt>
      <trkpt lat="44.9172" lon="6.57337">
        <ele>1937.1</ele>
        <time>2022-08-05T07:56:33+0200</time>
      </trkpt>
      <trkpt lat="44.91721" lon="6.57344">
        <ele>1937.8</ele>
        <time>2022-08-05T07:56:36+0200</time>
      </trkpt>
      <trkpt lat="44.91723" lon="6.57351">
        <ele>1938.5</ele>
        <time>2022-08-05T07:56:38+0200</time>
      </trkpt>
      <trkpt lat="44.91724" lon="6.57359">
        <ele>1939.4</ele>
        <time>2022-08-05T07:56:41+0200</time>
      </trkpt>
      <trkpt lat="44.91725" lon="6.57367">
        <ele>1941</ele>
        <time>2022-08-05T07:56:43+0200</time>
      </trkpt>
      <trkpt lat="44.91726" lon="6.57377">
        <ele>1942.4</ele>
        <time>2022-08-05T07:56:46+0200</time>
      </trkpt>
      <trkpt lat="44.91725" lon="6.57385">
        <ele>1944.7</ele>
        <time>2022-08-05T07:56:49+0200</time>
      </trkpt>
      <trkpt lat="44.91722" lon="6.57391">
        <ele>1947.1</ele>
        <time>2022-08-05T07:56:52+0200</time>
      </trkpt>
      <trkpt lat="44.91723" lon="6.57398">
        <ele>1947.3</ele>
        <time>2022-08-05T07:56:56+0200</time>
      </trkpt>
      <trkpt lat="44.91717" lon="6.57393">
        <ele>1949.2</ele>
        <time>2022-08-05T07:57:06+0200</time>
      </trkpt>
      <trkpt lat="44.91712" lon="6.57386">
        <ele>1950</ele>
        <time>2022-08-05T07:57:10+0200</time>
      </trkpt>
      <trkpt lat="44.91708" lon="6.57378">
        <ele>1950.3</ele>
        <time>2022-08-05T07:57:13+0200</time>
      </trkpt>
      <trkpt lat="44.91706" lon="6.57371">
        <ele>1950.4</ele>
        <time>2022-08-05T07:57:16+0200</time>
      </trkpt>
      <trkpt lat="44.91704" lon="6.57365">
        <ele>1950</ele>
        <time>2022-08-05T07:57:19+0200</time>
      </trkpt>
      <trkpt lat="44.91704" lon="6.57358">
        <ele>1948.8</ele>
        <time>2022-08-05T07:57:22+0200</time>
      </trkpt>
      <trkpt lat="44.91703" lon="6.5735">
        <ele>1948</ele>
        <time>2022-08-05T07:57:26+0200</time>
      </trkpt>
      <trkpt lat="44.91703" lon="6.57343">
        <ele>1946.5</ele>
        <time>2022-08-05T07:57:30+0200</time>
      </trkpt>
      <trkpt lat="44.91703" lon="6.57336">
        <ele>1945.4</ele>
        <time>2022-08-05T07:57:33+0200</time>
      </trkpt>
      <trkpt lat="44.91697" lon="6.57328">
        <ele>1946.5</ele>
        <time>2022-08-05T07:57:36+0200</time>
      </trkpt>
      <trkpt lat="44.91694" lon="6.57321">
        <ele>1946.3</ele>
        <time>2022-08-05T07:57:39+0200</time>
      </trkpt>
      <trkpt lat="44.91691" lon="6.57314">
        <ele>1946.5</ele>
        <time>2022-08-05T07:57:41+0200</time>
      </trkpt>
      <trkpt lat="44.91687" lon="6.5731">
        <ele>1947.3</ele>
        <time>2022-08-05T07:57:43+0200</time>
      </trkpt>
      <trkpt lat="44.91682" lon="6.57306">
        <ele>1948.8</ele>
        <time>2022-08-05T07:57:45+0200</time>
      </trkpt>
      <trkpt lat="44.91677" lon="6.57302">
        <ele>1950.6</ele>
        <time>2022-08-05T07:57:47+0200</time>
      </trkpt>
      <trkpt lat="44.91673" lon="6.57298">
        <ele>1951.9</ele>
        <time>2022-08-05T07:57:49+0200</time>
      </trkpt>
      <trkpt lat="44.91668" lon="6.57292">
        <ele>1953.4</ele>
        <time>2022-08-05T07:57:52+0200</time>
      </trkpt>
      <trkpt lat="44.91667" lon="6.57285">
        <ele>1953.2</ele>
        <time>2022-08-05T07:57:54+0200</time>
      </trkpt>
      <trkpt lat="44.91664" lon="6.57279">
        <ele>1953.5</ele>
        <time>2022-08-05T07:57:57+0200</time>
      </trkpt>
      <trkpt lat="44.91659" lon="6.57274">
        <ele>1955.2</ele>
        <time>2022-08-05T07:57:59+0200</time>
      </trkpt>
      <trkpt lat="44.91655" lon="6.57269">
        <ele>1956.4</ele>
        <time>2022-08-05T07:58:04+0200</time>
      </trkpt>
      <trkpt lat="44.9165" lon="6.57269">
        <ele>1958.7</ele>
        <time>2022-08-05T07:58:10+0200</time>
      </trkpt>
      <trkpt lat="44.91645" lon="6.57272">
        <ele>1961.7</ele>
        <time>2022-08-05T07:58:14+0200</time>
      </trkpt>
      <trkpt lat="44.91643" lon="6.57279">
        <ele>1963.4</ele>
        <time>2022-08-05T07:58:17+0200</time>
      </trkpt>
      <trkpt lat="44.91644" lon="6.57286">
        <ele>1963.9</ele>
        <time>2022-08-05T07:58:20+0200</time>
      </trkpt>
      <trkpt lat="44.91646" lon="6.57293">
        <ele>1963.9</ele>
        <time>2022-08-05T07:58:23+0200</time>
      </trkpt>
      <trkpt lat="44.91648" lon="6.573">
        <ele>1964.1</ele>
        <time>2022-08-05T07:58:25+0200</time>
      </trkpt>
      <trkpt lat="44.91648" lon="6.57309">
        <ele>1965.4</ele>
        <time>2022-08-05T07:58:29+0200</time>
      </trkpt>
      <trkpt lat="44.9165" lon="6.57315">
        <ele>1965.2</ele>
        <time>2022-08-05T07:58:34+0200</time>
      </trkpt>
      <trkpt lat="44.91654" lon="6.57319">
        <ele>1964.2</ele>
        <time>2022-08-05T07:58:39+0200</time>
      </trkpt>
      <trkpt lat="44.91655" lon="6.57325">
        <ele>1964.7</ele>
        <time>2022-08-05T07:58:43+0200</time>
      </trkpt>
      <trkpt lat="44.91655" lon="6.57333">
        <ele>1966.1</ele>
        <time>2022-08-05T07:58:50+0200</time>
      </trkpt>
      <trkpt lat="44.91654" lon="6.57343">
        <ele>1967.3</ele>
        <time>2022-08-05T07:58:54+0200</time>
      </trkpt>
      <trkpt lat="44.91655" lon="6.57351">
        <ele>1967.6</ele>
        <time>2022-08-05T07:58:57+0200</time>
      </trkpt>
      <trkpt lat="44.91655" lon="6.57359">
        <ele>1968.3</ele>
        <time>2022-08-05T07:59:00+0200</time>
      </trkpt>
      <trkpt lat="44.91655" lon="6.57366">
        <ele>1968.8</ele>
        <time>2022-08-05T07:59:02+0200</time>
      </trkpt>
      <trkpt lat="44.91654" lon="6.57373">
        <ele>1969.7</ele>
        <time>2022-08-05T07:59:04+0200</time>
      </trkpt>
      <trkpt lat="44.91651" lon="6.57381">
        <ele>1970.8</ele>
        <time>2022-08-05T07:59:06+0200</time>
      </trkpt>
      <trkpt lat="44.91648" lon="6.57388">
        <ele>1972.1</ele>
        <time>2022-08-05T07:59:09+0200</time>
      </trkpt>
      <trkpt lat="44.91646" lon="6.57396">
        <ele>1972.8</ele>
        <time>2022-08-05T07:59:12+0200</time>
      </trkpt>
      <trkpt lat="44.91644" lon="6.57403">
        <ele>1973.4</ele>
        <time>2022-08-05T07:59:15+0200</time>
      </trkpt>
      <trkpt lat="44.9164" lon="6.57408">
        <ele>1974.6</ele>
        <time>2022-08-05T07:59:17+0200</time>
      </trkpt>
      <trkpt lat="44.91637" lon="6.57415">
        <ele>1975.7</ele>
        <time>2022-08-05T07:59:20+0200</time>
      </trkpt>
      <trkpt lat="44.91634" lon="6.57423">
        <ele>1976.6</ele>
        <time>2022-08-05T07:59:24+0200</time>
      </trkpt>
      <trkpt lat="44.9163" lon="6.57427">
        <ele>1978.1</ele>
        <time>2022-08-05T07:59:28+0200</time>
      </trkpt>
      <trkpt lat="44.91629" lon="6.57433">
        <ele>1978.7</ele>
        <time>2022-08-05T07:59:31+0200</time>
      </trkpt>
      <trkpt lat="44.91627" lon="6.57439">
        <ele>1979.4</ele>
        <time>2022-08-05T07:59:34+0200</time>
      </trkpt>
      <trkpt lat="44.91626" lon="6.57449">
        <ele>1979.7</ele>
        <time>2022-08-05T07:59:37+0200</time>
      </trkpt>
      <trkpt lat="44.91626" lon="6.57458">
        <ele>1979.7</ele>
        <time>2022-08-05T07:59:40+0200</time>
      </trkpt>
      <trkpt lat="44.91626" lon="6.57468">
        <ele>1979.8</ele>
        <time>2022-08-05T07:59:43+0200</time>
      </trkpt>
      <trkpt lat="44.91626" lon="6.57475">
        <ele>1979.7</ele>
        <time>2022-08-05T07:59:47+0200</time>
      </trkpt>
      <trkpt lat="44.91626" lon="6.57481">
        <ele>1980.1</ele>
        <time>2022-08-05T07:59:49+0200</time>
      </trkpt>
      <trkpt lat="44.91625" lon="6.57489">
        <ele>1980.5</ele>
        <time>2022-08-05T07:59:51+0200</time>
      </trkpt>
      <trkpt lat="44.91626" lon="6.57497">
        <ele>1980.6</ele>
        <time>2022-08-05T07:59:54+0200</time>
      </trkpt>
      <trkpt lat="44.91626" lon="6.57505">
        <ele>1981.1</ele>
        <time>2022-08-05T07:59:58+0200</time>
      </trkpt>
      <trkpt lat="44.91625" lon="6.57513">
        <ele>1981.7</ele>
        <time>2022-08-05T08:00:02+0200</time>
      </trkpt>
      <trkpt lat="44.91625" lon="6.5752">
        <ele>1982.2</ele>
        <time>2022-08-05T08:00:04+0200</time>
      </trkpt>
      <trkpt lat="44.91623" lon="6.57526">
        <ele>1983.3</ele>
        <time>2022-08-05T08:00:06+0200</time>
      </trkpt>
      <trkpt lat="44.9162" lon="6.57532">
        <ele>1984.7</ele>
        <time>2022-08-05T08:00:08+0200</time>
      </trkpt>
      <trkpt lat="44.91616" lon="6.57537">
        <ele>1986.5</ele>
        <time>2022-08-05T08:00:11+0200</time>
      </trkpt>
      <trkpt lat="44.91618" lon="6.57531">
        <ele>1985.5</ele>
        <time>2022-08-05T08:00:16+0200</time>
      </trkpt>
      <trkpt lat="44.91618" lon="6.57524">
        <ele>1985.2</ele>
        <time>2022-08-05T08:00:21+0200</time>
      </trkpt>
      <trkpt lat="44.91619" lon="6.57517">
        <ele>1984.3</ele>
        <time>2022-08-05T08:00:24+0200</time>
      </trkpt>
      <trkpt lat="44.91618" lon="6.5751">
        <ele>1984.4</ele>
        <time>2022-08-05T08:00:27+0200</time>
      </trkpt>
      <trkpt lat="44.91615" lon="6.57505">
        <ele>1985.5</ele>
        <time>2022-08-05T08:00:30+0200</time>
      </trkpt>
      <trkpt lat="44.91612" lon="6.575">
        <ele>1986.8</ele>
        <time>2022-08-05T08:00:32+0200</time>
      </trkpt>
      <trkpt lat="44.91607" lon="6.57498">
        <ele>1988.5</ele>
        <time>2022-08-05T08:00:34+0200</time>
      </trkpt>
      <trkpt lat="44.91602" lon="6.57495">
        <ele>1990</ele>
        <time>2022-08-05T08:00:36+0200</time>
      </trkpt>
      <trkpt lat="44.91598" lon="6.57489">
        <ele>1991.3</ele>
        <time>2022-08-05T08:00:39+0200</time>
      </trkpt>
      <trkpt lat="44.91593" lon="6.57483">
        <ele>1992.8</ele>
        <time>2022-08-05T08:00:42+0200</time>
      </trkpt>
      <trkpt lat="44.91591" lon="6.57476">
        <ele>1993</ele>
        <time>2022-08-05T08:00:46+0200</time>
      </trkpt>
      <trkpt lat="44.91592" lon="6.57469">
        <ele>1992.6</ele>
        <time>2022-08-05T08:00:49+0200</time>
      </trkpt>
      <trkpt lat="44.9159" lon="6.57461">
        <ele>1993.1</ele>
        <time>2022-08-05T08:00:53+0200</time>
      </trkpt>
      <trkpt lat="44.9159" lon="6.57455">
        <ele>1992.8</ele>
        <time>2022-08-05T08:00:57+0200</time>
      </trkpt>
      <trkpt lat="44.9159" lon="6.57448">
        <ele>1992.7</ele>
        <time>2022-08-05T08:01:00+0200</time>
      </trkpt>
      <trkpt lat="44.91588" lon="6.5744">
        <ele>1993.3</ele>
        <time>2022-08-05T08:01:03+0200</time>
      </trkpt>
      <trkpt lat="44.91587" lon="6.57431">
        <ele>1993.8</ele>
        <time>2022-08-05T08:01:06+0200</time>
      </trkpt>
      <trkpt lat="44.91586" lon="6.57425">
        <ele>1994.2</ele>
        <time>2022-08-05T08:01:09+0200</time>
      </trkpt>
      <trkpt lat="44.91585" lon="6.57417">
        <ele>1994.3</ele>
        <time>2022-08-05T08:01:13+0200</time>
      </trkpt>
      <trkpt lat="44.91586" lon="6.57409">
        <ele>1994.2</ele>
        <time>2022-08-05T08:01:15+0200</time>
      </trkpt>
      <trkpt lat="44.91584" lon="6.57404">
        <ele>1995.3</ele>
        <time>2022-08-05T08:01:17+0200</time>
      </trkpt>
      <trkpt lat="44.91582" lon="6.57398">
        <ele>1996.3</ele>
        <time>2022-08-05T08:01:22+0200</time>
      </trkpt>
      <trkpt lat="44.91583" lon="6.57389">
        <ele>1996.1</ele>
        <time>2022-08-05T08:01:25+0200</time>
      </trkpt>
      <trkpt lat="44.91581" lon="6.57381">
        <ele>1996.8</ele>
        <time>2022-08-05T08:01:28+0200</time>
      </trkpt>
      <trkpt lat="44.91578" lon="6.57374">
        <ele>1997.8</ele>
        <time>2022-08-05T08:01:30+0200</time>
      </trkpt>
      <trkpt lat="44.91577" lon="6.57368">
        <ele>1998.3</ele>
        <time>2022-08-05T08:01:32+0200</time>
      </trkpt>
      <trkpt lat="44.91578" lon="6.5736">
        <ele>1997.8</ele>
        <time>2022-08-05T08:01:34+0200</time>
      </trkpt>
      <trkpt lat="44.91576" lon="6.57355">
        <ele>1998.6</ele>
        <time>2022-08-05T08:01:36+0200</time>
      </trkpt>
      <trkpt lat="44.91573" lon="6.57346">
        <ele>1999.6</ele>
        <time>2022-08-05T08:01:39+0200</time>
      </trkpt>
      <trkpt lat="44.91572" lon="6.5734">
        <ele>2000</ele>
        <time>2022-08-05T08:01:41+0200</time>
      </trkpt>
      <trkpt lat="44.9157" lon="6.57333">
        <ele>2001</ele>
        <time>2022-08-05T08:01:44+0200</time>
      </trkpt>
      <trkpt lat="44.91567" lon="6.57328">
        <ele>2001.5</ele>
        <time>2022-08-05T08:01:46+0200</time>
      </trkpt>
      <trkpt lat="44.91566" lon="6.5732">
        <ele>2001.4</ele>
        <time>2022-08-05T08:01:48+0200</time>
      </trkpt>
      <trkpt lat="44.91564" lon="6.57312">
        <ele>2002</ele>
        <time>2022-08-05T08:01:51+0200</time>
      </trkpt>
      <trkpt lat="44.91563" lon="6.57306">
        <ele>2002.3</ele>
        <time>2022-08-05T08:01:53+0200</time>
      </trkpt>
      <trkpt lat="44.91562" lon="6.57298">
        <ele>2002.1</ele>
        <time>2022-08-05T08:01:55+0200</time>
      </trkpt>
      <trkpt lat="44.91562" lon="6.57291">
        <ele>2001.4</ele>
        <time>2022-08-05T08:01:57+0200</time>
      </trkpt>
      <trkpt lat="44.91564" lon="6.57284">
        <ele>2000.2</ele>
        <time>2022-08-05T08:01:59+0200</time>
      </trkpt>
      <trkpt lat="44.91563" lon="6.57278">
        <ele>1999.9</ele>
        <time>2022-08-05T08:02:01+0200</time>
      </trkpt>
      <trkpt lat="44.91563" lon="6.5727">
        <ele>1999.5</ele>
        <time>2022-08-05T08:02:03+0200</time>
      </trkpt>
      <trkpt lat="44.91562" lon="6.57263">
        <ele>1999.1</ele>
        <time>2022-08-05T08:02:05+0200</time>
      </trkpt>
      <trkpt lat="44.91563" lon="6.57254">
        <ele>1998.1</ele>
        <time>2022-08-05T08:02:07+0200</time>
      </trkpt>
      <trkpt lat="44.91563" lon="6.57246">
        <ele>1997.6</ele>
        <time>2022-08-05T08:02:09+0200</time>
      </trkpt>
      <trkpt lat="44.91563" lon="6.57238">
        <ele>1997</ele>
        <time>2022-08-05T08:02:11+0200</time>
      </trkpt>
      <trkpt lat="44.91564" lon="6.5723">
        <ele>1995.9</ele>
        <time>2022-08-05T08:02:13+0200</time>
      </trkpt>
      <trkpt lat="44.91563" lon="6.57223">
        <ele>1995.9</ele>
        <time>2022-08-05T08:02:15+0200</time>
      </trkpt>
      <trkpt lat="44.91562" lon="6.57213">
        <ele>1995.6</ele>
        <time>2022-08-05T08:02:17+0200</time>
      </trkpt>
      <trkpt lat="44.91561" lon="6.57205">
        <ele>1995.6</ele>
        <time>2022-08-05T08:02:19+0200</time>
      </trkpt>
      <trkpt lat="44.9156" lon="6.57197">
        <ele>1995.2</ele>
        <time>2022-08-05T08:02:21+0200</time>
      </trkpt>
      <trkpt lat="44.9156" lon="6.5719">
        <ele>1994.8</ele>
        <time>2022-08-05T08:02:23+0200</time>
      </trkpt>
      <trkpt lat="44.91559" lon="6.57183">
        <ele>1994.4</ele>
        <time>2022-08-05T08:02:25+0200</time>
      </trkpt>
      <trkpt lat="44.91558" lon="6.57172">
        <ele>1993.8</ele>
        <time>2022-08-05T08:02:27+0200</time>
      </trkpt>
      <trkpt lat="44.91558" lon="6.57163">
        <ele>1992.8</ele>
        <time>2022-08-05T08:02:29+0200</time>
      </trkpt>
      <trkpt lat="44.91556" lon="6.57152">
        <ele>1992.9</ele>
        <time>2022-08-05T08:02:31+0200</time>
      </trkpt>
      <trkpt lat="44.91554" lon="6.57143">
        <ele>1992.8</ele>
        <time>2022-08-05T08:02:33+0200</time>
      </trkpt>
      <trkpt lat="44.91552" lon="6.57136">
        <ele>1993</ele>
        <time>2022-08-05T08:02:35+0200</time>
      </trkpt>
      <trkpt lat="44.9155" lon="6.57128">
        <ele>1993.3</ele>
        <time>2022-08-05T08:02:37+0200</time>
      </trkpt>
      <trkpt lat="44.9155" lon="6.57119">
        <ele>1993</ele>
        <time>2022-08-05T08:02:39+0200</time>
      </trkpt>
      <trkpt lat="44.91549" lon="6.57111">
        <ele>1992.8</ele>
        <time>2022-08-05T08:02:41+0200</time>
      </trkpt>
      <trkpt lat="44.91547" lon="6.57103">
        <ele>1993.3</ele>
        <time>2022-08-05T08:02:43+0200</time>
      </trkpt>
      <trkpt lat="44.91542" lon="6.57094">
        <ele>1994.5</ele>
        <time>2022-08-05T08:02:46+0200</time>
      </trkpt>
      <trkpt lat="44.91539" lon="6.57088">
        <ele>1995.3</ele>
        <time>2022-08-05T08:02:48+0200</time>
      </trkpt>
      <trkpt lat="44.91534" lon="6.57082">
        <ele>1996.5</ele>
        <time>2022-08-05T08:02:50+0200</time>
      </trkpt>
      <trkpt lat="44.91528" lon="6.57077">
        <ele>1998.5</ele>
        <time>2022-08-05T08:02:52+0200</time>
      </trkpt>
      <trkpt lat="44.91522" lon="6.57072">
        <ele>2000.1</ele>
        <time>2022-08-05T08:02:54+0200</time>
      </trkpt>
      <trkpt lat="44.91517" lon="6.57068">
        <ele>2001.3</ele>
        <time>2022-08-05T08:02:56+0200</time>
      </trkpt>
      <trkpt lat="44.91511" lon="6.57064">
        <ele>2002.8</ele>
        <time>2022-08-05T08:02:58+0200</time>
      </trkpt>
      <trkpt lat="44.91508" lon="6.57058">
        <ele>2003.4</ele>
        <time>2022-08-05T08:03:00+0200</time>
      </trkpt>
      <trkpt lat="44.91505" lon="6.57051">
        <ele>2004.6</ele>
        <time>2022-08-05T08:03:03+0200</time>
      </trkpt>
      <trkpt lat="44.91503" lon="6.57045">
        <ele>2005.7</ele>
        <time>2022-08-05T08:03:06+0200</time>
      </trkpt>
      <trkpt lat="44.915" lon="6.57052">
        <ele>2005.4</ele>
        <time>2022-08-05T08:03:16+0200</time>
      </trkpt>
      <trkpt lat="44.91504" lon="6.57056">
        <ele>2004.3</ele>
        <time>2022-08-05T08:03:33+0200</time>
      </trkpt>
      <trkpt lat="44.91503" lon="6.5705">
        <ele>2005.2</ele>
        <time>2022-08-05T08:04:05+0200</time>
      </trkpt>
      <trkpt lat="44.915" lon="6.57044">
        <ele>2006.2</ele>
        <time>2022-08-05T08:05:21+0200</time>
      </trkpt>
      <trkpt lat="44.915" lon="6.57037">
        <ele>2007</ele>
        <time>2022-08-05T08:05:38+0200</time>
      </trkpt>
      <trkpt lat="44.91499" lon="6.57028">
        <ele>2008.1</ele>
        <time>2022-08-05T08:05:41+0200</time>
      </trkpt>
      <trkpt lat="44.91499" lon="6.57021">
        <ele>2008.9</ele>
        <time>2022-08-05T08:05:43+0200</time>
      </trkpt>
      <trkpt lat="44.91503" lon="6.57011">
        <ele>2009.7</ele>
        <time>2022-08-05T08:05:45+0200</time>
      </trkpt>
      <trkpt lat="44.91506" lon="6.57007">
        <ele>2010.1</ele>
        <time>2022-08-05T08:05:46+0200</time>
      </trkpt>
      <trkpt lat="44.91509" lon="6.56999">
        <ele>2011.1</ele>
        <time>2022-08-05T08:05:48+0200</time>
      </trkpt>
      <trkpt lat="44.91512" lon="6.56994">
        <ele>2012.1</ele>
        <time>2022-08-05T08:05:50+0200</time>
      </trkpt>
      <trkpt lat="44.91517" lon="6.5699">
        <ele>2013</ele>
        <time>2022-08-05T08:05:54+0200</time>
      </trkpt>
      <trkpt lat="44.91522" lon="6.56991">
        <ele>2012.7</ele>
        <time>2022-08-05T08:05:57+0200</time>
      </trkpt>
      <trkpt lat="44.91528" lon="6.5699">
        <ele>2013.1</ele>
        <time>2022-08-05T08:05:59+0200</time>
      </trkpt>
      <trkpt lat="44.91534" lon="6.5699">
        <ele>2013.7</ele>
        <time>2022-08-05T08:06:02+0200</time>
      </trkpt>
      <trkpt lat="44.9154" lon="6.5699">
        <ele>2014</ele>
        <time>2022-08-05T08:06:05+0200</time>
      </trkpt>
      <trkpt lat="44.91547" lon="6.5699">
        <ele>2014.5</ele>
        <time>2022-08-05T08:06:08+0200</time>
      </trkpt>
      <trkpt lat="44.91551" lon="6.5699">
        <ele>2014.8</ele>
        <time>2022-08-05T08:06:10+0200</time>
      </trkpt>
      <trkpt lat="44.91556" lon="6.5699">
        <ele>2015.1</ele>
        <time>2022-08-05T08:06:12+0200</time>
      </trkpt>
      <trkpt lat="44.91563" lon="6.56991">
        <ele>2016</ele>
        <time>2022-08-05T08:06:15+0200</time>
      </trkpt>
      <trkpt lat="44.91568" lon="6.56991">
        <ele>2016.8</ele>
        <time>2022-08-05T08:06:17+0200</time>
      </trkpt>
      <trkpt lat="44.91574" lon="6.56989">
        <ele>2018</ele>
        <time>2022-08-05T08:06:20+0200</time>
      </trkpt>
      <trkpt lat="44.9158" lon="6.56988">
        <ele>2018.8</ele>
        <time>2022-08-05T08:06:22+0200</time>
      </trkpt>
      <trkpt lat="44.91586" lon="6.56987">
        <ele>2019.1</ele>
        <time>2022-08-05T08:06:25+0200</time>
      </trkpt>
      <trkpt lat="44.91593" lon="6.56983">
        <ele>2019</ele>
        <time>2022-08-05T08:06:28+0200</time>
      </trkpt>
      <trkpt lat="44.91599" lon="6.56978">
        <ele>2019.2</ele>
        <time>2022-08-05T08:06:31+0200</time>
      </trkpt>
      <trkpt lat="44.91601" lon="6.56972">
        <ele>2019.7</ele>
        <time>2022-08-05T08:06:33+0200</time>
      </trkpt>
      <trkpt lat="44.91604" lon="6.56967">
        <ele>2020.1</ele>
        <time>2022-08-05T08:06:35+0200</time>
      </trkpt>
      <trkpt lat="44.91608" lon="6.56961">
        <ele>2020.5</ele>
        <time>2022-08-05T08:06:37+0200</time>
      </trkpt>
      <trkpt lat="44.91609" lon="6.56953">
        <ele>2021.2</ele>
        <time>2022-08-05T08:06:39+0200</time>
      </trkpt>
      <trkpt lat="44.91611" lon="6.56945">
        <ele>2022</ele>
        <time>2022-08-05T08:06:42+0200</time>
      </trkpt>
      <trkpt lat="44.91611" lon="6.56938">
        <ele>2022.5</ele>
        <time>2022-08-05T08:06:44+0200</time>
      </trkpt>
      <trkpt lat="44.91609" lon="6.56932">
        <ele>2023.1</ele>
        <time>2022-08-05T08:06:46+0200</time>
      </trkpt>
      <trkpt lat="44.91608" lon="6.56923">
        <ele>2023.9</ele>
        <time>2022-08-05T08:06:49+0200</time>
      </trkpt>
      <trkpt lat="44.91608" lon="6.56915">
        <ele>2024.5</ele>
        <time>2022-08-05T08:06:51+0200</time>
      </trkpt>
      <trkpt lat="44.91607" lon="6.56906">
        <ele>2025.2</ele>
        <time>2022-08-05T08:06:53+0200</time>
      </trkpt>
      <trkpt lat="44.9161" lon="6.56898">
        <ele>2025.4</ele>
        <time>2022-08-05T08:06:55+0200</time>
      </trkpt>
      <trkpt lat="44.91615" lon="6.56893">
        <ele>2026</ele>
        <time>2022-08-05T08:06:57+0200</time>
      </trkpt>
      <trkpt lat="44.91622" lon="6.56893">
        <ele>2026.7</ele>
        <time>2022-08-05T08:06:59+0200</time>
      </trkpt>
      <trkpt lat="44.91627" lon="6.56896">
        <ele>2026.8</ele>
        <time>2022-08-05T08:07:01+0200</time>
      </trkpt>
      <trkpt lat="44.91633" lon="6.56901">
        <ele>2026.5</ele>
        <time>2022-08-05T08:07:03+0200</time>
      </trkpt>
      <trkpt lat="44.91638" lon="6.56906">
        <ele>2025.9</ele>
        <time>2022-08-05T08:07:05+0200</time>
      </trkpt>
      <trkpt lat="44.91644" lon="6.5691">
        <ele>2025.7</ele>
        <time>2022-08-05T08:07:07+0200</time>
      </trkpt>
      <trkpt lat="44.91649" lon="6.56915">
        <ele>2025.4</ele>
        <time>2022-08-05T08:07:09+0200</time>
      </trkpt>
      <trkpt lat="44.91655" lon="6.56919">
        <ele>2025.3</ele>
        <time>2022-08-05T08:07:11+0200</time>
      </trkpt>
      <trkpt lat="44.91659" lon="6.56924">
        <ele>2024.8</ele>
        <time>2022-08-05T08:07:13+0200</time>
      </trkpt>
      <trkpt lat="44.91666" lon="6.56926">
        <ele>2025</ele>
        <time>2022-08-05T08:07:15+0200</time>
      </trkpt>
      <trkpt lat="44.91671" lon="6.56923">
        <ele>2026.3</ele>
        <time>2022-08-05T08:07:17+0200</time>
      </trkpt>
      <trkpt lat="44.91675" lon="6.56917">
        <ele>2028.1</ele>
        <time>2022-08-05T08:07:19+0200</time>
      </trkpt>
      <trkpt lat="44.91674" lon="6.56908">
        <ele>2029.8</ele>
        <time>2022-08-05T08:07:22+0200</time>
      </trkpt>
      <trkpt lat="44.91672" lon="6.56903">
        <ele>2030.4</ele>
        <time>2022-08-05T08:07:27+0200</time>
      </trkpt>
      <trkpt lat="44.91667" lon="6.56901">
        <ele>2030</ele>
        <time>2022-08-05T08:07:31+0200</time>
      </trkpt>
      <trkpt lat="44.91662" lon="6.56897">
        <ele>2029.9</ele>
        <time>2022-08-05T08:07:33+0200</time>
      </trkpt>
      <trkpt lat="44.91657" lon="6.56894">
        <ele>2030</ele>
        <time>2022-08-05T08:07:35+0200</time>
      </trkpt>
      <trkpt lat="44.91653" lon="6.56892">
        <ele>2029.8</ele>
        <time>2022-08-05T08:07:37+0200</time>
      </trkpt>
      <trkpt lat="44.91647" lon="6.56888">
        <ele>2030.1</ele>
        <time>2022-08-05T08:07:40+0200</time>
      </trkpt>
      <trkpt lat="44.91643" lon="6.56881">
        <ele>2030.6</ele>
        <time>2022-08-05T08:07:43+0200</time>
      </trkpt>
      <trkpt lat="44.91639" lon="6.56876">
        <ele>2030.9</ele>
        <time>2022-08-05T08:07:46+0200</time>
      </trkpt>
      <trkpt lat="44.91638" lon="6.5687">
        <ele>2031.7</ele>
        <time>2022-08-05T08:07:48+0200</time>
      </trkpt>
      <trkpt lat="44.91635" lon="6.56862">
        <ele>2032.4</ele>
        <time>2022-08-05T08:07:51+0200</time>
      </trkpt>
      <trkpt lat="44.91634" lon="6.56855">
        <ele>2033.8</ele>
        <time>2022-08-05T08:07:54+0200</time>
      </trkpt>
      <trkpt lat="44.91632" lon="6.56847">
        <ele>2035.1</ele>
        <time>2022-08-05T08:07:57+0200</time>
      </trkpt>
      <trkpt lat="44.91629" lon="6.56842">
        <ele>2035.7</ele>
        <time>2022-08-05T08:08:00+0200</time>
      </trkpt>
      <trkpt lat="44.91626" lon="6.56835">
        <ele>2036.5</ele>
        <time>2022-08-05T08:08:03+0200</time>
      </trkpt>
      <trkpt lat="44.91622" lon="6.56828">
        <ele>2037</ele>
        <time>2022-08-05T08:08:07+0200</time>
      </trkpt>
      <trkpt lat="44.91618" lon="6.56822">
        <ele>2037.7</ele>
        <time>2022-08-05T08:08:09+0200</time>
      </trkpt>
      <trkpt lat="44.91615" lon="6.56818">
        <ele>2038</ele>
        <time>2022-08-05T08:08:11+0200</time>
      </trkpt>
      <trkpt lat="44.91612" lon="6.56813">
        <ele>2038.7</ele>
        <time>2022-08-05T08:08:14+0200</time>
      </trkpt>
      <trkpt lat="44.91608" lon="6.56808">
        <ele>2039.6</ele>
        <time>2022-08-05T08:08:18+0200</time>
      </trkpt>
      <trkpt lat="44.91602" lon="6.56807">
        <ele>2040.1</ele>
        <time>2022-08-05T08:08:23+0200</time>
      </trkpt>
      <trkpt lat="44.91597" lon="6.56806">
        <ele>2040.4</ele>
        <time>2022-08-05T08:08:28+0200</time>
      </trkpt>
      <trkpt lat="44.91591" lon="6.56806">
        <ele>2040.7</ele>
        <time>2022-08-05T08:08:30+0200</time>
      </trkpt>
      <trkpt lat="44.91583" lon="6.56807">
        <ele>2040.6</ele>
        <time>2022-08-05T08:08:32+0200</time>
      </trkpt>
      <trkpt lat="44.91577" lon="6.56807">
        <ele>2041.1</ele>
        <time>2022-08-05T08:08:34+0200</time>
      </trkpt>
      <trkpt lat="44.91571" lon="6.56807">
        <ele>2041.5</ele>
        <time>2022-08-05T08:08:36+0200</time>
      </trkpt>
      <trkpt lat="44.91567" lon="6.56804">
        <ele>2042.4</ele>
        <time>2022-08-05T08:08:39+0200</time>
      </trkpt>
      <trkpt lat="44.91563" lon="6.56802">
        <ele>2042.9</ele>
        <time>2022-08-05T08:08:41+0200</time>
      </trkpt>
      <trkpt lat="44.91564" lon="6.56796">
        <ele>2043.7</ele>
        <time>2022-08-05T08:08:47+0200</time>
      </trkpt>
      <trkpt lat="44.91569" lon="6.56792">
        <ele>2044</ele>
        <time>2022-08-05T08:08:51+0200</time>
      </trkpt>
      <trkpt lat="44.91573" lon="6.56789">
        <ele>2044.3</ele>
        <time>2022-08-05T08:08:54+0200</time>
      </trkpt>
      <trkpt lat="44.91577" lon="6.56786">
        <ele>2044.6</ele>
        <time>2022-08-05T08:08:58+0200</time>
      </trkpt>
      <trkpt lat="44.91581" lon="6.5678">
        <ele>2045.6</ele>
        <time>2022-08-05T08:09:02+0200</time>
      </trkpt>
      <trkpt lat="44.91584" lon="6.56775">
        <ele>2046.6</ele>
        <time>2022-08-05T08:09:05+0200</time>
      </trkpt>
      <trkpt lat="44.91589" lon="6.5677">
        <ele>2048</ele>
        <time>2022-08-05T08:09:09+0200</time>
      </trkpt>
      <trkpt lat="44.91593" lon="6.56766">
        <ele>2049.2</ele>
        <time>2022-08-05T08:09:12+0200</time>
      </trkpt>
      <trkpt lat="44.91598" lon="6.56764">
        <ele>2050.2</ele>
        <time>2022-08-05T08:09:16+0200</time>
      </trkpt>
      <trkpt lat="44.91604" lon="6.56763">
        <ele>2050.7</ele>
        <time>2022-08-05T08:09:20+0200</time>
      </trkpt>
      <trkpt lat="44.91609" lon="6.56762">
        <ele>2051.3</ele>
        <time>2022-08-05T08:09:24+0200</time>
      </trkpt>
      <trkpt lat="44.91614" lon="6.56763">
        <ele>2051.7</ele>
        <time>2022-08-05T08:09:27+0200</time>
      </trkpt>
      <trkpt lat="44.9162" lon="6.56767">
        <ele>2051.4</ele>
        <time>2022-08-05T08:09:31+0200</time>
      </trkpt>
      <trkpt lat="44.91624" lon="6.56771">
        <ele>2050.8</ele>
        <time>2022-08-05T08:09:34+0200</time>
      </trkpt>
      <trkpt lat="44.91629" lon="6.56773">
        <ele>2051</ele>
        <time>2022-08-05T08:09:36+0200</time>
      </trkpt>
      <trkpt lat="44.91634" lon="6.56774">
        <ele>2051.3</ele>
        <time>2022-08-05T08:09:38+0200</time>
      </trkpt>
      <trkpt lat="44.91639" lon="6.56777">
        <ele>2051.5</ele>
        <time>2022-08-05T08:09:40+0200</time>
      </trkpt>
      <trkpt lat="44.91646" lon="6.56776">
        <ele>2052.9</ele>
        <time>2022-08-05T08:09:42+0200</time>
      </trkpt>
      <trkpt lat="44.91651" lon="6.56777">
        <ele>2053.9</ele>
        <time>2022-08-05T08:09:44+0200</time>
      </trkpt>
      <trkpt lat="44.91656" lon="6.56777">
        <ele>2054.7</ele>
        <time>2022-08-05T08:09:46+0200</time>
      </trkpt>
      <trkpt lat="44.91661" lon="6.56778">
        <ele>2055.7</ele>
        <time>2022-08-05T08:09:48+0200</time>
      </trkpt>
      <trkpt lat="44.91666" lon="6.5678">
        <ele>2056.5</ele>
        <time>2022-08-05T08:09:52+0200</time>
      </trkpt>
      <trkpt lat="44.91671" lon="6.56779">
        <ele>2057.3</ele>
        <time>2022-08-05T08:09:55+0200</time>
      </trkpt>
      <trkpt lat="44.91676" lon="6.56779">
        <ele>2058.2</ele>
        <time>2022-08-05T08:09:58+0200</time>
      </trkpt>
      <trkpt lat="44.91681" lon="6.56777">
        <ele>2059.2</ele>
        <time>2022-08-05T08:10:01+0200</time>
      </trkpt>
      <trkpt lat="44.91688" lon="6.56775">
        <ele>2060.8</ele>
        <time>2022-08-05T08:10:04+0200</time>
      </trkpt>
      <trkpt lat="44.91693" lon="6.56774">
        <ele>2061.9</ele>
        <time>2022-08-05T08:10:07+0200</time>
      </trkpt>
      <trkpt lat="44.91698" lon="6.56775">
        <ele>2062.5</ele>
        <time>2022-08-05T08:10:10+0200</time>
      </trkpt>
      <trkpt lat="44.91703" lon="6.56775">
        <ele>2063.6</ele>
        <time>2022-08-05T08:10:13+0200</time>
      </trkpt>
      <trkpt lat="44.91709" lon="6.56778">
        <ele>2064.2</ele>
        <time>2022-08-05T08:10:17+0200</time>
      </trkpt>
      <trkpt lat="44.91714" lon="6.5678">
        <ele>2064.7</ele>
        <time>2022-08-05T08:10:20+0200</time>
      </trkpt>
      <trkpt lat="44.91718" lon="6.56782">
        <ele>2065.2</ele>
        <time>2022-08-05T08:10:22+0200</time>
      </trkpt>
      <trkpt lat="44.91724" lon="6.56785">
        <ele>2066</ele>
        <time>2022-08-05T08:10:26+0200</time>
      </trkpt>
      <trkpt lat="44.9173" lon="6.5679">
        <ele>2066</ele>
        <time>2022-08-05T08:10:29+0200</time>
      </trkpt>
      <trkpt lat="44.91735" lon="6.56795">
        <ele>2066.1</ele>
        <time>2022-08-05T08:10:32+0200</time>
      </trkpt>
      <trkpt lat="44.9174" lon="6.56798">
        <ele>2066.6</ele>
        <time>2022-08-05T08:10:35+0200</time>
      </trkpt>
      <trkpt lat="44.91745" lon="6.56801">
        <ele>2066.8</ele>
        <time>2022-08-05T08:10:37+0200</time>
      </trkpt>
      <trkpt lat="44.9175" lon="6.56805">
        <ele>2067.3</ele>
        <time>2022-08-05T08:10:40+0200</time>
      </trkpt>
      <trkpt lat="44.91757" lon="6.56808">
        <ele>2068.4</ele>
        <time>2022-08-05T08:10:43+0200</time>
      </trkpt>
      <trkpt lat="44.91764" lon="6.56811">
        <ele>2069.5</ele>
        <time>2022-08-05T08:10:46+0200</time>
      </trkpt>
      <trkpt lat="44.9177" lon="6.56812">
        <ele>2070.9</ele>
        <time>2022-08-05T08:10:49+0200</time>
      </trkpt>
      <trkpt lat="44.91773" lon="6.56807">
        <ele>2072.6</ele>
        <time>2022-08-05T08:10:51+0200</time>
      </trkpt>
      <trkpt lat="44.91777" lon="6.568">
        <ele>2074.9</ele>
        <time>2022-08-05T08:10:54+0200</time>
      </trkpt>
      <trkpt lat="44.91775" lon="6.56793">
        <ele>2075.8</ele>
        <time>2022-08-05T08:10:58+0200</time>
      </trkpt>
      <trkpt lat="44.9177" lon="6.56788">
        <ele>2075.7</ele>
        <time>2022-08-05T08:11:02+0200</time>
      </trkpt>
      <trkpt lat="44.91767" lon="6.56783">
        <ele>2076</ele>
        <time>2022-08-05T08:11:06+0200</time>
      </trkpt>
      <trkpt lat="44.91762" lon="6.56779">
        <ele>2075.9</ele>
        <time>2022-08-05T08:11:10+0200</time>
      </trkpt>
      <trkpt lat="44.91758" lon="6.56773">
        <ele>2076.5</ele>
        <time>2022-08-05T08:11:14+0200</time>
      </trkpt>
      <trkpt lat="44.91754" lon="6.56769">
        <ele>2076.6</ele>
        <time>2022-08-05T08:11:17+0200</time>
      </trkpt>
      <trkpt lat="44.9175" lon="6.56764">
        <ele>2077</ele>
        <time>2022-08-05T08:11:20+0200</time>
      </trkpt>
      <trkpt lat="44.91745" lon="6.5676">
        <ele>2077.1</ele>
        <time>2022-08-05T08:11:23+0200</time>
      </trkpt>
      <trkpt lat="44.91742" lon="6.56756">
        <ele>2077.5</ele>
        <time>2022-08-05T08:11:26+0200</time>
      </trkpt>
      <trkpt lat="44.91735" lon="6.56755">
        <ele>2076.2</ele>
        <time>2022-08-05T08:11:30+0200</time>
      </trkpt>
      <trkpt lat="44.9173" lon="6.56753">
        <ele>2075.9</ele>
        <time>2022-08-05T08:11:33+0200</time>
      </trkpt>
      <trkpt lat="44.91724" lon="6.56749">
        <ele>2075.7</ele>
        <time>2022-08-05T08:11:36+0200</time>
      </trkpt>
      <trkpt lat="44.91719" lon="6.56745">
        <ele>2076</ele>
        <time>2022-08-05T08:11:39+0200</time>
      </trkpt>
      <trkpt lat="44.91716" lon="6.56738">
        <ele>2077.9</ele>
        <time>2022-08-05T08:11:41+0200</time>
      </trkpt>
      <trkpt lat="44.91712" lon="6.56733">
        <ele>2079.1</ele>
        <time>2022-08-05T08:11:44+0200</time>
      </trkpt>
      <trkpt lat="44.91708" lon="6.56729">
        <ele>2079.4</ele>
        <time>2022-08-05T08:11:46+0200</time>
      </trkpt>
      <trkpt lat="44.91703" lon="6.56725">
        <ele>2079.9</ele>
        <time>2022-08-05T08:11:49+0200</time>
      </trkpt>
      <trkpt lat="44.91699" lon="6.56721">
        <ele>2080.5</ele>
        <time>2022-08-05T08:11:51+0200</time>
      </trkpt>
      <trkpt lat="44.91694" lon="6.56716">
        <ele>2080.7</ele>
        <time>2022-08-05T08:11:54+0200</time>
      </trkpt>
      <trkpt lat="44.91691" lon="6.56711">
        <ele>2081.5</ele>
        <time>2022-08-05T08:11:57+0200</time>
      </trkpt>
      <trkpt lat="44.91687" lon="6.56704">
        <ele>2082.8</ele>
        <time>2022-08-05T08:12:00+0200</time>
      </trkpt>
      <trkpt lat="44.91684" lon="6.56698">
        <ele>2083.8</ele>
        <time>2022-08-05T08:12:03+0200</time>
      </trkpt>
      <trkpt lat="44.91681" lon="6.56693">
        <ele>2084.8</ele>
        <time>2022-08-05T08:12:05+0200</time>
      </trkpt>
      <trkpt lat="44.91677" lon="6.56688">
        <ele>2085.3</ele>
        <time>2022-08-05T08:12:08+0200</time>
      </trkpt>
      <trkpt lat="44.91674" lon="6.56681">
        <ele>2086.3</ele>
        <time>2022-08-05T08:12:11+0200</time>
      </trkpt>
      <trkpt lat="44.91671" lon="6.56675">
        <ele>2087</ele>
        <time>2022-08-05T08:12:14+0200</time>
      </trkpt>
      <trkpt lat="44.91666" lon="6.56669">
        <ele>2087.4</ele>
        <time>2022-08-05T08:12:17+0200</time>
      </trkpt>
      <trkpt lat="44.91665" lon="6.56662">
        <ele>2088.7</ele>
        <time>2022-08-05T08:12:20+0200</time>
      </trkpt>
      <trkpt lat="44.91662" lon="6.56655">
        <ele>2089.6</ele>
        <time>2022-08-05T08:12:23+0200</time>
      </trkpt>
      <trkpt lat="44.91658" lon="6.56648">
        <ele>2090.1</ele>
        <time>2022-08-05T08:12:26+0200</time>
      </trkpt>
      <trkpt lat="44.91655" lon="6.56642">
        <ele>2090.8</ele>
        <time>2022-08-05T08:12:29+0200</time>
      </trkpt>
      <trkpt lat="44.91653" lon="6.56635">
        <ele>2091.8</ele>
        <time>2022-08-05T08:12:33+0200</time>
      </trkpt>
      <trkpt lat="44.91652" lon="6.56628">
        <ele>2092.5</ele>
        <time>2022-08-05T08:12:36+0200</time>
      </trkpt>
      <trkpt lat="44.9165" lon="6.56621">
        <ele>2093.4</ele>
        <time>2022-08-05T08:12:40+0200</time>
      </trkpt>
      <trkpt lat="44.91649" lon="6.56614">
        <ele>2094.2</ele>
        <time>2022-08-05T08:12:43+0200</time>
      </trkpt>
      <trkpt lat="44.91647" lon="6.56608">
        <ele>2094.8</ele>
        <time>2022-08-05T08:12:46+0200</time>
      </trkpt>
      <trkpt lat="44.91644" lon="6.56601">
        <ele>2095.5</ele>
        <time>2022-08-05T08:12:49+0200</time>
      </trkpt>
      <trkpt lat="44.91641" lon="6.56596">
        <ele>2095.9</ele>
        <time>2022-08-05T08:12:52+0200</time>
      </trkpt>
      <trkpt lat="44.91639" lon="6.5659">
        <ele>2096.6</ele>
        <time>2022-08-05T08:12:55+0200</time>
      </trkpt>
      <trkpt lat="44.91634" lon="6.56583">
        <ele>2097.1</ele>
        <time>2022-08-05T08:12:59+0200</time>
      </trkpt>
      <trkpt lat="44.91631" lon="6.5658">
        <ele>2097</ele>
        <time>2022-08-05T08:13:02+0200</time>
      </trkpt>
      <trkpt lat="44.91626" lon="6.56574">
        <ele>2097.5</ele>
        <time>2022-08-05T08:13:06+0200</time>
      </trkpt>
      <trkpt lat="44.91622" lon="6.5657">
        <ele>2097.8</ele>
        <time>2022-08-05T08:13:10+0200</time>
      </trkpt>
      <trkpt lat="44.91617" lon="6.56569">
        <ele>2097</ele>
        <time>2022-08-05T08:13:13+0200</time>
      </trkpt>
      <trkpt lat="44.91611" lon="6.56565">
        <ele>2096.7</ele>
        <time>2022-08-05T08:13:16+0200</time>
      </trkpt>
      <trkpt lat="44.91606" lon="6.56561">
        <ele>2097</ele>
        <time>2022-08-05T08:13:19+0200</time>
      </trkpt>
      <trkpt lat="44.91601" lon="6.56556">
        <ele>2097.8</ele>
        <time>2022-08-05T08:13:22+0200</time>
      </trkpt>
      <trkpt lat="44.91596" lon="6.56553">
        <ele>2098.2</ele>
        <time>2022-08-05T08:13:25+0200</time>
      </trkpt>
      <trkpt lat="44.91592" lon="6.56549">
        <ele>2098.8</ele>
        <time>2022-08-05T08:13:28+0200</time>
      </trkpt>
      <trkpt lat="44.91588" lon="6.56545">
        <ele>2099.6</ele>
        <time>2022-08-05T08:13:32+0200</time>
      </trkpt>
      <trkpt lat="44.91585" lon="6.56539">
        <ele>2100.8</ele>
        <time>2022-08-05T08:13:36+0200</time>
      </trkpt>
      <trkpt lat="44.91581" lon="6.56535">
        <ele>2101.7</ele>
        <time>2022-08-05T08:13:39+0200</time>
      </trkpt>
      <trkpt lat="44.91577" lon="6.56531">
        <ele>2102.9</ele>
        <time>2022-08-05T08:13:43+0200</time>
      </trkpt>
      <trkpt lat="44.91572" lon="6.56528">
        <ele>2103.5</ele>
        <time>2022-08-05T08:13:47+0200</time>
      </trkpt>
      <trkpt lat="44.91568" lon="6.56524">
        <ele>2104.5</ele>
        <time>2022-08-05T08:13:50+0200</time>
      </trkpt>
      <trkpt lat="44.91571" lon="6.5652">
        <ele>2106</ele>
        <time>2022-08-05T08:14:01+0200</time>
      </trkpt>
      <trkpt lat="44.91577" lon="6.56518">
        <ele>2106.9</ele>
        <time>2022-08-05T08:14:05+0200</time>
      </trkpt>
      <trkpt lat="44.91582" lon="6.56517">
        <ele>2107.3</ele>
        <time>2022-08-05T08:14:11+0200</time>
      </trkpt>
      <trkpt lat="44.91587" lon="6.5652">
        <ele>2107.1</ele>
        <time>2022-08-05T08:14:15+0200</time>
      </trkpt>
      <trkpt lat="44.91592" lon="6.56521">
        <ele>2107.5</ele>
        <time>2022-08-05T08:14:19+0200</time>
      </trkpt>
      <trkpt lat="44.91596" lon="6.56522">
        <ele>2107.6</ele>
        <time>2022-08-05T08:14:23+0200</time>
      </trkpt>
      <trkpt lat="44.91602" lon="6.56526">
        <ele>2107.3</ele>
        <time>2022-08-05T08:14:26+0200</time>
      </trkpt>
      <trkpt lat="44.91607" lon="6.56528">
        <ele>2107.2</ele>
        <time>2022-08-05T08:14:28+0200</time>
      </trkpt>
      <trkpt lat="44.91613" lon="6.56531">
        <ele>2107.4</ele>
        <time>2022-08-05T08:14:31+0200</time>
      </trkpt>
      <trkpt lat="44.91618" lon="6.56533">
        <ele>2107.8</ele>
        <time>2022-08-05T08:14:33+0200</time>
      </trkpt>
      <trkpt lat="44.91623" lon="6.56534">
        <ele>2108.5</ele>
        <time>2022-08-05T08:14:35+0200</time>
      </trkpt>
      <trkpt lat="44.91629" lon="6.56536">
        <ele>2109.3</ele>
        <time>2022-08-05T08:14:37+0200</time>
      </trkpt>
      <trkpt lat="44.91634" lon="6.56537">
        <ele>2109.9</ele>
        <time>2022-08-05T08:14:39+0200</time>
      </trkpt>
      <trkpt lat="44.91639" lon="6.56537">
        <ele>2111</ele>
        <time>2022-08-05T08:14:41+0200</time>
      </trkpt>
      <trkpt lat="44.91643" lon="6.56538">
        <ele>2111.9</ele>
        <time>2022-08-05T08:14:43+0200</time>
      </trkpt>
      <trkpt lat="44.91648" lon="6.56538">
        <ele>2113</ele>
        <time>2022-08-05T08:14:45+0200</time>
      </trkpt>
      <trkpt lat="44.91653" lon="6.56539">
        <ele>2113.9</ele>
        <time>2022-08-05T08:14:47+0200</time>
      </trkpt>
      <trkpt lat="44.91659" lon="6.5654">
        <ele>2115.4</ele>
        <time>2022-08-05T08:14:50+0200</time>
      </trkpt>
      <trkpt lat="44.91664" lon="6.56542">
        <ele>2116.2</ele>
        <time>2022-08-05T08:14:53+0200</time>
      </trkpt>
      <trkpt lat="44.91669" lon="6.56545">
        <ele>2117</ele>
        <time>2022-08-05T08:14:56+0200</time>
      </trkpt>
      <trkpt lat="44.91675" lon="6.56546">
        <ele>2118.5</ele>
        <time>2022-08-05T08:15:01+0200</time>
      </trkpt>
      <trkpt lat="44.9168" lon="6.5655">
        <ele>2119.1</ele>
        <time>2022-08-05T08:15:04+0200</time>
      </trkpt>
      <trkpt lat="44.91685" lon="6.56554">
        <ele>2119.4</ele>
        <time>2022-08-05T08:15:08+0200</time>
      </trkpt>
      <trkpt lat="44.91689" lon="6.56558">
        <ele>2119.6</ele>
        <time>2022-08-05T08:15:11+0200</time>
      </trkpt>
      <trkpt lat="44.91693" lon="6.56562">
        <ele>2120</ele>
        <time>2022-08-05T08:15:14+0200</time>
      </trkpt>
      <trkpt lat="44.91697" lon="6.56568">
        <ele>2120</ele>
        <time>2022-08-05T08:15:17+0200</time>
      </trkpt>
      <trkpt lat="44.91701" lon="6.56573">
        <ele>2120.3</ele>
        <time>2022-08-05T08:15:19+0200</time>
      </trkpt>
      <trkpt lat="44.91706" lon="6.56578">
        <ele>2120.7</ele>
        <time>2022-08-05T08:15:21+0200</time>
      </trkpt>
      <trkpt lat="44.9171" lon="6.56582">
        <ele>2121</ele>
        <time>2022-08-05T08:15:23+0200</time>
      </trkpt>
      <trkpt lat="44.91714" lon="6.56587">
        <ele>2120.9</ele>
        <time>2022-08-05T08:15:25+0200</time>
      </trkpt>
      <trkpt lat="44.91718" lon="6.56591">
        <ele>2121.4</ele>
        <time>2022-08-05T08:15:27+0200</time>
      </trkpt>
      <trkpt lat="44.91723" lon="6.56593">
        <ele>2122.4</ele>
        <time>2022-08-05T08:15:29+0200</time>
      </trkpt>
      <trkpt lat="44.91727" lon="6.56597">
        <ele>2122.6</ele>
        <time>2022-08-05T08:15:31+0200</time>
      </trkpt>
      <trkpt lat="44.91731" lon="6.56599">
        <ele>2123.3</ele>
        <time>2022-08-05T08:15:33+0200</time>
      </trkpt>
      <trkpt lat="44.91736" lon="6.56604">
        <ele>2123.6</ele>
        <time>2022-08-05T08:15:36+0200</time>
      </trkpt>
      <trkpt lat="44.91742" lon="6.56607">
        <ele>2124.7</ele>
        <time>2022-08-05T08:15:39+0200</time>
      </trkpt>
      <trkpt lat="44.91748" lon="6.56612">
        <ele>2125</ele>
        <time>2022-08-05T08:15:42+0200</time>
      </trkpt>
      <trkpt lat="44.91752" lon="6.56616">
        <ele>2125</ele>
        <time>2022-08-05T08:15:44+0200</time>
      </trkpt>
      <trkpt lat="44.91757" lon="6.5662">
        <ele>2125</ele>
        <time>2022-08-05T08:17:32+0200</time>
      </trkpt>
      <trkpt lat="44.91755" lon="6.56614">
        <ele>2126.1</ele>
        <time>2022-08-05T08:17:49+0200</time>
      </trkpt>
      <trkpt lat="44.91758" lon="6.56619">
        <ele>2125.6</ele>
        <time>2022-08-05T08:19:14+0200</time>
      </trkpt>
      <trkpt lat="44.91763" lon="6.56621">
        <ele>2126</ele>
        <time>2022-08-05T08:19:19+0200</time>
      </trkpt>
      <trkpt lat="44.91768" lon="6.56623">
        <ele>2126.4</ele>
        <time>2022-08-05T08:19:22+0200</time>
      </trkpt>
      <trkpt lat="44.91773" lon="6.56626">
        <ele>2126.9</ele>
        <time>2022-08-05T08:19:25+0200</time>
      </trkpt>
      <trkpt lat="44.91778" lon="6.56628">
        <ele>2127.3</ele>
        <time>2022-08-05T08:19:28+0200</time>
      </trkpt>
      <trkpt lat="44.91783" lon="6.56628">
        <ele>2127.3</ele>
        <time>2022-08-05T08:19:31+0200</time>
      </trkpt>
      <trkpt lat="44.91788" lon="6.56625">
        <ele>2127.8</ele>
        <time>2022-08-05T08:19:34+0200</time>
      </trkpt>
      <trkpt lat="44.91793" lon="6.56621">
        <ele>2128.3</ele>
        <time>2022-08-05T08:19:37+0200</time>
      </trkpt>
      <trkpt lat="44.91797" lon="6.56616">
        <ele>2128.9</ele>
        <time>2022-08-05T08:19:40+0200</time>
      </trkpt>
      <trkpt lat="44.918" lon="6.56608">
        <ele>2129.8</ele>
        <time>2022-08-05T08:19:43+0200</time>
      </trkpt>
      <trkpt lat="44.91803" lon="6.56602">
        <ele>2130.3</ele>
        <time>2022-08-05T08:19:47+0200</time>
      </trkpt>
      <trkpt lat="44.91805" lon="6.56594">
        <ele>2130.9</ele>
        <time>2022-08-05T08:19:50+0200</time>
      </trkpt>
      <trkpt lat="44.91806" lon="6.56586">
        <ele>2131.5</ele>
        <time>2022-08-05T08:19:53+0200</time>
      </trkpt>
      <trkpt lat="44.91807" lon="6.5658">
        <ele>2131.8</ele>
        <time>2022-08-05T08:19:56+0200</time>
      </trkpt>
      <trkpt lat="44.9181" lon="6.56573">
        <ele>2131.5</ele>
        <time>2022-08-05T08:19:59+0200</time>
      </trkpt>
      <trkpt lat="44.91811" lon="6.56564">
        <ele>2132</ele>
        <time>2022-08-05T08:20:02+0200</time>
      </trkpt>
      <trkpt lat="44.91812" lon="6.56557">
        <ele>2132.4</ele>
        <time>2022-08-05T08:20:05+0200</time>
      </trkpt>
      <trkpt lat="44.91813" lon="6.5655">
        <ele>2132.9</ele>
        <time>2022-08-05T08:20:08+0200</time>
      </trkpt>
      <trkpt lat="44.91814" lon="6.56544">
        <ele>2132.9</ele>
        <time>2022-08-05T08:20:10+0200</time>
      </trkpt>
      <trkpt lat="44.91814" lon="6.56535">
        <ele>2133.7</ele>
        <time>2022-08-05T08:20:13+0200</time>
      </trkpt>
      <trkpt lat="44.91816" lon="6.56526">
        <ele>2133.9</ele>
        <time>2022-08-05T08:20:16+0200</time>
      </trkpt>
      <trkpt lat="44.91818" lon="6.5652">
        <ele>2133.8</ele>
        <time>2022-08-05T08:20:18+0200</time>
      </trkpt>
      <trkpt lat="44.9182" lon="6.56513">
        <ele>2134</ele>
        <time>2022-08-05T08:20:21+0200</time>
      </trkpt>
      <trkpt lat="44.91822" lon="6.56506">
        <ele>2134.2</ele>
        <time>2022-08-05T08:20:24+0200</time>
      </trkpt>
      <trkpt lat="44.91822" lon="6.56498">
        <ele>2134.8</ele>
        <time>2022-08-05T08:20:27+0200</time>
      </trkpt>
      <trkpt lat="44.91825" lon="6.5649">
        <ele>2134.8</ele>
        <time>2022-08-05T08:20:30+0200</time>
      </trkpt>
      <trkpt lat="44.91827" lon="6.56482">
        <ele>2134.9</ele>
        <time>2022-08-05T08:20:33+0200</time>
      </trkpt>
      <trkpt lat="44.91828" lon="6.56472">
        <ele>2135.7</ele>
        <time>2022-08-05T08:20:36+0200</time>
      </trkpt>
      <trkpt lat="44.91831" lon="6.56466">
        <ele>2135.5</ele>
        <time>2022-08-05T08:20:38+0200</time>
      </trkpt>
      <trkpt lat="44.91833" lon="6.56459">
        <ele>2135.7</ele>
        <time>2022-08-05T08:20:40+0200</time>
      </trkpt>
      <trkpt lat="44.91836" lon="6.56455">
        <ele>2135.1</ele>
        <time>2022-08-05T08:20:42+0200</time>
      </trkpt>
      <trkpt lat="44.91839" lon="6.56448">
        <ele>2135</ele>
        <time>2022-08-05T08:20:45+0200</time>
      </trkpt>
      <trkpt lat="44.91842" lon="6.5644">
        <ele>2135.2</ele>
        <time>2022-08-05T08:20:48+0200</time>
      </trkpt>
      <trkpt lat="44.91843" lon="6.56433">
        <ele>2135.8</ele>
        <time>2022-08-05T08:20:51+0200</time>
      </trkpt>
      <trkpt lat="44.91843" lon="6.56426">
        <ele>2136.5</ele>
        <time>2022-08-05T08:20:53+0200</time>
      </trkpt>
      <trkpt lat="44.91843" lon="6.56416">
        <ele>2138</ele>
        <time>2022-08-05T08:20:57+0200</time>
      </trkpt>
      <trkpt lat="44.91844" lon="6.56409">
        <ele>2138.6</ele>
        <time>2022-08-05T08:20:59+0200</time>
      </trkpt>
      <trkpt lat="44.91846" lon="6.56399">
        <ele>2139.1</ele>
        <time>2022-08-05T08:21:02+0200</time>
      </trkpt>
      <trkpt lat="44.91846" lon="6.56392">
        <ele>2140.1</ele>
        <time>2022-08-05T08:21:05+0200</time>
      </trkpt>
      <trkpt lat="44.91849" lon="6.56385">
        <ele>2140.2</ele>
        <time>2022-08-05T08:21:08+0200</time>
      </trkpt>
      <trkpt lat="44.9185" lon="6.56377">
        <ele>2141.3</ele>
        <time>2022-08-05T08:21:11+0200</time>
      </trkpt>
      <trkpt lat="44.9185" lon="6.5637">
        <ele>2142.1</ele>
        <time>2022-08-05T08:21:13+0200</time>
      </trkpt>
      <trkpt lat="44.9185" lon="6.56361">
        <ele>2143.7</ele>
        <time>2022-08-05T08:21:16+0200</time>
      </trkpt>
      <trkpt lat="44.9185" lon="6.56355">
        <ele>2144.7</ele>
        <time>2022-08-05T08:21:18+0200</time>
      </trkpt>
      <trkpt lat="44.91851" lon="6.56349">
        <ele>2145.3</ele>
        <time>2022-08-05T08:21:20+0200</time>
      </trkpt>
      <trkpt lat="44.91853" lon="6.56341">
        <ele>2145.6</ele>
        <time>2022-08-05T08:21:23+0200</time>
      </trkpt>
      <trkpt lat="44.9185" lon="6.56333">
        <ele>2147.9</ele>
        <time>2022-08-05T08:21:29+0200</time>
      </trkpt>
      <trkpt lat="44.91855" lon="6.56333">
        <ele>2146.4</ele>
        <time>2022-08-05T08:22:21+0200</time>
      </trkpt>
      <trkpt lat="44.9185" lon="6.5633">
        <ele>2148.5</ele>
        <time>2022-08-05T08:22:28+0200</time>
      </trkpt>
      <trkpt lat="44.91846" lon="6.56329">
        <ele>2150.3</ele>
        <time>2022-08-05T08:22:42+0200</time>
      </trkpt>
      <trkpt lat="44.9185" lon="6.56326">
        <ele>2149.5</ele>
        <time>2022-08-05T08:22:58+0200</time>
      </trkpt>
      <trkpt lat="44.91853" lon="6.56331">
        <ele>2147.4</ele>
        <time>2022-08-05T08:23:18+0200</time>
      </trkpt>
      <trkpt lat="44.91854" lon="6.56324">
        <ele>2148.3</ele>
        <time>2022-08-05T08:23:40+0200</time>
      </trkpt>
      <trkpt lat="44.91852" lon="6.5633">
        <ele>2147.8</ele>
        <time>2022-08-05T08:23:49+0200</time>
      </trkpt>
      <trkpt lat="44.91857" lon="6.56333">
        <ele>2145.5</ele>
        <time>2022-08-05T08:23:53+0200</time>
      </trkpt>
      <trkpt lat="44.91862" lon="6.56332">
        <ele>2144</ele>
        <time>2022-08-05T08:23:58+0200</time>
      </trkpt>
      <trkpt lat="44.91866" lon="6.56335">
        <ele>2142.5</ele>
        <time>2022-08-05T08:24:03+0200</time>
      </trkpt>
      <trkpt lat="44.9187" lon="6.56332">
        <ele>2142</ele>
        <time>2022-08-05T08:24:05+0200</time>
      </trkpt>
      <trkpt lat="44.91875" lon="6.56334">
        <ele>2140.4</ele>
        <time>2022-08-05T08:24:11+0200</time>
      </trkpt>
      <trkpt lat="44.91878" lon="6.56329">
        <ele>2140.4</ele>
        <time>2022-08-05T08:24:18+0200</time>
      </trkpt>
      <trkpt lat="44.91879" lon="6.56323">
        <ele>2141.2</ele>
        <time>2022-08-05T08:24:24+0200</time>
      </trkpt>
      <trkpt lat="44.91884" lon="6.5632">
        <ele>2140.1</ele>
        <time>2022-08-05T08:24:31+0200</time>
      </trkpt>
      <trkpt lat="44.91889" lon="6.56318">
        <ele>2139.2</ele>
        <time>2022-08-05T08:24:33+0200</time>
      </trkpt>
      <trkpt lat="44.91895" lon="6.56312">
        <ele>2138.8</ele>
        <time>2022-08-05T08:24:35+0200</time>
      </trkpt>
      <trkpt lat="44.91902" lon="6.56313">
        <ele>2137.1</ele>
        <time>2022-08-05T08:24:37+0200</time>
      </trkpt>
      <trkpt lat="44.91908" lon="6.56311">
        <ele>2136.1</ele>
        <time>2022-08-05T08:24:38+0200</time>
      </trkpt>
      <trkpt lat="44.91913" lon="6.56308">
        <ele>2135.5</ele>
        <time>2022-08-05T08:24:39+0200</time>
      </trkpt>
      <trkpt lat="44.91913" lon="6.56316">
        <ele>2134</ele>
        <time>2022-08-05T08:24:46+0200</time>
      </trkpt>
      <trkpt lat="44.91909" lon="6.56318">
        <ele>2134.6</ele>
        <time>2022-08-05T08:24:47+0200</time>
      </trkpt>
      <trkpt lat="44.91906" lon="6.56324">
        <ele>2134.3</ele>
        <time>2022-08-05T08:24:49+0200</time>
      </trkpt>
      <trkpt lat="44.91907" lon="6.56332">
        <ele>2132.9</ele>
        <time>2022-08-05T08:24:50+0200</time>
      </trkpt>
      <trkpt lat="44.91899" lon="6.56335">
        <ele>2134.2</ele>
        <time>2022-08-05T08:24:52+0200</time>
      </trkpt>
      <trkpt lat="44.91893" lon="6.56348">
        <ele>2133.3</ele>
        <time>2022-08-05T08:24:54+0200</time>
      </trkpt>
      <trkpt lat="44.91896" lon="6.56357">
        <ele>2131.1</ele>
        <time>2022-08-05T08:24:55+0200</time>
      </trkpt>
      <trkpt lat="44.91898" lon="6.56367">
        <ele>2128.9</ele>
        <time>2022-08-05T08:24:58+0200</time>
      </trkpt>
      <trkpt lat="44.91903" lon="6.56367">
        <ele>2127.5</ele>
        <time>2022-08-05T08:24:59+0200</time>
      </trkpt>
      <trkpt lat="44.91909" lon="6.56369">
        <ele>2125.7</ele>
        <time>2022-08-05T08:25:01+0200</time>
      </trkpt>
      <trkpt lat="44.91915" lon="6.56372">
        <ele>2123.4</ele>
        <time>2022-08-05T08:25:03+0200</time>
      </trkpt>
      <trkpt lat="44.9192" lon="6.56375">
        <ele>2121.4</ele>
        <time>2022-08-05T08:25:05+0200</time>
      </trkpt>
      <trkpt lat="44.91923" lon="6.56382">
        <ele>2119.2</ele>
        <time>2022-08-05T08:25:07+0200</time>
      </trkpt>
      <trkpt lat="44.91922" lon="6.5639">
        <ele>2118</ele>
        <time>2022-08-05T08:25:11+0200</time>
      </trkpt>
      <trkpt lat="44.9193" lon="6.56395">
        <ele>2114.7</ele>
        <time>2022-08-05T08:25:13+0200</time>
      </trkpt>
      <trkpt lat="44.91938" lon="6.56395">
        <ele>2112.3</ele>
        <time>2022-08-05T08:25:14+0200</time>
      </trkpt>
      <trkpt lat="44.91944" lon="6.5639">
        <ele>2110.8</ele>
        <time>2022-08-05T08:25:15+0200</time>
      </trkpt>
      <trkpt lat="44.91949" lon="6.56391">
        <ele>2109.2</ele>
        <time>2022-08-05T08:25:16+0200</time>
      </trkpt>
      <trkpt lat="44.91955" lon="6.56392">
        <ele>2107.3</ele>
        <time>2022-08-05T08:25:17+0200</time>
      </trkpt>
      <trkpt lat="44.9196" lon="6.56393">
        <ele>2105.4</ele>
        <time>2022-08-05T08:25:18+0200</time>
      </trkpt>
      <trkpt lat="44.91966" lon="6.56399">
        <ele>2102.7</ele>
        <time>2022-08-05T08:25:20+0200</time>
      </trkpt>
      <trkpt lat="44.91968" lon="6.56409">
        <ele>2100.4</ele>
        <time>2022-08-05T08:25:22+0200</time>
      </trkpt>
      <trkpt lat="44.91966" lon="6.56422">
        <ele>2099.2</ele>
        <time>2022-08-05T08:25:24+0200</time>
      </trkpt>
      <trkpt lat="44.91963" lon="6.56427">
        <ele>2099.7</ele>
        <time>2022-08-05T08:25:25+0200</time>
      </trkpt>
      <trkpt lat="44.91967" lon="6.56435">
        <ele>2096.9</ele>
        <time>2022-08-05T08:25:27+0200</time>
      </trkpt>
      <trkpt lat="44.91971" lon="6.56442">
        <ele>2094.8</ele>
        <time>2022-08-05T08:25:28+0200</time>
      </trkpt>
      <trkpt lat="44.91974" lon="6.56449">
        <ele>2093</ele>
        <time>2022-08-05T08:25:29+0200</time>
      </trkpt>
      <trkpt lat="44.91973" lon="6.56461">
        <ele>2092.5</ele>
        <time>2022-08-05T08:25:31+0200</time>
      </trkpt>
      <trkpt lat="44.91971" lon="6.56469">
        <ele>2092.5</ele>
        <time>2022-08-05T08:25:32+0200</time>
      </trkpt>
      <trkpt lat="44.91966" lon="6.56472">
        <ele>2093.8</ele>
        <time>2022-08-05T08:25:33+0200</time>
      </trkpt>
      <trkpt lat="44.91965" lon="6.56483">
        <ele>2093.2</ele>
        <time>2022-08-05T08:25:34+0200</time>
      </trkpt>
      <trkpt lat="44.91964" lon="6.56498">
        <ele>2092.5</ele>
        <time>2022-08-05T08:25:35+0200</time>
      </trkpt>
      <trkpt lat="44.91962" lon="6.56512">
        <ele>2091.8</ele>
        <time>2022-08-05T08:25:36+0200</time>
      </trkpt>
      <trkpt lat="44.9196" lon="6.56527">
        <ele>2091.2</ele>
        <time>2022-08-05T08:25:37+0200</time>
      </trkpt>
      <trkpt lat="44.91957" lon="6.56537">
        <ele>2091.3</ele>
        <time>2022-08-05T08:25:38+0200</time>
      </trkpt>
      <trkpt lat="44.91959" lon="6.56547">
        <ele>2090</ele>
        <time>2022-08-05T08:25:39+0200</time>
      </trkpt>
      <trkpt lat="44.91965" lon="6.56556">
        <ele>2087.8</ele>
        <time>2022-08-05T08:25:40+0200</time>
      </trkpt>
      <trkpt lat="44.91967" lon="6.56569">
        <ele>2085.8</ele>
        <time>2022-08-05T08:25:41+0200</time>
      </trkpt>
      <trkpt lat="44.91962" lon="6.5658">
        <ele>2085.9</ele>
        <time>2022-08-05T08:25:42+0200</time>
      </trkpt>
      <trkpt lat="44.91957" lon="6.56588">
        <ele>2086.3</ele>
        <time>2022-08-05T08:25:43+0200</time>
      </trkpt>
      <trkpt lat="44.91955" lon="6.56594">
        <ele>2086.1</ele>
        <time>2022-08-05T08:25:44+0200</time>
      </trkpt>
      <trkpt lat="44.91954" lon="6.566">
        <ele>2085.7</ele>
        <time>2022-08-05T08:25:45+0200</time>
      </trkpt>
      <trkpt lat="44.91953" lon="6.56607">
        <ele>2085.2</ele>
        <time>2022-08-05T08:25:47+0200</time>
      </trkpt>
      <trkpt lat="44.91948" lon="6.56613">
        <ele>2085.7</ele>
        <time>2022-08-05T08:25:49+0200</time>
      </trkpt>
      <trkpt lat="44.91943" lon="6.56622">
        <ele>2085.7</ele>
        <time>2022-08-05T08:25:51+0200</time>
      </trkpt>
      <trkpt lat="44.91942" lon="6.56628">
        <ele>2084.6</ele>
        <time>2022-08-05T08:25:52+0200</time>
      </trkpt>
      <trkpt lat="44.91941" lon="6.56642">
        <ele>2082.9</ele>
        <time>2022-08-05T08:25:54+0200</time>
      </trkpt>
      <trkpt lat="44.91936" lon="6.56653">
        <ele>2082.7</ele>
        <time>2022-08-05T08:25:56+0200</time>
      </trkpt>
      <trkpt lat="44.91934" lon="6.56664">
        <ele>2082.2</ele>
        <time>2022-08-05T08:25:58+0200</time>
      </trkpt>
      <trkpt lat="44.9193" lon="6.56676">
        <ele>2081.9</ele>
        <time>2022-08-05T08:26:00+0200</time>
      </trkpt>
      <trkpt lat="44.91927" lon="6.56688">
        <ele>2081.2</ele>
        <time>2022-08-05T08:26:02+0200</time>
      </trkpt>
      <trkpt lat="44.91925" lon="6.56695">
        <ele>2081</ele>
        <time>2022-08-05T08:26:04+0200</time>
      </trkpt>
      <trkpt lat="44.91921" lon="6.56698">
        <ele>2082</ele>
        <time>2022-08-05T08:26:08+0200</time>
      </trkpt>
      <trkpt lat="44.91917" lon="6.56702">
        <ele>2082.7</ele>
        <time>2022-08-05T08:26:11+0200</time>
      </trkpt>
      <trkpt lat="44.91917" lon="6.5671">
        <ele>2081.9</ele>
        <time>2022-08-05T08:26:15+0200</time>
      </trkpt>
      <trkpt lat="44.91915" lon="6.56716">
        <ele>2081.5</ele>
        <time>2022-08-05T08:26:21+0200</time>
      </trkpt>
      <trkpt lat="44.91912" lon="6.56721">
        <ele>2082.1</ele>
        <time>2022-08-05T08:26:30+0200</time>
      </trkpt>
      <trkpt lat="44.91916" lon="6.56726">
        <ele>2079.8</ele>
        <time>2022-08-05T08:26:42+0200</time>
      </trkpt>
      <trkpt lat="44.91921" lon="6.56726">
        <ele>2077.6</ele>
        <time>2022-08-05T08:26:47+0200</time>
      </trkpt>
      <trkpt lat="44.91928" lon="6.56722">
        <ele>2075.8</ele>
        <time>2022-08-05T08:26:49+0200</time>
      </trkpt>
      <trkpt lat="44.91933" lon="6.56719">
        <ele>2073.9</ele>
        <time>2022-08-05T08:26:51+0200</time>
      </trkpt>
      <trkpt lat="44.91937" lon="6.56711">
        <ele>2073.7</ele>
        <time>2022-08-05T08:26:53+0200</time>
      </trkpt>
      <trkpt lat="44.91946" lon="6.56715">
        <ele>2069.7</ele>
        <time>2022-08-05T08:26:55+0200</time>
      </trkpt>
      <trkpt lat="44.91944" lon="6.56721">
        <ele>2069.2</ele>
        <time>2022-08-05T08:26:56+0200</time>
      </trkpt>
      <trkpt lat="44.9194" lon="6.56728">
        <ele>2069.8</ele>
        <time>2022-08-05T08:26:58+0200</time>
      </trkpt>
      <trkpt lat="44.91941" lon="6.56734">
        <ele>2068.4</ele>
        <time>2022-08-05T08:27:00+0200</time>
      </trkpt>
      <trkpt lat="44.91946" lon="6.56732">
        <ele>2066.8</ele>
        <time>2022-08-05T08:27:02+0200</time>
      </trkpt>
      <trkpt lat="44.9195" lon="6.56725">
        <ele>2066.5</ele>
        <time>2022-08-05T08:27:04+0200</time>
      </trkpt>
      <trkpt lat="44.91955" lon="6.56721">
        <ele>2065.6</ele>
        <time>2022-08-05T08:27:05+0200</time>
      </trkpt>
      <trkpt lat="44.91957" lon="6.56714">
        <ele>2066</ele>
        <time>2022-08-05T08:27:06+0200</time>
      </trkpt>
      <trkpt lat="44.91962" lon="6.56717">
        <ele>2063.8</ele>
        <time>2022-08-05T08:27:08+0200</time>
      </trkpt>
      <trkpt lat="44.91959" lon="6.56722">
        <ele>2063.7</ele>
        <time>2022-08-05T08:27:09+0200</time>
      </trkpt>
      <trkpt lat="44.91959" lon="6.5673">
        <ele>2062.4</ele>
        <time>2022-08-05T08:27:10+0200</time>
      </trkpt>
      <trkpt lat="44.91961" lon="6.5674">
        <ele>2059.6</ele>
        <time>2022-08-05T08:27:11+0200</time>
      </trkpt>
      <trkpt lat="44.91961" lon="6.56748">
        <ele>2057.9</ele>
        <time>2022-08-05T08:27:12+0200</time>
      </trkpt>
      <trkpt lat="44.91963" lon="6.56755">
        <ele>2055.2</ele>
        <time>2022-08-05T08:27:13+0200</time>
      </trkpt>
      <trkpt lat="44.91963" lon="6.56762">
        <ele>2053</ele>
        <time>2022-08-05T08:27:14+0200</time>
      </trkpt>
      <trkpt lat="44.91965" lon="6.56769">
        <ele>2050.4</ele>
        <time>2022-08-05T08:27:16+0200</time>
      </trkpt>
      <trkpt lat="44.91971" lon="6.56767">
        <ele>2048.7</ele>
        <time>2022-08-05T08:27:17+0200</time>
      </trkpt>
      <trkpt lat="44.9198" lon="6.56759">
        <ele>2047.8</ele>
        <time>2022-08-05T08:27:19+0200</time>
      </trkpt>
      <trkpt lat="44.91988" lon="6.56752">
        <ele>2046.8</ele>
        <time>2022-08-05T08:27:20+0200</time>
      </trkpt>
      <trkpt lat="44.91993" lon="6.56741">
        <ele>2047.5</ele>
        <time>2022-08-05T08:27:21+0200</time>
      </trkpt>
      <trkpt lat="44.92" lon="6.56731">
        <ele>2047.2</ele>
        <time>2022-08-05T08:27:22+0200</time>
      </trkpt>
      <trkpt lat="44.92007" lon="6.56721">
        <ele>2046.8</ele>
        <time>2022-08-05T08:27:23+0200</time>
      </trkpt>
      <trkpt lat="44.92013" lon="6.56712">
        <ele>2046.4</ele>
        <time>2022-08-05T08:27:24+0200</time>
      </trkpt>
      <trkpt lat="44.92017" lon="6.56703">
        <ele>2046.7</ele>
        <time>2022-08-05T08:27:25+0200</time>
      </trkpt>
      <trkpt lat="44.92022" lon="6.56697">
        <ele>2046.4</ele>
        <time>2022-08-05T08:27:26+0200</time>
      </trkpt>
      <trkpt lat="44.92026" lon="6.56692">
        <ele>2046.2</ele>
        <time>2022-08-05T08:27:27+0200</time>
      </trkpt>
      <trkpt lat="44.92022" lon="6.567">
        <ele>2045.6</ele>
        <time>2022-08-05T08:27:34+0200</time>
      </trkpt>
      <trkpt lat="44.9202" lon="6.56712">
        <ele>2044</ele>
        <time>2022-08-05T08:27:36+0200</time>
      </trkpt>
      <trkpt lat="44.92017" lon="6.5672">
        <ele>2043.4</ele>
        <time>2022-08-05T08:27:37+0200</time>
      </trkpt>
      <trkpt lat="44.92015" lon="6.56729">
        <ele>2042.1</ele>
        <time>2022-08-05T08:27:38+0200</time>
      </trkpt>
      <trkpt lat="44.92013" lon="6.5674">
        <ele>2040.4</ele>
        <time>2022-08-05T08:27:39+0200</time>
      </trkpt>
      <trkpt lat="44.92013" lon="6.56747">
        <ele>2038.9</ele>
        <time>2022-08-05T08:27:40+0200</time>
      </trkpt>
      <trkpt lat="44.92012" lon="6.56759">
        <ele>2036.5</ele>
        <time>2022-08-05T08:27:41+0200</time>
      </trkpt>
      <trkpt lat="44.92009" lon="6.56771">
        <ele>2034.6</ele>
        <time>2022-08-05T08:27:42+0200</time>
      </trkpt>
      <trkpt lat="44.92008" lon="6.56783">
        <ele>2032.2</ele>
        <time>2022-08-05T08:27:43+0200</time>
      </trkpt>
      <trkpt lat="44.92007" lon="6.56791">
        <ele>2030.3</ele>
        <time>2022-08-05T08:27:44+0200</time>
      </trkpt>
      <trkpt lat="44.92003" lon="6.56798">
        <ele>2029.3</ele>
        <time>2022-08-05T08:27:45+0200</time>
      </trkpt>
      <trkpt lat="44.91998" lon="6.56799">
        <ele>2030.5</ele>
        <time>2022-08-05T08:27:46+0200</time>
      </trkpt>
      <trkpt lat="44.9199" lon="6.56799">
        <ele>2032.9</ele>
        <time>2022-08-05T08:27:47+0200</time>
      </trkpt>
      <trkpt lat="44.91984" lon="6.56805">
        <ele>2033.3</ele>
        <time>2022-08-05T08:27:48+0200</time>
      </trkpt>
      <trkpt lat="44.9198" lon="6.56813">
        <ele>2032.3</ele>
        <time>2022-08-05T08:27:49+0200</time>
      </trkpt>
      <trkpt lat="44.91988" lon="6.56824">
        <ele>2026.8</ele>
        <time>2022-08-05T08:27:51+0200</time>
      </trkpt>
      <trkpt lat="44.91993" lon="6.56825">
        <ele>2024.9</ele>
        <time>2022-08-05T08:27:53+0200</time>
      </trkpt>
      <trkpt lat="44.91995" lon="6.56836">
        <ele>2021.9</ele>
        <time>2022-08-05T08:27:54+0200</time>
      </trkpt>
      <trkpt lat="44.91994" lon="6.56845">
        <ele>2020.1</ele>
        <time>2022-08-05T08:27:55+0200</time>
      </trkpt>
      <trkpt lat="44.91991" lon="6.5685">
        <ele>2019.7</ele>
        <time>2022-08-05T08:27:56+0200</time>
      </trkpt>
      <trkpt lat="44.91985" lon="6.56853">
        <ele>2020.5</ele>
        <time>2022-08-05T08:27:57+0200</time>
      </trkpt>
      <trkpt lat="44.9198" lon="6.56859">
        <ele>2020.6</ele>
        <time>2022-08-05T08:27:58+0200</time>
      </trkpt>
      <trkpt lat="44.91976" lon="6.56869">
        <ele>2019.2</ele>
        <time>2022-08-05T08:27:59+0200</time>
      </trkpt>
      <trkpt lat="44.91987" lon="6.56873">
        <ele>2015.9</ele>
        <time>2022-08-05T08:28:00+0200</time>
      </trkpt>
      <trkpt lat="44.91993" lon="6.56874">
        <ele>2013.9</ele>
        <time>2022-08-05T08:28:01+0200</time>
      </trkpt>
      <trkpt lat="44.91999" lon="6.56878">
        <ele>2011.8</ele>
        <time>2022-08-05T08:28:02+0200</time>
      </trkpt>
      <trkpt lat="44.91996" lon="6.56887">
        <ele>2010.4</ele>
        <time>2022-08-05T08:28:03+0200</time>
      </trkpt>
      <trkpt lat="44.91991" lon="6.56896">
        <ele>2010.1</ele>
        <time>2022-08-05T08:28:04+0200</time>
      </trkpt>
      <trkpt lat="44.91988" lon="6.56904">
        <ele>2009</ele>
        <time>2022-08-05T08:28:05+0200</time>
      </trkpt>
      <trkpt lat="44.91982" lon="6.56907">
        <ele>2009.8</ele>
        <time>2022-08-05T08:28:07+0200</time>
      </trkpt>
      <trkpt lat="44.91978" lon="6.56908">
        <ele>2010.6</ele>
        <time>2022-08-05T08:28:09+0200</time>
      </trkpt>
      <trkpt lat="44.91975" lon="6.56919">
        <ele>2008.8</ele>
        <time>2022-08-05T08:28:12+0200</time>
      </trkpt>
      <trkpt lat="44.91975" lon="6.56927">
        <ele>2006.8</ele>
        <time>2022-08-05T08:28:13+0200</time>
      </trkpt>
      <trkpt lat="44.91974" lon="6.56934">
        <ele>2005.3</ele>
        <time>2022-08-05T08:28:14+0200</time>
      </trkpt>
      <trkpt lat="44.91973" lon="6.5694">
        <ele>2004</ele>
        <time>2022-08-05T08:28:15+0200</time>
      </trkpt>
      <trkpt lat="44.91967" lon="6.56945">
        <ele>2004.3</ele>
        <time>2022-08-05T08:28:16+0200</time>
      </trkpt>
      <trkpt lat="44.9196" lon="6.56947">
        <ele>2005.4</ele>
        <time>2022-08-05T08:28:17+0200</time>
      </trkpt>
      <trkpt lat="44.91956" lon="6.56948">
        <ele>2006.3</ele>
        <time>2022-08-05T08:28:18+0200</time>
      </trkpt>
      <trkpt lat="44.91957" lon="6.56958">
        <ele>2003.6</ele>
        <time>2022-08-05T08:28:21+0200</time>
      </trkpt>
      <trkpt lat="44.91958" lon="6.56965">
        <ele>2001.7</ele>
        <time>2022-08-05T08:28:23+0200</time>
      </trkpt>
      <trkpt lat="44.91952" lon="6.56969">
        <ele>2002.2</ele>
        <time>2022-08-05T08:28:24+0200</time>
      </trkpt>
      <trkpt lat="44.91946" lon="6.56972">
        <ele>2002.8</ele>
        <time>2022-08-05T08:28:26+0200</time>
      </trkpt>
      <trkpt lat="44.91943" lon="6.5698">
        <ele>2000.7</ele>
        <time>2022-08-05T08:28:28+0200</time>
      </trkpt>
      <trkpt lat="44.91936" lon="6.56985">
        <ele>2000.6</ele>
        <time>2022-08-05T08:28:30+0200</time>
      </trkpt>
      <trkpt lat="44.91939" lon="6.5699">
        <ele>1998.4</ele>
        <time>2022-08-05T08:28:32+0200</time>
      </trkpt>
      <trkpt lat="44.91942" lon="6.57">
        <ele>1994.6</ele>
        <time>2022-08-05T08:28:34+0200</time>
      </trkpt>
      <trkpt lat="44.91945" lon="6.57005">
        <ele>1992.6</ele>
        <time>2022-08-05T08:28:37+0200</time>
      </trkpt>
      <trkpt lat="44.91949" lon="6.57009">
        <ele>1990.7</ele>
        <time>2022-08-05T08:28:41+0200</time>
      </trkpt>
      <trkpt lat="44.91952" lon="6.57014">
        <ele>1988.8</ele>
        <time>2022-08-05T08:28:47+0200</time>
      </trkpt>
      <trkpt lat="44.91956" lon="6.57019">
        <ele>1987</ele>
        <time>2022-08-05T08:29:00+0200</time>
      </trkpt>
      <trkpt lat="44.9196" lon="6.57024">
        <ele>1984.9</ele>
        <time>2022-08-05T08:29:09+0200</time>
      </trkpt>
      <trkpt lat="44.91955" lon="6.57032">
        <ele>1983.4</ele>
        <time>2022-08-05T08:29:11+0200</time>
      </trkpt>
      <trkpt lat="44.9195" lon="6.57037">
        <ele>1982.7</ele>
        <time>2022-08-05T08:29:13+0200</time>
      </trkpt>
      <trkpt lat="44.91946" lon="6.57041">
        <ele>1982.1</ele>
        <time>2022-08-05T08:29:15+0200</time>
      </trkpt>
      <trkpt lat="44.91939" lon="6.57038">
        <ele>1983.7</ele>
        <time>2022-08-05T08:29:17+0200</time>
      </trkpt>
      <trkpt lat="44.91933" lon="6.5704">
        <ele>1983.9</ele>
        <time>2022-08-05T08:29:20+0200</time>
      </trkpt>
      <trkpt lat="44.9193" lon="6.57046">
        <ele>1982.5</ele>
        <time>2022-08-05T08:29:22+0200</time>
      </trkpt>
      <trkpt lat="44.91932" lon="6.57054">
        <ele>1979.8</ele>
        <time>2022-08-05T08:29:24+0200</time>
      </trkpt>
      <trkpt lat="44.91928" lon="6.57062">
        <ele>1978</ele>
        <time>2022-08-05T08:29:26+0200</time>
      </trkpt>
      <trkpt lat="44.91924" lon="6.57063">
        <ele>1978.1</ele>
        <time>2022-08-05T08:29:27+0200</time>
      </trkpt>
      <trkpt lat="44.91919" lon="6.5707">
        <ele>1976.6</ele>
        <time>2022-08-05T08:29:28+0200</time>
      </trkpt>
      <trkpt lat="44.91915" lon="6.57079">
        <ele>1974.5</ele>
        <time>2022-08-05T08:29:29+0200</time>
      </trkpt>
      <trkpt lat="44.91908" lon="6.57084">
        <ele>1973.6</ele>
        <time>2022-08-05T08:29:30+0200</time>
      </trkpt>
      <trkpt lat="44.919" lon="6.57086">
        <ele>1973.3</ele>
        <time>2022-08-05T08:29:31+0200</time>
      </trkpt>
      <trkpt lat="44.91893" lon="6.57087">
        <ele>1973.7</ele>
        <time>2022-08-05T08:29:32+0200</time>
      </trkpt>
      <trkpt lat="44.91887" lon="6.57092">
        <ele>1972.6</ele>
        <time>2022-08-05T08:29:33+0200</time>
      </trkpt>
      <trkpt lat="44.91881" lon="6.57096">
        <ele>1971.6</ele>
        <time>2022-08-05T08:29:34+0200</time>
      </trkpt>
      <trkpt lat="44.91875" lon="6.57098">
        <ele>1971.3</ele>
        <time>2022-08-05T08:29:35+0200</time>
      </trkpt>
      <trkpt lat="44.91869" lon="6.571">
        <ele>1970.8</ele>
        <time>2022-08-05T08:29:36+0200</time>
      </trkpt>
      <trkpt lat="44.91864" lon="6.57103">
        <ele>1970.2</ele>
        <time>2022-08-05T08:29:37+0200</time>
      </trkpt>
      <trkpt lat="44.91859" lon="6.57106">
        <ele>1969.5</ele>
        <time>2022-08-05T08:29:38+0200</time>
      </trkpt>
      <trkpt lat="44.91849" lon="6.57102">
        <ele>1970.4</ele>
        <time>2022-08-05T08:29:40+0200</time>
      </trkpt>
      <trkpt lat="44.91844" lon="6.57098">
        <ele>1971.4</ele>
        <time>2022-08-05T08:29:41+0200</time>
      </trkpt>
      <trkpt lat="44.91839" lon="6.571">
        <ele>1970.6</ele>
        <time>2022-08-05T08:29:42+0200</time>
      </trkpt>
      <trkpt lat="44.91835" lon="6.57109">
        <ele>1967.7</ele>
        <time>2022-08-05T08:29:43+0200</time>
      </trkpt>
      <trkpt lat="44.91835" lon="6.57116">
        <ele>1965.5</ele>
        <time>2022-08-05T08:29:44+0200</time>
      </trkpt>
      <trkpt lat="44.91836" lon="6.57123">
        <ele>1963.3</ele>
        <time>2022-08-05T08:29:45+0200</time>
      </trkpt>
      <trkpt lat="44.91839" lon="6.5713">
        <ele>1961.2</ele>
        <time>2022-08-05T08:29:46+0200</time>
      </trkpt>
      <trkpt lat="44.91843" lon="6.57136">
        <ele>1959.5</ele>
        <time>2022-08-05T08:29:47+0200</time>
      </trkpt>
      <trkpt lat="44.91847" lon="6.57141">
        <ele>1958.2</ele>
        <time>2022-08-05T08:29:48+0200</time>
      </trkpt>
      <trkpt lat="44.91851" lon="6.57146">
        <ele>1957.3</ele>
        <time>2022-08-05T08:29:49+0200</time>
      </trkpt>
      <trkpt lat="44.91857" lon="6.57148">
        <ele>1957</ele>
        <time>2022-08-05T08:29:51+0200</time>
      </trkpt>
      <trkpt lat="44.91863" lon="6.57152">
        <ele>1956.2</ele>
        <time>2022-08-05T08:29:53+0200</time>
      </trkpt>
      <trkpt lat="44.91869" lon="6.57153">
        <ele>1956.1</ele>
        <time>2022-08-05T08:29:55+0200</time>
      </trkpt>
      <trkpt lat="44.91876" lon="6.57152">
        <ele>1956.4</ele>
        <time>2022-08-05T08:29:57+0200</time>
      </trkpt>
      <trkpt lat="44.91883" lon="6.57148">
        <ele>1957.5</ele>
        <time>2022-08-05T08:29:59+0200</time>
      </trkpt>
      <trkpt lat="44.9189" lon="6.57149">
        <ele>1957</ele>
        <time>2022-08-05T08:30:01+0200</time>
      </trkpt>
      <trkpt lat="44.91896" lon="6.5715">
        <ele>1956.4</ele>
        <time>2022-08-05T08:30:02+0200</time>
      </trkpt>
      <trkpt lat="44.91902" lon="6.5715">
        <ele>1955.7</ele>
        <time>2022-08-05T08:30:03+0200</time>
      </trkpt>
      <trkpt lat="44.91907" lon="6.57151">
        <ele>1955.3</ele>
        <time>2022-08-05T08:30:05+0200</time>
      </trkpt>
      <trkpt lat="44.91912" lon="6.57151">
        <ele>1954.8</ele>
        <time>2022-08-05T08:30:07+0200</time>
      </trkpt>
      <trkpt lat="44.91918" lon="6.57148">
        <ele>1955.2</ele>
        <time>2022-08-05T08:30:10+0200</time>
      </trkpt>
      <trkpt lat="44.91924" lon="6.57147">
        <ele>1954.8</ele>
        <time>2022-08-05T08:30:12+0200</time>
      </trkpt>
      <trkpt lat="44.91929" lon="6.57147">
        <ele>1954.5</ele>
        <time>2022-08-05T08:30:13+0200</time>
      </trkpt>
      <trkpt lat="44.91934" lon="6.57145">
        <ele>1954.4</ele>
        <time>2022-08-05T08:30:14+0200</time>
      </trkpt>
      <trkpt lat="44.91939" lon="6.57145">
        <ele>1953.8</ele>
        <time>2022-08-05T08:30:16+0200</time>
      </trkpt>
      <trkpt lat="44.91947" lon="6.57141">
        <ele>1954.3</ele>
        <time>2022-08-05T08:30:18+0200</time>
      </trkpt>
      <trkpt lat="44.91952" lon="6.57139">
        <ele>1954.4</ele>
        <time>2022-08-05T08:30:19+0200</time>
      </trkpt>
      <trkpt lat="44.91957" lon="6.57138">
        <ele>1954.4</ele>
        <time>2022-08-05T08:30:21+0200</time>
      </trkpt>
      <trkpt lat="44.91962" lon="6.57137">
        <ele>1954.3</ele>
        <time>2022-08-05T08:30:22+0200</time>
      </trkpt>
      <trkpt lat="44.9197" lon="6.57137">
        <ele>1953.6</ele>
        <time>2022-08-05T08:30:24+0200</time>
      </trkpt>
      <trkpt lat="44.9198" lon="6.57131">
        <ele>1954.5</ele>
        <time>2022-08-05T08:30:27+0200</time>
      </trkpt>
      <trkpt lat="44.91987" lon="6.57133">
        <ele>1953.4</ele>
        <time>2022-08-05T08:30:33+0200</time>
      </trkpt>
      <trkpt lat="44.91992" lon="6.57139">
        <ele>1951.6</ele>
        <time>2022-08-05T08:30:34+0200</time>
      </trkpt>
      <trkpt lat="44.91986" lon="6.57145">
        <ele>1950.6</ele>
        <time>2022-08-05T08:30:36+0200</time>
      </trkpt>
      <trkpt lat="44.91981" lon="6.57149">
        <ele>1949.8</ele>
        <time>2022-08-05T08:30:40+0200</time>
      </trkpt>
      <trkpt lat="44.91976" lon="6.57156">
        <ele>1948.4</ele>
        <time>2022-08-05T08:30:42+0200</time>
      </trkpt>
      <trkpt lat="44.91977" lon="6.57165">
        <ele>1946.2</ele>
        <time>2022-08-05T08:30:43+0200</time>
      </trkpt>
      <trkpt lat="44.91981" lon="6.57174">
        <ele>1943.2</ele>
        <time>2022-08-05T08:30:44+0200</time>
      </trkpt>
      <trkpt lat="44.91986" lon="6.57181">
        <ele>1941.1</ele>
        <time>2022-08-05T08:30:45+0200</time>
      </trkpt>
      <trkpt lat="44.91991" lon="6.57185">
        <ele>1939.8</ele>
        <time>2022-08-05T08:30:46+0200</time>
      </trkpt>
      <trkpt lat="44.91995" lon="6.57198">
        <ele>1936.3</ele>
        <time>2022-08-05T08:30:47+0200</time>
      </trkpt>
      <trkpt lat="44.92002" lon="6.572">
        <ele>1935.7</ele>
        <time>2022-08-05T08:30:48+0200</time>
      </trkpt>
      <trkpt lat="44.92009" lon="6.57203">
        <ele>1935</ele>
        <time>2022-08-05T08:30:49+0200</time>
      </trkpt>
      <trkpt lat="44.92014" lon="6.57206">
        <ele>1934.2</ele>
        <time>2022-08-05T08:30:50+0200</time>
      </trkpt>
      <trkpt lat="44.9202" lon="6.57209">
        <ele>1933.5</ele>
        <time>2022-08-05T08:30:51+0200</time>
      </trkpt>
      <trkpt lat="44.92026" lon="6.57213">
        <ele>1932.6</ele>
        <time>2022-08-05T08:30:52+0200</time>
      </trkpt>
      <trkpt lat="44.92032" lon="6.57217">
        <ele>1931.6</ele>
        <time>2022-08-05T08:30:53+0200</time>
      </trkpt>
      <trkpt lat="44.92038" lon="6.57221">
        <ele>1930.5</ele>
        <time>2022-08-05T08:30:54+0200</time>
      </trkpt>
      <trkpt lat="44.92046" lon="6.57212">
        <ele>1931.3</ele>
        <time>2022-08-05T08:30:55+0200</time>
      </trkpt>
      <trkpt lat="44.9205" lon="6.57209">
        <ele>1931.4</ele>
        <time>2022-08-05T08:30:56+0200</time>
      </trkpt>
      <trkpt lat="44.92055" lon="6.57211">
        <ele>1930.8</ele>
        <time>2022-08-05T08:30:57+0200</time>
      </trkpt>
      <trkpt lat="44.92059" lon="6.57208">
        <ele>1930.3</ele>
        <time>2022-08-05T08:30:58+0200</time>
      </trkpt>
      <trkpt lat="44.92066" lon="6.57204">
        <ele>1929.6</ele>
        <time>2022-08-05T08:31:00+0200</time>
      </trkpt>
      <trkpt lat="44.92073" lon="6.57197">
        <ele>1928.9</ele>
        <time>2022-08-05T08:31:02+0200</time>
      </trkpt>
      <trkpt lat="44.92078" lon="6.57191">
        <ele>1928.8</ele>
        <time>2022-08-05T08:31:03+0200</time>
      </trkpt>
      <trkpt lat="44.92082" lon="6.57186">
        <ele>1929</ele>
        <time>2022-08-05T08:31:04+0200</time>
      </trkpt>
      <trkpt lat="44.92086" lon="6.57181">
        <ele>1928.7</ele>
        <time>2022-08-05T08:31:05+0200</time>
      </trkpt>
      <trkpt lat="44.9209" lon="6.57174">
        <ele>1928.9</ele>
        <time>2022-08-05T08:31:06+0200</time>
      </trkpt>
      <trkpt lat="44.92093" lon="6.57166">
        <ele>1929.4</ele>
        <time>2022-08-05T08:31:07+0200</time>
      </trkpt>
      <trkpt lat="44.92098" lon="6.5716">
        <ele>1929.1</ele>
        <time>2022-08-05T08:31:08+0200</time>
      </trkpt>
      <trkpt lat="44.92105" lon="6.57158">
        <ele>1927.8</ele>
        <time>2022-08-05T08:31:09+0200</time>
      </trkpt>
      <trkpt lat="44.9211" lon="6.57154">
        <ele>1927</ele>
        <time>2022-08-05T08:31:10+0200</time>
      </trkpt>
      <trkpt lat="44.92116" lon="6.5715">
        <ele>1926.4</ele>
        <time>2022-08-05T08:31:11+0200</time>
      </trkpt>
      <trkpt lat="44.92121" lon="6.57146">
        <ele>1925.9</ele>
        <time>2022-08-05T08:31:12+0200</time>
      </trkpt>
      <trkpt lat="44.92126" lon="6.57142">
        <ele>1925.7</ele>
        <time>2022-08-05T08:31:13+0200</time>
      </trkpt>
      <trkpt lat="44.92131" lon="6.57139">
        <ele>1924.9</ele>
        <time>2022-08-05T08:31:14+0200</time>
      </trkpt>
      <trkpt lat="44.92137" lon="6.57136">
        <ele>1924</ele>
        <time>2022-08-05T08:31:15+0200</time>
      </trkpt>
      <trkpt lat="44.92142" lon="6.57134">
        <ele>1923.2</ele>
        <time>2022-08-05T08:31:16+0200</time>
      </trkpt>
      <trkpt lat="44.92147" lon="6.57132">
        <ele>1922.5</ele>
        <time>2022-08-05T08:31:17+0200</time>
      </trkpt>
      <trkpt lat="44.92153" lon="6.57129">
        <ele>1921.8</ele>
        <time>2022-08-05T08:31:18+0200</time>
      </trkpt>
      <trkpt lat="44.92157" lon="6.57124">
        <ele>1921.7</ele>
        <time>2022-08-05T08:31:19+0200</time>
      </trkpt>
      <trkpt lat="44.92162" lon="6.57119">
        <ele>1921.6</ele>
        <time>2022-08-05T08:31:20+0200</time>
      </trkpt>
      <trkpt lat="44.92167" lon="6.57113">
        <ele>1921.6</ele>
        <time>2022-08-05T08:31:21+0200</time>
      </trkpt>
      <trkpt lat="44.92171" lon="6.57106">
        <ele>1921.6</ele>
        <time>2022-08-05T08:31:22+0200</time>
      </trkpt>
      <trkpt lat="44.92176" lon="6.571">
        <ele>1921.3</ele>
        <time>2022-08-05T08:31:23+0200</time>
      </trkpt>
      <trkpt lat="44.9218" lon="6.57095">
        <ele>1921</ele>
        <time>2022-08-05T08:31:24+0200</time>
      </trkpt>
      <trkpt lat="44.92184" lon="6.5709">
        <ele>1920.6</ele>
        <time>2022-08-05T08:31:26+0200</time>
      </trkpt>
      <trkpt lat="44.9218" lon="6.57088">
        <ele>1922</ele>
        <time>2022-08-05T08:33:19+0200</time>
      </trkpt>
      <trkpt lat="44.92185" lon="6.5709">
        <ele>1920.5</ele>
        <time>2022-08-05T08:33:38+0200</time>
      </trkpt>
      <trkpt lat="44.92191" lon="6.57091">
        <ele>1918.9</ele>
        <time>2022-08-05T08:33:42+0200</time>
      </trkpt>
      <trkpt lat="44.92197" lon="6.57084">
        <ele>1918.4</ele>
        <time>2022-08-05T08:33:44+0200</time>
      </trkpt>
      <trkpt lat="44.92204" lon="6.57079">
        <ele>1917.3</ele>
        <time>2022-08-05T08:33:46+0200</time>
      </trkpt>
      <trkpt lat="44.92209" lon="6.57073">
        <ele>1916.9</ele>
        <time>2022-08-05T08:33:47+0200</time>
      </trkpt>
      <trkpt lat="44.92215" lon="6.57067">
        <ele>1916.6</ele>
        <time>2022-08-05T08:33:48+0200</time>
      </trkpt>
      <trkpt lat="44.9222" lon="6.57055">
        <ele>1917.6</ele>
        <time>2022-08-05T08:33:49+0200</time>
      </trkpt>
      <trkpt lat="44.92227" lon="6.57047">
        <ele>1916.7</ele>
        <time>2022-08-05T08:33:50+0200</time>
      </trkpt>
      <trkpt lat="44.92236" lon="6.57039">
        <ele>1915</ele>
        <time>2022-08-05T08:33:51+0200</time>
      </trkpt>
      <trkpt lat="44.92244" lon="6.57034">
        <ele>1913.6</ele>
        <time>2022-08-05T08:33:52+0200</time>
      </trkpt>
      <trkpt lat="44.92253" lon="6.57031">
        <ele>1911.9</ele>
        <time>2022-08-05T08:33:53+0200</time>
      </trkpt>
      <trkpt lat="44.92262" lon="6.57032">
        <ele>1909.4</ele>
        <time>2022-08-05T08:33:54+0200</time>
      </trkpt>
      <trkpt lat="44.92272" lon="6.57031">
        <ele>1906.7</ele>
        <time>2022-08-05T08:33:55+0200</time>
      </trkpt>
      <trkpt lat="44.92285" lon="6.57029">
        <ele>1904.7</ele>
        <time>2022-08-05T08:33:56+0200</time>
      </trkpt>
      <trkpt lat="44.92298" lon="6.57026">
        <ele>1903.5</ele>
        <time>2022-08-05T08:33:57+0200</time>
      </trkpt>
      <trkpt lat="44.92309" lon="6.57025">
        <ele>1902.3</ele>
        <time>2022-08-05T08:33:58+0200</time>
      </trkpt>
      <trkpt lat="44.9232" lon="6.5703">
        <ele>1900.6</ele>
        <time>2022-08-05T08:33:59+0200</time>
      </trkpt>
      <trkpt lat="44.92332" lon="6.57034">
        <ele>1899</ele>
        <time>2022-08-05T08:34:00+0200</time>
      </trkpt>
      <trkpt lat="44.92344" lon="6.57038">
        <ele>1897.6</ele>
        <time>2022-08-05T08:34:01+0200</time>
      </trkpt>
      <trkpt lat="44.92357" lon="6.57039">
        <ele>1896.6</ele>
        <time>2022-08-05T08:34:02+0200</time>
      </trkpt>
      <trkpt lat="44.92368" lon="6.57043">
        <ele>1895.4</ele>
        <time>2022-08-05T08:34:03+0200</time>
      </trkpt>
      <trkpt lat="44.92379" lon="6.57046">
        <ele>1894.5</ele>
        <time>2022-08-05T08:34:04+0200</time>
      </trkpt>
      <trkpt lat="44.9239" lon="6.57053">
        <ele>1893.3</ele>
        <time>2022-08-05T08:34:05+0200</time>
      </trkpt>
      <trkpt lat="44.92399" lon="6.57058">
        <ele>1892.9</ele>
        <time>2022-08-05T08:34:06+0200</time>
      </trkpt>
      <trkpt lat="44.92408" lon="6.57062">
        <ele>1892.8</ele>
        <time>2022-08-05T08:34:07+0200</time>
      </trkpt>
      <trkpt lat="44.92414" lon="6.57065">
        <ele>1892.9</ele>
        <time>2022-08-05T08:34:08+0200</time>
      </trkpt>
      <trkpt lat="44.92421" lon="6.57048">
        <ele>1893.1</ele>
        <time>2022-08-05T08:34:09+0200</time>
      </trkpt>
      <trkpt lat="44.9242" lon="6.57057">
        <ele>1893.1</ele>
        <time>2022-08-05T08:34:11+0200</time>
      </trkpt>
      <trkpt lat="44.92415" lon="6.57065">
        <ele>1893</ele>
        <time>2022-08-05T08:34:13+0200</time>
      </trkpt>
      <trkpt lat="44.92408" lon="6.57064">
        <ele>1892.8</ele>
        <time>2022-08-05T08:34:14+0200</time>
      </trkpt>
      <trkpt lat="44.92408" lon="6.57075">
        <ele>1892.6</ele>
        <time>2022-08-05T08:34:17+0200</time>
      </trkpt>
      <trkpt lat="44.92403" lon="6.5708">
        <ele>1892.2</ele>
        <time>2022-08-05T08:34:19+0200</time>
      </trkpt>
      <trkpt lat="44.924" lon="6.57086">
        <ele>1891.8</ele>
        <time>2022-08-05T08:34:21+0200</time>
      </trkpt>
      <trkpt lat="44.92396" lon="6.57091">
        <ele>1891.4</ele>
        <time>2022-08-05T08:34:23+0200</time>
      </trkpt>
      <trkpt lat="44.92388" lon="6.57097">
        <ele>1890.5</ele>
        <time>2022-08-05T08:34:25+0200</time>
      </trkpt>
      <trkpt lat="44.92382" lon="6.57104">
        <ele>1889.8</ele>
        <time>2022-08-05T08:34:27+0200</time>
      </trkpt>
      <trkpt lat="44.92379" lon="6.57109">
        <ele>1889.4</ele>
        <time>2022-08-05T08:34:28+0200</time>
      </trkpt>
      <trkpt lat="44.92376" lon="6.57115">
        <ele>1889</ele>
        <time>2022-08-05T08:34:29+0200</time>
      </trkpt>
      <trkpt lat="44.92372" lon="6.5712">
        <ele>1888.8</ele>
        <time>2022-08-05T08:34:30+0200</time>
      </trkpt>
      <trkpt lat="44.92369" lon="6.57126">
        <ele>1888.4</ele>
        <time>2022-08-05T08:34:31+0200</time>
      </trkpt>
      <trkpt lat="44.92366" lon="6.57133">
        <ele>1887.8</ele>
        <time>2022-08-05T08:34:32+0200</time>
      </trkpt>
      <trkpt lat="44.92362" lon="6.57138">
        <ele>1887.2</ele>
        <time>2022-08-05T08:34:33+0200</time>
      </trkpt>
      <trkpt lat="44.9236" lon="6.57144">
        <ele>1886.8</ele>
        <time>2022-08-05T08:34:34+0200</time>
      </trkpt>
      <trkpt lat="44.92356" lon="6.57155">
        <ele>1886.1</ele>
        <time>2022-08-05T08:34:36+0200</time>
      </trkpt>
      <trkpt lat="44.92352" lon="6.57161">
        <ele>1885.6</ele>
        <time>2022-08-05T08:34:37+0200</time>
      </trkpt>
      <trkpt lat="44.9235" lon="6.57169">
        <ele>1885</ele>
        <time>2022-08-05T08:34:38+0200</time>
      </trkpt>
      <trkpt lat="44.92348" lon="6.57176">
        <ele>1884</ele>
        <time>2022-08-05T08:34:39+0200</time>
      </trkpt>
      <trkpt lat="44.92345" lon="6.57182">
        <ele>1883.2</ele>
        <time>2022-08-05T08:34:40+0200</time>
      </trkpt>
      <trkpt lat="44.92342" lon="6.57194">
        <ele>1881.6</ele>
        <time>2022-08-05T08:34:42+0200</time>
      </trkpt>
      <trkpt lat="44.92339" lon="6.57201">
        <ele>1880.7</ele>
        <time>2022-08-05T08:34:43+0200</time>
      </trkpt>
      <trkpt lat="44.92354" lon="6.57243">
        <ele>1878.6</ele>
        <time>2022-08-05T08:34:44+0200</time>
      </trkpt>
      <trkpt lat="44.92361" lon="6.57255">
        <ele>1878.2</ele>
        <time>2022-08-05T08:34:46+0200</time>
      </trkpt>
      <trkpt lat="44.92365" lon="6.57264">
        <ele>1877.4</ele>
        <time>2022-08-05T08:34:47+0200</time>
      </trkpt>
      <trkpt lat="44.92369" lon="6.57275">
        <ele>1876.4</ele>
        <time>2022-08-05T08:34:48+0200</time>
      </trkpt>
      <trkpt lat="44.92374" lon="6.57284">
        <ele>1874.8</ele>
        <time>2022-08-05T08:34:49+0200</time>
      </trkpt>
      <trkpt lat="44.92379" lon="6.57293">
        <ele>1873.3</ele>
        <time>2022-08-05T08:34:50+0200</time>
      </trkpt>
      <trkpt lat="44.92384" lon="6.57299">
        <ele>1872.3</ele>
        <time>2022-08-05T08:34:51+0200</time>
      </trkpt>
      <trkpt lat="44.92391" lon="6.57304">
        <ele>1871.2</ele>
        <time>2022-08-05T08:34:52+0200</time>
      </trkpt>
      <trkpt lat="44.92401" lon="6.57299">
        <ele>1871.9</ele>
        <time>2022-08-05T08:34:53+0200</time>
      </trkpt>
      <trkpt lat="44.92408" lon="6.573">
        <ele>1871.4</ele>
        <time>2022-08-05T08:34:54+0200</time>
      </trkpt>
      <trkpt lat="44.92414" lon="6.57299">
        <ele>1871.3</ele>
        <time>2022-08-05T08:34:55+0200</time>
      </trkpt>
      <trkpt lat="44.92421" lon="6.57299">
        <ele>1870.7</ele>
        <time>2022-08-05T08:34:56+0200</time>
      </trkpt>
      <trkpt lat="44.92426" lon="6.57296">
        <ele>1870.6</ele>
        <time>2022-08-05T08:34:57+0200</time>
      </trkpt>
      <trkpt lat="44.92432" lon="6.57295">
        <ele>1870.1</ele>
        <time>2022-08-05T08:34:58+0200</time>
      </trkpt>
      <trkpt lat="44.92439" lon="6.57294">
        <ele>1869.2</ele>
        <time>2022-08-05T08:34:59+0200</time>
      </trkpt>
      <trkpt lat="44.92446" lon="6.57295">
        <ele>1867.7</ele>
        <time>2022-08-05T08:35:00+0200</time>
      </trkpt>
      <trkpt lat="44.92453" lon="6.57293">
        <ele>1866.3</ele>
        <time>2022-08-05T08:35:01+0200</time>
      </trkpt>
      <trkpt lat="44.9246" lon="6.57286">
        <ele>1866.5</ele>
        <time>2022-08-05T08:35:02+0200</time>
      </trkpt>
      <trkpt lat="44.92467" lon="6.57281">
        <ele>1866.5</ele>
        <time>2022-08-05T08:35:03+0200</time>
      </trkpt>
      <trkpt lat="44.92472" lon="6.57271">
        <ele>1867.8</ele>
        <time>2022-08-05T08:35:04+0200</time>
      </trkpt>
      <trkpt lat="44.92478" lon="6.57262">
        <ele>1867.7</ele>
        <time>2022-08-05T08:35:05+0200</time>
      </trkpt>
      <trkpt lat="44.92484" lon="6.57251">
        <ele>1868.4</ele>
        <time>2022-08-05T08:35:06+0200</time>
      </trkpt>
      <trkpt lat="44.9249" lon="6.57241">
        <ele>1868</ele>
        <time>2022-08-05T08:35:07+0200</time>
      </trkpt>
      <trkpt lat="44.92496" lon="6.57232">
        <ele>1867.1</ele>
        <time>2022-08-05T08:35:08+0200</time>
      </trkpt>
      <trkpt lat="44.92503" lon="6.57224">
        <ele>1865.4</ele>
        <time>2022-08-05T08:35:09+0200</time>
      </trkpt>
      <trkpt lat="44.92511" lon="6.57217">
        <ele>1863.1</ele>
        <time>2022-08-05T08:35:10+0200</time>
      </trkpt>
      <trkpt lat="44.92515" lon="6.57209">
        <ele>1862.6</ele>
        <time>2022-08-05T08:35:11+0200</time>
      </trkpt>
      <trkpt lat="44.9252" lon="6.57204">
        <ele>1861.3</ele>
        <time>2022-08-05T08:35:12+0200</time>
      </trkpt>
      <trkpt lat="44.92528" lon="6.57199">
        <ele>1858</ele>
        <time>2022-08-05T08:35:14+0200</time>
      </trkpt>
      <trkpt lat="44.92533" lon="6.57206">
        <ele>1854.3</ele>
        <time>2022-08-05T08:35:15+0200</time>
      </trkpt>
      <trkpt lat="44.92532" lon="6.57216">
        <ele>1853.1</ele>
        <time>2022-08-05T08:35:16+0200</time>
      </trkpt>
      <trkpt lat="44.92526" lon="6.57223">
        <ele>1854.6</ele>
        <time>2022-08-05T08:35:17+0200</time>
      </trkpt>
      <trkpt lat="44.92526" lon="6.57233">
        <ele>1852.9</ele>
        <time>2022-08-05T08:35:18+0200</time>
      </trkpt>
      <trkpt lat="44.92522" lon="6.57241">
        <ele>1853.2</ele>
        <time>2022-08-05T08:35:19+0200</time>
      </trkpt>
      <trkpt lat="44.92521" lon="6.57253">
        <ele>1851.7</ele>
        <time>2022-08-05T08:35:20+0200</time>
      </trkpt>
      <trkpt lat="44.92519" lon="6.57265">
        <ele>1850.1</ele>
        <time>2022-08-05T08:35:21+0200</time>
      </trkpt>
      <trkpt lat="44.92515" lon="6.57278">
        <ele>1849.1</ele>
        <time>2022-08-05T08:35:22+0200</time>
      </trkpt>
      <trkpt lat="44.9251" lon="6.57289">
        <ele>1848.5</ele>
        <time>2022-08-05T08:35:23+0200</time>
      </trkpt>
      <trkpt lat="44.92504" lon="6.57299">
        <ele>1848.1</ele>
        <time>2022-08-05T08:35:24+0200</time>
      </trkpt>
      <trkpt lat="44.92499" lon="6.57309">
        <ele>1847.3</ele>
        <time>2022-08-05T08:35:25+0200</time>
      </trkpt>
      <trkpt lat="44.92494" lon="6.57319">
        <ele>1846.2</ele>
        <time>2022-08-05T08:35:26+0200</time>
      </trkpt>
      <trkpt lat="44.92487" lon="6.57325">
        <ele>1846.3</ele>
        <time>2022-08-05T08:35:27+0200</time>
      </trkpt>
      <trkpt lat="44.92484" lon="6.57333">
        <ele>1844.9</ele>
        <time>2022-08-05T08:35:28+0200</time>
      </trkpt>
      <trkpt lat="44.9248" lon="6.57337">
        <ele>1844.6</ele>
        <time>2022-08-05T08:35:29+0200</time>
      </trkpt>
      <trkpt lat="44.92477" lon="6.57346">
        <ele>1842.7</ele>
        <time>2022-08-05T08:35:31+0200</time>
      </trkpt>
      <trkpt lat="44.92482" lon="6.57356">
        <ele>1838.4</ele>
        <time>2022-08-05T08:35:33+0200</time>
      </trkpt>
      <trkpt lat="44.92489" lon="6.57362">
        <ele>1835.2</ele>
        <time>2022-08-05T08:35:34+0200</time>
      </trkpt>
      <trkpt lat="44.92495" lon="6.57353">
        <ele>1836.1</ele>
        <time>2022-08-05T08:35:35+0200</time>
      </trkpt>
      <trkpt lat="44.92501" lon="6.57349">
        <ele>1835.7</ele>
        <time>2022-08-05T08:35:36+0200</time>
      </trkpt>
      <trkpt lat="44.92508" lon="6.57346">
        <ele>1834.3</ele>
        <time>2022-08-05T08:35:37+0200</time>
      </trkpt>
      <trkpt lat="44.92515" lon="6.57342">
        <ele>1833.3</ele>
        <time>2022-08-05T08:35:38+0200</time>
      </trkpt>
      <trkpt lat="44.92521" lon="6.57336">
        <ele>1832.4</ele>
        <time>2022-08-05T08:35:39+0200</time>
      </trkpt>
      <trkpt lat="44.92529" lon="6.57333">
        <ele>1830.8</ele>
        <time>2022-08-05T08:35:40+0200</time>
      </trkpt>
      <trkpt lat="44.92536" lon="6.57329">
        <ele>1828.6</ele>
        <time>2022-08-05T08:35:41+0200</time>
      </trkpt>
      <trkpt lat="44.92546" lon="6.57326">
        <ele>1825.3</ele>
        <time>2022-08-05T08:35:42+0200</time>
      </trkpt>
      <trkpt lat="44.92553" lon="6.5732">
        <ele>1823.5</ele>
        <time>2022-08-05T08:35:43+0200</time>
      </trkpt>
      <trkpt lat="44.9256" lon="6.57314">
        <ele>1821.4</ele>
        <time>2022-08-05T08:35:44+0200</time>
      </trkpt>
      <trkpt lat="44.92567" lon="6.57307">
        <ele>1819.6</ele>
        <time>2022-08-05T08:35:45+0200</time>
      </trkpt>
      <trkpt lat="44.92572" lon="6.57297">
        <ele>1818.8</ele>
        <time>2022-08-05T08:35:46+0200</time>
      </trkpt>
      <trkpt lat="44.92577" lon="6.57286">
        <ele>1818.1</ele>
        <time>2022-08-05T08:35:47+0200</time>
      </trkpt>
      <trkpt lat="44.92581" lon="6.57274">
        <ele>1818</ele>
        <time>2022-08-05T08:35:48+0200</time>
      </trkpt>
      <trkpt lat="44.92584" lon="6.57262">
        <ele>1817.8</ele>
        <time>2022-08-05T08:35:49+0200</time>
      </trkpt>
      <trkpt lat="44.92589" lon="6.57247">
        <ele>1817.5</ele>
        <time>2022-08-05T08:35:50+0200</time>
      </trkpt>
      <trkpt lat="44.92592" lon="6.57233">
        <ele>1817.5</ele>
        <time>2022-08-05T08:35:51+0200</time>
      </trkpt>
      <trkpt lat="44.92596" lon="6.57218">
        <ele>1817.6</ele>
        <time>2022-08-05T08:35:52+0200</time>
      </trkpt>
      <trkpt lat="44.92599" lon="6.57205">
        <ele>1817.5</ele>
        <time>2022-08-05T08:35:53+0200</time>
      </trkpt>
      <trkpt lat="44.92603" lon="6.57193">
        <ele>1816.8</ele>
        <time>2022-08-05T08:35:54+0200</time>
      </trkpt>
      <trkpt lat="44.92606" lon="6.57181">
        <ele>1816.3</ele>
        <time>2022-08-05T08:35:55+0200</time>
      </trkpt>
      <trkpt lat="44.92609" lon="6.57168">
        <ele>1815.9</ele>
        <time>2022-08-05T08:35:56+0200</time>
      </trkpt>
      <trkpt lat="44.92612" lon="6.57156">
        <ele>1816</ele>
        <time>2022-08-05T08:35:57+0200</time>
      </trkpt>
      <trkpt lat="44.92613" lon="6.57146">
        <ele>1816.3</ele>
        <time>2022-08-05T08:35:58+0200</time>
      </trkpt>
      <trkpt lat="44.92613" lon="6.57133">
        <ele>1817.7</ele>
        <time>2022-08-05T08:35:59+0200</time>
      </trkpt>
      <trkpt lat="44.92614" lon="6.57126">
        <ele>1818.2</ele>
        <time>2022-08-05T08:36:00+0200</time>
      </trkpt>
      <trkpt lat="44.92621" lon="6.57122">
        <ele>1815.4</ele>
        <time>2022-08-05T08:36:02+0200</time>
      </trkpt>
      <trkpt lat="44.92626" lon="6.57131">
        <ele>1811.8</ele>
        <time>2022-08-05T08:36:04+0200</time>
      </trkpt>
      <trkpt lat="44.92625" lon="6.57142">
        <ele>1811.4</ele>
        <time>2022-08-05T08:36:06+0200</time>
      </trkpt>
      <trkpt lat="44.92624" lon="6.5715">
        <ele>1810.9</ele>
        <time>2022-08-05T08:36:07+0200</time>
      </trkpt>
      <trkpt lat="44.92622" lon="6.57159">
        <ele>1810.8</ele>
        <time>2022-08-05T08:36:08+0200</time>
      </trkpt>
      <trkpt lat="44.92623" lon="6.5717">
        <ele>1809.1</ele>
        <time>2022-08-05T08:36:09+0200</time>
      </trkpt>
      <trkpt lat="44.92627" lon="6.57182">
        <ele>1805.8</ele>
        <time>2022-08-05T08:36:10+0200</time>
      </trkpt>
      <trkpt lat="44.92627" lon="6.57196">
        <ele>1803.7</ele>
        <time>2022-08-05T08:36:11+0200</time>
      </trkpt>
      <trkpt lat="44.92629" lon="6.57211">
        <ele>1801.2</ele>
        <time>2022-08-05T08:36:12+0200</time>
      </trkpt>
      <trkpt lat="44.9263" lon="6.57227">
        <ele>1798.6</ele>
        <time>2022-08-05T08:36:13+0200</time>
      </trkpt>
      <trkpt lat="44.92631" lon="6.57242">
        <ele>1796.5</ele>
        <time>2022-08-05T08:36:14+0200</time>
      </trkpt>
      <trkpt lat="44.9263" lon="6.57258">
        <ele>1795.3</ele>
        <time>2022-08-05T08:36:15+0200</time>
      </trkpt>
      <trkpt lat="44.92629" lon="6.57274">
        <ele>1794</ele>
        <time>2022-08-05T08:36:16+0200</time>
      </trkpt>
      <trkpt lat="44.92628" lon="6.57289">
        <ele>1792.9</ele>
        <time>2022-08-05T08:36:17+0200</time>
      </trkpt>
      <trkpt lat="44.92624" lon="6.57301">
        <ele>1793.2</ele>
        <time>2022-08-05T08:36:18+0200</time>
      </trkpt>
      <trkpt lat="44.92621" lon="6.57312">
        <ele>1793</ele>
        <time>2022-08-05T08:36:19+0200</time>
      </trkpt>
      <trkpt lat="44.92617" lon="6.57319">
        <ele>1793.8</ele>
        <time>2022-08-05T08:36:20+0200</time>
      </trkpt>
      <trkpt lat="44.92615" lon="6.57326">
        <ele>1794.2</ele>
        <time>2022-08-05T08:36:21+0200</time>
      </trkpt>
      <trkpt lat="44.9262" lon="6.57335">
        <ele>1790.9</ele>
        <time>2022-08-05T08:36:23+0200</time>
      </trkpt>
      <trkpt lat="44.92624" lon="6.57341">
        <ele>1788.3</ele>
        <time>2022-08-05T08:36:24+0200</time>
      </trkpt>
      <trkpt lat="44.92629" lon="6.57342">
        <ele>1786.2</ele>
        <time>2022-08-05T08:36:25+0200</time>
      </trkpt>
      <trkpt lat="44.92635" lon="6.57335">
        <ele>1784.7</ele>
        <time>2022-08-05T08:36:26+0200</time>
      </trkpt>
      <trkpt lat="44.92639" lon="6.57327">
        <ele>1783.8</ele>
        <time>2022-08-05T08:36:27+0200</time>
      </trkpt>
      <trkpt lat="44.92642" lon="6.57318">
        <ele>1783.5</ele>
        <time>2022-08-05T08:36:28+0200</time>
      </trkpt>
      <trkpt lat="44.92644" lon="6.57307">
        <ele>1783.9</ele>
        <time>2022-08-05T08:36:29+0200</time>
      </trkpt>
      <trkpt lat="44.92647" lon="6.57298">
        <ele>1784.1</ele>
        <time>2022-08-05T08:36:30+0200</time>
      </trkpt>
      <trkpt lat="44.92653" lon="6.5729">
        <ele>1782.7</ele>
        <time>2022-08-05T08:36:32+0200</time>
      </trkpt>
      <trkpt lat="44.92657" lon="6.57298">
        <ele>1780.3</ele>
        <time>2022-08-05T08:36:34+0200</time>
      </trkpt>
      <trkpt lat="44.92657" lon="6.57307">
        <ele>1779.4</ele>
        <time>2022-08-05T08:36:35+0200</time>
      </trkpt>
      <trkpt lat="44.92656" lon="6.57314">
        <ele>1779.1</ele>
        <time>2022-08-05T08:36:36+0200</time>
      </trkpt>
      <trkpt lat="44.92654" lon="6.57322">
        <ele>1778.8</ele>
        <time>2022-08-05T08:36:37+0200</time>
      </trkpt>
      <trkpt lat="44.92654" lon="6.57331">
        <ele>1777.7</ele>
        <time>2022-08-05T08:36:38+0200</time>
      </trkpt>
      <trkpt lat="44.92656" lon="6.57337">
        <ele>1776.6</ele>
        <time>2022-08-05T08:36:39+0200</time>
      </trkpt>
      <trkpt lat="44.92655" lon="6.57346">
        <ele>1776</ele>
        <time>2022-08-05T08:36:40+0200</time>
      </trkpt>
      <trkpt lat="44.92653" lon="6.57358">
        <ele>1775.8</ele>
        <time>2022-08-05T08:36:41+0200</time>
      </trkpt>
      <trkpt lat="44.92651" lon="6.5737">
        <ele>1774.8</ele>
        <time>2022-08-05T08:36:42+0200</time>
      </trkpt>
      <trkpt lat="44.92649" lon="6.5738">
        <ele>1774.1</ele>
        <time>2022-08-05T08:36:43+0200</time>
      </trkpt>
      <trkpt lat="44.92645" lon="6.57391">
        <ele>1773.7</ele>
        <time>2022-08-05T08:36:44+0200</time>
      </trkpt>
      <trkpt lat="44.92644" lon="6.57401">
        <ele>1772.7</ele>
        <time>2022-08-05T08:36:45+0200</time>
      </trkpt>
      <trkpt lat="44.92643" lon="6.57411">
        <ele>1771.7</ele>
        <time>2022-08-05T08:36:46+0200</time>
      </trkpt>
      <trkpt lat="44.92642" lon="6.57418">
        <ele>1771</ele>
        <time>2022-08-05T08:36:47+0200</time>
      </trkpt>
      <trkpt lat="44.92642" lon="6.57427">
        <ele>1769.3</ele>
        <time>2022-08-05T08:36:49+0200</time>
      </trkpt>
      <trkpt lat="44.92643" lon="6.57437">
        <ele>1767.2</ele>
        <time>2022-08-05T08:36:51+0200</time>
      </trkpt>
      <trkpt lat="44.92641" lon="6.57443">
        <ele>1766.8</ele>
        <time>2022-08-05T08:36:53+0200</time>
      </trkpt>
      <trkpt lat="44.9264" lon="6.57451">
        <ele>1765.4</ele>
        <time>2022-08-05T08:36:54+0200</time>
      </trkpt>
      <trkpt lat="44.92637" lon="6.57457">
        <ele>1764.8</ele>
        <time>2022-08-05T08:36:55+0200</time>
      </trkpt>
      <trkpt lat="44.92633" lon="6.57467">
        <ele>1764.1</ele>
        <time>2022-08-05T08:36:57+0200</time>
      </trkpt>
      <trkpt lat="44.9263" lon="6.57472">
        <ele>1763.8</ele>
        <time>2022-08-05T08:36:58+0200</time>
      </trkpt>
      <trkpt lat="44.92621" lon="6.57473">
        <ele>1766.7</ele>
        <time>2022-08-05T08:36:59+0200</time>
      </trkpt>
      <trkpt lat="44.92618" lon="6.5748">
        <ele>1765.9</ele>
        <time>2022-08-05T08:37:00+0200</time>
      </trkpt>
      <trkpt lat="44.92615" lon="6.57487">
        <ele>1765.3</ele>
        <time>2022-08-05T08:37:01+0200</time>
      </trkpt>
      <trkpt lat="44.92612" lon="6.57494">
        <ele>1764.4</ele>
        <time>2022-08-05T08:37:02+0200</time>
      </trkpt>
      <trkpt lat="44.92609" lon="6.57501">
        <ele>1763.6</ele>
        <time>2022-08-05T08:37:03+0200</time>
      </trkpt>
      <trkpt lat="44.92611" lon="6.57507">
        <ele>1761.4</ele>
        <time>2022-08-05T08:37:04+0200</time>
      </trkpt>
      <trkpt lat="44.92614" lon="6.57517">
        <ele>1758.6</ele>
        <time>2022-08-05T08:37:05+0200</time>
      </trkpt>
      <trkpt lat="44.92624" lon="6.57519">
        <ele>1755.1</ele>
        <time>2022-08-05T08:37:06+0200</time>
      </trkpt>
      <trkpt lat="44.92634" lon="6.57506">
        <ele>1755.3</ele>
        <time>2022-08-05T08:37:07+0200</time>
      </trkpt>
      <trkpt lat="44.92643" lon="6.57501">
        <ele>1753.9</ele>
        <time>2022-08-05T08:37:08+0200</time>
      </trkpt>
      <trkpt lat="44.92653" lon="6.57496">
        <ele>1752.3</ele>
        <time>2022-08-05T08:37:09+0200</time>
      </trkpt>
      <trkpt lat="44.92662" lon="6.57491">
        <ele>1751.1</ele>
        <time>2022-08-05T08:37:10+0200</time>
      </trkpt>
      <trkpt lat="44.92672" lon="6.57488">
        <ele>1749.6</ele>
        <time>2022-08-05T08:37:11+0200</time>
      </trkpt>
      <trkpt lat="44.92681" lon="6.57484">
        <ele>1749</ele>
        <time>2022-08-05T08:37:12+0200</time>
      </trkpt>
      <trkpt lat="44.92687" lon="6.57475">
        <ele>1749.7</ele>
        <time>2022-08-05T08:37:13+0200</time>
      </trkpt>
      <trkpt lat="44.92693" lon="6.57465">
        <ele>1750.6</ele>
        <time>2022-08-05T08:37:14+0200</time>
      </trkpt>
      <trkpt lat="44.927" lon="6.57457">
        <ele>1750.5</ele>
        <time>2022-08-05T08:37:15+0200</time>
      </trkpt>
      <trkpt lat="44.92709" lon="6.57452">
        <ele>1749.6</ele>
        <time>2022-08-05T08:37:16+0200</time>
      </trkpt>
      <trkpt lat="44.92718" lon="6.57446">
        <ele>1748.7</ele>
        <time>2022-08-05T08:37:17+0200</time>
      </trkpt>
      <trkpt lat="44.92728" lon="6.57441">
        <ele>1747.3</ele>
        <time>2022-08-05T08:37:18+0200</time>
      </trkpt>
      <trkpt lat="44.92739" lon="6.57441">
        <ele>1745</ele>
        <time>2022-08-05T08:37:19+0200</time>
      </trkpt>
      <trkpt lat="44.92749" lon="6.57439">
        <ele>1743.2</ele>
        <time>2022-08-05T08:37:20+0200</time>
      </trkpt>
      <trkpt lat="44.92757" lon="6.57438">
        <ele>1740.9</ele>
        <time>2022-08-05T08:37:21+0200</time>
      </trkpt>
      <trkpt lat="44.92766" lon="6.57437">
        <ele>1738.8</ele>
        <time>2022-08-05T08:37:22+0200</time>
      </trkpt>
      <trkpt lat="44.92774" lon="6.57432">
        <ele>1737.7</ele>
        <time>2022-08-05T08:37:23+0200</time>
      </trkpt>
      <trkpt lat="44.92782" lon="6.5743">
        <ele>1735.9</ele>
        <time>2022-08-05T08:37:24+0200</time>
      </trkpt>
      <trkpt lat="44.92789" lon="6.57425">
        <ele>1735</ele>
        <time>2022-08-05T08:37:25+0200</time>
      </trkpt>
      <trkpt lat="44.92797" lon="6.57418">
        <ele>1735</ele>
        <time>2022-08-05T08:37:26+0200</time>
      </trkpt>
      <trkpt lat="44.92805" lon="6.5741">
        <ele>1735</ele>
        <time>2022-08-05T08:37:27+0200</time>
      </trkpt>
      <trkpt lat="44.92814" lon="6.57402">
        <ele>1734</ele>
        <time>2022-08-05T08:37:28+0200</time>
      </trkpt>
      <trkpt lat="44.92823" lon="6.57393">
        <ele>1733.2</ele>
        <time>2022-08-05T08:37:29+0200</time>
      </trkpt>
      <trkpt lat="44.92833" lon="6.57385">
        <ele>1732.5</ele>
        <time>2022-08-05T08:37:30+0200</time>
      </trkpt>
      <trkpt lat="44.92842" lon="6.57378">
        <ele>1730.9</ele>
        <time>2022-08-05T08:37:31+0200</time>
      </trkpt>
      <trkpt lat="44.92852" lon="6.57368">
        <ele>1729.4</ele>
        <time>2022-08-05T08:37:32+0200</time>
      </trkpt>
      <trkpt lat="44.9286" lon="6.57361">
        <ele>1727.7</ele>
        <time>2022-08-05T08:37:33+0200</time>
      </trkpt>
      <trkpt lat="44.92867" lon="6.57356">
        <ele>1726</ele>
        <time>2022-08-05T08:37:34+0200</time>
      </trkpt>
      <trkpt lat="44.92873" lon="6.5735">
        <ele>1725</ele>
        <time>2022-08-05T08:37:35+0200</time>
      </trkpt>
      <trkpt lat="44.92876" lon="6.57341">
        <ele>1726.4</ele>
        <time>2022-08-05T08:37:36+0200</time>
      </trkpt>
      <trkpt lat="44.92882" lon="6.57333">
        <ele>1725.8</ele>
        <time>2022-08-05T08:37:38+0200</time>
      </trkpt>
      <trkpt lat="44.92889" lon="6.57335">
        <ele>1721.5</ele>
        <time>2022-08-05T08:37:40+0200</time>
      </trkpt>
      <trkpt lat="44.92886" lon="6.57343">
        <ele>1720.9</ele>
        <time>2022-08-05T08:37:42+0200</time>
      </trkpt>
      <trkpt lat="44.92879" lon="6.57351">
        <ele>1722</ele>
        <time>2022-08-05T08:37:44+0200</time>
      </trkpt>
      <trkpt lat="44.92874" lon="6.57355">
        <ele>1722.9</ele>
        <time>2022-08-05T08:37:45+0200</time>
      </trkpt>
      <trkpt lat="44.92871" lon="6.57364">
        <ele>1721.6</ele>
        <time>2022-08-05T08:37:46+0200</time>
      </trkpt>
      <trkpt lat="44.92869" lon="6.57372">
        <ele>1720</ele>
        <time>2022-08-05T08:37:47+0200</time>
      </trkpt>
      <trkpt lat="44.92863" lon="6.57382">
        <ele>1719.3</ele>
        <time>2022-08-05T08:37:48+0200</time>
      </trkpt>
      <trkpt lat="44.92857" lon="6.57392">
        <ele>1719.1</ele>
        <time>2022-08-05T08:37:49+0200</time>
      </trkpt>
      <trkpt lat="44.9285" lon="6.57406">
        <ele>1717.6</ele>
        <time>2022-08-05T08:37:50+0200</time>
      </trkpt>
      <trkpt lat="44.92842" lon="6.57415">
        <ele>1717.9</ele>
        <time>2022-08-05T08:37:51+0200</time>
      </trkpt>
      <trkpt lat="44.92834" lon="6.57429">
        <ele>1716.9</ele>
        <time>2022-08-05T08:37:52+0200</time>
      </trkpt>
      <trkpt lat="44.92826" lon="6.57442">
        <ele>1715.8</ele>
        <time>2022-08-05T08:37:53+0200</time>
      </trkpt>
      <trkpt lat="44.92819" lon="6.57456">
        <ele>1714.1</ele>
        <time>2022-08-05T08:37:54+0200</time>
      </trkpt>
      <trkpt lat="44.92812" lon="6.57471">
        <ele>1712.2</ele>
        <time>2022-08-05T08:37:55+0200</time>
      </trkpt>
      <trkpt lat="44.92805" lon="6.57484">
        <ele>1710.8</ele>
        <time>2022-08-05T08:37:56+0200</time>
      </trkpt>
      <trkpt lat="44.92798" lon="6.57499">
        <ele>1708.9</ele>
        <time>2022-08-05T08:37:57+0200</time>
      </trkpt>
      <trkpt lat="44.92792" lon="6.57514">
        <ele>1707.1</ele>
        <time>2022-08-05T08:37:58+0200</time>
      </trkpt>
      <trkpt lat="44.92784" lon="6.57532">
        <ele>1704.9</ele>
        <time>2022-08-05T08:37:59+0200</time>
      </trkpt>
      <trkpt lat="44.92778" lon="6.57548">
        <ele>1702.8</ele>
        <time>2022-08-05T08:38:00+0200</time>
      </trkpt>
      <trkpt lat="44.92771" lon="6.57566">
        <ele>1701</ele>
        <time>2022-08-05T08:38:01+0200</time>
      </trkpt>
      <trkpt lat="44.92762" lon="6.5758">
        <ele>1699.7</ele>
        <time>2022-08-05T08:38:02+0200</time>
      </trkpt>
      <trkpt lat="44.92754" lon="6.57595">
        <ele>1698.3</ele>
        <time>2022-08-05T08:38:03+0200</time>
      </trkpt>
      <trkpt lat="44.92745" lon="6.57606">
        <ele>1698</ele>
        <time>2022-08-05T08:38:04+0200</time>
      </trkpt>
      <trkpt lat="44.9274" lon="6.57617">
        <ele>1697.2</ele>
        <time>2022-08-05T08:38:05+0200</time>
      </trkpt>
      <trkpt lat="44.92736" lon="6.57628">
        <ele>1695.9</ele>
        <time>2022-08-05T08:38:06+0200</time>
      </trkpt>
      <trkpt lat="44.92731" lon="6.57642">
        <ele>1694.1</ele>
        <time>2022-08-05T08:38:07+0200</time>
      </trkpt>
      <trkpt lat="44.92727" lon="6.57657">
        <ele>1692</ele>
        <time>2022-08-05T08:38:08+0200</time>
      </trkpt>
      <trkpt lat="44.92722" lon="6.5767">
        <ele>1690.1</ele>
        <time>2022-08-05T08:38:09+0200</time>
      </trkpt>
      <trkpt lat="44.92718" lon="6.57683">
        <ele>1687.9</ele>
        <time>2022-08-05T08:38:10+0200</time>
      </trkpt>
      <trkpt lat="44.92714" lon="6.57695">
        <ele>1685.9</ele>
        <time>2022-08-05T08:38:11+0200</time>
      </trkpt>
      <trkpt lat="44.92711" lon="6.57705">
        <ele>1684.2</ele>
        <time>2022-08-05T08:38:12+0200</time>
      </trkpt>
      <trkpt lat="44.92706" lon="6.57713">
        <ele>1683.2</ele>
        <time>2022-08-05T08:38:13+0200</time>
      </trkpt>
      <trkpt lat="44.927" lon="6.57719">
        <ele>1683.5</ele>
        <time>2022-08-05T08:38:14+0200</time>
      </trkpt>
      <trkpt lat="44.92693" lon="6.57724">
        <ele>1684.1</ele>
        <time>2022-08-05T08:38:15+0200</time>
      </trkpt>
      <trkpt lat="44.92686" lon="6.57731">
        <ele>1684</ele>
        <time>2022-08-05T08:38:16+0200</time>
      </trkpt>
      <trkpt lat="44.92678" lon="6.57739">
        <ele>1683.6</ele>
        <time>2022-08-05T08:38:17+0200</time>
      </trkpt>
      <trkpt lat="44.9267" lon="6.57741">
        <ele>1684.9</ele>
        <time>2022-08-05T08:38:18+0200</time>
      </trkpt>
      <trkpt lat="44.92662" lon="6.57747">
        <ele>1685.1</ele>
        <time>2022-08-05T08:38:19+0200</time>
      </trkpt>
      <trkpt lat="44.92653" lon="6.57751">
        <ele>1685.7</ele>
        <time>2022-08-05T08:38:20+0200</time>
      </trkpt>
      <trkpt lat="44.92647" lon="6.57761">
        <ele>1684.2</ele>
        <time>2022-08-05T08:38:21+0200</time>
      </trkpt>
      <trkpt lat="44.92639" lon="6.57768">
        <ele>1683.9</ele>
        <time>2022-08-05T08:38:22+0200</time>
      </trkpt>
      <trkpt lat="44.92632" lon="6.57775">
        <ele>1683</ele>
        <time>2022-08-05T08:38:23+0200</time>
      </trkpt>
      <trkpt lat="44.92624" lon="6.57781">
        <ele>1682.4</ele>
        <time>2022-08-05T08:38:24+0200</time>
      </trkpt>
      <trkpt lat="44.9262" lon="6.57789">
        <ele>1681.1</ele>
        <time>2022-08-05T08:38:25+0200</time>
      </trkpt>
      <trkpt lat="44.92617" lon="6.57799">
        <ele>1679.5</ele>
        <time>2022-08-05T08:38:26+0200</time>
      </trkpt>
      <trkpt lat="44.92613" lon="6.57809">
        <ele>1678.1</ele>
        <time>2022-08-05T08:38:27+0200</time>
      </trkpt>
      <trkpt lat="44.92611" lon="6.5782">
        <ele>1676.5</ele>
        <time>2022-08-05T08:38:28+0200</time>
      </trkpt>
      <trkpt lat="44.92609" lon="6.5783">
        <ele>1675</ele>
        <time>2022-08-05T08:38:29+0200</time>
      </trkpt>
      <trkpt lat="44.92607" lon="6.5784">
        <ele>1674.1</ele>
        <time>2022-08-05T08:38:30+0200</time>
      </trkpt>
      <trkpt lat="44.926" lon="6.57845">
        <ele>1675.1</ele>
        <time>2022-08-05T08:38:31+0200</time>
      </trkpt>
      <trkpt lat="44.92595" lon="6.57854">
        <ele>1674.8</ele>
        <time>2022-08-05T08:38:32+0200</time>
      </trkpt>
      <trkpt lat="44.9259" lon="6.57861">
        <ele>1674.8</ele>
        <time>2022-08-05T08:38:33+0200</time>
      </trkpt>
      <trkpt lat="44.92584" lon="6.57868">
        <ele>1674.9</ele>
        <time>2022-08-05T08:38:34+0200</time>
      </trkpt>
      <trkpt lat="44.9258" lon="6.57874">
        <ele>1675</ele>
        <time>2022-08-05T08:38:35+0200</time>
      </trkpt>
      <trkpt lat="44.92575" lon="6.5788">
        <ele>1674.9</ele>
        <time>2022-08-05T08:38:37+0200</time>
      </trkpt>
      <trkpt lat="44.92571" lon="6.5789">
        <ele>1674</ele>
        <time>2022-08-05T08:38:39+0200</time>
      </trkpt>
      <trkpt lat="44.9257" lon="6.57899">
        <ele>1672.6</ele>
        <time>2022-08-05T08:38:40+0200</time>
      </trkpt>
      <trkpt lat="44.92566" lon="6.57909">
        <ele>1671.4</ele>
        <time>2022-08-05T08:38:41+0200</time>
      </trkpt>
      <trkpt lat="44.92564" lon="6.57914">
        <ele>1670.5</ele>
        <time>2022-08-05T08:38:42+0200</time>
      </trkpt>
      <trkpt lat="44.92559" lon="6.57924">
        <ele>1669.3</ele>
        <time>2022-08-05T08:38:43+0200</time>
      </trkpt>
      <trkpt lat="44.92553" lon="6.57932">
        <ele>1668.7</ele>
        <time>2022-08-05T08:38:44+0200</time>
      </trkpt>
      <trkpt lat="44.92545" lon="6.57941">
        <ele>1667.9</ele>
        <time>2022-08-05T08:38:45+0200</time>
      </trkpt>
      <trkpt lat="44.92536" lon="6.5795">
        <ele>1666.9</ele>
        <time>2022-08-05T08:38:46+0200</time>
      </trkpt>
      <trkpt lat="44.92528" lon="6.57957">
        <ele>1666.2</ele>
        <time>2022-08-05T08:38:47+0200</time>
      </trkpt>
      <trkpt lat="44.92522" lon="6.57962">
        <ele>1665.7</ele>
        <time>2022-08-05T08:38:48+0200</time>
      </trkpt>
      <trkpt lat="44.92512" lon="6.5797">
        <ele>1664.8</ele>
        <time>2022-08-05T08:38:49+0200</time>
      </trkpt>
      <trkpt lat="44.92507" lon="6.57973">
        <ele>1664.3</ele>
        <time>2022-08-05T08:38:50+0200</time>
      </trkpt>
      <trkpt lat="44.92503" lon="6.57976">
        <ele>1663.6</ele>
        <time>2022-08-05T08:38:51+0200</time>
      </trkpt>
      <trkpt lat="44.92497" lon="6.57974">
        <ele>1664.5</ele>
        <time>2022-08-05T08:38:52+0200</time>
      </trkpt>
      <trkpt lat="44.92493" lon="6.57979">
        <ele>1663.1</ele>
        <time>2022-08-05T08:38:56+0200</time>
      </trkpt>
      <trkpt lat="44.9249" lon="6.57985">
        <ele>1661.3</ele>
        <time>2022-08-05T08:39:01+0200</time>
      </trkpt>
      <trkpt lat="44.92507" lon="6.58006">
        <ele>1653.6</ele>
        <time>2022-08-05T08:39:08+0200</time>
      </trkpt>
      <trkpt lat="44.92512" lon="6.58004">
        <ele>1654.2</ele>
        <time>2022-08-05T08:39:09+0200</time>
      </trkpt>
      <trkpt lat="44.92516" lon="6.58002">
        <ele>1654.8</ele>
        <time>2022-08-05T08:39:10+0200</time>
      </trkpt>
      <trkpt lat="44.92521" lon="6.57999">
        <ele>1655.7</ele>
        <time>2022-08-05T08:39:11+0200</time>
      </trkpt>
      <trkpt lat="44.92527" lon="6.57999">
        <ele>1655.3</ele>
        <time>2022-08-05T08:39:13+0200</time>
      </trkpt>
      <trkpt lat="44.92535" lon="6.58004">
        <ele>1653.2</ele>
        <time>2022-08-05T08:39:15+0200</time>
      </trkpt>
      <trkpt lat="44.9255" lon="6.58001">
        <ele>1653</ele>
        <time>2022-08-05T08:39:17+0200</time>
      </trkpt>
      <trkpt lat="44.9256" lon="6.57996">
        <ele>1653.7</ele>
        <time>2022-08-05T08:39:18+0200</time>
      </trkpt>
      <trkpt lat="44.92571" lon="6.5799">
        <ele>1654.4</ele>
        <time>2022-08-05T08:39:19+0200</time>
      </trkpt>
      <trkpt lat="44.92584" lon="6.57985">
        <ele>1654.8</ele>
        <time>2022-08-05T08:39:20+0200</time>
      </trkpt>
      <trkpt lat="44.92591" lon="6.57986">
        <ele>1654.1</ele>
        <time>2022-08-05T08:39:21+0200</time>
      </trkpt>
      <trkpt lat="44.92602" lon="6.57988">
        <ele>1652.8</ele>
        <time>2022-08-05T08:39:22+0200</time>
      </trkpt>
      <trkpt lat="44.92614" lon="6.57997">
        <ele>1650.3</ele>
        <time>2022-08-05T08:39:23+0200</time>
      </trkpt>
      <trkpt lat="44.92623" lon="6.58004">
        <ele>1648.3</ele>
        <time>2022-08-05T08:39:24+0200</time>
      </trkpt>
      <trkpt lat="44.92634" lon="6.5801">
        <ele>1646.2</ele>
        <time>2022-08-05T08:39:25+0200</time>
      </trkpt>
      <trkpt lat="44.92646" lon="6.58013">
        <ele>1644.7</ele>
        <time>2022-08-05T08:39:26+0200</time>
      </trkpt>
      <trkpt lat="44.92659" lon="6.58013">
        <ele>1643.4</ele>
        <time>2022-08-05T08:39:27+0200</time>
      </trkpt>
      <trkpt lat="44.9267" lon="6.58014">
        <ele>1642.3</ele>
        <time>2022-08-05T08:39:28+0200</time>
      </trkpt>
      <trkpt lat="44.92679" lon="6.58015">
        <ele>1641.5</ele>
        <time>2022-08-05T08:39:29+0200</time>
      </trkpt>
      <trkpt lat="44.92689" lon="6.58016">
        <ele>1640.6</ele>
        <time>2022-08-05T08:39:30+0200</time>
      </trkpt>
      <trkpt lat="44.92698" lon="6.58016">
        <ele>1639.4</ele>
        <time>2022-08-05T08:39:31+0200</time>
      </trkpt>
      <trkpt lat="44.92708" lon="6.58015">
        <ele>1637.5</ele>
        <time>2022-08-05T08:39:32+0200</time>
      </trkpt>
      <trkpt lat="44.92717" lon="6.58014">
        <ele>1635.6</ele>
        <time>2022-08-05T08:39:33+0200</time>
      </trkpt>
      <trkpt lat="44.92724" lon="6.58004">
        <ele>1635.2</ele>
        <time>2022-08-05T08:39:34+0200</time>
      </trkpt>
      <trkpt lat="44.92727" lon="6.57992">
        <ele>1635.2</ele>
        <time>2022-08-05T08:39:35+0200</time>
      </trkpt>
      <trkpt lat="44.92728" lon="6.5798">
        <ele>1635.7</ele>
        <time>2022-08-05T08:39:36+0200</time>
      </trkpt>
      <trkpt lat="44.92728" lon="6.57973">
        <ele>1636.4</ele>
        <time>2022-08-05T08:39:37+0200</time>
      </trkpt>
      <trkpt lat="44.92728" lon="6.57965">
        <ele>1636.9</ele>
        <time>2022-08-05T08:39:38+0200</time>
      </trkpt>
      <trkpt lat="44.92731" lon="6.57959">
        <ele>1636.6</ele>
        <time>2022-08-05T08:39:39+0200</time>
      </trkpt>
      <trkpt lat="44.92734" lon="6.57955">
        <ele>1636.1</ele>
        <time>2022-08-05T08:39:40+0200</time>
      </trkpt>
      <trkpt lat="44.92743" lon="6.57952">
        <ele>1633.9</ele>
        <time>2022-08-05T08:39:42+0200</time>
      </trkpt>
      <trkpt lat="44.9275" lon="6.57954">
        <ele>1631.9</ele>
        <time>2022-08-05T08:39:43+0200</time>
      </trkpt>
      <trkpt lat="44.9276" lon="6.57944">
        <ele>1630.6</ele>
        <time>2022-08-05T08:39:44+0200</time>
      </trkpt>
      <trkpt lat="44.92768" lon="6.57934">
        <ele>1629.5</ele>
        <time>2022-08-05T08:39:45+0200</time>
      </trkpt>
      <trkpt lat="44.92776" lon="6.57922">
        <ele>1628.8</ele>
        <time>2022-08-05T08:39:46+0200</time>
      </trkpt>
      <trkpt lat="44.92788" lon="6.57915">
        <ele>1627</ele>
        <time>2022-08-05T08:39:47+0200</time>
      </trkpt>
      <trkpt lat="44.92798" lon="6.57914">
        <ele>1625</ele>
        <time>2022-08-05T08:39:48+0200</time>
      </trkpt>
      <trkpt lat="44.92807" lon="6.5791">
        <ele>1623.6</ele>
        <time>2022-08-05T08:39:49+0200</time>
      </trkpt>
      <trkpt lat="44.92817" lon="6.57905">
        <ele>1622.7</ele>
        <time>2022-08-05T08:39:50+0200</time>
      </trkpt>
      <trkpt lat="44.92827" lon="6.57897">
        <ele>1621.9</ele>
        <time>2022-08-05T08:39:51+0200</time>
      </trkpt>
      <trkpt lat="44.92838" lon="6.57889">
        <ele>1621.3</ele>
        <time>2022-08-05T08:39:52+0200</time>
      </trkpt>
      <trkpt lat="44.92847" lon="6.57881">
        <ele>1621.2</ele>
        <time>2022-08-05T08:39:53+0200</time>
      </trkpt>
      <trkpt lat="44.92856" lon="6.57873">
        <ele>1621.1</ele>
        <time>2022-08-05T08:39:54+0200</time>
      </trkpt>
      <trkpt lat="44.92864" lon="6.57867">
        <ele>1620.8</ele>
        <time>2022-08-05T08:39:55+0200</time>
      </trkpt>
      <trkpt lat="44.92873" lon="6.57865">
        <ele>1619.8</ele>
        <time>2022-08-05T08:39:56+0200</time>
      </trkpt>
      <trkpt lat="44.92881" lon="6.57864">
        <ele>1618.8</ele>
        <time>2022-08-05T08:39:57+0200</time>
      </trkpt>
      <trkpt lat="44.92891" lon="6.5787">
        <ele>1616.8</ele>
        <time>2022-08-05T08:39:58+0200</time>
      </trkpt>
      <trkpt lat="44.929" lon="6.57873">
        <ele>1615.1</ele>
        <time>2022-08-05T08:39:59+0200</time>
      </trkpt>
      <trkpt lat="44.9291" lon="6.57874">
        <ele>1613.5</ele>
        <time>2022-08-05T08:40:00+0200</time>
      </trkpt>
      <trkpt lat="44.92919" lon="6.57877">
        <ele>1611.9</ele>
        <time>2022-08-05T08:40:01+0200</time>
      </trkpt>
      <trkpt lat="44.92928" lon="6.57879">
        <ele>1610.4</ele>
        <time>2022-08-05T08:40:02+0200</time>
      </trkpt>
      <trkpt lat="44.92935" lon="6.57879">
        <ele>1609.4</ele>
        <time>2022-08-05T08:40:03+0200</time>
      </trkpt>
      <trkpt lat="44.92942" lon="6.57878">
        <ele>1608.6</ele>
        <time>2022-08-05T08:40:04+0200</time>
      </trkpt>
      <trkpt lat="44.92949" lon="6.57876">
        <ele>1607.8</ele>
        <time>2022-08-05T08:40:05+0200</time>
      </trkpt>
      <trkpt lat="44.92957" lon="6.57873">
        <ele>1607</ele>
        <time>2022-08-05T08:40:06+0200</time>
      </trkpt>
      <trkpt lat="44.92966" lon="6.57869">
        <ele>1606</ele>
        <time>2022-08-05T08:40:07+0200</time>
      </trkpt>
      <trkpt lat="44.92977" lon="6.57865">
        <ele>1604.7</ele>
        <time>2022-08-05T08:40:08+0200</time>
      </trkpt>
      <trkpt lat="44.92987" lon="6.5786">
        <ele>1603</ele>
        <time>2022-08-05T08:40:09+0200</time>
      </trkpt>
      <trkpt lat="44.92997" lon="6.57855">
        <ele>1601.4</ele>
        <time>2022-08-05T08:40:10+0200</time>
      </trkpt>
      <trkpt lat="44.93007" lon="6.57849">
        <ele>1599.6</ele>
        <time>2022-08-05T08:40:11+0200</time>
      </trkpt>
      <trkpt lat="44.93016" lon="6.57843">
        <ele>1597.9</ele>
        <time>2022-08-05T08:40:12+0200</time>
      </trkpt>
      <trkpt lat="44.93024" lon="6.57835">
        <ele>1596.6</ele>
        <time>2022-08-05T08:40:13+0200</time>
      </trkpt>
      <trkpt lat="44.93033" lon="6.57827">
        <ele>1595</ele>
        <time>2022-08-05T08:40:14+0200</time>
      </trkpt>
      <trkpt lat="44.93041" lon="6.57819">
        <ele>1593.5</ele>
        <time>2022-08-05T08:40:15+0200</time>
      </trkpt>
      <trkpt lat="44.93049" lon="6.5781">
        <ele>1592.3</ele>
        <time>2022-08-05T08:40:16+0200</time>
      </trkpt>
      <trkpt lat="44.93058" lon="6.57802">
        <ele>1590.7</ele>
        <time>2022-08-05T08:40:17+0200</time>
      </trkpt>
      <trkpt lat="44.93066" lon="6.57792">
        <ele>1589</ele>
        <time>2022-08-05T08:40:18+0200</time>
      </trkpt>
      <trkpt lat="44.93074" lon="6.57782">
        <ele>1587.6</ele>
        <time>2022-08-05T08:40:19+0200</time>
      </trkpt>
      <trkpt lat="44.93081" lon="6.57773">
        <ele>1586.2</ele>
        <time>2022-08-05T08:40:20+0200</time>
      </trkpt>
      <trkpt lat="44.93088" lon="6.57766">
        <ele>1584.7</ele>
        <time>2022-08-05T08:40:21+0200</time>
      </trkpt>
      <trkpt lat="44.93094" lon="6.57755">
        <ele>1584</ele>
        <time>2022-08-05T08:40:22+0200</time>
      </trkpt>
      <trkpt lat="44.93099" lon="6.57745">
        <ele>1583.5</ele>
        <time>2022-08-05T08:40:23+0200</time>
      </trkpt>
      <trkpt lat="44.93103" lon="6.57735">
        <ele>1583.3</ele>
        <time>2022-08-05T08:40:24+0200</time>
      </trkpt>
      <trkpt lat="44.9311" lon="6.57725">
        <ele>1582.1</ele>
        <time>2022-08-05T08:40:25+0200</time>
      </trkpt>
      <trkpt lat="44.93118" lon="6.57717">
        <ele>1580.2</ele>
        <time>2022-08-05T08:40:26+0200</time>
      </trkpt>
      <trkpt lat="44.93125" lon="6.57709">
        <ele>1578.4</ele>
        <time>2022-08-05T08:40:27+0200</time>
      </trkpt>
      <trkpt lat="44.93131" lon="6.577">
        <ele>1577.1</ele>
        <time>2022-08-05T08:40:28+0200</time>
      </trkpt>
      <trkpt lat="44.93137" lon="6.5769">
        <ele>1576.1</ele>
        <time>2022-08-05T08:40:29+0200</time>
      </trkpt>
      <trkpt lat="44.93142" lon="6.57682">
        <ele>1574.6</ele>
        <time>2022-08-05T08:40:30+0200</time>
      </trkpt>
      <trkpt lat="44.93145" lon="6.57668">
        <ele>1574.6</ele>
        <time>2022-08-05T08:40:31+0200</time>
      </trkpt>
      <trkpt lat="44.93146" lon="6.57656">
        <ele>1574.8</ele>
        <time>2022-08-05T08:40:32+0200</time>
      </trkpt>
      <trkpt lat="44.93148" lon="6.57642">
        <ele>1575.1</ele>
        <time>2022-08-05T08:40:33+0200</time>
      </trkpt>
      <trkpt lat="44.93152" lon="6.5763">
        <ele>1574.5</ele>
        <time>2022-08-05T08:40:34+0200</time>
      </trkpt>
      <trkpt lat="44.93153" lon="6.57618">
        <ele>1574.7</ele>
        <time>2022-08-05T08:40:35+0200</time>
      </trkpt>
      <trkpt lat="44.93155" lon="6.57611">
        <ele>1574.3</ele>
        <time>2022-08-05T08:40:36+0200</time>
      </trkpt>
      <trkpt lat="44.93158" lon="6.57607">
        <ele>1572.9</ele>
        <time>2022-08-05T08:40:37+0200</time>
      </trkpt>
      <trkpt lat="44.93163" lon="6.57605">
        <ele>1570.9</ele>
        <time>2022-08-05T08:40:38+0200</time>
      </trkpt>
      <trkpt lat="44.93166" lon="6.57614">
        <ele>1569.3</ele>
        <time>2022-08-05T08:40:39+0200</time>
      </trkpt>
      <trkpt lat="44.93165" lon="6.57626">
        <ele>1569</ele>
        <time>2022-08-05T08:40:41+0200</time>
      </trkpt>
      <trkpt lat="44.93162" lon="6.57638">
        <ele>1570</ele>
        <time>2022-08-05T08:40:43+0200</time>
      </trkpt>
      <trkpt lat="44.93161" lon="6.5765">
        <ele>1569.4</ele>
        <time>2022-08-05T08:40:46+0200</time>
      </trkpt>
      <trkpt lat="44.93164" lon="6.57664">
        <ele>1567.2</ele>
        <time>2022-08-05T08:40:47+0200</time>
      </trkpt>
      <trkpt lat="44.93167" lon="6.57679">
        <ele>1565</ele>
        <time>2022-08-05T08:40:48+0200</time>
      </trkpt>
      <trkpt lat="44.93167" lon="6.57693">
        <ele>1564.2</ele>
        <time>2022-08-05T08:40:49+0200</time>
      </trkpt>
      <trkpt lat="44.93165" lon="6.57706">
        <ele>1563.8</ele>
        <time>2022-08-05T08:40:50+0200</time>
      </trkpt>
      <trkpt lat="44.93164" lon="6.57717">
        <ele>1563.5</ele>
        <time>2022-08-05T08:40:51+0200</time>
      </trkpt>
      <trkpt lat="44.93162" lon="6.5773">
        <ele>1563</ele>
        <time>2022-08-05T08:40:52+0200</time>
      </trkpt>
      <trkpt lat="44.93161" lon="6.57745">
        <ele>1561.6</ele>
        <time>2022-08-05T08:40:53+0200</time>
      </trkpt>
      <trkpt lat="44.93163" lon="6.57764">
        <ele>1559.1</ele>
        <time>2022-08-05T08:40:54+0200</time>
      </trkpt>
      <trkpt lat="44.93161" lon="6.57782">
        <ele>1557.6</ele>
        <time>2022-08-05T08:40:55+0200</time>
      </trkpt>
      <trkpt lat="44.93159" lon="6.57797">
        <ele>1556.4</ele>
        <time>2022-08-05T08:40:56+0200</time>
      </trkpt>
      <trkpt lat="44.93156" lon="6.57812">
        <ele>1555.2</ele>
        <time>2022-08-05T08:40:57+0200</time>
      </trkpt>
      <trkpt lat="44.93154" lon="6.57821">
        <ele>1554.4</ele>
        <time>2022-08-05T08:40:59+0200</time>
      </trkpt>
      <trkpt lat="44.93152" lon="6.57833">
        <ele>1553.6</ele>
        <time>2022-08-05T08:41:00+0200</time>
      </trkpt>
      <trkpt lat="44.93149" lon="6.57844">
        <ele>1552.3</ele>
        <time>2022-08-05T08:41:01+0200</time>
      </trkpt>
      <trkpt lat="44.93147" lon="6.57854">
        <ele>1551.1</ele>
        <time>2022-08-05T08:41:02+0200</time>
      </trkpt>
      <trkpt lat="44.93143" lon="6.5787">
        <ele>1549.7</ele>
        <time>2022-08-05T08:41:03+0200</time>
      </trkpt>
      <trkpt lat="44.93138" lon="6.57882">
        <ele>1549.5</ele>
        <time>2022-08-05T08:41:04+0200</time>
      </trkpt>
      <trkpt lat="44.93133" lon="6.57893">
        <ele>1549.6</ele>
        <time>2022-08-05T08:41:05+0200</time>
      </trkpt>
      <trkpt lat="44.93128" lon="6.57903">
        <ele>1549.7</ele>
        <time>2022-08-05T08:41:06+0200</time>
      </trkpt>
      <trkpt lat="44.93124" lon="6.57912">
        <ele>1549.7</ele>
        <time>2022-08-05T08:41:07+0200</time>
      </trkpt>
      <trkpt lat="44.93119" lon="6.57923">
        <ele>1549.6</ele>
        <time>2022-08-05T08:41:08+0200</time>
      </trkpt>
      <trkpt lat="44.93114" lon="6.57936">
        <ele>1549.6</ele>
        <time>2022-08-05T08:41:09+0200</time>
      </trkpt>
      <trkpt lat="44.93109" lon="6.57946">
        <ele>1549.4</ele>
        <time>2022-08-05T08:41:10+0200</time>
      </trkpt>
      <trkpt lat="44.93105" lon="6.57956">
        <ele>1549.1</ele>
        <time>2022-08-05T08:41:11+0200</time>
      </trkpt>
      <trkpt lat="44.93102" lon="6.57966">
        <ele>1548.6</ele>
        <time>2022-08-05T08:41:12+0200</time>
      </trkpt>
      <trkpt lat="44.93101" lon="6.57978">
        <ele>1547.2</ele>
        <time>2022-08-05T08:41:13+0200</time>
      </trkpt>
      <trkpt lat="44.931" lon="6.57984">
        <ele>1546.4</ele>
        <time>2022-08-05T08:41:14+0200</time>
      </trkpt>
      <trkpt lat="44.93098" lon="6.57999">
        <ele>1544.3</ele>
        <time>2022-08-05T08:41:15+0200</time>
      </trkpt>
      <trkpt lat="44.93095" lon="6.58021">
        <ele>1541.1</ele>
        <time>2022-08-05T08:41:16+0200</time>
      </trkpt>
      <trkpt lat="44.93092" lon="6.5804">
        <ele>1538.4</ele>
        <time>2022-08-05T08:41:17+0200</time>
      </trkpt>
      <trkpt lat="44.93084" lon="6.58066">
        <ele>1535.1</ele>
        <time>2022-08-05T08:41:18+0200</time>
      </trkpt>
      <trkpt lat="44.93076" lon="6.5808">
        <ele>1534.2</ele>
        <time>2022-08-05T08:41:19+0200</time>
      </trkpt>
      <trkpt lat="44.93069" lon="6.58091">
        <ele>1533.7</ele>
        <time>2022-08-05T08:41:20+0200</time>
      </trkpt>
      <trkpt lat="44.93064" lon="6.58099">
        <ele>1533.5</ele>
        <time>2022-08-05T08:41:21+0200</time>
      </trkpt>
      <trkpt lat="44.93061" lon="6.58104">
        <ele>1533.3</ele>
        <time>2022-08-05T08:41:22+0200</time>
      </trkpt>
      <trkpt lat="44.93055" lon="6.58111">
        <ele>1533.2</ele>
        <time>2022-08-05T08:41:24+0200</time>
      </trkpt>
      <trkpt lat="44.93051" lon="6.58117">
        <ele>1532.9</ele>
        <time>2022-08-05T08:41:25+0200</time>
      </trkpt>
      <trkpt lat="44.93047" lon="6.58121">
        <ele>1532.7</ele>
        <time>2022-08-05T08:41:26+0200</time>
      </trkpt>
      <trkpt lat="44.93042" lon="6.58126">
        <ele>1532.4</ele>
        <time>2022-08-05T08:41:27+0200</time>
      </trkpt>
      <trkpt lat="44.93039" lon="6.58131">
        <ele>1532.1</ele>
        <time>2022-08-05T08:41:28+0200</time>
      </trkpt>
      <trkpt lat="44.93034" lon="6.58138">
        <ele>1531.5</ele>
        <time>2022-08-05T08:41:30+0200</time>
      </trkpt>
      <trkpt lat="44.93029" lon="6.58145">
        <ele>1531.2</ele>
        <time>2022-08-05T08:41:32+0200</time>
      </trkpt>
      <trkpt lat="44.93025" lon="6.58151">
        <ele>1531.2</ele>
        <time>2022-08-05T08:41:34+0200</time>
      </trkpt>
      <trkpt lat="44.9302" lon="6.58158">
        <ele>1531.2</ele>
        <time>2022-08-05T08:41:37+0200</time>
      </trkpt>
      <trkpt lat="44.93016" lon="6.58168">
        <ele>1530.3</ele>
        <time>2022-08-05T08:41:39+0200</time>
      </trkpt>
      <trkpt lat="44.93013" lon="6.58178">
        <ele>1528.9</ele>
        <time>2022-08-05T08:41:41+0200</time>
      </trkpt>
      <trkpt lat="44.93012" lon="6.58185">
        <ele>1527.7</ele>
        <time>2022-08-05T08:41:42+0200</time>
      </trkpt>
      <trkpt lat="44.9301" lon="6.58192">
        <ele>1526.7</ele>
        <time>2022-08-05T08:41:43+0200</time>
      </trkpt>
      <trkpt lat="44.93007" lon="6.58201">
        <ele>1525.3</ele>
        <time>2022-08-05T08:41:44+0200</time>
      </trkpt>
      <trkpt lat="44.93004" lon="6.5821">
        <ele>1524.1</ele>
        <time>2022-08-05T08:41:45+0200</time>
      </trkpt>
      <trkpt lat="44.93002" lon="6.58218">
        <ele>1522.8</ele>
        <time>2022-08-05T08:41:46+0200</time>
      </trkpt>
      <trkpt lat="44.92999" lon="6.58226">
        <ele>1521.1</ele>
        <time>2022-08-05T08:41:47+0200</time>
      </trkpt>
      <trkpt lat="44.92996" lon="6.58235">
        <ele>1520.1</ele>
        <time>2022-08-05T08:41:48+0200</time>
      </trkpt>
      <trkpt lat="44.92991" lon="6.58242">
        <ele>1519.4</ele>
        <time>2022-08-05T08:41:49+0200</time>
      </trkpt>
      <trkpt lat="44.92988" lon="6.58249">
        <ele>1518.6</ele>
        <time>2022-08-05T08:41:50+0200</time>
      </trkpt>
      <trkpt lat="44.92982" lon="6.58257">
        <ele>1518.5</ele>
        <time>2022-08-05T08:41:51+0200</time>
      </trkpt>
      <trkpt lat="44.92978" lon="6.58265">
        <ele>1518</ele>
        <time>2022-08-05T08:41:52+0200</time>
      </trkpt>
      <trkpt lat="44.92973" lon="6.58274">
        <ele>1517.1</ele>
        <time>2022-08-05T08:41:53+0200</time>
      </trkpt>
      <trkpt lat="44.92968" lon="6.58284">
        <ele>1515.8</ele>
        <time>2022-08-05T08:41:54+0200</time>
      </trkpt>
      <trkpt lat="44.92965" lon="6.58289">
        <ele>1515.6</ele>
        <time>2022-08-05T08:41:55+0200</time>
      </trkpt>
      <trkpt lat="44.9296" lon="6.58295">
        <ele>1515.4</ele>
        <time>2022-08-05T08:41:56+0200</time>
      </trkpt>
      <trkpt lat="44.92957" lon="6.58303">
        <ele>1514</ele>
        <time>2022-08-05T08:41:58+0200</time>
      </trkpt>
      <trkpt lat="44.92953" lon="6.58311">
        <ele>1513</ele>
        <time>2022-08-05T08:42:00+0200</time>
      </trkpt>
      <trkpt lat="44.92949" lon="6.58326">
        <ele>1509.9</ele>
        <time>2022-08-05T08:42:01+0200</time>
      </trkpt>
      <trkpt lat="44.92961" lon="6.58336">
        <ele>1505.5</ele>
        <time>2022-08-05T08:42:02+0200</time>
      </trkpt>
      <trkpt lat="44.92972" lon="6.58334">
        <ele>1503.8</ele>
        <time>2022-08-05T08:42:04+0200</time>
      </trkpt>
      <trkpt lat="44.9298" lon="6.58331">
        <ele>1502.6</ele>
        <time>2022-08-05T08:42:05+0200</time>
      </trkpt>
      <trkpt lat="44.92986" lon="6.58326">
        <ele>1501.8</ele>
        <time>2022-08-05T08:42:06+0200</time>
      </trkpt>
      <trkpt lat="44.92993" lon="6.58319">
        <ele>1501.6</ele>
        <time>2022-08-05T08:42:07+0200</time>
      </trkpt>
      <trkpt lat="44.92999" lon="6.58311">
        <ele>1501.5</ele>
        <time>2022-08-05T08:42:08+0200</time>
      </trkpt>
      <trkpt lat="44.93004" lon="6.583">
        <ele>1502.1</ele>
        <time>2022-08-05T08:42:09+0200</time>
      </trkpt>
      <trkpt lat="44.93013" lon="6.58289">
        <ele>1502.1</ele>
        <time>2022-08-05T08:42:10+0200</time>
      </trkpt>
      <trkpt lat="44.93021" lon="6.58281">
        <ele>1501.4</ele>
        <time>2022-08-05T08:42:11+0200</time>
      </trkpt>
      <trkpt lat="44.93032" lon="6.58276">
        <ele>1499.2</ele>
        <time>2022-08-05T08:42:12+0200</time>
      </trkpt>
      <trkpt lat="44.93043" lon="6.58268">
        <ele>1497.7</ele>
        <time>2022-08-05T08:42:13+0200</time>
      </trkpt>
      <trkpt lat="44.93053" lon="6.58261">
        <ele>1496.2</ele>
        <time>2022-08-05T08:42:14+0200</time>
      </trkpt>
      <trkpt lat="44.93063" lon="6.58256">
        <ele>1494.7</ele>
        <time>2022-08-05T08:42:15+0200</time>
      </trkpt>
      <trkpt lat="44.93071" lon="6.5825">
        <ele>1493.5</ele>
        <time>2022-08-05T08:42:16+0200</time>
      </trkpt>
      <trkpt lat="44.93079" lon="6.58245">
        <ele>1492.4</ele>
        <time>2022-08-05T08:42:17+0200</time>
      </trkpt>
      <trkpt lat="44.93087" lon="6.58239">
        <ele>1491.4</ele>
        <time>2022-08-05T08:42:18+0200</time>
      </trkpt>
      <trkpt lat="44.93095" lon="6.58233">
        <ele>1490.1</ele>
        <time>2022-08-05T08:42:19+0200</time>
      </trkpt>
      <trkpt lat="44.93103" lon="6.58227">
        <ele>1489.3</ele>
        <time>2022-08-05T08:42:20+0200</time>
      </trkpt>
      <trkpt lat="44.93112" lon="6.5822">
        <ele>1488</ele>
        <time>2022-08-05T08:42:21+0200</time>
      </trkpt>
      <trkpt lat="44.93121" lon="6.58214">
        <ele>1486.4</ele>
        <time>2022-08-05T08:42:22+0200</time>
      </trkpt>
      <trkpt lat="44.93132" lon="6.58206">
        <ele>1484.6</ele>
        <time>2022-08-05T08:42:23+0200</time>
      </trkpt>
      <trkpt lat="44.93142" lon="6.58199">
        <ele>1482.7</ele>
        <time>2022-08-05T08:42:24+0200</time>
      </trkpt>
      <trkpt lat="44.93151" lon="6.58191">
        <ele>1480.9</ele>
        <time>2022-08-05T08:42:25+0200</time>
      </trkpt>
      <trkpt lat="44.93161" lon="6.58185">
        <ele>1478.4</ele>
        <time>2022-08-05T08:42:26+0200</time>
      </trkpt>
      <trkpt lat="44.93167" lon="6.5818">
        <ele>1477.1</ele>
        <time>2022-08-05T08:42:27+0200</time>
      </trkpt>
      <trkpt lat="44.93173" lon="6.58173">
        <ele>1475.7</ele>
        <time>2022-08-05T08:42:28+0200</time>
      </trkpt>
      <trkpt lat="44.93179" lon="6.58162">
        <ele>1475.4</ele>
        <time>2022-08-05T08:42:29+0200</time>
      </trkpt>
      <trkpt lat="44.93183" lon="6.58151">
        <ele>1475.9</ele>
        <time>2022-08-05T08:42:30+0200</time>
      </trkpt>
      <trkpt lat="44.93189" lon="6.5814">
        <ele>1475.5</ele>
        <time>2022-08-05T08:42:31+0200</time>
      </trkpt>
      <trkpt lat="44.93195" lon="6.58127">
        <ele>1475.7</ele>
        <time>2022-08-05T08:42:32+0200</time>
      </trkpt>
      <trkpt lat="44.93201" lon="6.58116">
        <ele>1475.7</ele>
        <time>2022-08-05T08:42:33+0200</time>
      </trkpt>
      <trkpt lat="44.93207" lon="6.58102">
        <ele>1475.6</ele>
        <time>2022-08-05T08:42:34+0200</time>
      </trkpt>
      <trkpt lat="44.93215" lon="6.58088">
        <ele>1474.9</ele>
        <time>2022-08-05T08:42:35+0200</time>
      </trkpt>
      <trkpt lat="44.93222" lon="6.58075">
        <ele>1474.4</ele>
        <time>2022-08-05T08:42:36+0200</time>
      </trkpt>
      <trkpt lat="44.9323" lon="6.58063">
        <ele>1473.5</ele>
        <time>2022-08-05T08:42:37+0200</time>
      </trkpt>
      <trkpt lat="44.93238" lon="6.58051">
        <ele>1472.3</ele>
        <time>2022-08-05T08:42:38+0200</time>
      </trkpt>
      <trkpt lat="44.93246" lon="6.5804">
        <ele>1470.8</ele>
        <time>2022-08-05T08:42:39+0200</time>
      </trkpt>
      <trkpt lat="44.93255" lon="6.58031">
        <ele>1468.7</ele>
        <time>2022-08-05T08:42:40+0200</time>
      </trkpt>
      <trkpt lat="44.93262" lon="6.58021">
        <ele>1468.2</ele>
        <time>2022-08-05T08:42:41+0200</time>
      </trkpt>
      <trkpt lat="44.93271" lon="6.58013">
        <ele>1465.8</ele>
        <time>2022-08-05T08:42:42+0200</time>
      </trkpt>
      <trkpt lat="44.93282" lon="6.58007">
        <ele>1462.1</ele>
        <time>2022-08-05T08:42:43+0200</time>
      </trkpt>
      <trkpt lat="44.9329" lon="6.57997">
        <ele>1461.2</ele>
        <time>2022-08-05T08:42:44+0200</time>
      </trkpt>
      <trkpt lat="44.93298" lon="6.57985">
        <ele>1461</ele>
        <time>2022-08-05T08:42:45+0200</time>
      </trkpt>
      <trkpt lat="44.93304" lon="6.57973">
        <ele>1461.6</ele>
        <time>2022-08-05T08:42:46+0200</time>
      </trkpt>
      <trkpt lat="44.93313" lon="6.57962">
        <ele>1460.3</ele>
        <time>2022-08-05T08:42:47+0200</time>
      </trkpt>
      <trkpt lat="44.93322" lon="6.57955">
        <ele>1458.5</ele>
        <time>2022-08-05T08:42:48+0200</time>
      </trkpt>
      <trkpt lat="44.9333" lon="6.57945">
        <ele>1457.2</ele>
        <time>2022-08-05T08:42:49+0200</time>
      </trkpt>
      <trkpt lat="44.93341" lon="6.57936">
        <ele>1454.7</ele>
        <time>2022-08-05T08:42:50+0200</time>
      </trkpt>
      <trkpt lat="44.9335" lon="6.57927">
        <ele>1452.5</ele>
        <time>2022-08-05T08:42:51+0200</time>
      </trkpt>
      <trkpt lat="44.93357" lon="6.57918">
        <ele>1450.8</ele>
        <time>2022-08-05T08:42:52+0200</time>
      </trkpt>
      <trkpt lat="44.93365" lon="6.57907">
        <ele>1449.4</ele>
        <time>2022-08-05T08:42:53+0200</time>
      </trkpt>
      <trkpt lat="44.93373" lon="6.57897">
        <ele>1448.1</ele>
        <time>2022-08-05T08:42:54+0200</time>
      </trkpt>
      <trkpt lat="44.93379" lon="6.5789">
        <ele>1446.7</ele>
        <time>2022-08-05T08:42:55+0200</time>
      </trkpt>
      <trkpt lat="44.93384" lon="6.57886">
        <ele>1444.6</ele>
        <time>2022-08-05T08:42:56+0200</time>
      </trkpt>
      <trkpt lat="44.9339" lon="6.57882">
        <ele>1443</ele>
        <time>2022-08-05T08:42:57+0200</time>
      </trkpt>
      <trkpt lat="44.93394" lon="6.57878">
        <ele>1441.9</ele>
        <time>2022-08-05T08:42:58+0200</time>
      </trkpt>
      <trkpt lat="44.93396" lon="6.57866">
        <ele>1443</ele>
        <time>2022-08-05T08:43:00+0200</time>
      </trkpt>
      <trkpt lat="44.93394" lon="6.5786">
        <ele>1445.1</ele>
        <time>2022-08-05T08:43:01+0200</time>
      </trkpt>
      <trkpt lat="44.93394" lon="6.57851">
        <ele>1446.7</ele>
        <time>2022-08-05T08:43:02+0200</time>
      </trkpt>
      <trkpt lat="44.93397" lon="6.57844">
        <ele>1446.5</ele>
        <time>2022-08-05T08:43:03+0200</time>
      </trkpt>
      <trkpt lat="44.93402" lon="6.57838">
        <ele>1445.2</ele>
        <time>2022-08-05T08:43:04+0200</time>
      </trkpt>
      <trkpt lat="44.93407" lon="6.57833">
        <ele>1443.6</ele>
        <time>2022-08-05T08:43:05+0200</time>
      </trkpt>
      <trkpt lat="44.93412" lon="6.57825">
        <ele>1442.8</ele>
        <time>2022-08-05T08:43:06+0200</time>
      </trkpt>
      <trkpt lat="44.93413" lon="6.57816">
        <ele>1444.1</ele>
        <time>2022-08-05T08:43:07+0200</time>
      </trkpt>
      <trkpt lat="44.93413" lon="6.57805">
        <ele>1445.9</ele>
        <time>2022-08-05T08:43:08+0200</time>
      </trkpt>
      <trkpt lat="44.93415" lon="6.57798">
        <ele>1445.8</ele>
        <time>2022-08-05T08:43:09+0200</time>
      </trkpt>
      <trkpt lat="44.93418" lon="6.57792">
        <ele>1445.3</ele>
        <time>2022-08-05T08:43:10+0200</time>
      </trkpt>
      <trkpt lat="44.93426" lon="6.57801">
        <ele>1440.1</ele>
        <time>2022-08-05T08:43:12+0200</time>
      </trkpt>
      <trkpt lat="44.9342" lon="6.57818">
        <ele>1440.1</ele>
        <time>2022-08-05T08:43:15+0200</time>
      </trkpt>
      <trkpt lat="44.93418" lon="6.57825">
        <ele>1440.1</ele>
        <time>2022-08-05T08:43:16+0200</time>
      </trkpt>
      <trkpt lat="44.93417" lon="6.57832">
        <ele>1439.4</ele>
        <time>2022-08-05T08:43:17+0200</time>
      </trkpt>
      <trkpt lat="44.93416" lon="6.5784">
        <ele>1438.3</ele>
        <time>2022-08-05T08:43:18+0200</time>
      </trkpt>
      <trkpt lat="44.93417" lon="6.57851">
        <ele>1436.3</ele>
        <time>2022-08-05T08:43:19+0200</time>
      </trkpt>
      <trkpt lat="44.93418" lon="6.57861">
        <ele>1434.6</ele>
        <time>2022-08-05T08:43:20+0200</time>
      </trkpt>
      <trkpt lat="44.93417" lon="6.57873">
        <ele>1433.2</ele>
        <time>2022-08-05T08:43:21+0200</time>
      </trkpt>
      <trkpt lat="44.93416" lon="6.57881">
        <ele>1432.3</ele>
        <time>2022-08-05T08:43:22+0200</time>
      </trkpt>
      <trkpt lat="44.93417" lon="6.57895">
        <ele>1430.4</ele>
        <time>2022-08-05T08:43:24+0200</time>
      </trkpt>
      <trkpt lat="44.93416" lon="6.57902">
        <ele>1429.8</ele>
        <time>2022-08-05T08:43:25+0200</time>
      </trkpt>
      <trkpt lat="44.93416" lon="6.57909">
        <ele>1429.2</ele>
        <time>2022-08-05T08:43:26+0200</time>
      </trkpt>
      <trkpt lat="44.93415" lon="6.57917">
        <ele>1428.4</ele>
        <time>2022-08-05T08:43:27+0200</time>
      </trkpt>
      <trkpt lat="44.93416" lon="6.57928">
        <ele>1426.5</ele>
        <time>2022-08-05T08:43:28+0200</time>
      </trkpt>
      <trkpt lat="44.93419" lon="6.57942">
        <ele>1423.6</ele>
        <time>2022-08-05T08:43:29+0200</time>
      </trkpt>
      <trkpt lat="44.93425" lon="6.57969">
        <ele>1418.4</ele>
        <time>2022-08-05T08:43:30+0200</time>
      </trkpt>
      <trkpt lat="44.93414" lon="6.57985">
        <ele>1418.9</ele>
        <time>2022-08-05T08:43:31+0200</time>
      </trkpt>
      <trkpt lat="44.93408" lon="6.57993">
        <ele>1419.3</ele>
        <time>2022-08-05T08:43:32+0200</time>
      </trkpt>
      <trkpt lat="44.93403" lon="6.57999">
        <ele>1419.6</ele>
        <time>2022-08-05T08:43:33+0200</time>
      </trkpt>
      <trkpt lat="44.93397" lon="6.58006">
        <ele>1420.2</ele>
        <time>2022-08-05T08:43:34+0200</time>
      </trkpt>
      <trkpt lat="44.93394" lon="6.58011">
        <ele>1420.4</ele>
        <time>2022-08-05T08:43:35+0200</time>
      </trkpt>
      <trkpt lat="44.93391" lon="6.58019">
        <ele>1420.3</ele>
        <time>2022-08-05T08:43:36+0200</time>
      </trkpt>
      <trkpt lat="44.93389" lon="6.58032">
        <ele>1419.4</ele>
        <time>2022-08-05T08:43:37+0200</time>
      </trkpt>
      <trkpt lat="44.93388" lon="6.58048">
        <ele>1418</ele>
        <time>2022-08-05T08:43:38+0200</time>
      </trkpt>
      <trkpt lat="44.93387" lon="6.58064">
        <ele>1416.3</ele>
        <time>2022-08-05T08:43:39+0200</time>
      </trkpt>
      <trkpt lat="44.93383" lon="6.58078">
        <ele>1415.1</ele>
        <time>2022-08-05T08:43:40+0200</time>
      </trkpt>
      <trkpt lat="44.93378" lon="6.58091">
        <ele>1414.6</ele>
        <time>2022-08-05T08:43:41+0200</time>
      </trkpt>
      <trkpt lat="44.93374" lon="6.58102">
        <ele>1414.3</ele>
        <time>2022-08-05T08:43:42+0200</time>
      </trkpt>
      <trkpt lat="44.93369" lon="6.58114">
        <ele>1413.9</ele>
        <time>2022-08-05T08:43:43+0200</time>
      </trkpt>
      <trkpt lat="44.93365" lon="6.58125">
        <ele>1413.2</ele>
        <time>2022-08-05T08:43:44+0200</time>
      </trkpt>
      <trkpt lat="44.93361" lon="6.58135">
        <ele>1412.6</ele>
        <time>2022-08-05T08:43:45+0200</time>
      </trkpt>
      <trkpt lat="44.93357" lon="6.58142">
        <ele>1412.4</ele>
        <time>2022-08-05T08:43:46+0200</time>
      </trkpt>
      <trkpt lat="44.93356" lon="6.58149">
        <ele>1411.6</ele>
        <time>2022-08-05T08:43:47+0200</time>
      </trkpt>
      <trkpt lat="44.93353" lon="6.58155">
        <ele>1411.6</ele>
        <time>2022-08-05T08:43:48+0200</time>
      </trkpt>
      <trkpt lat="44.93351" lon="6.58167">
        <ele>1410.5</ele>
        <time>2022-08-05T08:43:49+0200</time>
      </trkpt>
      <trkpt lat="44.9335" lon="6.5818">
        <ele>1409.6</ele>
        <time>2022-08-05T08:43:50+0200</time>
      </trkpt>
      <trkpt lat="44.93351" lon="6.58193">
        <ele>1408.4</ele>
        <time>2022-08-05T08:43:51+0200</time>
      </trkpt>
      <trkpt lat="44.9335" lon="6.58206">
        <ele>1407.4</ele>
        <time>2022-08-05T08:43:52+0200</time>
      </trkpt>
      <trkpt lat="44.93349" lon="6.5822">
        <ele>1406.4</ele>
        <time>2022-08-05T08:43:53+0200</time>
      </trkpt>
      <trkpt lat="44.93348" lon="6.58236">
        <ele>1405</ele>
        <time>2022-08-05T08:43:54+0200</time>
      </trkpt>
      <trkpt lat="44.93346" lon="6.58251">
        <ele>1403.6</ele>
        <time>2022-08-05T08:43:55+0200</time>
      </trkpt>
      <trkpt lat="44.93345" lon="6.58265">
        <ele>1401.7</ele>
        <time>2022-08-05T08:43:56+0200</time>
      </trkpt>
      <trkpt lat="44.93342" lon="6.58278">
        <ele>1400.4</ele>
        <time>2022-08-05T08:43:57+0200</time>
      </trkpt>
      <trkpt lat="44.93338" lon="6.5829">
        <ele>1398.6</ele>
        <time>2022-08-05T08:43:58+0200</time>
      </trkpt>
      <trkpt lat="44.93332" lon="6.58298">
        <ele>1397.9</ele>
        <time>2022-08-05T08:43:59+0200</time>
      </trkpt>
      <trkpt lat="44.93324" lon="6.58304">
        <ele>1398.6</ele>
        <time>2022-08-05T08:44:00+0200</time>
      </trkpt>
      <trkpt lat="44.93318" lon="6.58312">
        <ele>1398.8</ele>
        <time>2022-08-05T08:44:01+0200</time>
      </trkpt>
      <trkpt lat="44.93314" lon="6.58323">
        <ele>1397.4</ele>
        <time>2022-08-05T08:44:02+0200</time>
      </trkpt>
      <trkpt lat="44.9331" lon="6.58333">
        <ele>1396.3</ele>
        <time>2022-08-05T08:44:03+0200</time>
      </trkpt>
      <trkpt lat="44.93305" lon="6.58345">
        <ele>1395.2</ele>
        <time>2022-08-05T08:44:04+0200</time>
      </trkpt>
      <trkpt lat="44.93303" lon="6.58359">
        <ele>1393.2</ele>
        <time>2022-08-05T08:44:05+0200</time>
      </trkpt>
      <trkpt lat="44.93301" lon="6.58371">
        <ele>1392</ele>
        <time>2022-08-05T08:44:06+0200</time>
      </trkpt>
      <trkpt lat="44.93302" lon="6.58383">
        <ele>1389.9</ele>
        <time>2022-08-05T08:44:07+0200</time>
      </trkpt>
      <trkpt lat="44.93308" lon="6.58391">
        <ele>1387.1</ele>
        <time>2022-08-05T08:44:08+0200</time>
      </trkpt>
      <trkpt lat="44.93309" lon="6.58401">
        <ele>1385.5</ele>
        <time>2022-08-05T08:44:10+0200</time>
      </trkpt>
      <trkpt lat="44.93306" lon="6.58413">
        <ele>1384.4</ele>
        <time>2022-08-05T08:44:12+0200</time>
      </trkpt>
      <trkpt lat="44.93303" lon="6.58421">
        <ele>1383.9</ele>
        <time>2022-08-05T08:44:14+0200</time>
      </trkpt>
      <trkpt lat="44.93299" lon="6.58428">
        <ele>1383.5</ele>
        <time>2022-08-05T08:44:16+0200</time>
      </trkpt>
      <trkpt lat="44.93293" lon="6.58438">
        <ele>1382.9</ele>
        <time>2022-08-05T08:44:18+0200</time>
      </trkpt>
      <trkpt lat="44.93286" lon="6.58439">
        <ele>1384.2</ele>
        <time>2022-08-05T08:44:20+0200</time>
      </trkpt>
      <trkpt lat="44.93282" lon="6.58451">
        <ele>1382.8</ele>
        <time>2022-08-05T08:44:22+0200</time>
      </trkpt>
      <trkpt lat="44.9328" lon="6.58457">
        <ele>1382.2</ele>
        <time>2022-08-05T08:44:23+0200</time>
      </trkpt>
      <trkpt lat="44.93275" lon="6.58471">
        <ele>1380.8</ele>
        <time>2022-08-05T08:44:25+0200</time>
      </trkpt>
      <trkpt lat="44.9327" lon="6.58477">
        <ele>1380.8</ele>
        <time>2022-08-05T08:44:26+0200</time>
      </trkpt>
      <trkpt lat="44.93265" lon="6.58485">
        <ele>1380.1</ele>
        <time>2022-08-05T08:44:27+0200</time>
      </trkpt>
      <trkpt lat="44.93259" lon="6.58493">
        <ele>1379.6</ele>
        <time>2022-08-05T08:44:28+0200</time>
      </trkpt>
      <trkpt lat="44.9326" lon="6.58513">
        <ele>1374.2</ele>
        <time>2022-08-05T08:44:29+0200</time>
      </trkpt>
      <trkpt lat="44.93251" lon="6.58523">
        <ele>1374</ele>
        <time>2022-08-05T08:44:30+0200</time>
      </trkpt>
      <trkpt lat="44.93242" lon="6.5853">
        <ele>1374.1</ele>
        <time>2022-08-05T08:44:31+0200</time>
      </trkpt>
      <trkpt lat="44.93234" lon="6.58537">
        <ele>1374</ele>
        <time>2022-08-05T08:44:32+0200</time>
      </trkpt>
      <trkpt lat="44.93228" lon="6.58542">
        <ele>1374</ele>
        <time>2022-08-05T08:44:33+0200</time>
      </trkpt>
      <trkpt lat="44.93222" lon="6.58548">
        <ele>1373.9</ele>
        <time>2022-08-05T08:44:34+0200</time>
      </trkpt>
      <trkpt lat="44.93218" lon="6.58552">
        <ele>1373.5</ele>
        <time>2022-08-05T08:44:35+0200</time>
      </trkpt>
      <trkpt lat="44.93212" lon="6.58563">
        <ele>1372.3</ele>
        <time>2022-08-05T08:44:37+0200</time>
      </trkpt>
      <trkpt lat="44.93208" lon="6.58568">
        <ele>1371.5</ele>
        <time>2022-08-05T08:44:38+0200</time>
      </trkpt>
      <trkpt lat="44.93205" lon="6.58575">
        <ele>1370.7</ele>
        <time>2022-08-05T08:44:39+0200</time>
      </trkpt>
      <trkpt lat="44.93203" lon="6.5858">
        <ele>1369.9</ele>
        <time>2022-08-05T08:44:40+0200</time>
      </trkpt>
      <trkpt lat="44.93199" lon="6.58588">
        <ele>1369.2</ele>
        <time>2022-08-05T08:44:42+0200</time>
      </trkpt>
      <trkpt lat="44.93198" lon="6.58595">
        <ele>1368.2</ele>
        <time>2022-08-05T08:44:43+0200</time>
      </trkpt>
      <trkpt lat="44.93195" lon="6.58605">
        <ele>1367</ele>
        <time>2022-08-05T08:44:45+0200</time>
      </trkpt>
      <trkpt lat="44.93194" lon="6.58612">
        <ele>1366.1</ele>
        <time>2022-08-05T08:44:47+0200</time>
      </trkpt>
      <trkpt lat="44.93194" lon="6.58621">
        <ele>1364.5</ele>
        <time>2022-08-05T08:44:50+0200</time>
      </trkpt>
      <trkpt lat="44.93191" lon="6.58626">
        <ele>1364.2</ele>
        <time>2022-08-05T08:44:52+0200</time>
      </trkpt>
      <trkpt lat="44.93188" lon="6.58634">
        <ele>1363.6</ele>
        <time>2022-08-05T08:44:54+0200</time>
      </trkpt>
      <trkpt lat="44.93186" lon="6.58644">
        <ele>1362.4</ele>
        <time>2022-08-05T08:44:56+0200</time>
      </trkpt>
      <trkpt lat="44.93178" lon="6.58649">
        <ele>1363.2</ele>
        <time>2022-08-05T08:44:58+0200</time>
      </trkpt>
      <trkpt lat="44.93173" lon="6.58656">
        <ele>1363.3</ele>
        <time>2022-08-05T08:45:00+0200</time>
      </trkpt>
      <trkpt lat="44.93169" lon="6.58658">
        <ele>1364</ele>
        <time>2022-08-05T08:45:01+0200</time>
      </trkpt>
      <trkpt lat="44.93159" lon="6.58664">
        <ele>1365.4</ele>
        <time>2022-08-05T08:45:03+0200</time>
      </trkpt>
      <trkpt lat="44.93152" lon="6.58672">
        <ele>1365.6</ele>
        <time>2022-08-05T08:45:04+0200</time>
      </trkpt>
      <trkpt lat="44.93149" lon="6.58679">
        <ele>1364.8</ele>
        <time>2022-08-05T08:45:06+0200</time>
      </trkpt>
      <trkpt lat="44.93148" lon="6.58685">
        <ele>1364</ele>
        <time>2022-08-05T08:45:07+0200</time>
      </trkpt>
      <trkpt lat="44.93146" lon="6.58693">
        <ele>1362.5</ele>
        <time>2022-08-05T08:45:09+0200</time>
      </trkpt>
      <trkpt lat="44.93151" lon="6.58698">
        <ele>1360.3</ele>
        <time>2022-08-05T08:45:16+0200</time>
      </trkpt>
      <trkpt lat="44.93157" lon="6.58695">
        <ele>1359.5</ele>
        <time>2022-08-05T08:45:18+0200</time>
      </trkpt>
      <trkpt lat="44.93166" lon="6.58695">
        <ele>1357</ele>
        <time>2022-08-05T08:45:20+0200</time>
      </trkpt>
      <trkpt lat="44.93174" lon="6.58697">
        <ele>1355.3</ele>
        <time>2022-08-05T08:45:22+0200</time>
      </trkpt>
      <trkpt lat="44.93178" lon="6.58694">
        <ele>1355</ele>
        <time>2022-08-05T08:45:23+0200</time>
      </trkpt>
      <trkpt lat="44.93185" lon="6.5869">
        <ele>1354.5</ele>
        <time>2022-08-05T08:45:25+0200</time>
      </trkpt>
      <trkpt lat="44.93191" lon="6.58687">
        <ele>1353.8</ele>
        <time>2022-08-05T08:45:26+0200</time>
      </trkpt>
      <trkpt lat="44.93196" lon="6.58684">
        <ele>1353.3</ele>
        <time>2022-08-05T08:45:27+0200</time>
      </trkpt>
      <trkpt lat="44.93202" lon="6.58681">
        <ele>1352.9</ele>
        <time>2022-08-05T08:45:28+0200</time>
      </trkpt>
      <trkpt lat="44.93207" lon="6.58679">
        <ele>1352.5</ele>
        <time>2022-08-05T08:45:29+0200</time>
      </trkpt>
      <trkpt lat="44.93212" lon="6.58676">
        <ele>1351.9</ele>
        <time>2022-08-05T08:45:31+0200</time>
      </trkpt>
      <trkpt lat="44.93219" lon="6.58679">
        <ele>1350.6</ele>
        <time>2022-08-05T08:45:34+0200</time>
      </trkpt>
      <trkpt lat="44.93221" lon="6.58673">
        <ele>1350.7</ele>
        <time>2022-08-05T08:45:37+0200</time>
      </trkpt>
      <trkpt lat="44.93223" lon="6.58667">
        <ele>1350.9</ele>
        <time>2022-08-05T08:45:40+0200</time>
      </trkpt>
      <trkpt lat="44.93223" lon="6.58661">
        <ele>1351.8</ele>
        <time>2022-08-05T08:48:22+0200</time>
      </trkpt>
      <trkpt lat="44.93224" lon="6.58669">
        <ele>1350.8</ele>
        <time>2022-08-05T08:48:44+0200</time>
      </trkpt>
      <trkpt lat="44.93228" lon="6.58673">
        <ele>1350.5</ele>
        <time>2022-08-05T08:48:45+0200</time>
      </trkpt>
    </trkseg>
  </trk>
</gpx>